<?xml version="1.0" encoding="UTF-8" standalone="no" ?>
<gpx xmlns="http://www.topografix.com/GPX/1/1" xmlns:xsi="http://www.w3.org/2001/XMLSchema-instance" xsi:schemaLocation="http://www.topografix.com/GPX/1/1 http://www.topografix.com/GPX/1/1/gpx.xsd" version="1.1" creator="VisuGPX - https://www.visugpx.com">
  <metadata>
    <name>Tour Aiguilles Argentière</name>
  </metadata>
  <trk>
    <name><![CDATA[Tour des aiguilles de l’argentiere]]></name>
    <trkseg>
      <trkpt lat="45.25386" lon="6.18701">
        <ele>1568.2</ele>
        <time>2019-05-01T05:33:21Z</time>
      </trkpt>
      <trkpt lat="45.25388" lon="6.18705">
        <ele>1568.3</ele>
        <time>2019-05-01T05:33:37Z</time>
      </trkpt>
      <trkpt lat="45.25385" lon="6.18706">
        <ele>1568.3</ele>
        <time>2019-05-01T05:34:09Z</time>
      </trkpt>
      <trkpt lat="45.25387" lon="6.18702">
        <ele>1568.5</ele>
        <time>2019-05-01T05:34:30Z</time>
      </trkpt>
      <trkpt lat="45.25384" lon="6.187">
        <ele>1568.6</ele>
        <time>2019-05-01T05:34:33Z</time>
      </trkpt>
      <trkpt lat="45.25381" lon="6.18699">
        <ele>1568.6</ele>
        <time>2019-05-01T05:34:37Z</time>
      </trkpt>
      <trkpt lat="45.25378" lon="6.187">
        <ele>1568.7</ele>
        <time>2019-05-01T05:34:41Z</time>
      </trkpt>
      <trkpt lat="45.25375" lon="6.18698">
        <ele>1568.8</ele>
        <time>2019-05-01T05:34:45Z</time>
      </trkpt>
      <trkpt lat="45.25373" lon="6.18699">
        <ele>1568.9</ele>
        <time>2019-05-01T05:34:52Z</time>
      </trkpt>
      <trkpt lat="45.2537" lon="6.18697">
        <ele>1568.9</ele>
        <time>2019-05-01T05:34:57Z</time>
      </trkpt>
      <trkpt lat="45.25367" lon="6.18694">
        <ele>1569</ele>
        <time>2019-05-01T05:35:00Z</time>
      </trkpt>
      <trkpt lat="45.25365" lon="6.1869">
        <ele>1569.1</ele>
        <time>2019-05-01T05:35:03Z</time>
      </trkpt>
      <trkpt lat="45.25363" lon="6.18686">
        <ele>1569.1</ele>
        <time>2019-05-01T05:35:06Z</time>
      </trkpt>
      <trkpt lat="45.25361" lon="6.18684">
        <ele>1569.2</ele>
        <time>2019-05-01T05:35:09Z</time>
      </trkpt>
      <trkpt lat="45.25359" lon="6.18679">
        <ele>1569.3</ele>
        <time>2019-05-01T05:35:13Z</time>
      </trkpt>
      <trkpt lat="45.25358" lon="6.18675">
        <ele>1569.3</ele>
        <time>2019-05-01T05:35:15Z</time>
      </trkpt>
      <trkpt lat="45.25358" lon="6.18671">
        <ele>1569</ele>
        <time>2019-05-01T05:35:20Z</time>
      </trkpt>
      <trkpt lat="45.25357" lon="6.18666">
        <ele>1568.8</ele>
        <time>2019-05-01T05:35:27Z</time>
      </trkpt>
      <trkpt lat="45.25357" lon="6.18661">
        <ele>1568.5</ele>
        <time>2019-05-01T05:35:30Z</time>
      </trkpt>
      <trkpt lat="45.25357" lon="6.18657">
        <ele>1568.3</ele>
        <time>2019-05-01T05:35:32Z</time>
      </trkpt>
      <trkpt lat="45.25357" lon="6.18653">
        <ele>1568.2</ele>
        <time>2019-05-01T05:35:34Z</time>
      </trkpt>
      <trkpt lat="45.25357" lon="6.18649">
        <ele>1568</ele>
        <time>2019-05-01T05:35:36Z</time>
      </trkpt>
      <trkpt lat="45.25357" lon="6.18645">
        <ele>1568.7</ele>
        <time>2019-05-01T05:35:38Z</time>
      </trkpt>
      <trkpt lat="45.25356" lon="6.18641">
        <ele>1569.1</ele>
        <time>2019-05-01T05:35:42Z</time>
      </trkpt>
      <trkpt lat="45.25355" lon="6.18637">
        <ele>1569.6</ele>
        <time>2019-05-01T05:35:44Z</time>
      </trkpt>
      <trkpt lat="45.25354" lon="6.18632">
        <ele>1570.1</ele>
        <time>2019-05-01T05:35:46Z</time>
      </trkpt>
      <trkpt lat="45.25352" lon="6.18628">
        <ele>1570.6</ele>
        <time>2019-05-01T05:35:48Z</time>
      </trkpt>
      <trkpt lat="45.25349" lon="6.18627">
        <ele>1571</ele>
        <time>2019-05-01T05:35:51Z</time>
      </trkpt>
      <trkpt lat="45.25346" lon="6.18625">
        <ele>1571.5</ele>
        <time>2019-05-01T05:35:54Z</time>
      </trkpt>
      <trkpt lat="45.25343" lon="6.18622">
        <ele>1572.1</ele>
        <time>2019-05-01T05:35:57Z</time>
      </trkpt>
      <trkpt lat="45.2534" lon="6.18619">
        <ele>1572.6</ele>
        <time>2019-05-01T05:35:59Z</time>
      </trkpt>
      <trkpt lat="45.25338" lon="6.18616">
        <ele>1573.1</ele>
        <time>2019-05-01T05:36:01Z</time>
      </trkpt>
      <trkpt lat="45.25334" lon="6.18614">
        <ele>1573.7</ele>
        <time>2019-05-01T05:36:04Z</time>
      </trkpt>
      <trkpt lat="45.25332" lon="6.18614">
        <ele>1574.1</ele>
        <time>2019-05-01T05:36:06Z</time>
      </trkpt>
      <trkpt lat="45.25329" lon="6.18613">
        <ele>1574.6</ele>
        <time>2019-05-01T05:36:08Z</time>
      </trkpt>
      <trkpt lat="45.25325" lon="6.18612">
        <ele>1575.2</ele>
        <time>2019-05-01T05:36:11Z</time>
      </trkpt>
      <trkpt lat="45.25322" lon="6.18609">
        <ele>1575.9</ele>
        <time>2019-05-01T05:36:14Z</time>
      </trkpt>
      <trkpt lat="45.25318" lon="6.18606">
        <ele>1576.7</ele>
        <time>2019-05-01T05:36:17Z</time>
      </trkpt>
      <trkpt lat="45.25316" lon="6.18604">
        <ele>1577.2</ele>
        <time>2019-05-01T05:36:19Z</time>
      </trkpt>
      <trkpt lat="45.25313" lon="6.18602">
        <ele>1577.8</ele>
        <time>2019-05-01T05:36:22Z</time>
      </trkpt>
      <trkpt lat="45.2531" lon="6.18599">
        <ele>1578.4</ele>
        <time>2019-05-01T05:36:24Z</time>
      </trkpt>
      <trkpt lat="45.25307" lon="6.18596">
        <ele>1579</ele>
        <time>2019-05-01T05:36:26Z</time>
      </trkpt>
      <trkpt lat="45.25305" lon="6.18595">
        <ele>1579.5</ele>
        <time>2019-05-01T05:36:28Z</time>
      </trkpt>
      <trkpt lat="45.25302" lon="6.18592">
        <ele>1580</ele>
        <time>2019-05-01T05:36:30Z</time>
      </trkpt>
      <trkpt lat="45.253" lon="6.1859">
        <ele>1580.4</ele>
        <time>2019-05-01T05:36:32Z</time>
      </trkpt>
      <trkpt lat="45.25298" lon="6.18588">
        <ele>1580.8</ele>
        <time>2019-05-01T05:36:34Z</time>
      </trkpt>
      <trkpt lat="45.25295" lon="6.18585">
        <ele>1581.3</ele>
        <time>2019-05-01T05:36:36Z</time>
      </trkpt>
      <trkpt lat="45.25293" lon="6.18583">
        <ele>1581.8</ele>
        <time>2019-05-01T05:36:38Z</time>
      </trkpt>
      <trkpt lat="45.25289" lon="6.18581">
        <ele>1582.4</ele>
        <time>2019-05-01T05:36:41Z</time>
      </trkpt>
      <trkpt lat="45.25287" lon="6.18579">
        <ele>1582.8</ele>
        <time>2019-05-01T05:36:43Z</time>
      </trkpt>
      <trkpt lat="45.25284" lon="6.18575">
        <ele>1583.4</ele>
        <time>2019-05-01T05:36:46Z</time>
      </trkpt>
      <trkpt lat="45.25281" lon="6.18573">
        <ele>1583.8</ele>
        <time>2019-05-01T05:36:48Z</time>
      </trkpt>
      <trkpt lat="45.25279" lon="6.1857">
        <ele>1584.3</ele>
        <time>2019-05-01T05:36:51Z</time>
      </trkpt>
      <trkpt lat="45.25277" lon="6.18566">
        <ele>1584.8</ele>
        <time>2019-05-01T05:36:54Z</time>
      </trkpt>
      <trkpt lat="45.25274" lon="6.18563">
        <ele>1585.3</ele>
        <time>2019-05-01T05:36:57Z</time>
      </trkpt>
      <trkpt lat="45.25271" lon="6.1856">
        <ele>1585.7</ele>
        <time>2019-05-01T05:37:00Z</time>
      </trkpt>
      <trkpt lat="45.25268" lon="6.18558">
        <ele>1586.2</ele>
        <time>2019-05-01T05:37:05Z</time>
      </trkpt>
      <trkpt lat="45.25267" lon="6.18554">
        <ele>1586.7</ele>
        <time>2019-05-01T05:37:08Z</time>
      </trkpt>
      <trkpt lat="45.25265" lon="6.18551">
        <ele>1587.3</ele>
        <time>2019-05-01T05:37:11Z</time>
      </trkpt>
      <trkpt lat="45.25263" lon="6.18547">
        <ele>1588</ele>
        <time>2019-05-01T05:37:14Z</time>
      </trkpt>
      <trkpt lat="45.2526" lon="6.18546">
        <ele>1588.5</ele>
        <time>2019-05-01T05:37:18Z</time>
      </trkpt>
      <trkpt lat="45.25257" lon="6.18545">
        <ele>1589.2</ele>
        <time>2019-05-01T05:37:22Z</time>
      </trkpt>
      <trkpt lat="45.25254" lon="6.18542">
        <ele>1589.9</ele>
        <time>2019-05-01T05:37:26Z</time>
      </trkpt>
      <trkpt lat="45.25251" lon="6.18539">
        <ele>1590.6</ele>
        <time>2019-05-01T05:37:30Z</time>
      </trkpt>
      <trkpt lat="45.25249" lon="6.18535">
        <ele>1591.3</ele>
        <time>2019-05-01T05:37:33Z</time>
      </trkpt>
      <trkpt lat="45.25247" lon="6.18531">
        <ele>1592</ele>
        <time>2019-05-01T05:37:36Z</time>
      </trkpt>
      <trkpt lat="45.25245" lon="6.18528">
        <ele>1593</ele>
        <time>2019-05-01T05:37:39Z</time>
      </trkpt>
      <trkpt lat="45.25243" lon="6.18524">
        <ele>1592.7</ele>
        <time>2019-05-01T05:37:42Z</time>
      </trkpt>
      <trkpt lat="45.25242" lon="6.1852">
        <ele>1592.3</ele>
        <time>2019-05-01T05:37:45Z</time>
      </trkpt>
      <trkpt lat="45.25242" lon="6.18516">
        <ele>1592</ele>
        <time>2019-05-01T05:37:49Z</time>
      </trkpt>
      <trkpt lat="45.25242" lon="6.18511">
        <ele>1591.6</ele>
        <time>2019-05-01T05:37:52Z</time>
      </trkpt>
      <trkpt lat="45.25243" lon="6.18506">
        <ele>1591.2</ele>
        <time>2019-05-01T05:37:55Z</time>
      </trkpt>
      <trkpt lat="45.25244" lon="6.18501">
        <ele>1590.8</ele>
        <time>2019-05-01T05:37:58Z</time>
      </trkpt>
      <trkpt lat="45.25245" lon="6.18495">
        <ele>1590.9</ele>
        <time>2019-05-01T05:38:01Z</time>
      </trkpt>
      <trkpt lat="45.25245" lon="6.18491">
        <ele>1591</ele>
        <time>2019-05-01T05:38:03Z</time>
      </trkpt>
      <trkpt lat="45.25246" lon="6.18486">
        <ele>1591.1</ele>
        <time>2019-05-01T05:38:06Z</time>
      </trkpt>
      <trkpt lat="45.25246" lon="6.18481">
        <ele>1591.2</ele>
        <time>2019-05-01T05:38:09Z</time>
      </trkpt>
      <trkpt lat="45.25245" lon="6.18476">
        <ele>1591.3</ele>
        <time>2019-05-01T05:38:11Z</time>
      </trkpt>
      <trkpt lat="45.25245" lon="6.18471">
        <ele>1591.3</ele>
        <time>2019-05-01T05:38:13Z</time>
      </trkpt>
      <trkpt lat="45.25243" lon="6.18468">
        <ele>1591.4</ele>
        <time>2019-05-01T05:38:15Z</time>
      </trkpt>
      <trkpt lat="45.25241" lon="6.18464">
        <ele>1591.5</ele>
        <time>2019-05-01T05:38:18Z</time>
      </trkpt>
      <trkpt lat="45.2524" lon="6.18459">
        <ele>1591.6</ele>
        <time>2019-05-01T05:38:21Z</time>
      </trkpt>
      <trkpt lat="45.2524" lon="6.18455">
        <ele>1591.6</ele>
        <time>2019-05-01T05:38:26Z</time>
      </trkpt>
      <trkpt lat="45.25239" lon="6.1845">
        <ele>1591.7</ele>
        <time>2019-05-01T05:38:29Z</time>
      </trkpt>
      <trkpt lat="45.25237" lon="6.18446">
        <ele>1591.8</ele>
        <time>2019-05-01T05:38:31Z</time>
      </trkpt>
      <trkpt lat="45.25235" lon="6.18443">
        <ele>1591.8</ele>
        <time>2019-05-01T05:38:33Z</time>
      </trkpt>
      <trkpt lat="45.25233" lon="6.18439">
        <ele>1591.9</ele>
        <time>2019-05-01T05:38:36Z</time>
      </trkpt>
      <trkpt lat="45.2523" lon="6.18434">
        <ele>1592</ele>
        <time>2019-05-01T05:38:43Z</time>
      </trkpt>
      <trkpt lat="45.25231" lon="6.18427">
        <ele>1592.1</ele>
        <time>2019-05-01T05:38:50Z</time>
      </trkpt>
      <trkpt lat="45.25231" lon="6.18423">
        <ele>1592.2</ele>
        <time>2019-05-01T05:38:52Z</time>
      </trkpt>
      <trkpt lat="45.25231" lon="6.18419">
        <ele>1592.2</ele>
        <time>2019-05-01T05:38:54Z</time>
      </trkpt>
      <trkpt lat="45.2523" lon="6.18413">
        <ele>1592.3</ele>
        <time>2019-05-01T05:38:56Z</time>
      </trkpt>
      <trkpt lat="45.2523" lon="6.18409">
        <ele>1592.4</ele>
        <time>2019-05-01T05:38:58Z</time>
      </trkpt>
      <trkpt lat="45.25229" lon="6.18405">
        <ele>1592.4</ele>
        <time>2019-05-01T05:39:00Z</time>
      </trkpt>
      <trkpt lat="45.25228" lon="6.184">
        <ele>1592.5</ele>
        <time>2019-05-01T05:39:02Z</time>
      </trkpt>
      <trkpt lat="45.25228" lon="6.18395">
        <ele>1592.6</ele>
        <time>2019-05-01T05:39:04Z</time>
      </trkpt>
      <trkpt lat="45.25227" lon="6.1839">
        <ele>1592.7</ele>
        <time>2019-05-01T05:39:06Z</time>
      </trkpt>
      <trkpt lat="45.25226" lon="6.18386">
        <ele>1592.7</ele>
        <time>2019-05-01T05:39:08Z</time>
      </trkpt>
      <trkpt lat="45.25225" lon="6.18382">
        <ele>1592.8</ele>
        <time>2019-05-01T05:39:10Z</time>
      </trkpt>
      <trkpt lat="45.25224" lon="6.18378">
        <ele>1592.9</ele>
        <time>2019-05-01T05:39:12Z</time>
      </trkpt>
      <trkpt lat="45.25224" lon="6.18373">
        <ele>1592.9</ele>
        <time>2019-05-01T05:39:14Z</time>
      </trkpt>
      <trkpt lat="45.25223" lon="6.18369">
        <ele>1593</ele>
        <time>2019-05-01T05:39:16Z</time>
      </trkpt>
      <trkpt lat="45.25222" lon="6.18365">
        <ele>1593.1</ele>
        <time>2019-05-01T05:39:18Z</time>
      </trkpt>
      <trkpt lat="45.25222" lon="6.18361">
        <ele>1593.1</ele>
        <time>2019-05-01T05:39:20Z</time>
      </trkpt>
      <trkpt lat="45.25221" lon="6.18357">
        <ele>1593.2</ele>
        <time>2019-05-01T05:39:22Z</time>
      </trkpt>
      <trkpt lat="45.25221" lon="6.18353">
        <ele>1593.3</ele>
        <time>2019-05-01T05:39:24Z</time>
      </trkpt>
      <trkpt lat="45.2522" lon="6.18348">
        <ele>1593.4</ele>
        <time>2019-05-01T05:39:27Z</time>
      </trkpt>
      <trkpt lat="45.2522" lon="6.18344">
        <ele>1593.4</ele>
        <time>2019-05-01T05:39:29Z</time>
      </trkpt>
      <trkpt lat="45.25219" lon="6.1834">
        <ele>1593.5</ele>
        <time>2019-05-01T05:39:31Z</time>
      </trkpt>
      <trkpt lat="45.25218" lon="6.18336">
        <ele>1593.6</ele>
        <time>2019-05-01T05:39:33Z</time>
      </trkpt>
      <trkpt lat="45.25217" lon="6.18332">
        <ele>1593.6</ele>
        <time>2019-05-01T05:39:35Z</time>
      </trkpt>
      <trkpt lat="45.25216" lon="6.18326">
        <ele>1593.7</ele>
        <time>2019-05-01T05:39:38Z</time>
      </trkpt>
      <trkpt lat="45.25215" lon="6.18322">
        <ele>1593.8</ele>
        <time>2019-05-01T05:39:40Z</time>
      </trkpt>
      <trkpt lat="45.25214" lon="6.18317">
        <ele>1593.9</ele>
        <time>2019-05-01T05:39:42Z</time>
      </trkpt>
      <trkpt lat="45.25213" lon="6.18313">
        <ele>1594</ele>
        <time>2019-05-01T05:39:44Z</time>
      </trkpt>
      <trkpt lat="45.25211" lon="6.1831">
        <ele>1594</ele>
        <time>2019-05-01T05:39:47Z</time>
      </trkpt>
      <trkpt lat="45.25209" lon="6.18306">
        <ele>1594.1</ele>
        <time>2019-05-01T05:39:50Z</time>
      </trkpt>
      <trkpt lat="45.25207" lon="6.18301">
        <ele>1594.2</ele>
        <time>2019-05-01T05:39:53Z</time>
      </trkpt>
      <trkpt lat="45.25205" lon="6.18297">
        <ele>1594.2</ele>
        <time>2019-05-01T05:39:56Z</time>
      </trkpt>
      <trkpt lat="45.25203" lon="6.18292">
        <ele>1594.3</ele>
        <time>2019-05-01T05:39:59Z</time>
      </trkpt>
      <trkpt lat="45.25201" lon="6.18289">
        <ele>1594.4</ele>
        <time>2019-05-01T05:40:01Z</time>
      </trkpt>
      <trkpt lat="45.252" lon="6.18285">
        <ele>1594.4</ele>
        <time>2019-05-01T05:40:03Z</time>
      </trkpt>
      <trkpt lat="45.25199" lon="6.18281">
        <ele>1594.5</ele>
        <time>2019-05-01T05:40:05Z</time>
      </trkpt>
      <trkpt lat="45.25198" lon="6.18277">
        <ele>1594.5</ele>
        <time>2019-05-01T05:40:07Z</time>
      </trkpt>
      <trkpt lat="45.25197" lon="6.18273">
        <ele>1594.6</ele>
        <time>2019-05-01T05:40:09Z</time>
      </trkpt>
      <trkpt lat="45.25195" lon="6.1827">
        <ele>1594.6</ele>
        <time>2019-05-01T05:40:11Z</time>
      </trkpt>
      <trkpt lat="45.25194" lon="6.18266">
        <ele>1594.7</ele>
        <time>2019-05-01T05:40:13Z</time>
      </trkpt>
      <trkpt lat="45.25193" lon="6.18262">
        <ele>1594.8</ele>
        <time>2019-05-01T05:40:15Z</time>
      </trkpt>
      <trkpt lat="45.25192" lon="6.18258">
        <ele>1594.8</ele>
        <time>2019-05-01T05:40:17Z</time>
      </trkpt>
      <trkpt lat="45.2519" lon="6.18254">
        <ele>1594.9</ele>
        <time>2019-05-01T05:40:19Z</time>
      </trkpt>
      <trkpt lat="45.25188" lon="6.18251">
        <ele>1594.9</ele>
        <time>2019-05-01T05:40:22Z</time>
      </trkpt>
      <trkpt lat="45.25186" lon="6.18247">
        <ele>1595</ele>
        <time>2019-05-01T05:40:25Z</time>
      </trkpt>
      <trkpt lat="45.25185" lon="6.18243">
        <ele>1595.1</ele>
        <time>2019-05-01T05:40:28Z</time>
      </trkpt>
      <trkpt lat="45.25183" lon="6.18238">
        <ele>1595.2</ele>
        <time>2019-05-01T05:40:31Z</time>
      </trkpt>
      <trkpt lat="45.25182" lon="6.18234">
        <ele>1595.2</ele>
        <time>2019-05-01T05:40:34Z</time>
      </trkpt>
      <trkpt lat="45.2518" lon="6.18231">
        <ele>1595.3</ele>
        <time>2019-05-01T05:40:37Z</time>
      </trkpt>
      <trkpt lat="45.25177" lon="6.18229">
        <ele>1595.4</ele>
        <time>2019-05-01T05:40:40Z</time>
      </trkpt>
      <trkpt lat="45.25175" lon="6.18226">
        <ele>1595.5</ele>
        <time>2019-05-01T05:40:42Z</time>
      </trkpt>
      <trkpt lat="45.25172" lon="6.18224">
        <ele>1595.6</ele>
        <time>2019-05-01T05:40:44Z</time>
      </trkpt>
      <trkpt lat="45.2517" lon="6.1822">
        <ele>1595.6</ele>
        <time>2019-05-01T05:40:46Z</time>
      </trkpt>
      <trkpt lat="45.25167" lon="6.18217">
        <ele>1595.8</ele>
        <time>2019-05-01T05:40:49Z</time>
      </trkpt>
      <trkpt lat="45.25164" lon="6.18215">
        <ele>1595.8</ele>
        <time>2019-05-01T05:40:51Z</time>
      </trkpt>
      <trkpt lat="45.25162" lon="6.18213">
        <ele>1595.9</ele>
        <time>2019-05-01T05:40:53Z</time>
      </trkpt>
      <trkpt lat="45.25159" lon="6.18211">
        <ele>1596</ele>
        <time>2019-05-01T05:40:55Z</time>
      </trkpt>
      <trkpt lat="45.25156" lon="6.18209">
        <ele>1596.1</ele>
        <time>2019-05-01T05:40:57Z</time>
      </trkpt>
      <trkpt lat="45.25154" lon="6.18208">
        <ele>1596.3</ele>
        <time>2019-05-01T05:40:59Z</time>
      </trkpt>
      <trkpt lat="45.25151" lon="6.18205">
        <ele>1596.9</ele>
        <time>2019-05-01T05:41:02Z</time>
      </trkpt>
      <trkpt lat="45.25148" lon="6.18203">
        <ele>1597.4</ele>
        <time>2019-05-01T05:41:04Z</time>
      </trkpt>
      <trkpt lat="45.25146" lon="6.18201">
        <ele>1597.9</ele>
        <time>2019-05-01T05:41:06Z</time>
      </trkpt>
      <trkpt lat="45.25143" lon="6.18199">
        <ele>1598.7</ele>
        <time>2019-05-01T05:41:09Z</time>
      </trkpt>
      <trkpt lat="45.25139" lon="6.18199">
        <ele>1598.9</ele>
        <time>2019-05-01T05:41:12Z</time>
      </trkpt>
      <trkpt lat="45.25136" lon="6.18198">
        <ele>1599.1</ele>
        <time>2019-05-01T05:41:15Z</time>
      </trkpt>
      <trkpt lat="45.25133" lon="6.18195">
        <ele>1599.2</ele>
        <time>2019-05-01T05:41:18Z</time>
      </trkpt>
      <trkpt lat="45.2513" lon="6.18193">
        <ele>1599.4</ele>
        <time>2019-05-01T05:41:21Z</time>
      </trkpt>
      <trkpt lat="45.25127" lon="6.18191">
        <ele>1599.5</ele>
        <time>2019-05-01T05:41:23Z</time>
      </trkpt>
      <trkpt lat="45.25125" lon="6.18188">
        <ele>1599.7</ele>
        <time>2019-05-01T05:41:25Z</time>
      </trkpt>
      <trkpt lat="45.25123" lon="6.18186">
        <ele>1599.8</ele>
        <time>2019-05-01T05:41:28Z</time>
      </trkpt>
      <trkpt lat="45.25121" lon="6.18182">
        <ele>1600</ele>
        <time>2019-05-01T05:41:33Z</time>
      </trkpt>
      <trkpt lat="45.25119" lon="6.18179">
        <ele>1600.2</ele>
        <time>2019-05-01T05:42:38Z</time>
      </trkpt>
      <trkpt lat="45.25121" lon="6.18181">
        <ele>1600.4</ele>
        <time>2019-05-01T05:43:30Z</time>
      </trkpt>
      <trkpt lat="45.25122" lon="6.18185">
        <ele>1600.7</ele>
        <time>2019-05-01T05:43:57Z</time>
      </trkpt>
      <trkpt lat="45.25124" lon="6.18181">
        <ele>1601</ele>
        <time>2019-05-01T05:44:58Z</time>
      </trkpt>
      <trkpt lat="45.25121" lon="6.18178">
        <ele>1601.2</ele>
        <time>2019-05-01T05:45:08Z</time>
      </trkpt>
      <trkpt lat="45.25117" lon="6.18176">
        <ele>1601.5</ele>
        <time>2019-05-01T05:45:11Z</time>
      </trkpt>
      <trkpt lat="45.25115" lon="6.18173">
        <ele>1601.7</ele>
        <time>2019-05-01T05:45:15Z</time>
      </trkpt>
      <trkpt lat="45.25112" lon="6.18172">
        <ele>1602</ele>
        <time>2019-05-01T05:45:41Z</time>
      </trkpt>
      <trkpt lat="45.2511" lon="6.1817">
        <ele>1602.2</ele>
        <time>2019-05-01T05:45:43Z</time>
      </trkpt>
      <trkpt lat="45.25106" lon="6.18168">
        <ele>1602.6</ele>
        <time>2019-05-01T05:45:46Z</time>
      </trkpt>
      <trkpt lat="45.25103" lon="6.18166">
        <ele>1602.8</ele>
        <time>2019-05-01T05:45:48Z</time>
      </trkpt>
      <trkpt lat="45.251" lon="6.18164">
        <ele>1603.1</ele>
        <time>2019-05-01T05:45:50Z</time>
      </trkpt>
      <trkpt lat="45.25096" lon="6.18163">
        <ele>1603.4</ele>
        <time>2019-05-01T05:45:53Z</time>
      </trkpt>
      <trkpt lat="45.25093" lon="6.18164">
        <ele>1603.7</ele>
        <time>2019-05-01T05:45:57Z</time>
      </trkpt>
      <trkpt lat="45.2509" lon="6.18163">
        <ele>1604</ele>
        <time>2019-05-01T05:45:59Z</time>
      </trkpt>
      <trkpt lat="45.25087" lon="6.18161">
        <ele>1604.2</ele>
        <time>2019-05-01T05:46:02Z</time>
      </trkpt>
      <trkpt lat="45.25084" lon="6.18162">
        <ele>1604.4</ele>
        <time>2019-05-01T05:46:06Z</time>
      </trkpt>
      <trkpt lat="45.2508" lon="6.18159">
        <ele>1604.6</ele>
        <time>2019-05-01T05:46:09Z</time>
      </trkpt>
      <trkpt lat="45.25078" lon="6.18156">
        <ele>1604.8</ele>
        <time>2019-05-01T05:46:13Z</time>
      </trkpt>
      <trkpt lat="45.25075" lon="6.18153">
        <ele>1605</ele>
        <time>2019-05-01T05:46:18Z</time>
      </trkpt>
      <trkpt lat="45.25074" lon="6.18149">
        <ele>1605.1</ele>
        <time>2019-05-01T05:46:22Z</time>
      </trkpt>
      <trkpt lat="45.25073" lon="6.18145">
        <ele>1605.3</ele>
        <time>2019-05-01T05:46:25Z</time>
      </trkpt>
      <trkpt lat="45.25071" lon="6.18141">
        <ele>1605.5</ele>
        <time>2019-05-01T05:46:27Z</time>
      </trkpt>
      <trkpt lat="45.2507" lon="6.18137">
        <ele>1605.7</ele>
        <time>2019-05-01T05:46:29Z</time>
      </trkpt>
      <trkpt lat="45.25069" lon="6.18133">
        <ele>1606</ele>
        <time>2019-05-01T05:46:31Z</time>
      </trkpt>
      <trkpt lat="45.25067" lon="6.1813">
        <ele>1606.2</ele>
        <time>2019-05-01T05:46:33Z</time>
      </trkpt>
      <trkpt lat="45.25066" lon="6.18126">
        <ele>1606.4</ele>
        <time>2019-05-01T05:46:35Z</time>
      </trkpt>
      <trkpt lat="45.25064" lon="6.18121">
        <ele>1606.7</ele>
        <time>2019-05-01T05:46:38Z</time>
      </trkpt>
      <trkpt lat="45.25063" lon="6.18118">
        <ele>1606.9</ele>
        <time>2019-05-01T05:46:41Z</time>
      </trkpt>
      <trkpt lat="45.25061" lon="6.18113">
        <ele>1607.1</ele>
        <time>2019-05-01T05:46:44Z</time>
      </trkpt>
      <trkpt lat="45.25059" lon="6.18109">
        <ele>1607.4</ele>
        <time>2019-05-01T05:46:47Z</time>
      </trkpt>
      <trkpt lat="45.25057" lon="6.18105">
        <ele>1607.6</ele>
        <time>2019-05-01T05:46:50Z</time>
      </trkpt>
      <trkpt lat="45.25056" lon="6.18101">
        <ele>1607.8</ele>
        <time>2019-05-01T05:46:53Z</time>
      </trkpt>
      <trkpt lat="45.25054" lon="6.18098">
        <ele>1607.9</ele>
        <time>2019-05-01T05:46:56Z</time>
      </trkpt>
      <trkpt lat="45.25051" lon="6.18095">
        <ele>1608.1</ele>
        <time>2019-05-01T05:47:00Z</time>
      </trkpt>
      <trkpt lat="45.25049" lon="6.18093">
        <ele>1608.3</ele>
        <time>2019-05-01T05:47:04Z</time>
      </trkpt>
      <trkpt lat="45.25047" lon="6.1809">
        <ele>1608.4</ele>
        <time>2019-05-01T05:47:08Z</time>
      </trkpt>
      <trkpt lat="45.25044" lon="6.18084">
        <ele>1608.7</ele>
        <time>2019-05-01T05:47:18Z</time>
      </trkpt>
      <trkpt lat="45.25042" lon="6.18081">
        <ele>1608.9</ele>
        <time>2019-05-01T05:47:21Z</time>
      </trkpt>
      <trkpt lat="45.25039" lon="6.18078">
        <ele>1609.1</ele>
        <time>2019-05-01T05:47:24Z</time>
      </trkpt>
      <trkpt lat="45.25037" lon="6.18074">
        <ele>1609.4</ele>
        <time>2019-05-01T05:47:27Z</time>
      </trkpt>
      <trkpt lat="45.25034" lon="6.1807">
        <ele>1609.7</ele>
        <time>2019-05-01T05:47:30Z</time>
      </trkpt>
      <trkpt lat="45.25032" lon="6.18067">
        <ele>1610</ele>
        <time>2019-05-01T05:47:32Z</time>
      </trkpt>
      <trkpt lat="45.2503" lon="6.18063">
        <ele>1610.2</ele>
        <time>2019-05-01T05:47:34Z</time>
      </trkpt>
      <trkpt lat="45.25029" lon="6.1806">
        <ele>1610.4</ele>
        <time>2019-05-01T05:47:36Z</time>
      </trkpt>
      <trkpt lat="45.25026" lon="6.18056">
        <ele>1610.7</ele>
        <time>2019-05-01T05:47:39Z</time>
      </trkpt>
      <trkpt lat="45.25024" lon="6.18053">
        <ele>1611</ele>
        <time>2019-05-01T05:47:43Z</time>
      </trkpt>
      <trkpt lat="45.25022" lon="6.18048">
        <ele>1611.2</ele>
        <time>2019-05-01T05:47:47Z</time>
      </trkpt>
      <trkpt lat="45.25019" lon="6.18045">
        <ele>1611.4</ele>
        <time>2019-05-01T05:47:50Z</time>
      </trkpt>
      <trkpt lat="45.25017" lon="6.18041">
        <ele>1611.6</ele>
        <time>2019-05-01T05:47:52Z</time>
      </trkpt>
      <trkpt lat="45.25015" lon="6.18038">
        <ele>1611.8</ele>
        <time>2019-05-01T05:47:54Z</time>
      </trkpt>
      <trkpt lat="45.25013" lon="6.18033">
        <ele>1612</ele>
        <time>2019-05-01T05:47:57Z</time>
      </trkpt>
      <trkpt lat="45.25011" lon="6.18029">
        <ele>1612.2</ele>
        <time>2019-05-01T05:48:00Z</time>
      </trkpt>
      <trkpt lat="45.25008" lon="6.18026">
        <ele>1612.4</ele>
        <time>2019-05-01T05:48:03Z</time>
      </trkpt>
      <trkpt lat="45.25006" lon="6.18023">
        <ele>1612.6</ele>
        <time>2019-05-01T05:48:05Z</time>
      </trkpt>
      <trkpt lat="45.25003" lon="6.1802">
        <ele>1612.9</ele>
        <time>2019-05-01T05:48:07Z</time>
      </trkpt>
      <trkpt lat="45.25" lon="6.18017">
        <ele>1613.1</ele>
        <time>2019-05-01T05:48:09Z</time>
      </trkpt>
      <trkpt lat="45.24998" lon="6.18014">
        <ele>1613.3</ele>
        <time>2019-05-01T05:48:11Z</time>
      </trkpt>
      <trkpt lat="45.24996" lon="6.1801">
        <ele>1613.6</ele>
        <time>2019-05-01T05:48:14Z</time>
      </trkpt>
      <trkpt lat="45.24994" lon="6.18007">
        <ele>1613.8</ele>
        <time>2019-05-01T05:48:16Z</time>
      </trkpt>
      <trkpt lat="45.24991" lon="6.18003">
        <ele>1614.1</ele>
        <time>2019-05-01T05:48:19Z</time>
      </trkpt>
      <trkpt lat="45.24989" lon="6.18">
        <ele>1614.3</ele>
        <time>2019-05-01T05:48:22Z</time>
      </trkpt>
      <trkpt lat="45.24987" lon="6.17996">
        <ele>1614.5</ele>
        <time>2019-05-01T05:48:26Z</time>
      </trkpt>
      <trkpt lat="45.24984" lon="6.17993">
        <ele>1614.6</ele>
        <time>2019-05-01T05:48:29Z</time>
      </trkpt>
      <trkpt lat="45.24982" lon="6.1799">
        <ele>1614.8</ele>
        <time>2019-05-01T05:48:32Z</time>
      </trkpt>
      <trkpt lat="45.2498" lon="6.17988">
        <ele>1614.9</ele>
        <time>2019-05-01T05:48:37Z</time>
      </trkpt>
      <trkpt lat="45.24978" lon="6.17983">
        <ele>1615.1</ele>
        <time>2019-05-01T05:48:40Z</time>
      </trkpt>
      <trkpt lat="45.24976" lon="6.1798">
        <ele>1615.2</ele>
        <time>2019-05-01T05:48:42Z</time>
      </trkpt>
      <trkpt lat="45.24974" lon="6.17976">
        <ele>1615.4</ele>
        <time>2019-05-01T05:48:45Z</time>
      </trkpt>
      <trkpt lat="45.24972" lon="6.17973">
        <ele>1615.5</ele>
        <time>2019-05-01T05:48:49Z</time>
      </trkpt>
      <trkpt lat="45.24969" lon="6.17969">
        <ele>1615.8</ele>
        <time>2019-05-01T05:48:52Z</time>
      </trkpt>
      <trkpt lat="45.24968" lon="6.17966">
        <ele>1615.9</ele>
        <time>2019-05-01T05:48:54Z</time>
      </trkpt>
      <trkpt lat="45.24966" lon="6.17963">
        <ele>1616.1</ele>
        <time>2019-05-01T05:48:56Z</time>
      </trkpt>
      <trkpt lat="45.24964" lon="6.17959">
        <ele>1616.3</ele>
        <time>2019-05-01T05:48:59Z</time>
      </trkpt>
      <trkpt lat="45.24962" lon="6.17954">
        <ele>1616.6</ele>
        <time>2019-05-01T05:49:02Z</time>
      </trkpt>
      <trkpt lat="45.2496" lon="6.1795">
        <ele>1616.9</ele>
        <time>2019-05-01T05:49:06Z</time>
      </trkpt>
      <trkpt lat="45.24958" lon="6.17947">
        <ele>1617.1</ele>
        <time>2019-05-01T05:49:11Z</time>
      </trkpt>
      <trkpt lat="45.24956" lon="6.17944">
        <ele>1617.3</ele>
        <time>2019-05-01T05:49:14Z</time>
      </trkpt>
      <trkpt lat="45.24955" lon="6.1794">
        <ele>1617.4</ele>
        <time>2019-05-01T05:49:18Z</time>
      </trkpt>
      <trkpt lat="45.24953" lon="6.17937">
        <ele>1617.6</ele>
        <time>2019-05-01T05:49:29Z</time>
      </trkpt>
      <trkpt lat="45.24951" lon="6.17933">
        <ele>1617.8</ele>
        <time>2019-05-01T05:49:32Z</time>
      </trkpt>
      <trkpt lat="45.24949" lon="6.17928">
        <ele>1618</ele>
        <time>2019-05-01T05:49:35Z</time>
      </trkpt>
      <trkpt lat="45.24948" lon="6.17924">
        <ele>1618.1</ele>
        <time>2019-05-01T05:49:37Z</time>
      </trkpt>
      <trkpt lat="45.24947" lon="6.17919">
        <ele>1618.4</ele>
        <time>2019-05-01T05:49:40Z</time>
      </trkpt>
      <trkpt lat="45.24945" lon="6.17914">
        <ele>1618.1</ele>
        <time>2019-05-01T05:49:43Z</time>
      </trkpt>
      <trkpt lat="45.24944" lon="6.1791">
        <ele>1617.9</ele>
        <time>2019-05-01T05:49:46Z</time>
      </trkpt>
      <trkpt lat="45.24943" lon="6.17905">
        <ele>1617.6</ele>
        <time>2019-05-01T05:49:49Z</time>
      </trkpt>
      <trkpt lat="45.24942" lon="6.17901">
        <ele>1617.2</ele>
        <time>2019-05-01T05:49:52Z</time>
      </trkpt>
      <trkpt lat="45.2494" lon="6.17896">
        <ele>1617.5</ele>
        <time>2019-05-01T05:49:56Z</time>
      </trkpt>
      <trkpt lat="45.24939" lon="6.17891">
        <ele>1617.7</ele>
        <time>2019-05-01T05:49:59Z</time>
      </trkpt>
      <trkpt lat="45.24937" lon="6.17887">
        <ele>1617.9</ele>
        <time>2019-05-01T05:50:02Z</time>
      </trkpt>
      <trkpt lat="45.24935" lon="6.17883">
        <ele>1618.1</ele>
        <time>2019-05-01T05:50:05Z</time>
      </trkpt>
      <trkpt lat="45.24933" lon="6.17879">
        <ele>1618.3</ele>
        <time>2019-05-01T05:50:08Z</time>
      </trkpt>
      <trkpt lat="45.24931" lon="6.17875">
        <ele>1618.6</ele>
        <time>2019-05-01T05:50:13Z</time>
      </trkpt>
      <trkpt lat="45.24929" lon="6.17873">
        <ele>1618.8</ele>
        <time>2019-05-01T05:50:18Z</time>
      </trkpt>
      <trkpt lat="45.24926" lon="6.17868">
        <ele>1619.1</ele>
        <time>2019-05-01T05:50:21Z</time>
      </trkpt>
      <trkpt lat="45.24924" lon="6.17865">
        <ele>1619.3</ele>
        <time>2019-05-01T05:50:23Z</time>
      </trkpt>
      <trkpt lat="45.24921" lon="6.17862">
        <ele>1619.6</ele>
        <time>2019-05-01T05:50:26Z</time>
      </trkpt>
      <trkpt lat="45.24918" lon="6.1786">
        <ele>1619.8</ele>
        <time>2019-05-01T05:50:29Z</time>
      </trkpt>
      <trkpt lat="45.24916" lon="6.17858">
        <ele>1620.1</ele>
        <time>2019-05-01T05:50:31Z</time>
      </trkpt>
      <trkpt lat="45.24914" lon="6.17855">
        <ele>1620.3</ele>
        <time>2019-05-01T05:50:33Z</time>
      </trkpt>
      <trkpt lat="45.24912" lon="6.1785">
        <ele>1620.6</ele>
        <time>2019-05-01T05:50:36Z</time>
      </trkpt>
      <trkpt lat="45.24909" lon="6.17848">
        <ele>1620.9</ele>
        <time>2019-05-01T05:50:40Z</time>
      </trkpt>
      <trkpt lat="45.24906" lon="6.17847">
        <ele>1621.2</ele>
        <time>2019-05-01T05:50:44Z</time>
      </trkpt>
      <trkpt lat="45.24902" lon="6.17845">
        <ele>1621.5</ele>
        <time>2019-05-01T05:50:47Z</time>
      </trkpt>
      <trkpt lat="45.249" lon="6.17842">
        <ele>1621.7</ele>
        <time>2019-05-01T05:50:49Z</time>
      </trkpt>
      <trkpt lat="45.24898" lon="6.17839">
        <ele>1621.9</ele>
        <time>2019-05-01T05:50:51Z</time>
      </trkpt>
      <trkpt lat="45.24896" lon="6.17835">
        <ele>1622.1</ele>
        <time>2019-05-01T05:50:53Z</time>
      </trkpt>
      <trkpt lat="45.24894" lon="6.17832">
        <ele>1622.2</ele>
        <time>2019-05-01T05:50:55Z</time>
      </trkpt>
      <trkpt lat="45.24891" lon="6.17829">
        <ele>1622.4</ele>
        <time>2019-05-01T05:50:57Z</time>
      </trkpt>
      <trkpt lat="45.24889" lon="6.17827">
        <ele>1622.5</ele>
        <time>2019-05-01T05:51:00Z</time>
      </trkpt>
      <trkpt lat="45.24886" lon="6.17825">
        <ele>1622.6</ele>
        <time>2019-05-01T05:51:03Z</time>
      </trkpt>
      <trkpt lat="45.24884" lon="6.17824">
        <ele>1622.7</ele>
        <time>2019-05-01T05:51:06Z</time>
      </trkpt>
      <trkpt lat="45.2488" lon="6.17822">
        <ele>1622.7</ele>
        <time>2019-05-01T05:51:09Z</time>
      </trkpt>
      <trkpt lat="45.24877" lon="6.1782">
        <ele>1622.8</ele>
        <time>2019-05-01T05:51:12Z</time>
      </trkpt>
      <trkpt lat="45.24875" lon="6.17817">
        <ele>1622.8</ele>
        <time>2019-05-01T05:51:14Z</time>
      </trkpt>
      <trkpt lat="45.24872" lon="6.17816">
        <ele>1622.9</ele>
        <time>2019-05-01T05:51:17Z</time>
      </trkpt>
      <trkpt lat="45.24869" lon="6.17814">
        <ele>1622.9</ele>
        <time>2019-05-01T05:51:20Z</time>
      </trkpt>
      <trkpt lat="45.24866" lon="6.17811">
        <ele>1622.9</ele>
        <time>2019-05-01T05:51:23Z</time>
      </trkpt>
      <trkpt lat="45.24863" lon="6.17809">
        <ele>1622.9</ele>
        <time>2019-05-01T05:51:25Z</time>
      </trkpt>
      <trkpt lat="45.24861" lon="6.17805">
        <ele>1623</ele>
        <time>2019-05-01T05:51:28Z</time>
      </trkpt>
      <trkpt lat="45.24858" lon="6.17803">
        <ele>1623</ele>
        <time>2019-05-01T05:51:31Z</time>
      </trkpt>
      <trkpt lat="45.24855" lon="6.17804">
        <ele>1623.1</ele>
        <time>2019-05-01T05:51:35Z</time>
      </trkpt>
      <trkpt lat="45.24853" lon="6.17801">
        <ele>1623.1</ele>
        <time>2019-05-01T05:51:39Z</time>
      </trkpt>
      <trkpt lat="45.2485" lon="6.17798">
        <ele>1623.3</ele>
        <time>2019-05-01T05:51:43Z</time>
      </trkpt>
      <trkpt lat="45.24848" lon="6.17796">
        <ele>1623.3</ele>
        <time>2019-05-01T05:51:46Z</time>
      </trkpt>
      <trkpt lat="45.24845" lon="6.17794">
        <ele>1623.5</ele>
        <time>2019-05-01T05:51:50Z</time>
      </trkpt>
      <trkpt lat="45.24842" lon="6.17792">
        <ele>1623.7</ele>
        <time>2019-05-01T05:51:54Z</time>
      </trkpt>
      <trkpt lat="45.24839" lon="6.1779">
        <ele>1623.9</ele>
        <time>2019-05-01T05:51:57Z</time>
      </trkpt>
      <trkpt lat="45.24836" lon="6.17787">
        <ele>1624.1</ele>
        <time>2019-05-01T05:52:00Z</time>
      </trkpt>
      <trkpt lat="45.24834" lon="6.17784">
        <ele>1624.3</ele>
        <time>2019-05-01T05:52:02Z</time>
      </trkpt>
      <trkpt lat="45.24832" lon="6.1778">
        <ele>1624.5</ele>
        <time>2019-05-01T05:52:05Z</time>
      </trkpt>
      <trkpt lat="45.2483" lon="6.17776">
        <ele>1624.9</ele>
        <time>2019-05-01T05:52:09Z</time>
      </trkpt>
      <trkpt lat="45.24828" lon="6.17773">
        <ele>1625.2</ele>
        <time>2019-05-01T05:52:12Z</time>
      </trkpt>
      <trkpt lat="45.24827" lon="6.17769">
        <ele>1625.5</ele>
        <time>2019-05-01T05:52:15Z</time>
      </trkpt>
      <trkpt lat="45.24825" lon="6.17766">
        <ele>1625.8</ele>
        <time>2019-05-01T05:52:18Z</time>
      </trkpt>
      <trkpt lat="45.24823" lon="6.17762">
        <ele>1626.2</ele>
        <time>2019-05-01T05:52:21Z</time>
      </trkpt>
      <trkpt lat="45.24821" lon="6.17758">
        <ele>1626.7</ele>
        <time>2019-05-01T05:52:24Z</time>
      </trkpt>
      <trkpt lat="45.2482" lon="6.17755">
        <ele>1627</ele>
        <time>2019-05-01T05:52:27Z</time>
      </trkpt>
      <trkpt lat="45.24818" lon="6.17751">
        <ele>1627.4</ele>
        <time>2019-05-01T05:52:30Z</time>
      </trkpt>
      <trkpt lat="45.24817" lon="6.17748">
        <ele>1627.8</ele>
        <time>2019-05-01T05:52:34Z</time>
      </trkpt>
      <trkpt lat="45.24816" lon="6.17744">
        <ele>1628.2</ele>
        <time>2019-05-01T05:52:36Z</time>
      </trkpt>
      <trkpt lat="45.24814" lon="6.17739">
        <ele>1628.7</ele>
        <time>2019-05-01T05:52:39Z</time>
      </trkpt>
      <trkpt lat="45.24813" lon="6.17736">
        <ele>1629</ele>
        <time>2019-05-01T05:52:41Z</time>
      </trkpt>
      <trkpt lat="45.24811" lon="6.17731">
        <ele>1629.4</ele>
        <time>2019-05-01T05:52:44Z</time>
      </trkpt>
      <trkpt lat="45.24809" lon="6.17727">
        <ele>1629.9</ele>
        <time>2019-05-01T05:52:48Z</time>
      </trkpt>
      <trkpt lat="45.24808" lon="6.17723">
        <ele>1630.3</ele>
        <time>2019-05-01T05:52:51Z</time>
      </trkpt>
      <trkpt lat="45.24806" lon="6.1772">
        <ele>1630.6</ele>
        <time>2019-05-01T05:52:54Z</time>
      </trkpt>
      <trkpt lat="45.24805" lon="6.17715">
        <ele>1631</ele>
        <time>2019-05-01T05:52:58Z</time>
      </trkpt>
      <trkpt lat="45.24803" lon="6.1771">
        <ele>1631.4</ele>
        <time>2019-05-01T05:53:01Z</time>
      </trkpt>
      <trkpt lat="45.24801" lon="6.17706">
        <ele>1631.7</ele>
        <time>2019-05-01T05:53:04Z</time>
      </trkpt>
      <trkpt lat="45.248" lon="6.17703">
        <ele>1632</ele>
        <time>2019-05-01T05:53:06Z</time>
      </trkpt>
      <trkpt lat="45.24798" lon="6.17699">
        <ele>1632.2</ele>
        <time>2019-05-01T05:53:09Z</time>
      </trkpt>
      <trkpt lat="45.24797" lon="6.17696">
        <ele>1632.5</ele>
        <time>2019-05-01T05:53:12Z</time>
      </trkpt>
      <trkpt lat="45.24795" lon="6.17692">
        <ele>1632.7</ele>
        <time>2019-05-01T05:53:15Z</time>
      </trkpt>
      <trkpt lat="45.24794" lon="6.17687">
        <ele>1633</ele>
        <time>2019-05-01T05:53:18Z</time>
      </trkpt>
      <trkpt lat="45.24792" lon="6.17683">
        <ele>1633.2</ele>
        <time>2019-05-01T05:53:22Z</time>
      </trkpt>
      <trkpt lat="45.2479" lon="6.17679">
        <ele>1633.5</ele>
        <time>2019-05-01T05:53:28Z</time>
      </trkpt>
      <trkpt lat="45.24788" lon="6.17675">
        <ele>1633.8</ele>
        <time>2019-05-01T05:53:31Z</time>
      </trkpt>
      <trkpt lat="45.24786" lon="6.17671">
        <ele>1634</ele>
        <time>2019-05-01T05:53:34Z</time>
      </trkpt>
      <trkpt lat="45.24784" lon="6.17668">
        <ele>1634.2</ele>
        <time>2019-05-01T05:53:37Z</time>
      </trkpt>
      <trkpt lat="45.24782" lon="6.17665">
        <ele>1634.5</ele>
        <time>2019-05-01T05:53:40Z</time>
      </trkpt>
      <trkpt lat="45.24779" lon="6.17664">
        <ele>1634.7</ele>
        <time>2019-05-01T05:53:44Z</time>
      </trkpt>
      <trkpt lat="45.24776" lon="6.17662">
        <ele>1634.9</ele>
        <time>2019-05-01T05:53:48Z</time>
      </trkpt>
      <trkpt lat="45.24774" lon="6.17659">
        <ele>1635.1</ele>
        <time>2019-05-01T05:53:51Z</time>
      </trkpt>
      <trkpt lat="45.24771" lon="6.17657">
        <ele>1635.3</ele>
        <time>2019-05-01T05:53:54Z</time>
      </trkpt>
      <trkpt lat="45.24769" lon="6.17654">
        <ele>1635.5</ele>
        <time>2019-05-01T05:53:57Z</time>
      </trkpt>
      <trkpt lat="45.24766" lon="6.17651">
        <ele>1635.7</ele>
        <time>2019-05-01T05:54:00Z</time>
      </trkpt>
      <trkpt lat="45.24763" lon="6.17649">
        <ele>1635.9</ele>
        <time>2019-05-01T05:54:03Z</time>
      </trkpt>
      <trkpt lat="45.24761" lon="6.17647">
        <ele>1636</ele>
        <time>2019-05-01T05:54:06Z</time>
      </trkpt>
      <trkpt lat="45.24758" lon="6.17644">
        <ele>1636.2</ele>
        <time>2019-05-01T05:54:09Z</time>
      </trkpt>
      <trkpt lat="45.24756" lon="6.17641">
        <ele>1636.3</ele>
        <time>2019-05-01T05:54:11Z</time>
      </trkpt>
      <trkpt lat="45.24754" lon="6.17638">
        <ele>1636.4</ele>
        <time>2019-05-01T05:54:14Z</time>
      </trkpt>
      <trkpt lat="45.24752" lon="6.17633">
        <ele>1636.4</ele>
        <time>2019-05-01T05:54:17Z</time>
      </trkpt>
      <trkpt lat="45.24749" lon="6.17629">
        <ele>1636.5</ele>
        <time>2019-05-01T05:54:20Z</time>
      </trkpt>
      <trkpt lat="45.24746" lon="6.17627">
        <ele>1636.4</ele>
        <time>2019-05-01T05:54:24Z</time>
      </trkpt>
      <trkpt lat="45.24744" lon="6.17623">
        <ele>1636.4</ele>
        <time>2019-05-01T05:54:28Z</time>
      </trkpt>
      <trkpt lat="45.24742" lon="6.1762">
        <ele>1636.3</ele>
        <time>2019-05-01T05:54:30Z</time>
      </trkpt>
      <trkpt lat="45.2474" lon="6.17618">
        <ele>1636.3</ele>
        <time>2019-05-01T05:54:32Z</time>
      </trkpt>
      <trkpt lat="45.24738" lon="6.17615">
        <ele>1636.2</ele>
        <time>2019-05-01T05:54:35Z</time>
      </trkpt>
      <trkpt lat="45.24736" lon="6.17612">
        <ele>1636.1</ele>
        <time>2019-05-01T05:54:39Z</time>
      </trkpt>
      <trkpt lat="45.24734" lon="6.17607">
        <ele>1636</ele>
        <time>2019-05-01T05:54:42Z</time>
      </trkpt>
      <trkpt lat="45.24732" lon="6.17604">
        <ele>1635.8</ele>
        <time>2019-05-01T05:54:45Z</time>
      </trkpt>
      <trkpt lat="45.2473" lon="6.17601">
        <ele>1635.7</ele>
        <time>2019-05-01T05:54:48Z</time>
      </trkpt>
      <trkpt lat="45.24727" lon="6.17598">
        <ele>1635.6</ele>
        <time>2019-05-01T05:54:51Z</time>
      </trkpt>
      <trkpt lat="45.24724" lon="6.17597">
        <ele>1635.4</ele>
        <time>2019-05-01T05:54:56Z</time>
      </trkpt>
      <trkpt lat="45.24721" lon="6.17593">
        <ele>1635.2</ele>
        <time>2019-05-01T05:54:59Z</time>
      </trkpt>
      <trkpt lat="45.24718" lon="6.1759">
        <ele>1635</ele>
        <time>2019-05-01T05:55:02Z</time>
      </trkpt>
      <trkpt lat="45.24716" lon="6.17587">
        <ele>1634.8</ele>
        <time>2019-05-01T05:55:05Z</time>
      </trkpt>
      <trkpt lat="45.24713" lon="6.17583">
        <ele>1634.4</ele>
        <time>2019-05-01T05:55:08Z</time>
      </trkpt>
      <trkpt lat="45.24711" lon="6.1758">
        <ele>1634.2</ele>
        <time>2019-05-01T05:55:10Z</time>
      </trkpt>
      <trkpt lat="45.24708" lon="6.17577">
        <ele>1633.9</ele>
        <time>2019-05-01T05:55:13Z</time>
      </trkpt>
      <trkpt lat="45.24706" lon="6.17577">
        <ele>1633.7</ele>
        <time>2019-05-01T05:55:16Z</time>
      </trkpt>
      <trkpt lat="45.24702" lon="6.17575">
        <ele>1633.5</ele>
        <time>2019-05-01T05:55:19Z</time>
      </trkpt>
      <trkpt lat="45.24699" lon="6.17572">
        <ele>1633.2</ele>
        <time>2019-05-01T05:55:21Z</time>
      </trkpt>
      <trkpt lat="45.24696" lon="6.17574">
        <ele>1633</ele>
        <time>2019-05-01T05:55:25Z</time>
      </trkpt>
      <trkpt lat="45.24693" lon="6.17578">
        <ele>1632.8</ele>
        <time>2019-05-01T05:55:28Z</time>
      </trkpt>
      <trkpt lat="45.2469" lon="6.17578">
        <ele>1632.7</ele>
        <time>2019-05-01T05:55:31Z</time>
      </trkpt>
      <trkpt lat="45.24688" lon="6.1758">
        <ele>1632.5</ele>
        <time>2019-05-01T05:55:34Z</time>
      </trkpt>
      <trkpt lat="45.24685" lon="6.17581">
        <ele>1632.4</ele>
        <time>2019-05-01T05:55:38Z</time>
      </trkpt>
      <trkpt lat="45.24682" lon="6.1758">
        <ele>1632.2</ele>
        <time>2019-05-01T05:55:41Z</time>
      </trkpt>
      <trkpt lat="45.24679" lon="6.1758">
        <ele>1632.1</ele>
        <time>2019-05-01T05:55:44Z</time>
      </trkpt>
      <trkpt lat="45.24676" lon="6.17578">
        <ele>1632</ele>
        <time>2019-05-01T05:55:48Z</time>
      </trkpt>
      <trkpt lat="45.24673" lon="6.17576">
        <ele>1631.9</ele>
        <time>2019-05-01T05:55:52Z</time>
      </trkpt>
      <trkpt lat="45.2467" lon="6.17575">
        <ele>1631.8</ele>
        <time>2019-05-01T05:55:56Z</time>
      </trkpt>
      <trkpt lat="45.24667" lon="6.17571">
        <ele>1631.8</ele>
        <time>2019-05-01T05:55:59Z</time>
      </trkpt>
      <trkpt lat="45.24665" lon="6.17569">
        <ele>1631.7</ele>
        <time>2019-05-01T05:56:01Z</time>
      </trkpt>
      <trkpt lat="45.24662" lon="6.17565">
        <ele>1631.6</ele>
        <time>2019-05-01T05:56:04Z</time>
      </trkpt>
      <trkpt lat="45.24659" lon="6.17563">
        <ele>1631.6</ele>
        <time>2019-05-01T05:56:07Z</time>
      </trkpt>
      <trkpt lat="45.24656" lon="6.17561">
        <ele>1631.5</ele>
        <time>2019-05-01T05:56:10Z</time>
      </trkpt>
      <trkpt lat="45.24652" lon="6.1756">
        <ele>1631.4</ele>
        <time>2019-05-01T05:56:13Z</time>
      </trkpt>
      <trkpt lat="45.24649" lon="6.17558">
        <ele>1631.4</ele>
        <time>2019-05-01T05:56:16Z</time>
      </trkpt>
      <trkpt lat="45.24646" lon="6.17557">
        <ele>1631.4</ele>
        <time>2019-05-01T05:56:20Z</time>
      </trkpt>
      <trkpt lat="45.24643" lon="6.17555">
        <ele>1631.4</ele>
        <time>2019-05-01T05:56:23Z</time>
      </trkpt>
      <trkpt lat="45.2464" lon="6.17553">
        <ele>1631.4</ele>
        <time>2019-05-01T05:56:27Z</time>
      </trkpt>
      <trkpt lat="45.24637" lon="6.17555">
        <ele>1631.4</ele>
        <time>2019-05-01T05:56:31Z</time>
      </trkpt>
      <trkpt lat="45.24635" lon="6.17558">
        <ele>1631.4</ele>
        <time>2019-05-01T05:56:37Z</time>
      </trkpt>
      <trkpt lat="45.24632" lon="6.1756">
        <ele>1631.4</ele>
        <time>2019-05-01T05:56:42Z</time>
      </trkpt>
      <trkpt lat="45.2463" lon="6.17561">
        <ele>1631.4</ele>
        <time>2019-05-01T05:56:46Z</time>
      </trkpt>
      <trkpt lat="45.24627" lon="6.1756">
        <ele>1631.4</ele>
        <time>2019-05-01T05:56:50Z</time>
      </trkpt>
      <trkpt lat="45.24624" lon="6.17559">
        <ele>1630.6</ele>
        <time>2019-05-01T05:56:55Z</time>
      </trkpt>
      <trkpt lat="45.24621" lon="6.17559">
        <ele>1630.6</ele>
        <time>2019-05-01T05:56:59Z</time>
      </trkpt>
      <trkpt lat="45.24618" lon="6.17558">
        <ele>1630.5</ele>
        <time>2019-05-01T05:57:03Z</time>
      </trkpt>
      <trkpt lat="45.24616" lon="6.17561">
        <ele>1631.2</ele>
        <time>2019-05-01T05:57:07Z</time>
      </trkpt>
      <trkpt lat="45.24615" lon="6.17565">
        <ele>1631.3</ele>
        <time>2019-05-01T05:57:11Z</time>
      </trkpt>
      <trkpt lat="45.24614" lon="6.17569">
        <ele>1630.7</ele>
        <time>2019-05-01T05:57:16Z</time>
      </trkpt>
      <trkpt lat="45.24612" lon="6.17571">
        <ele>1631.4</ele>
        <time>2019-05-01T05:57:22Z</time>
      </trkpt>
      <trkpt lat="45.24609" lon="6.17572">
        <ele>1631.5</ele>
        <time>2019-05-01T05:57:30Z</time>
      </trkpt>
      <trkpt lat="45.24606" lon="6.17574">
        <ele>1632.3</ele>
        <time>2019-05-01T05:57:35Z</time>
      </trkpt>
      <trkpt lat="45.24602" lon="6.17578">
        <ele>1632.3</ele>
        <time>2019-05-01T05:57:44Z</time>
      </trkpt>
      <trkpt lat="45.246" lon="6.1758">
        <ele>1633</ele>
        <time>2019-05-01T05:57:47Z</time>
      </trkpt>
      <trkpt lat="45.24597" lon="6.17581">
        <ele>1633.1</ele>
        <time>2019-05-01T05:57:50Z</time>
      </trkpt>
      <trkpt lat="45.24594" lon="6.17584">
        <ele>1633.9</ele>
        <time>2019-05-01T05:57:53Z</time>
      </trkpt>
      <trkpt lat="45.24591" lon="6.17586">
        <ele>1634.1</ele>
        <time>2019-05-01T05:57:55Z</time>
      </trkpt>
      <trkpt lat="45.24589" lon="6.17588">
        <ele>1634.4</ele>
        <time>2019-05-01T05:57:58Z</time>
      </trkpt>
      <trkpt lat="45.24587" lon="6.1759">
        <ele>1634.6</ele>
        <time>2019-05-01T05:58:02Z</time>
      </trkpt>
      <trkpt lat="45.24583" lon="6.17589">
        <ele>1634.8</ele>
        <time>2019-05-01T05:58:09Z</time>
      </trkpt>
      <trkpt lat="45.24581" lon="6.1759">
        <ele>1635</ele>
        <time>2019-05-01T05:58:13Z</time>
      </trkpt>
      <trkpt lat="45.24578" lon="6.17588">
        <ele>1635.3</ele>
        <time>2019-05-01T05:58:18Z</time>
      </trkpt>
      <trkpt lat="45.24576" lon="6.17589">
        <ele>1635.5</ele>
        <time>2019-05-01T05:58:26Z</time>
      </trkpt>
      <trkpt lat="45.24574" lon="6.17594">
        <ele>1635.9</ele>
        <time>2019-05-01T05:58:29Z</time>
      </trkpt>
      <trkpt lat="45.24573" lon="6.17598">
        <ele>1637.1</ele>
        <time>2019-05-01T05:58:33Z</time>
      </trkpt>
      <trkpt lat="45.24576" lon="6.17601">
        <ele>1636.6</ele>
        <time>2019-05-01T05:58:37Z</time>
      </trkpt>
      <trkpt lat="45.24576" lon="6.17606">
        <ele>1637</ele>
        <time>2019-05-01T05:58:42Z</time>
      </trkpt>
      <trkpt lat="45.24575" lon="6.1761">
        <ele>1637.3</ele>
        <time>2019-05-01T05:58:46Z</time>
      </trkpt>
      <trkpt lat="45.24575" lon="6.17614">
        <ele>1637.6</ele>
        <time>2019-05-01T05:58:51Z</time>
      </trkpt>
      <trkpt lat="45.24574" lon="6.17618">
        <ele>1638.9</ele>
        <time>2019-05-01T05:58:54Z</time>
      </trkpt>
      <trkpt lat="45.24573" lon="6.17623">
        <ele>1639.3</ele>
        <time>2019-05-01T05:58:58Z</time>
      </trkpt>
      <trkpt lat="45.24572" lon="6.17627">
        <ele>1639.6</ele>
        <time>2019-05-01T05:59:01Z</time>
      </trkpt>
      <trkpt lat="45.24569" lon="6.17626">
        <ele>1640</ele>
        <time>2019-05-01T05:59:14Z</time>
      </trkpt>
      <trkpt lat="45.24566" lon="6.17625">
        <ele>1640.3</ele>
        <time>2019-05-01T05:59:20Z</time>
      </trkpt>
      <trkpt lat="45.24564" lon="6.17628">
        <ele>1640.7</ele>
        <time>2019-05-01T05:59:25Z</time>
      </trkpt>
      <trkpt lat="45.24561" lon="6.17629">
        <ele>1641.1</ele>
        <time>2019-05-01T05:59:29Z</time>
      </trkpt>
      <trkpt lat="45.24559" lon="6.17626">
        <ele>1640.6</ele>
        <time>2019-05-01T05:59:33Z</time>
      </trkpt>
      <trkpt lat="45.24555" lon="6.17626">
        <ele>1642.3</ele>
        <time>2019-05-01T05:59:38Z</time>
      </trkpt>
      <trkpt lat="45.24552" lon="6.17625">
        <ele>1642.2</ele>
        <time>2019-05-01T05:59:41Z</time>
      </trkpt>
      <trkpt lat="45.24549" lon="6.17622">
        <ele>1642.2</ele>
        <time>2019-05-01T05:59:44Z</time>
      </trkpt>
      <trkpt lat="45.24546" lon="6.17621">
        <ele>1642.1</ele>
        <time>2019-05-01T05:59:48Z</time>
      </trkpt>
      <trkpt lat="45.24543" lon="6.1762">
        <ele>1642.1</ele>
        <time>2019-05-01T05:59:52Z</time>
      </trkpt>
      <trkpt lat="45.2454" lon="6.17618">
        <ele>1642.1</ele>
        <time>2019-05-01T05:59:56Z</time>
      </trkpt>
      <trkpt lat="45.24537" lon="6.17615">
        <ele>1642.1</ele>
        <time>2019-05-01T06:00:00Z</time>
      </trkpt>
      <trkpt lat="45.24534" lon="6.17615">
        <ele>1642.2</ele>
        <time>2019-05-01T06:00:05Z</time>
      </trkpt>
      <trkpt lat="45.24531" lon="6.17612">
        <ele>1642.3</ele>
        <time>2019-05-01T06:00:09Z</time>
      </trkpt>
      <trkpt lat="45.24529" lon="6.17607">
        <ele>1642.4</ele>
        <time>2019-05-01T06:00:12Z</time>
      </trkpt>
      <trkpt lat="45.24527" lon="6.17604">
        <ele>1642.6</ele>
        <time>2019-05-01T06:00:14Z</time>
      </trkpt>
      <trkpt lat="45.24526" lon="6.176">
        <ele>1642.8</ele>
        <time>2019-05-01T06:00:17Z</time>
      </trkpt>
      <trkpt lat="45.24524" lon="6.17596">
        <ele>1643</ele>
        <time>2019-05-01T06:00:21Z</time>
      </trkpt>
      <trkpt lat="45.24523" lon="6.17592">
        <ele>1643.2</ele>
        <time>2019-05-01T06:00:25Z</time>
      </trkpt>
      <trkpt lat="45.2452" lon="6.17589">
        <ele>1643.5</ele>
        <time>2019-05-01T06:00:33Z</time>
      </trkpt>
      <trkpt lat="45.24517" lon="6.17585">
        <ele>1643.9</ele>
        <time>2019-05-01T06:00:37Z</time>
      </trkpt>
      <trkpt lat="45.24515" lon="6.17583">
        <ele>1644.2</ele>
        <time>2019-05-01T06:00:42Z</time>
      </trkpt>
      <trkpt lat="45.24513" lon="6.1758">
        <ele>1644.4</ele>
        <time>2019-05-01T06:00:46Z</time>
      </trkpt>
      <trkpt lat="45.2451" lon="6.1758">
        <ele>1644.7</ele>
        <time>2019-05-01T06:00:51Z</time>
      </trkpt>
      <trkpt lat="45.24507" lon="6.17578">
        <ele>1645</ele>
        <time>2019-05-01T06:02:09Z</time>
      </trkpt>
      <trkpt lat="45.24505" lon="6.17574">
        <ele>1645.4</ele>
        <time>2019-05-01T06:02:29Z</time>
      </trkpt>
      <trkpt lat="45.24502" lon="6.17572">
        <ele>1645.7</ele>
        <time>2019-05-01T06:02:31Z</time>
      </trkpt>
      <trkpt lat="45.24499" lon="6.17569">
        <ele>1646.1</ele>
        <time>2019-05-01T06:02:34Z</time>
      </trkpt>
      <trkpt lat="45.24497" lon="6.17567">
        <ele>1646.5</ele>
        <time>2019-05-01T06:02:37Z</time>
      </trkpt>
      <trkpt lat="45.24494" lon="6.17565">
        <ele>1646.9</ele>
        <time>2019-05-01T06:02:40Z</time>
      </trkpt>
      <trkpt lat="45.24491" lon="6.17564">
        <ele>1647.2</ele>
        <time>2019-05-01T06:02:43Z</time>
      </trkpt>
      <trkpt lat="45.24488" lon="6.17562">
        <ele>1647.6</ele>
        <time>2019-05-01T06:02:48Z</time>
      </trkpt>
      <trkpt lat="45.24486" lon="6.17559">
        <ele>1648</ele>
        <time>2019-05-01T06:02:51Z</time>
      </trkpt>
      <trkpt lat="45.24484" lon="6.17556">
        <ele>1648.4</ele>
        <time>2019-05-01T06:02:55Z</time>
      </trkpt>
      <trkpt lat="45.24482" lon="6.17552">
        <ele>1648.9</ele>
        <time>2019-05-01T06:02:59Z</time>
      </trkpt>
      <trkpt lat="45.24481" lon="6.17547">
        <ele>1649.4</ele>
        <time>2019-05-01T06:03:02Z</time>
      </trkpt>
      <trkpt lat="45.2448" lon="6.17543">
        <ele>1649.7</ele>
        <time>2019-05-01T06:03:04Z</time>
      </trkpt>
      <trkpt lat="45.24479" lon="6.17539">
        <ele>1650.1</ele>
        <time>2019-05-01T06:03:06Z</time>
      </trkpt>
      <trkpt lat="45.24477" lon="6.17536">
        <ele>1650.5</ele>
        <time>2019-05-01T06:03:10Z</time>
      </trkpt>
      <trkpt lat="45.24475" lon="6.17534">
        <ele>1650.9</ele>
        <time>2019-05-01T06:03:14Z</time>
      </trkpt>
      <trkpt lat="45.24473" lon="6.17529">
        <ele>1651.4</ele>
        <time>2019-05-01T06:03:18Z</time>
      </trkpt>
      <trkpt lat="45.24471" lon="6.17526">
        <ele>1651.9</ele>
        <time>2019-05-01T06:03:21Z</time>
      </trkpt>
      <trkpt lat="45.24469" lon="6.17522">
        <ele>1652.4</ele>
        <time>2019-05-01T06:03:24Z</time>
      </trkpt>
      <trkpt lat="45.24466" lon="6.1752">
        <ele>1652.9</ele>
        <time>2019-05-01T06:03:28Z</time>
      </trkpt>
      <trkpt lat="45.24463" lon="6.17517">
        <ele>1653.4</ele>
        <time>2019-05-01T06:03:31Z</time>
      </trkpt>
      <trkpt lat="45.24461" lon="6.17514">
        <ele>1653.9</ele>
        <time>2019-05-01T06:03:34Z</time>
      </trkpt>
      <trkpt lat="45.2446" lon="6.1751">
        <ele>1654.4</ele>
        <time>2019-05-01T06:03:37Z</time>
      </trkpt>
      <trkpt lat="45.24458" lon="6.17507">
        <ele>1655</ele>
        <time>2019-05-01T06:03:39Z</time>
      </trkpt>
      <trkpt lat="45.24456" lon="6.17502">
        <ele>1655.6</ele>
        <time>2019-05-01T06:03:41Z</time>
      </trkpt>
      <trkpt lat="45.24453" lon="6.17499">
        <ele>1656.3</ele>
        <time>2019-05-01T06:03:44Z</time>
      </trkpt>
      <trkpt lat="45.2445" lon="6.17495">
        <ele>1657.1</ele>
        <time>2019-05-01T06:03:47Z</time>
      </trkpt>
      <trkpt lat="45.24447" lon="6.17494">
        <ele>1657.8</ele>
        <time>2019-05-01T06:03:51Z</time>
      </trkpt>
      <trkpt lat="45.24444" lon="6.17495">
        <ele>1658.4</ele>
        <time>2019-05-01T06:03:55Z</time>
      </trkpt>
      <trkpt lat="45.24441" lon="6.17497">
        <ele>1659.1</ele>
        <time>2019-05-01T06:03:59Z</time>
      </trkpt>
      <trkpt lat="45.24438" lon="6.17494">
        <ele>1660.1</ele>
        <time>2019-05-01T06:04:03Z</time>
      </trkpt>
      <trkpt lat="45.24436" lon="6.17491">
        <ele>1660.8</ele>
        <time>2019-05-01T06:04:05Z</time>
      </trkpt>
      <trkpt lat="45.24434" lon="6.17489">
        <ele>1661.6</ele>
        <time>2019-05-01T06:04:08Z</time>
      </trkpt>
      <trkpt lat="45.24431" lon="6.17486">
        <ele>1662.4</ele>
        <time>2019-05-01T06:04:11Z</time>
      </trkpt>
      <trkpt lat="45.24429" lon="6.17483">
        <ele>1663.2</ele>
        <time>2019-05-01T06:04:14Z</time>
      </trkpt>
      <trkpt lat="45.24426" lon="6.17481">
        <ele>1664.1</ele>
        <time>2019-05-01T06:04:18Z</time>
      </trkpt>
      <trkpt lat="45.24424" lon="6.17479">
        <ele>1664.9</ele>
        <time>2019-05-01T06:04:21Z</time>
      </trkpt>
      <trkpt lat="45.24421" lon="6.17477">
        <ele>1665.9</ele>
        <time>2019-05-01T06:04:24Z</time>
      </trkpt>
      <trkpt lat="45.24418" lon="6.17475">
        <ele>1666.7</ele>
        <time>2019-05-01T06:04:27Z</time>
      </trkpt>
      <trkpt lat="45.24415" lon="6.17473">
        <ele>1667.6</ele>
        <time>2019-05-01T06:04:32Z</time>
      </trkpt>
      <trkpt lat="45.24413" lon="6.17471">
        <ele>1668.3</ele>
        <time>2019-05-01T06:04:36Z</time>
      </trkpt>
      <trkpt lat="45.2441" lon="6.17469">
        <ele>1669.2</ele>
        <time>2019-05-01T06:04:40Z</time>
      </trkpt>
      <trkpt lat="45.24407" lon="6.17467">
        <ele>1670</ele>
        <time>2019-05-01T06:04:44Z</time>
      </trkpt>
      <trkpt lat="45.24405" lon="6.17463">
        <ele>1670.9</ele>
        <time>2019-05-01T06:04:48Z</time>
      </trkpt>
      <trkpt lat="45.24402" lon="6.17461">
        <ele>1671.9</ele>
        <time>2019-05-01T06:04:52Z</time>
      </trkpt>
      <trkpt lat="45.244" lon="6.17458">
        <ele>1672.9</ele>
        <time>2019-05-01T06:04:56Z</time>
      </trkpt>
      <trkpt lat="45.24398" lon="6.17454">
        <ele>1673.9</ele>
        <time>2019-05-01T06:04:59Z</time>
      </trkpt>
      <trkpt lat="45.24396" lon="6.17451">
        <ele>1674.9</ele>
        <time>2019-05-01T06:05:02Z</time>
      </trkpt>
      <trkpt lat="45.24396" lon="6.17447">
        <ele>1675.8</ele>
        <time>2019-05-01T06:05:04Z</time>
      </trkpt>
      <trkpt lat="45.24395" lon="6.17443">
        <ele>1676.8</ele>
        <time>2019-05-01T06:05:06Z</time>
      </trkpt>
      <trkpt lat="45.24393" lon="6.17439">
        <ele>1677.8</ele>
        <time>2019-05-01T06:05:08Z</time>
      </trkpt>
      <trkpt lat="45.24392" lon="6.17434">
        <ele>1679.1</ele>
        <time>2019-05-01T06:05:11Z</time>
      </trkpt>
      <trkpt lat="45.2439" lon="6.1743">
        <ele>1680.4</ele>
        <time>2019-05-01T06:05:14Z</time>
      </trkpt>
      <trkpt lat="45.24388" lon="6.17427">
        <ele>1681.5</ele>
        <time>2019-05-01T06:05:18Z</time>
      </trkpt>
      <trkpt lat="45.24386" lon="6.17423">
        <ele>1682.8</ele>
        <time>2019-05-01T06:05:21Z</time>
      </trkpt>
      <trkpt lat="45.24384" lon="6.17418">
        <ele>1684</ele>
        <time>2019-05-01T06:05:24Z</time>
      </trkpt>
      <trkpt lat="45.24382" lon="6.17414">
        <ele>1685</ele>
        <time>2019-05-01T06:05:27Z</time>
      </trkpt>
      <trkpt lat="45.2438" lon="6.1741">
        <ele>1686.2</ele>
        <time>2019-05-01T06:05:31Z</time>
      </trkpt>
      <trkpt lat="45.24379" lon="6.17407">
        <ele>1687.1</ele>
        <time>2019-05-01T06:05:33Z</time>
      </trkpt>
      <trkpt lat="45.24377" lon="6.17402">
        <ele>1688.3</ele>
        <time>2019-05-01T06:05:36Z</time>
      </trkpt>
      <trkpt lat="45.24375" lon="6.17399">
        <ele>1689.1</ele>
        <time>2019-05-01T06:05:39Z</time>
      </trkpt>
      <trkpt lat="45.24373" lon="6.17394">
        <ele>1690.1</ele>
        <time>2019-05-01T06:05:42Z</time>
      </trkpt>
      <trkpt lat="45.24372" lon="6.17391">
        <ele>1690.9</ele>
        <time>2019-05-01T06:05:45Z</time>
      </trkpt>
      <trkpt lat="45.2437" lon="6.17388">
        <ele>1691.6</ele>
        <time>2019-05-01T06:05:48Z</time>
      </trkpt>
      <trkpt lat="45.24367" lon="6.17384">
        <ele>1692.3</ele>
        <time>2019-05-01T06:05:51Z</time>
      </trkpt>
      <trkpt lat="45.24364" lon="6.17382">
        <ele>1693.1</ele>
        <time>2019-05-01T06:05:55Z</time>
      </trkpt>
      <trkpt lat="45.24362" lon="6.1738">
        <ele>1693.8</ele>
        <time>2019-05-01T06:05:59Z</time>
      </trkpt>
      <trkpt lat="45.24359" lon="6.17376">
        <ele>1694.6</ele>
        <time>2019-05-01T06:06:02Z</time>
      </trkpt>
      <trkpt lat="45.24357" lon="6.17373">
        <ele>1695.4</ele>
        <time>2019-05-01T06:06:05Z</time>
      </trkpt>
      <trkpt lat="45.24354" lon="6.1737">
        <ele>1696.1</ele>
        <time>2019-05-01T06:06:08Z</time>
      </trkpt>
      <trkpt lat="45.24352" lon="6.17367">
        <ele>1696.6</ele>
        <time>2019-05-01T06:06:10Z</time>
      </trkpt>
      <trkpt lat="45.24349" lon="6.17365">
        <ele>1697.4</ele>
        <time>2019-05-01T06:06:14Z</time>
      </trkpt>
      <trkpt lat="45.24347" lon="6.17362">
        <ele>1698</ele>
        <time>2019-05-01T06:06:16Z</time>
      </trkpt>
      <trkpt lat="45.24344" lon="6.17364">
        <ele>1698.7</ele>
        <time>2019-05-01T06:06:21Z</time>
      </trkpt>
      <trkpt lat="45.24341" lon="6.17363">
        <ele>1699.4</ele>
        <time>2019-05-01T06:06:25Z</time>
      </trkpt>
      <trkpt lat="45.24338" lon="6.17359">
        <ele>1700.3</ele>
        <time>2019-05-01T06:06:28Z</time>
      </trkpt>
      <trkpt lat="45.24336" lon="6.17356">
        <ele>1701.2</ele>
        <time>2019-05-01T06:06:31Z</time>
      </trkpt>
      <trkpt lat="45.24333" lon="6.17353">
        <ele>1701.9</ele>
        <time>2019-05-01T06:06:34Z</time>
      </trkpt>
      <trkpt lat="45.2433" lon="6.17352">
        <ele>1702.6</ele>
        <time>2019-05-01T06:06:37Z</time>
      </trkpt>
      <trkpt lat="45.24329" lon="6.17349">
        <ele>1703.3</ele>
        <time>2019-05-01T06:06:40Z</time>
      </trkpt>
      <trkpt lat="45.24327" lon="6.17345">
        <ele>1704.1</ele>
        <time>2019-05-01T06:06:44Z</time>
      </trkpt>
      <trkpt lat="45.24325" lon="6.17342">
        <ele>1704.7</ele>
        <time>2019-05-01T06:06:50Z</time>
      </trkpt>
      <trkpt lat="45.24324" lon="6.17338">
        <ele>1705.4</ele>
        <time>2019-05-01T06:06:54Z</time>
      </trkpt>
      <trkpt lat="45.24322" lon="6.17335">
        <ele>1706</ele>
        <time>2019-05-01T06:06:58Z</time>
      </trkpt>
      <trkpt lat="45.24321" lon="6.1733">
        <ele>1706.8</ele>
        <time>2019-05-01T06:07:01Z</time>
      </trkpt>
      <trkpt lat="45.2432" lon="6.17326">
        <ele>1707.5</ele>
        <time>2019-05-01T06:07:04Z</time>
      </trkpt>
      <trkpt lat="45.24318" lon="6.17322">
        <ele>1708.3</ele>
        <time>2019-05-01T06:07:08Z</time>
      </trkpt>
      <trkpt lat="45.24316" lon="6.17318">
        <ele>1709.2</ele>
        <time>2019-05-01T06:07:12Z</time>
      </trkpt>
      <trkpt lat="45.24314" lon="6.17313">
        <ele>1710.2</ele>
        <time>2019-05-01T06:07:15Z</time>
      </trkpt>
      <trkpt lat="45.24313" lon="6.1731">
        <ele>1710.9</ele>
        <time>2019-05-01T06:07:19Z</time>
      </trkpt>
      <trkpt lat="45.2431" lon="6.17309">
        <ele>1711.7</ele>
        <time>2019-05-01T06:07:26Z</time>
      </trkpt>
      <trkpt lat="45.24307" lon="6.17306">
        <ele>1712.5</ele>
        <time>2019-05-01T06:07:30Z</time>
      </trkpt>
      <trkpt lat="45.24306" lon="6.17302">
        <ele>1713.3</ele>
        <time>2019-05-01T06:07:33Z</time>
      </trkpt>
      <trkpt lat="45.24303" lon="6.173">
        <ele>1714.1</ele>
        <time>2019-05-01T06:07:40Z</time>
      </trkpt>
      <trkpt lat="45.24302" lon="6.17296">
        <ele>1714.8</ele>
        <time>2019-05-01T06:07:42Z</time>
      </trkpt>
      <trkpt lat="45.24301" lon="6.17292">
        <ele>1715.6</ele>
        <time>2019-05-01T06:07:44Z</time>
      </trkpt>
      <trkpt lat="45.24299" lon="6.17288">
        <ele>1716.5</ele>
        <time>2019-05-01T06:07:47Z</time>
      </trkpt>
      <trkpt lat="45.24297" lon="6.17284">
        <ele>1717.3</ele>
        <time>2019-05-01T06:07:50Z</time>
      </trkpt>
      <trkpt lat="45.24295" lon="6.1728">
        <ele>1718.3</ele>
        <time>2019-05-01T06:07:53Z</time>
      </trkpt>
      <trkpt lat="45.24293" lon="6.17277">
        <ele>1719.1</ele>
        <time>2019-05-01T06:07:56Z</time>
      </trkpt>
      <trkpt lat="45.24292" lon="6.17274">
        <ele>1719.8</ele>
        <time>2019-05-01T06:07:59Z</time>
      </trkpt>
      <trkpt lat="45.2429" lon="6.1727">
        <ele>1720.6</ele>
        <time>2019-05-01T06:08:02Z</time>
      </trkpt>
      <trkpt lat="45.24289" lon="6.17266">
        <ele>1721.5</ele>
        <time>2019-05-01T06:08:05Z</time>
      </trkpt>
      <trkpt lat="45.24287" lon="6.17262">
        <ele>1722.4</ele>
        <time>2019-05-01T06:08:09Z</time>
      </trkpt>
      <trkpt lat="45.24286" lon="6.17257">
        <ele>1723.4</ele>
        <time>2019-05-01T06:08:12Z</time>
      </trkpt>
      <trkpt lat="45.24284" lon="6.17252">
        <ele>1724.5</ele>
        <time>2019-05-01T06:08:15Z</time>
      </trkpt>
      <trkpt lat="45.24282" lon="6.17248">
        <ele>1725.4</ele>
        <time>2019-05-01T06:08:18Z</time>
      </trkpt>
      <trkpt lat="45.24282" lon="6.17243">
        <ele>1726.3</ele>
        <time>2019-05-01T06:08:27Z</time>
      </trkpt>
      <trkpt lat="45.24281" lon="6.17238">
        <ele>1727.2</ele>
        <time>2019-05-01T06:08:30Z</time>
      </trkpt>
      <trkpt lat="45.24279" lon="6.17235">
        <ele>1728</ele>
        <time>2019-05-01T06:08:33Z</time>
      </trkpt>
      <trkpt lat="45.24277" lon="6.1723">
        <ele>1729</ele>
        <time>2019-05-01T06:08:36Z</time>
      </trkpt>
      <trkpt lat="45.24276" lon="6.17227">
        <ele>1729.7</ele>
        <time>2019-05-01T06:08:39Z</time>
      </trkpt>
      <trkpt lat="45.24276" lon="6.17223">
        <ele>1730.5</ele>
        <time>2019-05-01T06:08:42Z</time>
      </trkpt>
      <trkpt lat="45.24277" lon="6.17218">
        <ele>1731.3</ele>
        <time>2019-05-01T06:08:46Z</time>
      </trkpt>
      <trkpt lat="45.24278" lon="6.17214">
        <ele>1732.1</ele>
        <time>2019-05-01T06:08:49Z</time>
      </trkpt>
      <trkpt lat="45.24278" lon="6.1721">
        <ele>1732.9</ele>
        <time>2019-05-01T06:08:53Z</time>
      </trkpt>
      <trkpt lat="45.24278" lon="6.17205">
        <ele>1733.7</ele>
        <time>2019-05-01T06:08:57Z</time>
      </trkpt>
      <trkpt lat="45.24277" lon="6.17202">
        <ele>1734.4</ele>
        <time>2019-05-01T06:09:00Z</time>
      </trkpt>
      <trkpt lat="45.24275" lon="6.17198">
        <ele>1735.2</ele>
        <time>2019-05-01T06:09:03Z</time>
      </trkpt>
      <trkpt lat="45.24275" lon="6.17194">
        <ele>1736</ele>
        <time>2019-05-01T06:09:06Z</time>
      </trkpt>
      <trkpt lat="45.24274" lon="6.17189">
        <ele>1736.8</ele>
        <time>2019-05-01T06:09:09Z</time>
      </trkpt>
      <trkpt lat="45.24273" lon="6.17186">
        <ele>1737.6</ele>
        <time>2019-05-01T06:09:11Z</time>
      </trkpt>
      <trkpt lat="45.24272" lon="6.17182">
        <ele>1738.3</ele>
        <time>2019-05-01T06:09:14Z</time>
      </trkpt>
      <trkpt lat="45.2427" lon="6.17178">
        <ele>1739.2</ele>
        <time>2019-05-01T06:09:18Z</time>
      </trkpt>
      <trkpt lat="45.24269" lon="6.17174">
        <ele>1740.2</ele>
        <time>2019-05-01T06:09:21Z</time>
      </trkpt>
      <trkpt lat="45.24269" lon="6.1717">
        <ele>1741.1</ele>
        <time>2019-05-01T06:09:24Z</time>
      </trkpt>
      <trkpt lat="45.24268" lon="6.17165">
        <ele>1742</ele>
        <time>2019-05-01T06:09:27Z</time>
      </trkpt>
      <trkpt lat="45.24267" lon="6.17162">
        <ele>1742.7</ele>
        <time>2019-05-01T06:09:30Z</time>
      </trkpt>
      <trkpt lat="45.24266" lon="6.17157">
        <ele>1743.7</ele>
        <time>2019-05-01T06:09:34Z</time>
      </trkpt>
      <trkpt lat="45.24265" lon="6.17153">
        <ele>1744.6</ele>
        <time>2019-05-01T06:09:37Z</time>
      </trkpt>
      <trkpt lat="45.24264" lon="6.17148">
        <ele>1745.5</ele>
        <time>2019-05-01T06:09:40Z</time>
      </trkpt>
      <trkpt lat="45.24262" lon="6.17145">
        <ele>1746.2</ele>
        <time>2019-05-01T06:09:43Z</time>
      </trkpt>
      <trkpt lat="45.24262" lon="6.17141">
        <ele>1747</ele>
        <time>2019-05-01T06:09:46Z</time>
      </trkpt>
      <trkpt lat="45.24261" lon="6.17137">
        <ele>1747.7</ele>
        <time>2019-05-01T06:09:50Z</time>
      </trkpt>
      <trkpt lat="45.2426" lon="6.17133">
        <ele>1748.5</ele>
        <time>2019-05-01T06:09:54Z</time>
      </trkpt>
      <trkpt lat="45.2426" lon="6.17128">
        <ele>1749.4</ele>
        <time>2019-05-01T06:09:58Z</time>
      </trkpt>
      <trkpt lat="45.24259" lon="6.17124">
        <ele>1750.2</ele>
        <time>2019-05-01T06:10:02Z</time>
      </trkpt>
      <trkpt lat="45.2426" lon="6.17119">
        <ele>1751.1</ele>
        <time>2019-05-01T06:10:06Z</time>
      </trkpt>
      <trkpt lat="45.24259" lon="6.17115">
        <ele>1751.8</ele>
        <time>2019-05-01T06:10:09Z</time>
      </trkpt>
      <trkpt lat="45.24259" lon="6.17109">
        <ele>1752.8</ele>
        <time>2019-05-01T06:10:13Z</time>
      </trkpt>
      <trkpt lat="45.24257" lon="6.17103">
        <ele>1753.9</ele>
        <time>2019-05-01T06:10:22Z</time>
      </trkpt>
      <trkpt lat="45.24256" lon="6.17099">
        <ele>1754.7</ele>
        <time>2019-05-01T06:10:25Z</time>
      </trkpt>
      <trkpt lat="45.24255" lon="6.17095">
        <ele>1755.5</ele>
        <time>2019-05-01T06:10:27Z</time>
      </trkpt>
      <trkpt lat="45.24255" lon="6.1709">
        <ele>1756.2</ele>
        <time>2019-05-01T06:10:29Z</time>
      </trkpt>
      <trkpt lat="45.24257" lon="6.17086">
        <ele>1757.1</ele>
        <time>2019-05-01T06:10:32Z</time>
      </trkpt>
      <trkpt lat="45.24258" lon="6.17082">
        <ele>1757.9</ele>
        <time>2019-05-01T06:10:35Z</time>
      </trkpt>
      <trkpt lat="45.24258" lon="6.17078">
        <ele>1758.7</ele>
        <time>2019-05-01T06:10:38Z</time>
      </trkpt>
      <trkpt lat="45.24258" lon="6.17073">
        <ele>1759.4</ele>
        <time>2019-05-01T06:10:43Z</time>
      </trkpt>
      <trkpt lat="45.24258" lon="6.17069">
        <ele>1760.1</ele>
        <time>2019-05-01T06:10:47Z</time>
      </trkpt>
      <trkpt lat="45.24258" lon="6.17064">
        <ele>1761</ele>
        <time>2019-05-01T06:10:51Z</time>
      </trkpt>
      <trkpt lat="45.24259" lon="6.1706">
        <ele>1761.8</ele>
        <time>2019-05-01T06:10:55Z</time>
      </trkpt>
      <trkpt lat="45.2426" lon="6.17055">
        <ele>1762.5</ele>
        <time>2019-05-01T06:10:58Z</time>
      </trkpt>
      <trkpt lat="45.24262" lon="6.17052">
        <ele>1763.2</ele>
        <time>2019-05-01T06:11:00Z</time>
      </trkpt>
      <trkpt lat="45.24264" lon="6.17049">
        <ele>1763.9</ele>
        <time>2019-05-01T06:11:02Z</time>
      </trkpt>
      <trkpt lat="45.24265" lon="6.17045">
        <ele>1764.6</ele>
        <time>2019-05-01T06:11:05Z</time>
      </trkpt>
      <trkpt lat="45.24264" lon="6.17041">
        <ele>1765.3</ele>
        <time>2019-05-01T06:11:08Z</time>
      </trkpt>
      <trkpt lat="45.24267" lon="6.17036">
        <ele>1766.3</ele>
        <time>2019-05-01T06:11:11Z</time>
      </trkpt>
      <trkpt lat="45.24268" lon="6.17033">
        <ele>1767</ele>
        <time>2019-05-01T06:11:14Z</time>
      </trkpt>
      <trkpt lat="45.24271" lon="6.17031">
        <ele>1766.9</ele>
        <time>2019-05-01T06:11:17Z</time>
      </trkpt>
      <trkpt lat="45.24273" lon="6.17027">
        <ele>1767.5</ele>
        <time>2019-05-01T06:11:20Z</time>
      </trkpt>
      <trkpt lat="45.24274" lon="6.17023">
        <ele>1767.9</ele>
        <time>2019-05-01T06:11:23Z</time>
      </trkpt>
      <trkpt lat="45.24273" lon="6.17018">
        <ele>1768.5</ele>
        <time>2019-05-01T06:11:26Z</time>
      </trkpt>
      <trkpt lat="45.24274" lon="6.17013">
        <ele>1768.6</ele>
        <time>2019-05-01T06:11:29Z</time>
      </trkpt>
      <trkpt lat="45.24276" lon="6.17008">
        <ele>1768.6</ele>
        <time>2019-05-01T06:11:32Z</time>
      </trkpt>
      <trkpt lat="45.24277" lon="6.17004">
        <ele>1768.6</ele>
        <time>2019-05-01T06:11:34Z</time>
      </trkpt>
      <trkpt lat="45.24281" lon="6.17001">
        <ele>1769.6</ele>
        <time>2019-05-01T06:11:36Z</time>
      </trkpt>
      <trkpt lat="45.24284" lon="6.16998">
        <ele>1770.4</ele>
        <time>2019-05-01T06:11:39Z</time>
      </trkpt>
      <trkpt lat="45.24286" lon="6.16995">
        <ele>1771.1</ele>
        <time>2019-05-01T06:11:42Z</time>
      </trkpt>
      <trkpt lat="45.24287" lon="6.16991">
        <ele>1771.9</ele>
        <time>2019-05-01T06:11:45Z</time>
      </trkpt>
      <trkpt lat="45.2429" lon="6.16987">
        <ele>1772.8</ele>
        <time>2019-05-01T06:11:48Z</time>
      </trkpt>
      <trkpt lat="45.24293" lon="6.16984">
        <ele>1773.5</ele>
        <time>2019-05-01T06:11:50Z</time>
      </trkpt>
      <trkpt lat="45.24294" lon="6.16979">
        <ele>1774.2</ele>
        <time>2019-05-01T06:11:54Z</time>
      </trkpt>
      <trkpt lat="45.24296" lon="6.16975">
        <ele>1774.8</ele>
        <time>2019-05-01T06:11:59Z</time>
      </trkpt>
      <trkpt lat="45.24292" lon="6.16975">
        <ele>1775.7</ele>
        <time>2019-05-01T06:12:15Z</time>
      </trkpt>
      <trkpt lat="45.24289" lon="6.16976">
        <ele>1776.3</ele>
        <time>2019-05-01T06:15:41Z</time>
      </trkpt>
      <trkpt lat="45.24293" lon="6.16977">
        <ele>1776.8</ele>
        <time>2019-05-01T06:16:22Z</time>
      </trkpt>
      <trkpt lat="45.24295" lon="6.16974">
        <ele>1777.1</ele>
        <time>2019-05-01T06:16:26Z</time>
      </trkpt>
      <trkpt lat="45.24298" lon="6.16972">
        <ele>1777.5</ele>
        <time>2019-05-01T06:16:29Z</time>
      </trkpt>
      <trkpt lat="45.24301" lon="6.16969">
        <ele>1778.3</ele>
        <time>2019-05-01T06:16:32Z</time>
      </trkpt>
      <trkpt lat="45.24301" lon="6.16965">
        <ele>1779</ele>
        <time>2019-05-01T06:16:43Z</time>
      </trkpt>
      <trkpt lat="45.24302" lon="6.1696">
        <ele>1779.6</ele>
        <time>2019-05-01T06:16:59Z</time>
      </trkpt>
      <trkpt lat="45.24304" lon="6.16956">
        <ele>1779.9</ele>
        <time>2019-05-01T06:17:03Z</time>
      </trkpt>
      <trkpt lat="45.24304" lon="6.16952">
        <ele>1780.1</ele>
        <time>2019-05-01T06:17:07Z</time>
      </trkpt>
      <trkpt lat="45.24305" lon="6.16947">
        <ele>1780.4</ele>
        <time>2019-05-01T06:17:11Z</time>
      </trkpt>
      <trkpt lat="45.24303" lon="6.16944">
        <ele>1782</ele>
        <time>2019-05-01T06:17:16Z</time>
      </trkpt>
      <trkpt lat="45.24299" lon="6.16944">
        <ele>1782.3</ele>
        <time>2019-05-01T06:17:19Z</time>
      </trkpt>
      <trkpt lat="45.24297" lon="6.16947">
        <ele>1781.3</ele>
        <time>2019-05-01T06:17:28Z</time>
      </trkpt>
      <trkpt lat="45.24295" lon="6.16944">
        <ele>1783</ele>
        <time>2019-05-01T06:17:34Z</time>
      </trkpt>
      <trkpt lat="45.24294" lon="6.16939">
        <ele>1784.2</ele>
        <time>2019-05-01T06:17:37Z</time>
      </trkpt>
      <trkpt lat="45.24293" lon="6.16934">
        <ele>1786.7</ele>
        <time>2019-05-01T06:17:40Z</time>
      </trkpt>
      <trkpt lat="45.24295" lon="6.16929">
        <ele>1788</ele>
        <time>2019-05-01T06:18:13Z</time>
      </trkpt>
      <trkpt lat="45.24296" lon="6.16925">
        <ele>1789</ele>
        <time>2019-05-01T06:18:18Z</time>
      </trkpt>
      <trkpt lat="45.24298" lon="6.16922">
        <ele>1789</ele>
        <time>2019-05-01T06:18:22Z</time>
      </trkpt>
      <trkpt lat="45.24299" lon="6.16919">
        <ele>1790.2</ele>
        <time>2019-05-01T06:18:26Z</time>
      </trkpt>
      <trkpt lat="45.24302" lon="6.16915">
        <ele>1791.4</ele>
        <time>2019-05-01T06:18:30Z</time>
      </trkpt>
      <trkpt lat="45.24304" lon="6.16912">
        <ele>1792.9</ele>
        <time>2019-05-01T06:18:34Z</time>
      </trkpt>
      <trkpt lat="45.24306" lon="6.1691">
        <ele>1792.6</ele>
        <time>2019-05-01T06:18:37Z</time>
      </trkpt>
      <trkpt lat="45.24309" lon="6.16908">
        <ele>1793.9</ele>
        <time>2019-05-01T06:18:40Z</time>
      </trkpt>
      <trkpt lat="45.24311" lon="6.16904">
        <ele>1793.7</ele>
        <time>2019-05-01T06:18:45Z</time>
      </trkpt>
      <trkpt lat="45.24312" lon="6.16899">
        <ele>1796.6</ele>
        <time>2019-05-01T06:18:50Z</time>
      </trkpt>
      <trkpt lat="45.24313" lon="6.16895">
        <ele>1798</ele>
        <time>2019-05-01T06:18:54Z</time>
      </trkpt>
      <trkpt lat="45.24313" lon="6.1689">
        <ele>1799.4</ele>
        <time>2019-05-01T06:18:58Z</time>
      </trkpt>
      <trkpt lat="45.24313" lon="6.16886">
        <ele>1800.8</ele>
        <time>2019-05-01T06:19:02Z</time>
      </trkpt>
      <trkpt lat="45.2431" lon="6.16883">
        <ele>1801</ele>
        <time>2019-05-01T06:19:07Z</time>
      </trkpt>
      <trkpt lat="45.24308" lon="6.16881">
        <ele>1802.5</ele>
        <time>2019-05-01T06:19:11Z</time>
      </trkpt>
      <trkpt lat="45.24306" lon="6.16883">
        <ele>1801.3</ele>
        <time>2019-05-01T06:19:16Z</time>
      </trkpt>
      <trkpt lat="45.24303" lon="6.16881">
        <ele>1803</ele>
        <time>2019-05-01T06:19:21Z</time>
      </trkpt>
      <trkpt lat="45.24301" lon="6.16878">
        <ele>1803.3</ele>
        <time>2019-05-01T06:19:23Z</time>
      </trkpt>
      <trkpt lat="45.24298" lon="6.16877">
        <ele>1805.1</ele>
        <time>2019-05-01T06:19:29Z</time>
      </trkpt>
      <trkpt lat="45.24297" lon="6.16874">
        <ele>1806.6</ele>
        <time>2019-05-01T06:19:33Z</time>
      </trkpt>
      <trkpt lat="45.24294" lon="6.16869">
        <ele>1808.4</ele>
        <time>2019-05-01T06:19:39Z</time>
      </trkpt>
      <trkpt lat="45.24293" lon="6.16865">
        <ele>1809.9</ele>
        <time>2019-05-01T06:19:42Z</time>
      </trkpt>
      <trkpt lat="45.24293" lon="6.1686">
        <ele>1811.6</ele>
        <time>2019-05-01T06:19:46Z</time>
      </trkpt>
      <trkpt lat="45.24293" lon="6.16856">
        <ele>1812.9</ele>
        <time>2019-05-01T06:19:51Z</time>
      </trkpt>
      <trkpt lat="45.24294" lon="6.16853">
        <ele>1812.6</ele>
        <time>2019-05-01T06:19:56Z</time>
      </trkpt>
      <trkpt lat="45.24296" lon="6.1685">
        <ele>1813.4</ele>
        <time>2019-05-01T06:20:00Z</time>
      </trkpt>
      <trkpt lat="45.24299" lon="6.16846">
        <ele>1814.6</ele>
        <time>2019-05-01T06:20:05Z</time>
      </trkpt>
      <trkpt lat="45.24298" lon="6.16842">
        <ele>1815.7</ele>
        <time>2019-05-01T06:20:08Z</time>
      </trkpt>
      <trkpt lat="45.24296" lon="6.16844">
        <ele>1814.6</ele>
        <time>2019-05-01T06:20:14Z</time>
      </trkpt>
      <trkpt lat="45.24293" lon="6.16843">
        <ele>1816.1</ele>
        <time>2019-05-01T06:20:21Z</time>
      </trkpt>
      <trkpt lat="45.24292" lon="6.16838">
        <ele>1817.6</ele>
        <time>2019-05-01T06:20:25Z</time>
      </trkpt>
      <trkpt lat="45.24292" lon="6.16834">
        <ele>1818.9</ele>
        <time>2019-05-01T06:20:28Z</time>
      </trkpt>
      <trkpt lat="45.24292" lon="6.16829">
        <ele>1820.2</ele>
        <time>2019-05-01T06:20:32Z</time>
      </trkpt>
      <trkpt lat="45.24292" lon="6.16826">
        <ele>1821.5</ele>
        <time>2019-05-01T06:20:35Z</time>
      </trkpt>
      <trkpt lat="45.24289" lon="6.16823">
        <ele>1821.8</ele>
        <time>2019-05-01T06:20:43Z</time>
      </trkpt>
      <trkpt lat="45.24287" lon="6.1682">
        <ele>1823.1</ele>
        <time>2019-05-01T06:20:50Z</time>
      </trkpt>
      <trkpt lat="45.24285" lon="6.16817">
        <ele>1824.8</ele>
        <time>2019-05-01T06:20:53Z</time>
      </trkpt>
      <trkpt lat="45.24282" lon="6.16819">
        <ele>1823.9</ele>
        <time>2019-05-01T06:20:58Z</time>
      </trkpt>
      <trkpt lat="45.24279" lon="6.16821">
        <ele>1824.3</ele>
        <time>2019-05-01T06:21:03Z</time>
      </trkpt>
      <trkpt lat="45.24276" lon="6.16822">
        <ele>1824.8</ele>
        <time>2019-05-01T06:21:08Z</time>
      </trkpt>
      <trkpt lat="45.24273" lon="6.16821">
        <ele>1825.3</ele>
        <time>2019-05-01T06:21:12Z</time>
      </trkpt>
      <trkpt lat="45.24271" lon="6.16822">
        <ele>1824.5</ele>
        <time>2019-05-01T06:21:16Z</time>
      </trkpt>
      <trkpt lat="45.24268" lon="6.16822">
        <ele>1826.2</ele>
        <time>2019-05-01T06:21:20Z</time>
      </trkpt>
      <trkpt lat="45.24267" lon="6.16817">
        <ele>1827.5</ele>
        <time>2019-05-01T06:21:23Z</time>
      </trkpt>
      <trkpt lat="45.24267" lon="6.16813">
        <ele>1828.7</ele>
        <time>2019-05-01T06:21:25Z</time>
      </trkpt>
      <trkpt lat="45.24267" lon="6.16809">
        <ele>1829.9</ele>
        <time>2019-05-01T06:21:27Z</time>
      </trkpt>
      <trkpt lat="45.24269" lon="6.16805">
        <ele>1830.8</ele>
        <time>2019-05-01T06:21:30Z</time>
      </trkpt>
      <trkpt lat="45.24271" lon="6.16801">
        <ele>1830.8</ele>
        <time>2019-05-01T06:21:34Z</time>
      </trkpt>
      <trkpt lat="45.24272" lon="6.16798">
        <ele>1831.6</ele>
        <time>2019-05-01T06:21:38Z</time>
      </trkpt>
      <trkpt lat="45.24273" lon="6.16794">
        <ele>1832.9</ele>
        <time>2019-05-01T06:21:42Z</time>
      </trkpt>
      <trkpt lat="45.24275" lon="6.16791">
        <ele>1833.8</ele>
        <time>2019-05-01T06:21:45Z</time>
      </trkpt>
      <trkpt lat="45.24277" lon="6.16787">
        <ele>1835.2</ele>
        <time>2019-05-01T06:21:49Z</time>
      </trkpt>
      <trkpt lat="45.24279" lon="6.16785">
        <ele>1834.8</ele>
        <time>2019-05-01T06:21:52Z</time>
      </trkpt>
      <trkpt lat="45.24281" lon="6.16782">
        <ele>1835.9</ele>
        <time>2019-05-01T06:21:57Z</time>
      </trkpt>
      <trkpt lat="45.24283" lon="6.16779">
        <ele>1837.4</ele>
        <time>2019-05-01T06:22:02Z</time>
      </trkpt>
      <trkpt lat="45.24285" lon="6.16776">
        <ele>1837.1</ele>
        <time>2019-05-01T06:22:06Z</time>
      </trkpt>
      <trkpt lat="45.24287" lon="6.16773">
        <ele>1838.3</ele>
        <time>2019-05-01T06:22:10Z</time>
      </trkpt>
      <trkpt lat="45.24289" lon="6.16769">
        <ele>1839.8</ele>
        <time>2019-05-01T06:22:15Z</time>
      </trkpt>
      <trkpt lat="45.24291" lon="6.16767">
        <ele>1839.5</ele>
        <time>2019-05-01T06:22:21Z</time>
      </trkpt>
      <trkpt lat="45.24292" lon="6.16762">
        <ele>1840.9</ele>
        <time>2019-05-01T06:22:27Z</time>
      </trkpt>
      <trkpt lat="45.24289" lon="6.16765">
        <ele>1841.1</ele>
        <time>2019-05-01T06:22:34Z</time>
      </trkpt>
      <trkpt lat="45.24286" lon="6.16768">
        <ele>1840</ele>
        <time>2019-05-01T06:22:38Z</time>
      </trkpt>
      <trkpt lat="45.24284" lon="6.16769">
        <ele>1840</ele>
        <time>2019-05-01T06:22:42Z</time>
      </trkpt>
      <trkpt lat="45.24281" lon="6.16766">
        <ele>1841.6</ele>
        <time>2019-05-01T06:22:45Z</time>
      </trkpt>
      <trkpt lat="45.24278" lon="6.16766">
        <ele>1841.9</ele>
        <time>2019-05-01T06:22:48Z</time>
      </trkpt>
      <trkpt lat="45.24275" lon="6.16766">
        <ele>1842.2</ele>
        <time>2019-05-01T06:22:52Z</time>
      </trkpt>
      <trkpt lat="45.24272" lon="6.16769">
        <ele>1841.2</ele>
        <time>2019-05-01T06:22:55Z</time>
      </trkpt>
      <trkpt lat="45.24269" lon="6.16769">
        <ele>1841.6</ele>
        <time>2019-05-01T06:23:00Z</time>
      </trkpt>
      <trkpt lat="45.24266" lon="6.1677">
        <ele>1841.9</ele>
        <time>2019-05-01T06:23:05Z</time>
      </trkpt>
      <trkpt lat="45.24263" lon="6.16771">
        <ele>1842.2</ele>
        <time>2019-05-01T06:23:09Z</time>
      </trkpt>
      <trkpt lat="45.24261" lon="6.16767">
        <ele>1842.6</ele>
        <time>2019-05-01T06:23:13Z</time>
      </trkpt>
      <trkpt lat="45.24262" lon="6.16763">
        <ele>1843.8</ele>
        <time>2019-05-01T06:23:16Z</time>
      </trkpt>
      <trkpt lat="45.24264" lon="6.1676">
        <ele>1844.6</ele>
        <time>2019-05-01T06:23:19Z</time>
      </trkpt>
      <trkpt lat="45.24264" lon="6.16755">
        <ele>1845.8</ele>
        <time>2019-05-01T06:23:23Z</time>
      </trkpt>
      <trkpt lat="45.24265" lon="6.16751">
        <ele>1847</ele>
        <time>2019-05-01T06:23:27Z</time>
      </trkpt>
      <trkpt lat="45.24266" lon="6.16747">
        <ele>1848</ele>
        <time>2019-05-01T06:23:32Z</time>
      </trkpt>
      <trkpt lat="45.24269" lon="6.16745">
        <ele>1849</ele>
        <time>2019-05-01T06:23:36Z</time>
      </trkpt>
      <trkpt lat="45.24271" lon="6.16742">
        <ele>1849</ele>
        <time>2019-05-01T06:23:40Z</time>
      </trkpt>
      <trkpt lat="45.24272" lon="6.16738">
        <ele>1850.2</ele>
        <time>2019-05-01T06:23:44Z</time>
      </trkpt>
      <trkpt lat="45.2427" lon="6.1674">
        <ele>1850.4</ele>
        <time>2019-05-01T06:23:54Z</time>
      </trkpt>
      <trkpt lat="45.24269" lon="6.16745">
        <ele>1849</ele>
        <time>2019-05-01T06:23:57Z</time>
      </trkpt>
      <trkpt lat="45.24268" lon="6.16748">
        <ele>1848</ele>
        <time>2019-05-01T06:24:00Z</time>
      </trkpt>
      <trkpt lat="45.24265" lon="6.16748">
        <ele>1848.2</ele>
        <time>2019-05-01T06:24:05Z</time>
      </trkpt>
      <trkpt lat="45.24262" lon="6.16747">
        <ele>1848.5</ele>
        <time>2019-05-01T06:24:09Z</time>
      </trkpt>
      <trkpt lat="45.2426" lon="6.1675">
        <ele>1847.3</ele>
        <time>2019-05-01T06:24:12Z</time>
      </trkpt>
      <trkpt lat="45.24257" lon="6.16751">
        <ele>1847.6</ele>
        <time>2019-05-01T06:24:16Z</time>
      </trkpt>
      <trkpt lat="45.24253" lon="6.16751">
        <ele>1848.4</ele>
        <time>2019-05-01T06:24:20Z</time>
      </trkpt>
      <trkpt lat="45.2425" lon="6.16751">
        <ele>1848.8</ele>
        <time>2019-05-01T06:24:23Z</time>
      </trkpt>
      <trkpt lat="45.24247" lon="6.16752">
        <ele>1849.2</ele>
        <time>2019-05-01T06:24:27Z</time>
      </trkpt>
      <trkpt lat="45.24247" lon="6.16748">
        <ele>1850.3</ele>
        <time>2019-05-01T06:24:36Z</time>
      </trkpt>
      <trkpt lat="45.24248" lon="6.16744">
        <ele>1851</ele>
        <time>2019-05-01T06:24:41Z</time>
      </trkpt>
      <trkpt lat="45.2425" lon="6.1674">
        <ele>1852.2</ele>
        <time>2019-05-01T06:24:44Z</time>
      </trkpt>
      <trkpt lat="45.24252" lon="6.16738">
        <ele>1851.8</ele>
        <time>2019-05-01T06:24:47Z</time>
      </trkpt>
      <trkpt lat="45.24254" lon="6.16733">
        <ele>1852.7</ele>
        <time>2019-05-01T06:24:51Z</time>
      </trkpt>
      <trkpt lat="45.24256" lon="6.16729">
        <ele>1853.9</ele>
        <time>2019-05-01T06:24:55Z</time>
      </trkpt>
      <trkpt lat="45.24256" lon="6.16725">
        <ele>1855.1</ele>
        <time>2019-05-01T06:24:59Z</time>
      </trkpt>
      <trkpt lat="45.24258" lon="6.16722">
        <ele>1856.1</ele>
        <time>2019-05-01T06:25:03Z</time>
      </trkpt>
      <trkpt lat="45.2426" lon="6.16719">
        <ele>1857</ele>
        <time>2019-05-01T06:25:08Z</time>
      </trkpt>
      <trkpt lat="45.24262" lon="6.16716">
        <ele>1857</ele>
        <time>2019-05-01T06:25:13Z</time>
      </trkpt>
      <trkpt lat="45.24264" lon="6.16713">
        <ele>1858.1</ele>
        <time>2019-05-01T06:25:17Z</time>
      </trkpt>
      <trkpt lat="45.24267" lon="6.16711">
        <ele>1858</ele>
        <time>2019-05-01T06:25:21Z</time>
      </trkpt>
      <trkpt lat="45.24269" lon="6.16707">
        <ele>1859.2</ele>
        <time>2019-05-01T06:25:26Z</time>
      </trkpt>
      <trkpt lat="45.2427" lon="6.16703">
        <ele>1860.5</ele>
        <time>2019-05-01T06:25:32Z</time>
      </trkpt>
      <trkpt lat="45.24267" lon="6.16702">
        <ele>1861.9</ele>
        <time>2019-05-01T06:25:38Z</time>
      </trkpt>
      <trkpt lat="45.24263" lon="6.167">
        <ele>1861.9</ele>
        <time>2019-05-01T06:25:41Z</time>
      </trkpt>
      <trkpt lat="45.2426" lon="6.16699">
        <ele>1862</ele>
        <time>2019-05-01T06:25:45Z</time>
      </trkpt>
      <trkpt lat="45.24257" lon="6.16697">
        <ele>1863.6</ele>
        <time>2019-05-01T06:25:48Z</time>
      </trkpt>
      <trkpt lat="45.24254" lon="6.16697">
        <ele>1863.7</ele>
        <time>2019-05-01T06:25:52Z</time>
      </trkpt>
      <trkpt lat="45.24251" lon="6.16696">
        <ele>1863.8</ele>
        <time>2019-05-01T06:25:55Z</time>
      </trkpt>
      <trkpt lat="45.24249" lon="6.16697">
        <ele>1864</ele>
        <time>2019-05-01T06:26:01Z</time>
      </trkpt>
      <trkpt lat="45.24246" lon="6.16697">
        <ele>1864.2</ele>
        <time>2019-05-01T06:26:05Z</time>
      </trkpt>
      <trkpt lat="45.24243" lon="6.16697">
        <ele>1864.5</ele>
        <time>2019-05-01T06:26:09Z</time>
      </trkpt>
      <trkpt lat="45.24239" lon="6.16697">
        <ele>1864.7</ele>
        <time>2019-05-01T06:26:14Z</time>
      </trkpt>
      <trkpt lat="45.24236" lon="6.16696">
        <ele>1865</ele>
        <time>2019-05-01T06:26:17Z</time>
      </trkpt>
      <trkpt lat="45.24234" lon="6.16695">
        <ele>1865.4</ele>
        <time>2019-05-01T06:26:21Z</time>
      </trkpt>
      <trkpt lat="45.24231" lon="6.16696">
        <ele>1865.7</ele>
        <time>2019-05-01T06:26:25Z</time>
      </trkpt>
      <trkpt lat="45.24228" lon="6.16696">
        <ele>1866.1</ele>
        <time>2019-05-01T06:26:30Z</time>
      </trkpt>
      <trkpt lat="45.24225" lon="6.16698">
        <ele>1865.3</ele>
        <time>2019-05-01T06:26:34Z</time>
      </trkpt>
      <trkpt lat="45.24224" lon="6.16702">
        <ele>1865.3</ele>
        <time>2019-05-01T06:26:38Z</time>
      </trkpt>
      <trkpt lat="45.24221" lon="6.16699">
        <ele>1865.8</ele>
        <time>2019-05-01T06:26:45Z</time>
      </trkpt>
      <trkpt lat="45.24219" lon="6.16694">
        <ele>1867.5</ele>
        <time>2019-05-01T06:26:52Z</time>
      </trkpt>
      <trkpt lat="45.24218" lon="6.16687">
        <ele>1870.1</ele>
        <time>2019-05-01T06:26:54Z</time>
      </trkpt>
      <trkpt lat="45.24217" lon="6.16682">
        <ele>1871.4</ele>
        <time>2019-05-01T06:26:56Z</time>
      </trkpt>
      <trkpt lat="45.24216" lon="6.16679">
        <ele>1873.1</ele>
        <time>2019-05-01T06:26:58Z</time>
      </trkpt>
      <trkpt lat="45.24218" lon="6.16683">
        <ele>1871.4</ele>
        <time>2019-05-01T06:27:06Z</time>
      </trkpt>
      <trkpt lat="45.24217" lon="6.16679">
        <ele>1873.1</ele>
        <time>2019-05-01T06:27:10Z</time>
      </trkpt>
      <trkpt lat="45.24216" lon="6.16675">
        <ele>1874.3</ele>
        <time>2019-05-01T06:27:16Z</time>
      </trkpt>
      <trkpt lat="45.24216" lon="6.1667">
        <ele>1875.6</ele>
        <time>2019-05-01T06:27:22Z</time>
      </trkpt>
      <trkpt lat="45.24215" lon="6.16666">
        <ele>1876.9</ele>
        <time>2019-05-01T06:27:26Z</time>
      </trkpt>
      <trkpt lat="45.24215" lon="6.1666">
        <ele>1878.2</ele>
        <time>2019-05-01T06:27:28Z</time>
      </trkpt>
      <trkpt lat="45.24214" lon="6.16656">
        <ele>1879.9</ele>
        <time>2019-05-01T06:27:31Z</time>
      </trkpt>
      <trkpt lat="45.24213" lon="6.16652">
        <ele>1881.4</ele>
        <time>2019-05-01T06:27:33Z</time>
      </trkpt>
      <trkpt lat="45.24211" lon="6.16649">
        <ele>1883.3</ele>
        <time>2019-05-01T06:27:37Z</time>
      </trkpt>
      <trkpt lat="45.24208" lon="6.16647">
        <ele>1883.3</ele>
        <time>2019-05-01T06:27:46Z</time>
      </trkpt>
      <trkpt lat="45.24208" lon="6.16653">
        <ele>1881.7</ele>
        <time>2019-05-01T06:27:51Z</time>
      </trkpt>
      <trkpt lat="45.24207" lon="6.16649">
        <ele>1883.6</ele>
        <time>2019-05-01T06:28:00Z</time>
      </trkpt>
      <trkpt lat="45.24206" lon="6.16646">
        <ele>1885.2</ele>
        <time>2019-05-01T06:28:03Z</time>
      </trkpt>
      <trkpt lat="45.24204" lon="6.16642">
        <ele>1887.2</ele>
        <time>2019-05-01T06:28:05Z</time>
      </trkpt>
      <trkpt lat="45.24202" lon="6.16638">
        <ele>1888.8</ele>
        <time>2019-05-01T06:28:07Z</time>
      </trkpt>
      <trkpt lat="45.242" lon="6.16635">
        <ele>1889.2</ele>
        <time>2019-05-01T06:28:11Z</time>
      </trkpt>
      <trkpt lat="45.242" lon="6.1663">
        <ele>1890.8</ele>
        <time>2019-05-01T06:28:16Z</time>
      </trkpt>
      <trkpt lat="45.24198" lon="6.16627">
        <ele>1892.8</ele>
        <time>2019-05-01T06:28:19Z</time>
      </trkpt>
      <trkpt lat="45.24196" lon="6.16622">
        <ele>1894.3</ele>
        <time>2019-05-01T06:28:35Z</time>
      </trkpt>
      <trkpt lat="45.24196" lon="6.16626">
        <ele>1892.8</ele>
        <time>2019-05-01T06:29:37Z</time>
      </trkpt>
      <trkpt lat="45.24195" lon="6.16621">
        <ele>1894.7</ele>
        <time>2019-05-01T06:29:40Z</time>
      </trkpt>
      <trkpt lat="45.24194" lon="6.16617">
        <ele>1896.3</ele>
        <time>2019-05-01T06:29:42Z</time>
      </trkpt>
      <trkpt lat="45.24192" lon="6.1661">
        <ele>1900.1</ele>
        <time>2019-05-01T06:29:44Z</time>
      </trkpt>
      <trkpt lat="45.24191" lon="6.16605">
        <ele>1901.8</ele>
        <time>2019-05-01T06:29:46Z</time>
      </trkpt>
      <trkpt lat="45.24189" lon="6.16601">
        <ele>1904</ele>
        <time>2019-05-01T06:29:48Z</time>
      </trkpt>
      <trkpt lat="45.24187" lon="6.16599">
        <ele>1905.7</ele>
        <time>2019-05-01T06:29:53Z</time>
      </trkpt>
      <trkpt lat="45.24186" lon="6.16595">
        <ele>1907.7</ele>
        <time>2019-05-01T06:29:57Z</time>
      </trkpt>
      <trkpt lat="45.24186" lon="6.16591">
        <ele>1907.7</ele>
        <time>2019-05-01T06:30:02Z</time>
      </trkpt>
      <trkpt lat="45.24185" lon="6.16587">
        <ele>1909.4</ele>
        <time>2019-05-01T06:30:11Z</time>
      </trkpt>
      <trkpt lat="45.24184" lon="6.16582">
        <ele>1912.6</ele>
        <time>2019-05-01T06:30:14Z</time>
      </trkpt>
      <trkpt lat="45.24184" lon="6.16577">
        <ele>1914.2</ele>
        <time>2019-05-01T06:30:18Z</time>
      </trkpt>
      <trkpt lat="45.24181" lon="6.16574">
        <ele>1914.4</ele>
        <time>2019-05-01T06:30:23Z</time>
      </trkpt>
      <trkpt lat="45.24178" lon="6.16571">
        <ele>1916.3</ele>
        <time>2019-05-01T06:30:27Z</time>
      </trkpt>
      <trkpt lat="45.24176" lon="6.16569">
        <ele>1918.3</ele>
        <time>2019-05-01T06:30:31Z</time>
      </trkpt>
      <trkpt lat="45.24175" lon="6.16564">
        <ele>1920.5</ele>
        <time>2019-05-01T06:30:37Z</time>
      </trkpt>
      <trkpt lat="45.24173" lon="6.16561">
        <ele>1920.5</ele>
        <time>2019-05-01T06:30:41Z</time>
      </trkpt>
      <trkpt lat="45.24171" lon="6.16558">
        <ele>1922.8</ele>
        <time>2019-05-01T06:30:44Z</time>
      </trkpt>
      <trkpt lat="45.24168" lon="6.16557">
        <ele>1923.3</ele>
        <time>2019-05-01T06:30:49Z</time>
      </trkpt>
      <trkpt lat="45.24166" lon="6.16554">
        <ele>1925.3</ele>
        <time>2019-05-01T06:30:53Z</time>
      </trkpt>
      <trkpt lat="45.24163" lon="6.16553">
        <ele>1925.7</ele>
        <time>2019-05-01T06:30:56Z</time>
      </trkpt>
      <trkpt lat="45.24163" lon="6.16549">
        <ele>1927.7</ele>
        <time>2019-05-01T06:31:06Z</time>
      </trkpt>
      <trkpt lat="45.24161" lon="6.16545">
        <ele>1930</ele>
        <time>2019-05-01T06:31:09Z</time>
      </trkpt>
      <trkpt lat="45.24158" lon="6.16544">
        <ele>1930.4</ele>
        <time>2019-05-01T06:31:13Z</time>
      </trkpt>
      <trkpt lat="45.24156" lon="6.16541">
        <ele>1932.6</ele>
        <time>2019-05-01T06:31:17Z</time>
      </trkpt>
      <trkpt lat="45.24154" lon="6.16537">
        <ele>1934.6</ele>
        <time>2019-05-01T06:31:21Z</time>
      </trkpt>
      <trkpt lat="45.24151" lon="6.16535">
        <ele>1936.2</ele>
        <time>2019-05-01T06:31:24Z</time>
      </trkpt>
      <trkpt lat="45.24149" lon="6.1653">
        <ele>1938.2</ele>
        <time>2019-05-01T06:31:30Z</time>
      </trkpt>
      <trkpt lat="45.2415" lon="6.16523">
        <ele>1939.8</ele>
        <time>2019-05-01T06:31:32Z</time>
      </trkpt>
      <trkpt lat="45.24147" lon="6.16519">
        <ele>1941.8</ele>
        <time>2019-05-01T06:31:34Z</time>
      </trkpt>
      <trkpt lat="45.24143" lon="6.16517">
        <ele>1943.8</ele>
        <time>2019-05-01T06:31:35Z</time>
      </trkpt>
      <trkpt lat="45.2414" lon="6.16522">
        <ele>1942.6</ele>
        <time>2019-05-01T06:31:37Z</time>
      </trkpt>
      <trkpt lat="45.24137" lon="6.16522">
        <ele>1941.5</ele>
        <time>2019-05-01T06:31:39Z</time>
      </trkpt>
      <trkpt lat="45.24134" lon="6.16522">
        <ele>1942</ele>
        <time>2019-05-01T06:31:42Z</time>
      </trkpt>
      <trkpt lat="45.24131" lon="6.16522">
        <ele>1944</ele>
        <time>2019-05-01T06:31:44Z</time>
      </trkpt>
      <trkpt lat="45.24129" lon="6.16518">
        <ele>1944.5</ele>
        <time>2019-05-01T06:31:46Z</time>
      </trkpt>
      <trkpt lat="45.24128" lon="6.16514">
        <ele>1946</ele>
        <time>2019-05-01T06:31:53Z</time>
      </trkpt>
      <trkpt lat="45.24131" lon="6.16512">
        <ele>1947</ele>
        <time>2019-05-01T06:31:55Z</time>
      </trkpt>
      <trkpt lat="45.24134" lon="6.16509">
        <ele>1946.6</ele>
        <time>2019-05-01T06:31:58Z</time>
      </trkpt>
      <trkpt lat="45.24134" lon="6.16503">
        <ele>1949.8</ele>
        <time>2019-05-01T06:32:02Z</time>
      </trkpt>
      <trkpt lat="45.2413" lon="6.165">
        <ele>1951.7</ele>
        <time>2019-05-01T06:32:04Z</time>
      </trkpt>
      <trkpt lat="45.24128" lon="6.16497">
        <ele>1952.1</ele>
        <time>2019-05-01T06:32:07Z</time>
      </trkpt>
      <trkpt lat="45.24126" lon="6.16495">
        <ele>1954</ele>
        <time>2019-05-01T06:32:13Z</time>
      </trkpt>
      <trkpt lat="45.24122" lon="6.16495">
        <ele>1954.6</ele>
        <time>2019-05-01T06:32:15Z</time>
      </trkpt>
      <trkpt lat="45.24119" lon="6.16491">
        <ele>1956.6</ele>
        <time>2019-05-01T06:32:17Z</time>
      </trkpt>
      <trkpt lat="45.24124" lon="6.16495">
        <ele>1954</ele>
        <time>2019-05-01T06:32:20Z</time>
      </trkpt>
      <trkpt lat="45.24127" lon="6.16499">
        <ele>1952.1</ele>
        <time>2019-05-01T06:32:22Z</time>
      </trkpt>
      <trkpt lat="45.24126" lon="6.16503">
        <ele>1951.1</ele>
        <time>2019-05-01T06:32:26Z</time>
      </trkpt>
      <trkpt lat="45.24122" lon="6.16503">
        <ele>1951.7</ele>
        <time>2019-05-01T06:32:29Z</time>
      </trkpt>
      <trkpt lat="45.2412" lon="6.16499">
        <ele>1953.2</ele>
        <time>2019-05-01T06:32:33Z</time>
      </trkpt>
      <trkpt lat="45.24121" lon="6.16495">
        <ele>1954.6</ele>
        <time>2019-05-01T06:32:35Z</time>
      </trkpt>
      <trkpt lat="45.24122" lon="6.16492">
        <ele>1956</ele>
        <time>2019-05-01T06:32:37Z</time>
      </trkpt>
      <trkpt lat="45.24124" lon="6.16488">
        <ele>1955.4</ele>
        <time>2019-05-01T06:32:40Z</time>
      </trkpt>
      <trkpt lat="45.24124" lon="6.16484">
        <ele>1956.8</ele>
        <time>2019-05-01T06:32:44Z</time>
      </trkpt>
      <trkpt lat="45.24123" lon="6.1648">
        <ele>1958.7</ele>
        <time>2019-05-01T06:32:48Z</time>
      </trkpt>
      <trkpt lat="45.24123" lon="6.16476">
        <ele>1959.6</ele>
        <time>2019-05-01T06:32:52Z</time>
      </trkpt>
      <trkpt lat="45.24121" lon="6.16474">
        <ele>1961.6</ele>
        <time>2019-05-01T06:32:55Z</time>
      </trkpt>
      <trkpt lat="45.24119" lon="6.16471">
        <ele>1962.2</ele>
        <time>2019-05-01T06:32:58Z</time>
      </trkpt>
      <trkpt lat="45.24121" lon="6.16467">
        <ele>1963.2</ele>
        <time>2019-05-01T06:33:02Z</time>
      </trkpt>
      <trkpt lat="45.24124" lon="6.16465">
        <ele>1964.3</ele>
        <time>2019-05-01T06:33:05Z</time>
      </trkpt>
      <trkpt lat="45.24127" lon="6.16463">
        <ele>1963.9</ele>
        <time>2019-05-01T06:33:08Z</time>
      </trkpt>
      <trkpt lat="45.24129" lon="6.16459">
        <ele>1965.4</ele>
        <time>2019-05-01T06:33:12Z</time>
      </trkpt>
      <trkpt lat="45.24131" lon="6.16457">
        <ele>1966.6</ele>
        <time>2019-05-01T06:33:15Z</time>
      </trkpt>
      <trkpt lat="45.24134" lon="6.16461">
        <ele>1964.9</ele>
        <time>2019-05-01T06:33:18Z</time>
      </trkpt>
      <trkpt lat="45.2413" lon="6.16458">
        <ele>1965.1</ele>
        <time>2019-05-01T06:33:22Z</time>
      </trkpt>
      <trkpt lat="45.24128" lon="6.16454">
        <ele>1966.9</ele>
        <time>2019-05-01T06:33:23Z</time>
      </trkpt>
      <trkpt lat="45.24125" lon="6.16451">
        <ele>1968.6</ele>
        <time>2019-05-01T06:33:24Z</time>
      </trkpt>
      <trkpt lat="45.24122" lon="6.1645">
        <ele>1969.1</ele>
        <time>2019-05-01T06:33:25Z</time>
      </trkpt>
      <trkpt lat="45.24118" lon="6.1645">
        <ele>1969.6</ele>
        <time>2019-05-01T06:33:27Z</time>
      </trkpt>
      <trkpt lat="45.24115" lon="6.1645">
        <ele>1970.2</ele>
        <time>2019-05-01T06:33:29Z</time>
      </trkpt>
      <trkpt lat="45.24117" lon="6.16446">
        <ele>1971.5</ele>
        <time>2019-05-01T06:33:33Z</time>
      </trkpt>
      <trkpt lat="45.2412" lon="6.16447">
        <ele>1970.9</ele>
        <time>2019-05-01T06:33:35Z</time>
      </trkpt>
      <trkpt lat="45.24122" lon="6.16451">
        <ele>1969.1</ele>
        <time>2019-05-01T06:33:37Z</time>
      </trkpt>
      <trkpt lat="45.24119" lon="6.16453">
        <ele>1969.6</ele>
        <time>2019-05-01T06:33:42Z</time>
      </trkpt>
      <trkpt lat="45.24113" lon="6.16451">
        <ele>1970.8</ele>
        <time>2019-05-01T06:33:44Z</time>
      </trkpt>
      <trkpt lat="45.2411" lon="6.16449">
        <ele>1972.9</ele>
        <time>2019-05-01T06:33:46Z</time>
      </trkpt>
      <trkpt lat="45.24111" lon="6.16445">
        <ele>1972.9</ele>
        <time>2019-05-01T06:33:49Z</time>
      </trkpt>
      <trkpt lat="45.24114" lon="6.16442">
        <ele>1973.4</ele>
        <time>2019-05-01T06:33:52Z</time>
      </trkpt>
      <trkpt lat="45.24116" lon="6.1644">
        <ele>1972.8</ele>
        <time>2019-05-01T06:33:55Z</time>
      </trkpt>
      <trkpt lat="45.24118" lon="6.16437">
        <ele>1973.6</ele>
        <time>2019-05-01T06:34:01Z</time>
      </trkpt>
      <trkpt lat="45.2412" lon="6.16434">
        <ele>1974.9</ele>
        <time>2019-05-01T06:34:05Z</time>
      </trkpt>
      <trkpt lat="45.24122" lon="6.1643">
        <ele>1975.7</ele>
        <time>2019-05-01T06:34:11Z</time>
      </trkpt>
      <trkpt lat="45.24124" lon="6.16427">
        <ele>1976.7</ele>
        <time>2019-05-01T06:34:16Z</time>
      </trkpt>
      <trkpt lat="45.24123" lon="6.16423">
        <ele>1978.5</ele>
        <time>2019-05-01T06:34:25Z</time>
      </trkpt>
      <trkpt lat="45.24121" lon="6.16419">
        <ele>1979.9</ele>
        <time>2019-05-01T06:34:27Z</time>
      </trkpt>
      <trkpt lat="45.24118" lon="6.16417">
        <ele>1980.3</ele>
        <time>2019-05-01T06:34:29Z</time>
      </trkpt>
      <trkpt lat="45.24114" lon="6.16416">
        <ele>1981.2</ele>
        <time>2019-05-01T06:34:31Z</time>
      </trkpt>
      <trkpt lat="45.24111" lon="6.16415">
        <ele>1983.1</ele>
        <time>2019-05-01T06:34:32Z</time>
      </trkpt>
      <trkpt lat="45.24109" lon="6.16413">
        <ele>1983.1</ele>
        <time>2019-05-01T06:34:33Z</time>
      </trkpt>
      <trkpt lat="45.24111" lon="6.1641">
        <ele>1984.3</ele>
        <time>2019-05-01T06:34:54Z</time>
      </trkpt>
      <trkpt lat="45.24114" lon="6.16407">
        <ele>1983.7</ele>
        <time>2019-05-01T06:34:58Z</time>
      </trkpt>
      <trkpt lat="45.24116" lon="6.16406">
        <ele>1984.4</ele>
        <time>2019-05-01T06:35:01Z</time>
      </trkpt>
      <trkpt lat="45.24119" lon="6.16404">
        <ele>1984</ele>
        <time>2019-05-01T06:35:04Z</time>
      </trkpt>
      <trkpt lat="45.2412" lon="6.16401">
        <ele>1985.2</ele>
        <time>2019-05-01T06:35:09Z</time>
      </trkpt>
      <trkpt lat="45.24122" lon="6.16398">
        <ele>1984.9</ele>
        <time>2019-05-01T06:35:15Z</time>
      </trkpt>
      <trkpt lat="45.24119" lon="6.16396">
        <ele>1986.3</ele>
        <time>2019-05-01T06:35:29Z</time>
      </trkpt>
      <trkpt lat="45.24118" lon="6.16392">
        <ele>1987.5</ele>
        <time>2019-05-01T06:35:35Z</time>
      </trkpt>
      <trkpt lat="45.24116" lon="6.16389">
        <ele>1987.8</ele>
        <time>2019-05-01T06:35:39Z</time>
      </trkpt>
      <trkpt lat="45.24115" lon="6.16386">
        <ele>1989</ele>
        <time>2019-05-01T06:35:45Z</time>
      </trkpt>
      <trkpt lat="45.24113" lon="6.16382">
        <ele>1990.6</ele>
        <time>2019-05-01T06:35:50Z</time>
      </trkpt>
      <trkpt lat="45.24114" lon="6.16378">
        <ele>1991.7</ele>
        <time>2019-05-01T06:35:54Z</time>
      </trkpt>
      <trkpt lat="45.24111" lon="6.16377">
        <ele>1991.7</ele>
        <time>2019-05-01T06:35:56Z</time>
      </trkpt>
      <trkpt lat="45.24109" lon="6.16378">
        <ele>1992.1</ele>
        <time>2019-05-01T06:35:58Z</time>
      </trkpt>
      <trkpt lat="45.24107" lon="6.16375">
        <ele>1993.6</ele>
        <time>2019-05-01T06:36:07Z</time>
      </trkpt>
      <trkpt lat="45.24105" lon="6.16372">
        <ele>1995</ele>
        <time>2019-05-01T06:36:14Z</time>
      </trkpt>
      <trkpt lat="45.24103" lon="6.16368">
        <ele>1995</ele>
        <time>2019-05-01T06:36:18Z</time>
      </trkpt>
      <trkpt lat="45.24102" lon="6.16364">
        <ele>1996.4</ele>
        <time>2019-05-01T06:36:22Z</time>
      </trkpt>
      <trkpt lat="45.24101" lon="6.1636">
        <ele>1997.4</ele>
        <time>2019-05-01T06:36:28Z</time>
      </trkpt>
      <trkpt lat="45.24099" lon="6.16356">
        <ele>1998.3</ele>
        <time>2019-05-01T06:36:33Z</time>
      </trkpt>
      <trkpt lat="45.24099" lon="6.16352">
        <ele>1999.5</ele>
        <time>2019-05-01T06:36:37Z</time>
      </trkpt>
      <trkpt lat="45.24098" lon="6.16348">
        <ele>2000.4</ele>
        <time>2019-05-01T06:36:41Z</time>
      </trkpt>
      <trkpt lat="45.24095" lon="6.16344">
        <ele>2001.5</ele>
        <time>2019-05-01T06:36:45Z</time>
      </trkpt>
      <trkpt lat="45.24094" lon="6.1634">
        <ele>2002.4</ele>
        <time>2019-05-01T06:36:49Z</time>
      </trkpt>
      <trkpt lat="45.24091" lon="6.16335">
        <ele>2003.6</ele>
        <time>2019-05-01T06:36:53Z</time>
      </trkpt>
      <trkpt lat="45.2409" lon="6.16332">
        <ele>2005.2</ele>
        <time>2019-05-01T06:36:55Z</time>
      </trkpt>
      <trkpt lat="45.2409" lon="6.16327">
        <ele>2006</ele>
        <time>2019-05-01T06:37:01Z</time>
      </trkpt>
      <trkpt lat="45.24091" lon="6.16324">
        <ele>2006.3</ele>
        <time>2019-05-01T06:37:04Z</time>
      </trkpt>
      <trkpt lat="45.24092" lon="6.16319">
        <ele>2007</ele>
        <time>2019-05-01T06:37:07Z</time>
      </trkpt>
      <trkpt lat="45.24091" lon="6.16315">
        <ele>2007.6</ele>
        <time>2019-05-01T06:37:11Z</time>
      </trkpt>
      <trkpt lat="45.24092" lon="6.16311">
        <ele>2008.1</ele>
        <time>2019-05-01T06:37:16Z</time>
      </trkpt>
      <trkpt lat="45.24096" lon="6.1631">
        <ele>2007.7</ele>
        <time>2019-05-01T06:37:19Z</time>
      </trkpt>
      <trkpt lat="45.241" lon="6.16311">
        <ele>2007.6</ele>
        <time>2019-05-01T06:37:22Z</time>
      </trkpt>
      <trkpt lat="45.24103" lon="6.16312">
        <ele>2006.8</ele>
        <time>2019-05-01T06:37:27Z</time>
      </trkpt>
      <trkpt lat="45.24104" lon="6.16308">
        <ele>2007.4</ele>
        <time>2019-05-01T06:37:34Z</time>
      </trkpt>
      <trkpt lat="45.24102" lon="6.16304">
        <ele>2008.2</ele>
        <time>2019-05-01T06:37:40Z</time>
      </trkpt>
      <trkpt lat="45.24099" lon="6.16304">
        <ele>2008.3</ele>
        <time>2019-05-01T06:37:44Z</time>
      </trkpt>
      <trkpt lat="45.24098" lon="6.16299">
        <ele>2008.9</ele>
        <time>2019-05-01T06:37:48Z</time>
      </trkpt>
      <trkpt lat="45.24096" lon="6.16295">
        <ele>2009.7</ele>
        <time>2019-05-01T06:37:53Z</time>
      </trkpt>
      <trkpt lat="45.24094" lon="6.16291">
        <ele>2010.2</ele>
        <time>2019-05-01T06:37:57Z</time>
      </trkpt>
      <trkpt lat="45.24094" lon="6.16287">
        <ele>2010.8</ele>
        <time>2019-05-01T06:38:00Z</time>
      </trkpt>
      <trkpt lat="45.24094" lon="6.16283">
        <ele>2011.4</ele>
        <time>2019-05-01T06:38:03Z</time>
      </trkpt>
      <trkpt lat="45.24093" lon="6.16279">
        <ele>2012.2</ele>
        <time>2019-05-01T06:38:07Z</time>
      </trkpt>
      <trkpt lat="45.24092" lon="6.16276">
        <ele>2012.7</ele>
        <time>2019-05-01T06:38:12Z</time>
      </trkpt>
      <trkpt lat="45.24092" lon="6.16271">
        <ele>2013.3</ele>
        <time>2019-05-01T06:38:18Z</time>
      </trkpt>
      <trkpt lat="45.24092" lon="6.16267">
        <ele>2013.8</ele>
        <time>2019-05-01T06:38:23Z</time>
      </trkpt>
      <trkpt lat="45.24093" lon="6.16262">
        <ele>2014.3</ele>
        <time>2019-05-01T06:38:27Z</time>
      </trkpt>
      <trkpt lat="45.24094" lon="6.16258">
        <ele>2014.9</ele>
        <time>2019-05-01T06:38:31Z</time>
      </trkpt>
      <trkpt lat="45.24095" lon="6.16254">
        <ele>2015.6</ele>
        <time>2019-05-01T06:38:34Z</time>
      </trkpt>
      <trkpt lat="45.24095" lon="6.16249">
        <ele>2016.3</ele>
        <time>2019-05-01T06:38:37Z</time>
      </trkpt>
      <trkpt lat="45.24094" lon="6.16245">
        <ele>2017.1</ele>
        <time>2019-05-01T06:38:41Z</time>
      </trkpt>
      <trkpt lat="45.24093" lon="6.16241">
        <ele>2017.9</ele>
        <time>2019-05-01T06:38:45Z</time>
      </trkpt>
      <trkpt lat="45.24092" lon="6.16237">
        <ele>2018.7</ele>
        <time>2019-05-01T06:38:50Z</time>
      </trkpt>
      <trkpt lat="45.2409" lon="6.16232">
        <ele>2019.5</ele>
        <time>2019-05-01T06:38:54Z</time>
      </trkpt>
      <trkpt lat="45.24088" lon="6.16228">
        <ele>2020.3</ele>
        <time>2019-05-01T06:39:04Z</time>
      </trkpt>
      <trkpt lat="45.24087" lon="6.16225">
        <ele>2021</ele>
        <time>2019-05-01T06:39:07Z</time>
      </trkpt>
      <trkpt lat="45.24086" lon="6.16222">
        <ele>2021.1</ele>
        <time>2019-05-01T06:39:10Z</time>
      </trkpt>
      <trkpt lat="45.24083" lon="6.16219">
        <ele>2022</ele>
        <time>2019-05-01T06:39:14Z</time>
      </trkpt>
      <trkpt lat="45.24081" lon="6.16216">
        <ele>2022.9</ele>
        <time>2019-05-01T06:39:18Z</time>
      </trkpt>
      <trkpt lat="45.2408" lon="6.16212">
        <ele>2023.6</ele>
        <time>2019-05-01T06:39:21Z</time>
      </trkpt>
      <trkpt lat="45.24079" lon="6.16208">
        <ele>2024.4</ele>
        <time>2019-05-01T06:39:25Z</time>
      </trkpt>
      <trkpt lat="45.24076" lon="6.16206">
        <ele>2024.5</ele>
        <time>2019-05-01T06:39:31Z</time>
      </trkpt>
      <trkpt lat="45.24074" lon="6.16204">
        <ele>2025.5</ele>
        <time>2019-05-01T06:39:40Z</time>
      </trkpt>
      <trkpt lat="45.24071" lon="6.16201">
        <ele>2025.6</ele>
        <time>2019-05-01T06:39:45Z</time>
      </trkpt>
      <trkpt lat="45.24069" lon="6.16198">
        <ele>2026.5</ele>
        <time>2019-05-01T06:39:49Z</time>
      </trkpt>
      <trkpt lat="45.24067" lon="6.16194">
        <ele>2027.5</ele>
        <time>2019-05-01T06:39:54Z</time>
      </trkpt>
      <trkpt lat="45.24065" lon="6.16191">
        <ele>2028.6</ele>
        <time>2019-05-01T06:39:57Z</time>
      </trkpt>
      <trkpt lat="45.24064" lon="6.16188">
        <ele>2028.6</ele>
        <time>2019-05-01T06:40:01Z</time>
      </trkpt>
      <trkpt lat="45.24062" lon="6.16184">
        <ele>2029.7</ele>
        <time>2019-05-01T06:40:08Z</time>
      </trkpt>
      <trkpt lat="45.24061" lon="6.1618">
        <ele>2030.5</ele>
        <time>2019-05-01T06:40:14Z</time>
      </trkpt>
      <trkpt lat="45.24059" lon="6.16177">
        <ele>2031.7</ele>
        <time>2019-05-01T06:40:20Z</time>
      </trkpt>
      <trkpt lat="45.2406" lon="6.16172">
        <ele>2032.6</ele>
        <time>2019-05-01T06:40:27Z</time>
      </trkpt>
      <trkpt lat="45.24058" lon="6.16169">
        <ele>2033.5</ele>
        <time>2019-05-01T06:40:31Z</time>
      </trkpt>
      <trkpt lat="45.24057" lon="6.16165">
        <ele>2034.8</ele>
        <time>2019-05-01T06:40:35Z</time>
      </trkpt>
      <trkpt lat="45.24055" lon="6.1616">
        <ele>2035.8</ele>
        <time>2019-05-01T06:40:39Z</time>
      </trkpt>
      <trkpt lat="45.24054" lon="6.16157">
        <ele>2036.8</ele>
        <time>2019-05-01T06:40:42Z</time>
      </trkpt>
      <trkpt lat="45.24052" lon="6.16153">
        <ele>2038.1</ele>
        <time>2019-05-01T06:40:46Z</time>
      </trkpt>
      <trkpt lat="45.24051" lon="6.16149">
        <ele>2038.4</ele>
        <time>2019-05-01T06:40:49Z</time>
      </trkpt>
      <trkpt lat="45.24049" lon="6.16145">
        <ele>2039.3</ele>
        <time>2019-05-01T06:40:52Z</time>
      </trkpt>
      <trkpt lat="45.24047" lon="6.16142">
        <ele>2040.5</ele>
        <time>2019-05-01T06:40:56Z</time>
      </trkpt>
      <trkpt lat="45.24045" lon="6.16139">
        <ele>2041.7</ele>
        <time>2019-05-01T06:41:00Z</time>
      </trkpt>
      <trkpt lat="45.24043" lon="6.16136">
        <ele>2041.7</ele>
        <time>2019-05-01T06:41:04Z</time>
      </trkpt>
      <trkpt lat="45.2404" lon="6.16133">
        <ele>2042.9</ele>
        <time>2019-05-01T06:41:10Z</time>
      </trkpt>
      <trkpt lat="45.24038" lon="6.16129">
        <ele>2044.1</ele>
        <time>2019-05-01T06:41:14Z</time>
      </trkpt>
      <trkpt lat="45.24036" lon="6.16126">
        <ele>2045</ele>
        <time>2019-05-01T06:41:17Z</time>
      </trkpt>
      <trkpt lat="45.24035" lon="6.16121">
        <ele>2046.3</ele>
        <time>2019-05-01T06:41:21Z</time>
      </trkpt>
      <trkpt lat="45.24034" lon="6.16117">
        <ele>2047.2</ele>
        <time>2019-05-01T06:41:25Z</time>
      </trkpt>
      <trkpt lat="45.24032" lon="6.16114">
        <ele>2048.6</ele>
        <time>2019-05-01T06:41:29Z</time>
      </trkpt>
      <trkpt lat="45.24031" lon="6.16109">
        <ele>2049.6</ele>
        <time>2019-05-01T06:41:33Z</time>
      </trkpt>
      <trkpt lat="45.24029" lon="6.16105">
        <ele>2051</ele>
        <time>2019-05-01T06:41:37Z</time>
      </trkpt>
      <trkpt lat="45.24027" lon="6.16103">
        <ele>2051</ele>
        <time>2019-05-01T06:41:40Z</time>
      </trkpt>
      <trkpt lat="45.24025" lon="6.161">
        <ele>2052.3</ele>
        <time>2019-05-01T06:41:43Z</time>
      </trkpt>
      <trkpt lat="45.24024" lon="6.16096">
        <ele>2053.1</ele>
        <time>2019-05-01T06:41:46Z</time>
      </trkpt>
      <trkpt lat="45.24023" lon="6.16092">
        <ele>2054.3</ele>
        <time>2019-05-01T06:41:50Z</time>
      </trkpt>
      <trkpt lat="45.24021" lon="6.16089">
        <ele>2054.3</ele>
        <time>2019-05-01T06:41:55Z</time>
      </trkpt>
      <trkpt lat="45.24019" lon="6.16086">
        <ele>2055.4</ele>
        <time>2019-05-01T06:41:59Z</time>
      </trkpt>
      <trkpt lat="45.24017" lon="6.16083">
        <ele>2056.5</ele>
        <time>2019-05-01T06:42:03Z</time>
      </trkpt>
      <trkpt lat="45.24015" lon="6.16079">
        <ele>2057.1</ele>
        <time>2019-05-01T06:42:07Z</time>
      </trkpt>
      <trkpt lat="45.24014" lon="6.16075">
        <ele>2058.1</ele>
        <time>2019-05-01T06:42:11Z</time>
      </trkpt>
      <trkpt lat="45.24012" lon="6.16072">
        <ele>2058.1</ele>
        <time>2019-05-01T06:42:18Z</time>
      </trkpt>
      <trkpt lat="45.2401" lon="6.16069">
        <ele>2059.1</ele>
        <time>2019-05-01T06:42:23Z</time>
      </trkpt>
      <trkpt lat="45.2401" lon="6.16065">
        <ele>2059.9</ele>
        <time>2019-05-01T06:42:29Z</time>
      </trkpt>
      <trkpt lat="45.24008" lon="6.1606">
        <ele>2061</ele>
        <time>2019-05-01T06:42:33Z</time>
      </trkpt>
      <trkpt lat="45.24006" lon="6.16056">
        <ele>2061.7</ele>
        <time>2019-05-01T06:42:36Z</time>
      </trkpt>
      <trkpt lat="45.24005" lon="6.16052">
        <ele>2062.7</ele>
        <time>2019-05-01T06:42:39Z</time>
      </trkpt>
      <trkpt lat="45.24004" lon="6.16048">
        <ele>2063.4</ele>
        <time>2019-05-01T06:42:42Z</time>
      </trkpt>
      <trkpt lat="45.24003" lon="6.16044">
        <ele>2064.2</ele>
        <time>2019-05-01T06:42:47Z</time>
      </trkpt>
      <trkpt lat="45.24001" lon="6.1604">
        <ele>2064.7</ele>
        <time>2019-05-01T06:42:52Z</time>
      </trkpt>
      <trkpt lat="45.24001" lon="6.16036">
        <ele>2065.3</ele>
        <time>2019-05-01T06:42:57Z</time>
      </trkpt>
      <trkpt lat="45.24" lon="6.16032">
        <ele>2065.9</ele>
        <time>2019-05-01T06:43:01Z</time>
      </trkpt>
      <trkpt lat="45.24" lon="6.16027">
        <ele>2066.5</ele>
        <time>2019-05-01T06:43:05Z</time>
      </trkpt>
      <trkpt lat="45.23999" lon="6.16023">
        <ele>2067.1</ele>
        <time>2019-05-01T06:43:09Z</time>
      </trkpt>
      <trkpt lat="45.23998" lon="6.16019">
        <ele>2067.7</ele>
        <time>2019-05-01T06:43:14Z</time>
      </trkpt>
      <trkpt lat="45.23996" lon="6.16015">
        <ele>2068.3</ele>
        <time>2019-05-01T06:43:19Z</time>
      </trkpt>
      <trkpt lat="45.23995" lon="6.16011">
        <ele>2068.3</ele>
        <time>2019-05-01T06:43:23Z</time>
      </trkpt>
      <trkpt lat="45.23996" lon="6.16007">
        <ele>2069.6</ele>
        <time>2019-05-01T06:43:27Z</time>
      </trkpt>
      <trkpt lat="45.23995" lon="6.16003">
        <ele>2069.6</ele>
        <time>2019-05-01T06:43:32Z</time>
      </trkpt>
      <trkpt lat="45.23996" lon="6.15999">
        <ele>2070.3</ele>
        <time>2019-05-01T06:43:36Z</time>
      </trkpt>
      <trkpt lat="45.23996" lon="6.15995">
        <ele>2071</ele>
        <time>2019-05-01T06:43:39Z</time>
      </trkpt>
      <trkpt lat="45.23996" lon="6.1599">
        <ele>2071.7</ele>
        <time>2019-05-01T06:43:43Z</time>
      </trkpt>
      <trkpt lat="45.23995" lon="6.15987">
        <ele>2072.6</ele>
        <time>2019-05-01T06:43:46Z</time>
      </trkpt>
      <trkpt lat="45.23993" lon="6.15983">
        <ele>2073.3</ele>
        <time>2019-05-01T06:43:52Z</time>
      </trkpt>
      <trkpt lat="45.23992" lon="6.15979">
        <ele>2074.2</ele>
        <time>2019-05-01T06:43:56Z</time>
      </trkpt>
      <trkpt lat="45.23991" lon="6.15974">
        <ele>2075.3</ele>
        <time>2019-05-01T06:44:00Z</time>
      </trkpt>
      <trkpt lat="45.23988" lon="6.15972">
        <ele>2076.1</ele>
        <time>2019-05-01T06:44:06Z</time>
      </trkpt>
      <trkpt lat="45.23987" lon="6.15968">
        <ele>2075.9</ele>
        <time>2019-05-01T06:44:10Z</time>
      </trkpt>
      <trkpt lat="45.23987" lon="6.15964">
        <ele>2077</ele>
        <time>2019-05-01T06:44:14Z</time>
      </trkpt>
      <trkpt lat="45.23986" lon="6.1596">
        <ele>2078</ele>
        <time>2019-05-01T06:44:17Z</time>
      </trkpt>
      <trkpt lat="45.23986" lon="6.15956">
        <ele>2078.9</ele>
        <time>2019-05-01T06:44:21Z</time>
      </trkpt>
      <trkpt lat="45.23986" lon="6.15951">
        <ele>2080.9</ele>
        <time>2019-05-01T06:44:25Z</time>
      </trkpt>
      <trkpt lat="45.23986" lon="6.15947">
        <ele>2081.9</ele>
        <time>2019-05-01T06:44:28Z</time>
      </trkpt>
      <trkpt lat="45.23985" lon="6.15943">
        <ele>2081.9</ele>
        <time>2019-05-01T06:44:35Z</time>
      </trkpt>
      <trkpt lat="45.23984" lon="6.15939">
        <ele>2082.6</ele>
        <time>2019-05-01T06:44:39Z</time>
      </trkpt>
      <trkpt lat="45.23983" lon="6.15935">
        <ele>2083.7</ele>
        <time>2019-05-01T06:44:42Z</time>
      </trkpt>
      <trkpt lat="45.2398" lon="6.15933">
        <ele>2084.6</ele>
        <time>2019-05-01T06:46:44Z</time>
      </trkpt>
      <trkpt lat="45.23978" lon="6.1593">
        <ele>2085.5</ele>
        <time>2019-05-01T06:46:49Z</time>
      </trkpt>
      <trkpt lat="45.23976" lon="6.15926">
        <ele>2085.5</ele>
        <time>2019-05-01T06:46:53Z</time>
      </trkpt>
      <trkpt lat="45.23975" lon="6.15922">
        <ele>2086.5</ele>
        <time>2019-05-01T06:46:57Z</time>
      </trkpt>
      <trkpt lat="45.23975" lon="6.15918">
        <ele>2087.8</ele>
        <time>2019-05-01T06:47:03Z</time>
      </trkpt>
      <trkpt lat="45.23975" lon="6.15913">
        <ele>2089</ele>
        <time>2019-05-01T06:47:08Z</time>
      </trkpt>
      <trkpt lat="45.23974" lon="6.15908">
        <ele>2091.4</ele>
        <time>2019-05-01T06:47:12Z</time>
      </trkpt>
      <trkpt lat="45.23974" lon="6.15904">
        <ele>2092.6</ele>
        <time>2019-05-01T06:47:16Z</time>
      </trkpt>
      <trkpt lat="45.23974" lon="6.159">
        <ele>2092.6</ele>
        <time>2019-05-01T06:47:20Z</time>
      </trkpt>
      <trkpt lat="45.23973" lon="6.15895">
        <ele>2095</ele>
        <time>2019-05-01T06:47:24Z</time>
      </trkpt>
      <trkpt lat="45.23971" lon="6.15892">
        <ele>2094.6</ele>
        <time>2019-05-01T06:47:28Z</time>
      </trkpt>
      <trkpt lat="45.23969" lon="6.15889">
        <ele>2095.9</ele>
        <time>2019-05-01T06:47:32Z</time>
      </trkpt>
      <trkpt lat="45.23967" lon="6.15886">
        <ele>2096.7</ele>
        <time>2019-05-01T06:47:37Z</time>
      </trkpt>
      <trkpt lat="45.23966" lon="6.15882">
        <ele>2097.5</ele>
        <time>2019-05-01T06:47:41Z</time>
      </trkpt>
      <trkpt lat="45.23966" lon="6.15878">
        <ele>2098.7</ele>
        <time>2019-05-01T06:47:44Z</time>
      </trkpt>
      <trkpt lat="45.23965" lon="6.15874">
        <ele>2099.9</ele>
        <time>2019-05-01T06:47:48Z</time>
      </trkpt>
      <trkpt lat="45.23964" lon="6.1587">
        <ele>2099.9</ele>
        <time>2019-05-01T06:47:51Z</time>
      </trkpt>
      <trkpt lat="45.23962" lon="6.15867">
        <ele>2100.6</ele>
        <time>2019-05-01T06:47:56Z</time>
      </trkpt>
      <trkpt lat="45.2396" lon="6.15864">
        <ele>2101.4</ele>
        <time>2019-05-01T06:48:02Z</time>
      </trkpt>
      <trkpt lat="45.23958" lon="6.1586">
        <ele>2102.5</ele>
        <time>2019-05-01T06:48:06Z</time>
      </trkpt>
      <trkpt lat="45.23955" lon="6.15859">
        <ele>2102.3</ele>
        <time>2019-05-01T06:48:14Z</time>
      </trkpt>
      <trkpt lat="45.23953" lon="6.15857">
        <ele>2102</ele>
        <time>2019-05-01T06:48:18Z</time>
      </trkpt>
      <trkpt lat="45.23952" lon="6.15854">
        <ele>2103.1</ele>
        <time>2019-05-01T06:48:21Z</time>
      </trkpt>
      <trkpt lat="45.23949" lon="6.15851">
        <ele>2104</ele>
        <time>2019-05-01T06:48:28Z</time>
      </trkpt>
      <trkpt lat="45.23947" lon="6.15848">
        <ele>2104.8</ele>
        <time>2019-05-01T06:48:36Z</time>
      </trkpt>
      <trkpt lat="45.23945" lon="6.15844">
        <ele>2104.4</ele>
        <time>2019-05-01T06:48:41Z</time>
      </trkpt>
      <trkpt lat="45.23942" lon="6.1584">
        <ele>2105.7</ele>
        <time>2019-05-01T06:48:48Z</time>
      </trkpt>
      <trkpt lat="45.23941" lon="6.15836">
        <ele>2106.7</ele>
        <time>2019-05-01T06:48:50Z</time>
      </trkpt>
      <trkpt lat="45.2394" lon="6.15831">
        <ele>2108</ele>
        <time>2019-05-01T06:48:53Z</time>
      </trkpt>
      <trkpt lat="45.23939" lon="6.15828">
        <ele>2109</ele>
        <time>2019-05-01T06:48:56Z</time>
      </trkpt>
      <trkpt lat="45.23936" lon="6.15825">
        <ele>2109.9</ele>
        <time>2019-05-01T06:49:00Z</time>
      </trkpt>
      <trkpt lat="45.23934" lon="6.15823">
        <ele>2109.9</ele>
        <time>2019-05-01T06:49:05Z</time>
      </trkpt>
      <trkpt lat="45.23931" lon="6.15821">
        <ele>2110.8</ele>
        <time>2019-05-01T06:49:14Z</time>
      </trkpt>
      <trkpt lat="45.2393" lon="6.15816">
        <ele>2111.7</ele>
        <time>2019-05-01T06:49:27Z</time>
      </trkpt>
      <trkpt lat="45.2393" lon="6.15812">
        <ele>2113</ele>
        <time>2019-05-01T06:51:27Z</time>
      </trkpt>
      <trkpt lat="45.23932" lon="6.15809">
        <ele>2114.8</ele>
        <time>2019-05-01T06:51:33Z</time>
      </trkpt>
      <trkpt lat="45.23934" lon="6.15806">
        <ele>2115.2</ele>
        <time>2019-05-01T06:51:38Z</time>
      </trkpt>
      <trkpt lat="45.23936" lon="6.15803">
        <ele>2116.8</ele>
        <time>2019-05-01T06:51:43Z</time>
      </trkpt>
      <trkpt lat="45.23938" lon="6.158">
        <ele>2118.9</ele>
        <time>2019-05-01T06:51:49Z</time>
      </trkpt>
      <trkpt lat="45.2394" lon="6.15798">
        <ele>2119.4</ele>
        <time>2019-05-01T06:51:53Z</time>
      </trkpt>
      <trkpt lat="45.23943" lon="6.15795">
        <ele>2121.7</ele>
        <time>2019-05-01T06:51:58Z</time>
      </trkpt>
      <trkpt lat="45.23946" lon="6.15793">
        <ele>2122.3</ele>
        <time>2019-05-01T06:52:03Z</time>
      </trkpt>
      <trkpt lat="45.23948" lon="6.15791">
        <ele>2124.5</ele>
        <time>2019-05-01T06:52:07Z</time>
      </trkpt>
      <trkpt lat="45.23951" lon="6.15789">
        <ele>2124.5</ele>
        <time>2019-05-01T06:52:11Z</time>
      </trkpt>
      <trkpt lat="45.23954" lon="6.15787">
        <ele>2126.9</ele>
        <time>2019-05-01T06:52:16Z</time>
      </trkpt>
      <trkpt lat="45.23956" lon="6.15785">
        <ele>2127.5</ele>
        <time>2019-05-01T06:52:20Z</time>
      </trkpt>
      <trkpt lat="45.2396" lon="6.15784">
        <ele>2128</ele>
        <time>2019-05-01T06:52:24Z</time>
      </trkpt>
      <trkpt lat="45.23963" lon="6.15783">
        <ele>2130.3</ele>
        <time>2019-05-01T06:52:28Z</time>
      </trkpt>
      <trkpt lat="45.23966" lon="6.15782">
        <ele>2130.9</ele>
        <time>2019-05-01T06:52:32Z</time>
      </trkpt>
      <trkpt lat="45.23969" lon="6.15781">
        <ele>2131.5</ele>
        <time>2019-05-01T06:52:36Z</time>
      </trkpt>
      <trkpt lat="45.23972" lon="6.15781">
        <ele>2132.2</ele>
        <time>2019-05-01T06:52:39Z</time>
      </trkpt>
      <trkpt lat="45.23975" lon="6.15782">
        <ele>2132.9</ele>
        <time>2019-05-01T06:52:42Z</time>
      </trkpt>
      <trkpt lat="45.23978" lon="6.15781">
        <ele>2133.7</ele>
        <time>2019-05-01T06:52:46Z</time>
      </trkpt>
      <trkpt lat="45.23981" lon="6.1578">
        <ele>2134.4</ele>
        <time>2019-05-01T06:52:50Z</time>
      </trkpt>
      <trkpt lat="45.23984" lon="6.15779">
        <ele>2136.9</ele>
        <time>2019-05-01T06:52:54Z</time>
      </trkpt>
      <trkpt lat="45.23987" lon="6.15777">
        <ele>2137.6</ele>
        <time>2019-05-01T06:52:59Z</time>
      </trkpt>
      <trkpt lat="45.2399" lon="6.15775">
        <ele>2140</ele>
        <time>2019-05-01T06:53:04Z</time>
      </trkpt>
      <trkpt lat="45.23993" lon="6.15777">
        <ele>2139.1</ele>
        <time>2019-05-01T06:53:08Z</time>
      </trkpt>
      <trkpt lat="45.23996" lon="6.15777">
        <ele>2139.9</ele>
        <time>2019-05-01T06:53:14Z</time>
      </trkpt>
      <trkpt lat="45.23999" lon="6.15778">
        <ele>2140.8</ele>
        <time>2019-05-01T06:53:19Z</time>
      </trkpt>
      <trkpt lat="45.24002" lon="6.15778">
        <ele>2141.7</ele>
        <time>2019-05-01T06:53:25Z</time>
      </trkpt>
      <trkpt lat="45.24005" lon="6.15778">
        <ele>2142.6</ele>
        <time>2019-05-01T06:53:30Z</time>
      </trkpt>
      <trkpt lat="45.24008" lon="6.15779">
        <ele>2141.8</ele>
        <time>2019-05-01T06:53:34Z</time>
      </trkpt>
      <trkpt lat="45.24011" lon="6.15781">
        <ele>2142.6</ele>
        <time>2019-05-01T06:53:37Z</time>
      </trkpt>
      <trkpt lat="45.24014" lon="6.15781">
        <ele>2143.5</ele>
        <time>2019-05-01T06:53:41Z</time>
      </trkpt>
      <trkpt lat="45.24013" lon="6.15778">
        <ele>2145.2</ele>
        <time>2019-05-01T06:53:48Z</time>
      </trkpt>
      <trkpt lat="45.24013" lon="6.15773">
        <ele>2146.8</ele>
        <time>2019-05-01T06:53:52Z</time>
      </trkpt>
      <trkpt lat="45.24013" lon="6.15769">
        <ele>2148.2</ele>
        <time>2019-05-01T06:54:00Z</time>
      </trkpt>
      <trkpt lat="45.24012" lon="6.15765">
        <ele>2149.8</ele>
        <time>2019-05-01T06:54:06Z</time>
      </trkpt>
      <trkpt lat="45.24011" lon="6.15761">
        <ele>2150.6</ele>
        <time>2019-05-01T06:54:10Z</time>
      </trkpt>
      <trkpt lat="45.24009" lon="6.1576">
        <ele>2149.8</ele>
        <time>2019-05-01T06:54:18Z</time>
      </trkpt>
      <trkpt lat="45.24007" lon="6.15756">
        <ele>2151.4</ele>
        <time>2019-05-01T06:54:22Z</time>
      </trkpt>
      <trkpt lat="45.24006" lon="6.15751">
        <ele>2152.3</ele>
        <time>2019-05-01T06:54:25Z</time>
      </trkpt>
      <trkpt lat="45.24004" lon="6.15747">
        <ele>2154</ele>
        <time>2019-05-01T06:54:28Z</time>
      </trkpt>
      <trkpt lat="45.24007" lon="6.15746">
        <ele>2154.8</ele>
        <time>2019-05-01T06:54:36Z</time>
      </trkpt>
      <trkpt lat="45.24009" lon="6.15748">
        <ele>2155.5</ele>
        <time>2019-05-01T06:54:41Z</time>
      </trkpt>
      <trkpt lat="45.24012" lon="6.15748">
        <ele>2156.2</ele>
        <time>2019-05-01T06:54:46Z</time>
      </trkpt>
      <trkpt lat="45.24015" lon="6.1575">
        <ele>2155.3</ele>
        <time>2019-05-01T06:54:50Z</time>
      </trkpt>
      <trkpt lat="45.24018" lon="6.1575">
        <ele>2156</ele>
        <time>2019-05-01T06:54:56Z</time>
      </trkpt>
      <trkpt lat="45.24021" lon="6.1575">
        <ele>2156.8</ele>
        <time>2019-05-01T06:55:00Z</time>
      </trkpt>
      <trkpt lat="45.24025" lon="6.1575">
        <ele>2157.5</ele>
        <time>2019-05-01T06:55:05Z</time>
      </trkpt>
      <trkpt lat="45.24028" lon="6.15751">
        <ele>2158.3</ele>
        <time>2019-05-01T06:55:09Z</time>
      </trkpt>
      <trkpt lat="45.24031" lon="6.15752">
        <ele>2159</ele>
        <time>2019-05-01T06:55:13Z</time>
      </trkpt>
      <trkpt lat="45.24034" lon="6.15752">
        <ele>2159.7</ele>
        <time>2019-05-01T06:55:16Z</time>
      </trkpt>
      <trkpt lat="45.24037" lon="6.15752">
        <ele>2160.5</ele>
        <time>2019-05-01T06:55:20Z</time>
      </trkpt>
      <trkpt lat="45.2404" lon="6.15751">
        <ele>2161.1</ele>
        <time>2019-05-01T06:55:25Z</time>
      </trkpt>
      <trkpt lat="45.24043" lon="6.1575">
        <ele>2161.8</ele>
        <time>2019-05-01T06:55:29Z</time>
      </trkpt>
      <trkpt lat="45.24046" lon="6.15749">
        <ele>2164</ele>
        <time>2019-05-01T06:55:33Z</time>
      </trkpt>
      <trkpt lat="45.24049" lon="6.15748">
        <ele>2164.7</ele>
        <time>2019-05-01T06:55:37Z</time>
      </trkpt>
      <trkpt lat="45.24052" lon="6.15747">
        <ele>2165.4</ele>
        <time>2019-05-01T06:55:41Z</time>
      </trkpt>
      <trkpt lat="45.24055" lon="6.15747">
        <ele>2166.2</ele>
        <time>2019-05-01T06:55:45Z</time>
      </trkpt>
      <trkpt lat="45.24058" lon="6.15746">
        <ele>2166.9</ele>
        <time>2019-05-01T06:55:49Z</time>
      </trkpt>
      <trkpt lat="45.24061" lon="6.15745">
        <ele>2169.1</ele>
        <time>2019-05-01T06:55:53Z</time>
      </trkpt>
      <trkpt lat="45.24063" lon="6.15744">
        <ele>2169.7</ele>
        <time>2019-05-01T06:55:57Z</time>
      </trkpt>
      <trkpt lat="45.24066" lon="6.15743">
        <ele>2170.3</ele>
        <time>2019-05-01T06:56:00Z</time>
      </trkpt>
      <trkpt lat="45.24069" lon="6.15742">
        <ele>2170.9</ele>
        <time>2019-05-01T06:56:03Z</time>
      </trkpt>
      <trkpt lat="45.24072" lon="6.15741">
        <ele>2171.4</ele>
        <time>2019-05-01T06:56:06Z</time>
      </trkpt>
      <trkpt lat="45.24076" lon="6.1574">
        <ele>2173.4</ele>
        <time>2019-05-01T06:56:10Z</time>
      </trkpt>
      <trkpt lat="45.24079" lon="6.15739">
        <ele>2174</ele>
        <time>2019-05-01T06:56:15Z</time>
      </trkpt>
      <trkpt lat="45.24081" lon="6.15739">
        <ele>2174.7</ele>
        <time>2019-05-01T06:56:19Z</time>
      </trkpt>
      <trkpt lat="45.24084" lon="6.1574">
        <ele>2175.3</ele>
        <time>2019-05-01T06:56:23Z</time>
      </trkpt>
      <trkpt lat="45.24087" lon="6.15742">
        <ele>2174.5</ele>
        <time>2019-05-01T06:56:27Z</time>
      </trkpt>
      <trkpt lat="45.2409" lon="6.15744">
        <ele>2175.1</ele>
        <time>2019-05-01T06:56:31Z</time>
      </trkpt>
      <trkpt lat="45.24093" lon="6.15745">
        <ele>2175.1</ele>
        <time>2019-05-01T06:56:35Z</time>
      </trkpt>
      <trkpt lat="45.24096" lon="6.15745">
        <ele>2175.6</ele>
        <time>2019-05-01T06:56:39Z</time>
      </trkpt>
      <trkpt lat="45.24099" lon="6.15746">
        <ele>2174.7</ele>
        <time>2019-05-01T06:56:44Z</time>
      </trkpt>
      <trkpt lat="45.24101" lon="6.15749">
        <ele>2175.3</ele>
        <time>2019-05-01T06:56:48Z</time>
      </trkpt>
      <trkpt lat="45.24104" lon="6.1575">
        <ele>2174.5</ele>
        <time>2019-05-01T06:56:52Z</time>
      </trkpt>
      <trkpt lat="45.24107" lon="6.15751">
        <ele>2175.1</ele>
        <time>2019-05-01T06:56:57Z</time>
      </trkpt>
      <trkpt lat="45.2411" lon="6.15751">
        <ele>2175.8</ele>
        <time>2019-05-01T06:57:02Z</time>
      </trkpt>
      <trkpt lat="45.24113" lon="6.15751">
        <ele>2176.5</ele>
        <time>2019-05-01T06:57:08Z</time>
      </trkpt>
      <trkpt lat="45.24116" lon="6.1575">
        <ele>2177.2</ele>
        <time>2019-05-01T06:57:13Z</time>
      </trkpt>
      <trkpt lat="45.24119" lon="6.1575">
        <ele>2178</ele>
        <time>2019-05-01T06:57:18Z</time>
      </trkpt>
      <trkpt lat="45.24122" lon="6.15753">
        <ele>2178.8</ele>
        <time>2019-05-01T06:57:23Z</time>
      </trkpt>
      <trkpt lat="45.24125" lon="6.15753">
        <ele>2179.5</ele>
        <time>2019-05-01T06:57:28Z</time>
      </trkpt>
      <trkpt lat="45.24128" lon="6.15753">
        <ele>2180.3</ele>
        <time>2019-05-01T06:57:32Z</time>
      </trkpt>
      <trkpt lat="45.24131" lon="6.15752">
        <ele>2181.1</ele>
        <time>2019-05-01T06:57:36Z</time>
      </trkpt>
      <trkpt lat="45.24134" lon="6.15751">
        <ele>2181.9</ele>
        <time>2019-05-01T06:57:41Z</time>
      </trkpt>
      <trkpt lat="45.24137" lon="6.1575">
        <ele>2182.8</ele>
        <time>2019-05-01T06:57:46Z</time>
      </trkpt>
      <trkpt lat="45.24139" lon="6.15748">
        <ele>2185.1</ele>
        <time>2019-05-01T06:57:51Z</time>
      </trkpt>
      <trkpt lat="45.2414" lon="6.15744">
        <ele>2186.4</ele>
        <time>2019-05-01T06:57:57Z</time>
      </trkpt>
      <trkpt lat="45.24141" lon="6.1574">
        <ele>2187.7</ele>
        <time>2019-05-01T06:58:03Z</time>
      </trkpt>
      <trkpt lat="45.24141" lon="6.15736">
        <ele>2188.8</ele>
        <time>2019-05-01T06:58:08Z</time>
      </trkpt>
      <trkpt lat="45.2414" lon="6.15732">
        <ele>2189.8</ele>
        <time>2019-05-01T06:58:13Z</time>
      </trkpt>
      <trkpt lat="45.24142" lon="6.15728">
        <ele>2191.7</ele>
        <time>2019-05-01T06:58:19Z</time>
      </trkpt>
      <trkpt lat="45.2414" lon="6.15725">
        <ele>2190.8</ele>
        <time>2019-05-01T06:58:24Z</time>
      </trkpt>
      <trkpt lat="45.24139" lon="6.1572">
        <ele>2191.8</ele>
        <time>2019-05-01T06:58:28Z</time>
      </trkpt>
      <trkpt lat="45.24139" lon="6.15716">
        <ele>2192.7</ele>
        <time>2019-05-01T06:58:32Z</time>
      </trkpt>
      <trkpt lat="45.2414" lon="6.15712">
        <ele>2193.7</ele>
        <time>2019-05-01T06:58:35Z</time>
      </trkpt>
      <trkpt lat="45.24141" lon="6.15707">
        <ele>2194.7</ele>
        <time>2019-05-01T06:58:40Z</time>
      </trkpt>
      <trkpt lat="45.24142" lon="6.15704">
        <ele>2196.5</ele>
        <time>2019-05-01T06:58:44Z</time>
      </trkpt>
      <trkpt lat="45.24142" lon="6.157">
        <ele>2196.6</ele>
        <time>2019-05-01T06:58:50Z</time>
      </trkpt>
      <trkpt lat="45.24142" lon="6.15695">
        <ele>2198.4</ele>
        <time>2019-05-01T06:58:55Z</time>
      </trkpt>
      <trkpt lat="45.24142" lon="6.15692">
        <ele>2199.3</ele>
        <time>2019-05-01T06:58:59Z</time>
      </trkpt>
      <trkpt lat="45.24144" lon="6.15688">
        <ele>2200.1</ele>
        <time>2019-05-01T06:59:03Z</time>
      </trkpt>
      <trkpt lat="45.24145" lon="6.15684">
        <ele>2201.6</ele>
        <time>2019-05-01T06:59:07Z</time>
      </trkpt>
      <trkpt lat="45.24147" lon="6.15681">
        <ele>2201.6</ele>
        <time>2019-05-01T06:59:12Z</time>
      </trkpt>
      <trkpt lat="45.24147" lon="6.15677">
        <ele>2202.4</ele>
        <time>2019-05-01T06:59:20Z</time>
      </trkpt>
      <trkpt lat="45.24149" lon="6.15674">
        <ele>2203.8</ele>
        <time>2019-05-01T06:59:26Z</time>
      </trkpt>
      <trkpt lat="45.24152" lon="6.15672">
        <ele>2204.4</ele>
        <time>2019-05-01T06:59:31Z</time>
      </trkpt>
      <trkpt lat="45.24155" lon="6.15671">
        <ele>2205.8</ele>
        <time>2019-05-01T06:59:36Z</time>
      </trkpt>
      <trkpt lat="45.24157" lon="6.1567">
        <ele>2206.5</ele>
        <time>2019-05-01T06:59:40Z</time>
      </trkpt>
      <trkpt lat="45.24161" lon="6.15669">
        <ele>2207.2</ele>
        <time>2019-05-01T06:59:45Z</time>
      </trkpt>
      <trkpt lat="45.24164" lon="6.1567">
        <ele>2208.1</ele>
        <time>2019-05-01T06:59:49Z</time>
      </trkpt>
      <trkpt lat="45.24167" lon="6.15672">
        <ele>2209</ele>
        <time>2019-05-01T06:59:54Z</time>
      </trkpt>
      <trkpt lat="45.24169" lon="6.15672">
        <ele>2209.1</ele>
        <time>2019-05-01T07:00:00Z</time>
      </trkpt>
      <trkpt lat="45.24173" lon="6.15673">
        <ele>2210</ele>
        <time>2019-05-01T07:00:05Z</time>
      </trkpt>
      <trkpt lat="45.24175" lon="6.15673">
        <ele>2210.8</ele>
        <time>2019-05-01T07:00:09Z</time>
      </trkpt>
      <trkpt lat="45.24178" lon="6.15674">
        <ele>2211.7</ele>
        <time>2019-05-01T07:00:13Z</time>
      </trkpt>
      <trkpt lat="45.24181" lon="6.15674">
        <ele>2211.7</ele>
        <time>2019-05-01T07:00:17Z</time>
      </trkpt>
      <trkpt lat="45.24184" lon="6.15672">
        <ele>2213.5</ele>
        <time>2019-05-01T07:00:22Z</time>
      </trkpt>
      <trkpt lat="45.24187" lon="6.1567">
        <ele>2214.4</ele>
        <time>2019-05-01T07:00:26Z</time>
      </trkpt>
      <trkpt lat="45.24189" lon="6.15668">
        <ele>2215.5</ele>
        <time>2019-05-01T07:00:29Z</time>
      </trkpt>
      <trkpt lat="45.24192" lon="6.15666">
        <ele>2217.6</ele>
        <time>2019-05-01T07:00:33Z</time>
      </trkpt>
      <trkpt lat="45.24194" lon="6.15662">
        <ele>2219.9</ele>
        <time>2019-05-01T07:00:38Z</time>
      </trkpt>
      <trkpt lat="45.24194" lon="6.15658">
        <ele>2221</ele>
        <time>2019-05-01T07:00:45Z</time>
      </trkpt>
      <trkpt lat="45.24192" lon="6.15658">
        <ele>2219.8</ele>
        <time>2019-05-01T07:00:56Z</time>
      </trkpt>
      <trkpt lat="45.24189" lon="6.15655">
        <ele>2219.7</ele>
        <time>2019-05-01T07:01:00Z</time>
      </trkpt>
      <trkpt lat="45.24186" lon="6.15652">
        <ele>2218.6</ele>
        <time>2019-05-01T07:01:03Z</time>
      </trkpt>
      <trkpt lat="45.24184" lon="6.15649">
        <ele>2218.6</ele>
        <time>2019-05-01T07:01:06Z</time>
      </trkpt>
      <trkpt lat="45.24181" lon="6.15646">
        <ele>2218.6</ele>
        <time>2019-05-01T07:01:09Z</time>
      </trkpt>
      <trkpt lat="45.24178" lon="6.15649">
        <ele>2217.7</ele>
        <time>2019-05-01T07:01:14Z</time>
      </trkpt>
      <trkpt lat="45.24177" lon="6.15644">
        <ele>2217.8</ele>
        <time>2019-05-01T07:01:45Z</time>
      </trkpt>
      <trkpt lat="45.24176" lon="6.15639">
        <ele>2218.8</ele>
        <time>2019-05-01T07:01:49Z</time>
      </trkpt>
      <trkpt lat="45.24178" lon="6.15635">
        <ele>2220.7</ele>
        <time>2019-05-01T07:02:04Z</time>
      </trkpt>
      <trkpt lat="45.24176" lon="6.15631">
        <ele>2220.8</ele>
        <time>2019-05-01T07:02:09Z</time>
      </trkpt>
      <trkpt lat="45.24175" lon="6.15627">
        <ele>2220.9</ele>
        <time>2019-05-01T07:02:15Z</time>
      </trkpt>
      <trkpt lat="45.24175" lon="6.15623">
        <ele>2222.8</ele>
        <time>2019-05-01T07:02:18Z</time>
      </trkpt>
      <trkpt lat="45.24177" lon="6.15619">
        <ele>2223.9</ele>
        <time>2019-05-01T07:02:21Z</time>
      </trkpt>
      <trkpt lat="45.24177" lon="6.15615">
        <ele>2225.1</ele>
        <time>2019-05-01T07:02:26Z</time>
      </trkpt>
      <trkpt lat="45.24176" lon="6.15611">
        <ele>2226.3</ele>
        <time>2019-05-01T07:02:29Z</time>
      </trkpt>
      <trkpt lat="45.24175" lon="6.15607">
        <ele>2227.4</ele>
        <time>2019-05-01T07:02:32Z</time>
      </trkpt>
      <trkpt lat="45.24174" lon="6.15604">
        <ele>2226.5</ele>
        <time>2019-05-01T07:02:35Z</time>
      </trkpt>
      <trkpt lat="45.24173" lon="6.15599">
        <ele>2227.7</ele>
        <time>2019-05-01T07:02:39Z</time>
      </trkpt>
      <trkpt lat="45.24173" lon="6.15595">
        <ele>2229.8</ele>
        <time>2019-05-01T07:02:43Z</time>
      </trkpt>
      <trkpt lat="45.24172" lon="6.15591">
        <ele>2228.9</ele>
        <time>2019-05-01T07:02:47Z</time>
      </trkpt>
      <trkpt lat="45.24171" lon="6.15586">
        <ele>2229.9</ele>
        <time>2019-05-01T07:02:52Z</time>
      </trkpt>
      <trkpt lat="45.24171" lon="6.15582">
        <ele>2231</ele>
        <time>2019-05-01T07:02:56Z</time>
      </trkpt>
      <trkpt lat="45.24171" lon="6.15578">
        <ele>2233.3</ele>
        <time>2019-05-01T07:03:01Z</time>
      </trkpt>
      <trkpt lat="45.24171" lon="6.15574">
        <ele>2233.3</ele>
        <time>2019-05-01T07:03:06Z</time>
      </trkpt>
      <trkpt lat="45.24172" lon="6.15569">
        <ele>2236.8</ele>
        <time>2019-05-01T07:03:11Z</time>
      </trkpt>
      <trkpt lat="45.24173" lon="6.15565">
        <ele>2236.8</ele>
        <time>2019-05-01T07:03:15Z</time>
      </trkpt>
      <trkpt lat="45.24176" lon="6.15563">
        <ele>2239</ele>
        <time>2019-05-01T07:03:24Z</time>
      </trkpt>
      <trkpt lat="45.24179" lon="6.15564">
        <ele>2239.9</ele>
        <time>2019-05-01T07:03:30Z</time>
      </trkpt>
      <trkpt lat="45.24182" lon="6.15563">
        <ele>2240.9</ele>
        <time>2019-05-01T07:03:34Z</time>
      </trkpt>
      <trkpt lat="45.24184" lon="6.15562">
        <ele>2241.9</ele>
        <time>2019-05-01T07:03:37Z</time>
      </trkpt>
      <trkpt lat="45.24187" lon="6.15562">
        <ele>2242.9</ele>
        <time>2019-05-01T07:03:41Z</time>
      </trkpt>
      <trkpt lat="45.2419" lon="6.15563">
        <ele>2244.1</ele>
        <time>2019-05-01T07:03:45Z</time>
      </trkpt>
      <trkpt lat="45.24193" lon="6.15564">
        <ele>2245.3</ele>
        <time>2019-05-01T07:03:48Z</time>
      </trkpt>
      <trkpt lat="45.24196" lon="6.15565">
        <ele>2244</ele>
        <time>2019-05-01T07:03:52Z</time>
      </trkpt>
      <trkpt lat="45.24199" lon="6.15565">
        <ele>2245.2</ele>
        <time>2019-05-01T07:03:56Z</time>
      </trkpt>
      <trkpt lat="45.24201" lon="6.15566">
        <ele>2246.4</ele>
        <time>2019-05-01T07:04:00Z</time>
      </trkpt>
      <trkpt lat="45.24204" lon="6.15568">
        <ele>2247.5</ele>
        <time>2019-05-01T07:04:05Z</time>
      </trkpt>
      <trkpt lat="45.24203" lon="6.15564">
        <ele>2248.8</ele>
        <time>2019-05-01T07:04:10Z</time>
      </trkpt>
      <trkpt lat="45.24201" lon="6.1556">
        <ele>2248.8</ele>
        <time>2019-05-01T07:04:14Z</time>
      </trkpt>
      <trkpt lat="45.242" lon="6.15557">
        <ele>2248.8</ele>
        <time>2019-05-01T07:04:18Z</time>
      </trkpt>
      <trkpt lat="45.242" lon="6.15552">
        <ele>2250</ele>
        <time>2019-05-01T07:04:25Z</time>
      </trkpt>
      <trkpt lat="45.24199" lon="6.15548">
        <ele>2250.1</ele>
        <time>2019-05-01T07:04:31Z</time>
      </trkpt>
      <trkpt lat="45.24197" lon="6.15544">
        <ele>2251.2</ele>
        <time>2019-05-01T07:04:38Z</time>
      </trkpt>
      <trkpt lat="45.24196" lon="6.1554">
        <ele>2252.4</ele>
        <time>2019-05-01T07:04:42Z</time>
      </trkpt>
      <trkpt lat="45.24195" lon="6.15536">
        <ele>2252.4</ele>
        <time>2019-05-01T07:04:45Z</time>
      </trkpt>
      <trkpt lat="45.24195" lon="6.15532">
        <ele>2253.6</ele>
        <time>2019-05-01T07:04:49Z</time>
      </trkpt>
      <trkpt lat="45.24198" lon="6.15532">
        <ele>2254.8</ele>
        <time>2019-05-01T07:04:58Z</time>
      </trkpt>
      <trkpt lat="45.24201" lon="6.15533">
        <ele>2255.9</ele>
        <time>2019-05-01T07:05:02Z</time>
      </trkpt>
      <trkpt lat="45.24204" lon="6.15533">
        <ele>2257</ele>
        <time>2019-05-01T07:05:07Z</time>
      </trkpt>
      <trkpt lat="45.24207" lon="6.15533">
        <ele>2258</ele>
        <time>2019-05-01T07:05:11Z</time>
      </trkpt>
      <trkpt lat="45.2421" lon="6.15532">
        <ele>2259.1</ele>
        <time>2019-05-01T07:05:15Z</time>
      </trkpt>
      <trkpt lat="45.24213" lon="6.15532">
        <ele>2260.2</ele>
        <time>2019-05-01T07:05:20Z</time>
      </trkpt>
      <trkpt lat="45.24216" lon="6.15534">
        <ele>2261.3</ele>
        <time>2019-05-01T07:05:25Z</time>
      </trkpt>
      <trkpt lat="45.24219" lon="6.15535">
        <ele>2261.3</ele>
        <time>2019-05-01T07:05:29Z</time>
      </trkpt>
      <trkpt lat="45.24222" lon="6.15536">
        <ele>2262.5</ele>
        <time>2019-05-01T07:05:33Z</time>
      </trkpt>
      <trkpt lat="45.24222" lon="6.15531">
        <ele>2263.6</ele>
        <time>2019-05-01T07:05:43Z</time>
      </trkpt>
      <trkpt lat="45.24221" lon="6.15527">
        <ele>2264.7</ele>
        <time>2019-05-01T07:05:47Z</time>
      </trkpt>
      <trkpt lat="45.2422" lon="6.15522">
        <ele>2265.9</ele>
        <time>2019-05-01T07:05:51Z</time>
      </trkpt>
      <trkpt lat="45.2422" lon="6.15518">
        <ele>2267</ele>
        <time>2019-05-01T07:05:55Z</time>
      </trkpt>
      <trkpt lat="45.2422" lon="6.15514">
        <ele>2268</ele>
        <time>2019-05-01T07:05:59Z</time>
      </trkpt>
      <trkpt lat="45.24221" lon="6.1551">
        <ele>2269</ele>
        <time>2019-05-01T07:06:03Z</time>
      </trkpt>
      <trkpt lat="45.24221" lon="6.15506">
        <ele>2269.9</ele>
        <time>2019-05-01T07:06:07Z</time>
      </trkpt>
      <trkpt lat="45.24223" lon="6.15501">
        <ele>2270.8</ele>
        <time>2019-05-01T07:06:12Z</time>
      </trkpt>
      <trkpt lat="45.24224" lon="6.15497">
        <ele>2272.8</ele>
        <time>2019-05-01T07:06:17Z</time>
      </trkpt>
      <trkpt lat="45.24225" lon="6.15493">
        <ele>2273.6</ele>
        <time>2019-05-01T07:06:21Z</time>
      </trkpt>
      <trkpt lat="45.24226" lon="6.1549">
        <ele>2274.4</ele>
        <time>2019-05-01T07:06:25Z</time>
      </trkpt>
      <trkpt lat="45.24227" lon="6.15486">
        <ele>2276.4</ele>
        <time>2019-05-01T07:06:29Z</time>
      </trkpt>
      <trkpt lat="45.24229" lon="6.15482">
        <ele>2277.2</ele>
        <time>2019-05-01T07:06:33Z</time>
      </trkpt>
      <trkpt lat="45.24231" lon="6.15479">
        <ele>2279.1</ele>
        <time>2019-05-01T07:06:37Z</time>
      </trkpt>
      <trkpt lat="45.24233" lon="6.15474">
        <ele>2280.9</ele>
        <time>2019-05-01T07:06:41Z</time>
      </trkpt>
      <trkpt lat="45.24235" lon="6.15472">
        <ele>2280.9</ele>
        <time>2019-05-01T07:06:44Z</time>
      </trkpt>
      <trkpt lat="45.24236" lon="6.15467">
        <ele>2282.6</ele>
        <time>2019-05-01T07:06:49Z</time>
      </trkpt>
      <trkpt lat="45.24237" lon="6.15464">
        <ele>2283.3</ele>
        <time>2019-05-01T07:06:53Z</time>
      </trkpt>
      <trkpt lat="45.2424" lon="6.1546">
        <ele>2284.9</ele>
        <time>2019-05-01T07:06:57Z</time>
      </trkpt>
      <trkpt lat="45.24242" lon="6.15457">
        <ele>2286.4</ele>
        <time>2019-05-01T07:07:00Z</time>
      </trkpt>
      <trkpt lat="45.24244" lon="6.15455">
        <ele>2286.4</ele>
        <time>2019-05-01T07:07:04Z</time>
      </trkpt>
      <trkpt lat="45.24245" lon="6.15451">
        <ele>2288</ele>
        <time>2019-05-01T07:07:08Z</time>
      </trkpt>
      <trkpt lat="45.24248" lon="6.15447">
        <ele>2289.8</ele>
        <time>2019-05-01T07:07:12Z</time>
      </trkpt>
      <trkpt lat="45.24249" lon="6.15444">
        <ele>2290.5</ele>
        <time>2019-05-01T07:07:16Z</time>
      </trkpt>
      <trkpt lat="45.24249" lon="6.15439">
        <ele>2291.2</ele>
        <time>2019-05-01T07:07:21Z</time>
      </trkpt>
      <trkpt lat="45.2425" lon="6.15435">
        <ele>2292</ele>
        <time>2019-05-01T07:07:27Z</time>
      </trkpt>
      <trkpt lat="45.24251" lon="6.15431">
        <ele>2293.9</ele>
        <time>2019-05-01T07:07:34Z</time>
      </trkpt>
      <trkpt lat="45.24254" lon="6.15429">
        <ele>2294.9</ele>
        <time>2019-05-01T07:07:39Z</time>
      </trkpt>
      <trkpt lat="45.24257" lon="6.15429">
        <ele>2295.9</ele>
        <time>2019-05-01T07:07:44Z</time>
      </trkpt>
      <trkpt lat="45.2426" lon="6.15431">
        <ele>2296.8</ele>
        <time>2019-05-01T07:07:50Z</time>
      </trkpt>
      <trkpt lat="45.24263" lon="6.1543">
        <ele>2297.6</ele>
        <time>2019-05-01T07:07:56Z</time>
      </trkpt>
      <trkpt lat="45.24265" lon="6.15426">
        <ele>2298.3</ele>
        <time>2019-05-01T07:08:00Z</time>
      </trkpt>
      <trkpt lat="45.24267" lon="6.15423">
        <ele>2299.9</ele>
        <time>2019-05-01T07:08:02Z</time>
      </trkpt>
      <trkpt lat="45.24268" lon="6.1542">
        <ele>2299.9</ele>
        <time>2019-05-01T07:08:06Z</time>
      </trkpt>
      <trkpt lat="45.24271" lon="6.15418">
        <ele>2301.5</ele>
        <time>2019-05-01T07:08:09Z</time>
      </trkpt>
      <trkpt lat="45.24273" lon="6.15414">
        <ele>2303.2</ele>
        <time>2019-05-01T07:08:15Z</time>
      </trkpt>
      <trkpt lat="45.24274" lon="6.1541">
        <ele>2303.9</ele>
        <time>2019-05-01T07:08:18Z</time>
      </trkpt>
      <trkpt lat="45.24276" lon="6.15406">
        <ele>2304.9</ele>
        <time>2019-05-01T07:08:22Z</time>
      </trkpt>
      <trkpt lat="45.24278" lon="6.15402">
        <ele>2306.6</ele>
        <time>2019-05-01T07:08:27Z</time>
      </trkpt>
      <trkpt lat="45.2428" lon="6.154">
        <ele>2307.2</ele>
        <time>2019-05-01T07:08:34Z</time>
      </trkpt>
      <trkpt lat="45.24283" lon="6.15398">
        <ele>2308.2</ele>
        <time>2019-05-01T07:08:38Z</time>
      </trkpt>
      <trkpt lat="45.24285" lon="6.15395">
        <ele>2309.7</ele>
        <time>2019-05-01T07:08:46Z</time>
      </trkpt>
      <trkpt lat="45.24285" lon="6.1539">
        <ele>2310.3</ele>
        <time>2019-05-01T07:08:51Z</time>
      </trkpt>
      <trkpt lat="45.24287" lon="6.15387">
        <ele>2311.8</ele>
        <time>2019-05-01T07:08:56Z</time>
      </trkpt>
      <trkpt lat="45.24289" lon="6.15384">
        <ele>2312.4</ele>
        <time>2019-05-01T07:09:00Z</time>
      </trkpt>
      <trkpt lat="45.24291" lon="6.15381">
        <ele>2313.2</ele>
        <time>2019-05-01T07:09:05Z</time>
      </trkpt>
      <trkpt lat="45.24294" lon="6.15378">
        <ele>2314.6</ele>
        <time>2019-05-01T07:09:10Z</time>
      </trkpt>
      <trkpt lat="45.24295" lon="6.15374">
        <ele>2315.1</ele>
        <time>2019-05-01T07:09:15Z</time>
      </trkpt>
      <trkpt lat="45.24296" lon="6.1537">
        <ele>2316.3</ele>
        <time>2019-05-01T07:09:19Z</time>
      </trkpt>
      <trkpt lat="45.24295" lon="6.15366">
        <ele>2316</ele>
        <time>2019-05-01T07:09:25Z</time>
      </trkpt>
      <trkpt lat="45.24297" lon="6.15364">
        <ele>2316.7</ele>
        <time>2019-05-01T07:09:29Z</time>
      </trkpt>
      <trkpt lat="45.243" lon="6.15363">
        <ele>2317.4</ele>
        <time>2019-05-01T07:09:33Z</time>
      </trkpt>
      <trkpt lat="45.24303" lon="6.15362">
        <ele>2318.5</ele>
        <time>2019-05-01T07:09:37Z</time>
      </trkpt>
      <trkpt lat="45.24306" lon="6.1536">
        <ele>2319.2</ele>
        <time>2019-05-01T07:09:42Z</time>
      </trkpt>
      <trkpt lat="45.24309" lon="6.15359">
        <ele>2319.9</ele>
        <time>2019-05-01T07:09:47Z</time>
      </trkpt>
      <trkpt lat="45.2431" lon="6.15356">
        <ele>2320.3</ele>
        <time>2019-05-01T07:09:53Z</time>
      </trkpt>
      <trkpt lat="45.24312" lon="6.15353">
        <ele>2321.4</ele>
        <time>2019-05-01T07:09:59Z</time>
      </trkpt>
      <trkpt lat="45.24314" lon="6.1535">
        <ele>2322.1</ele>
        <time>2019-05-01T07:10:04Z</time>
      </trkpt>
      <trkpt lat="45.24316" lon="6.15348">
        <ele>2322.5</ele>
        <time>2019-05-01T07:10:10Z</time>
      </trkpt>
      <trkpt lat="45.24319" lon="6.15345">
        <ele>2323.6</ele>
        <time>2019-05-01T07:10:18Z</time>
      </trkpt>
      <trkpt lat="45.24321" lon="6.15342">
        <ele>2324.2</ele>
        <time>2019-05-01T07:10:21Z</time>
      </trkpt>
      <trkpt lat="45.24322" lon="6.15338">
        <ele>2324.7</ele>
        <time>2019-05-01T07:10:26Z</time>
      </trkpt>
      <trkpt lat="45.24324" lon="6.15334">
        <ele>2325.9</ele>
        <time>2019-05-01T07:10:32Z</time>
      </trkpt>
      <trkpt lat="45.24327" lon="6.15331">
        <ele>2327.1</ele>
        <time>2019-05-01T07:10:36Z</time>
      </trkpt>
      <trkpt lat="45.24328" lon="6.15327">
        <ele>2327.7</ele>
        <time>2019-05-01T07:10:40Z</time>
      </trkpt>
      <trkpt lat="45.24329" lon="6.15323">
        <ele>2328.9</ele>
        <time>2019-05-01T07:10:46Z</time>
      </trkpt>
      <trkpt lat="45.24331" lon="6.1532">
        <ele>2329.5</ele>
        <time>2019-05-01T07:10:50Z</time>
      </trkpt>
      <trkpt lat="45.24332" lon="6.15316">
        <ele>2330.8</ele>
        <time>2019-05-01T07:10:54Z</time>
      </trkpt>
      <trkpt lat="45.24332" lon="6.15312">
        <ele>2330.8</ele>
        <time>2019-05-01T07:10:59Z</time>
      </trkpt>
      <trkpt lat="45.24332" lon="6.15308">
        <ele>2331.5</ele>
        <time>2019-05-01T07:11:04Z</time>
      </trkpt>
      <trkpt lat="45.24329" lon="6.15306">
        <ele>2331.4</ele>
        <time>2019-05-01T07:11:08Z</time>
      </trkpt>
      <trkpt lat="45.24327" lon="6.15304">
        <ele>2330.6</ele>
        <time>2019-05-01T07:11:12Z</time>
      </trkpt>
      <trkpt lat="45.24326" lon="6.153">
        <ele>2330.7</ele>
        <time>2019-05-01T07:11:16Z</time>
      </trkpt>
      <trkpt lat="45.24325" lon="6.15296">
        <ele>2331.4</ele>
        <time>2019-05-01T07:11:22Z</time>
      </trkpt>
      <trkpt lat="45.24328" lon="6.15296">
        <ele>2332.1</ele>
        <time>2019-05-01T07:11:27Z</time>
      </trkpt>
      <trkpt lat="45.24331" lon="6.15296">
        <ele>2332.8</ele>
        <time>2019-05-01T07:11:31Z</time>
      </trkpt>
      <trkpt lat="45.24334" lon="6.15296">
        <ele>2333.7</ele>
        <time>2019-05-01T07:11:35Z</time>
      </trkpt>
      <trkpt lat="45.24337" lon="6.15296">
        <ele>2334.5</ele>
        <time>2019-05-01T07:11:40Z</time>
      </trkpt>
      <trkpt lat="45.2434" lon="6.15296">
        <ele>2335.4</ele>
        <time>2019-05-01T07:11:45Z</time>
      </trkpt>
      <trkpt lat="45.24343" lon="6.15295">
        <ele>2336.1</ele>
        <time>2019-05-01T07:11:50Z</time>
      </trkpt>
      <trkpt lat="45.24346" lon="6.15294">
        <ele>2337.6</ele>
        <time>2019-05-01T07:11:55Z</time>
      </trkpt>
      <trkpt lat="45.24348" lon="6.1529">
        <ele>2338.9</ele>
        <time>2019-05-01T07:12:00Z</time>
      </trkpt>
      <trkpt lat="45.24349" lon="6.15286">
        <ele>2338.9</ele>
        <time>2019-05-01T07:12:04Z</time>
      </trkpt>
      <trkpt lat="45.24349" lon="6.15282">
        <ele>2339.6</ele>
        <time>2019-05-01T07:12:09Z</time>
      </trkpt>
      <trkpt lat="45.2435" lon="6.15278">
        <ele>2340.9</ele>
        <time>2019-05-01T07:12:14Z</time>
      </trkpt>
      <trkpt lat="45.24352" lon="6.15274">
        <ele>2341.5</ele>
        <time>2019-05-01T07:12:19Z</time>
      </trkpt>
      <trkpt lat="45.24353" lon="6.1527">
        <ele>2342</ele>
        <time>2019-05-01T07:12:25Z</time>
      </trkpt>
      <trkpt lat="45.24353" lon="6.15266">
        <ele>2343.2</ele>
        <time>2019-05-01T07:12:34Z</time>
      </trkpt>
      <trkpt lat="45.24355" lon="6.15263">
        <ele>2343.8</ele>
        <time>2019-05-01T07:12:39Z</time>
      </trkpt>
      <trkpt lat="45.24356" lon="6.15259">
        <ele>2345</ele>
        <time>2019-05-01T07:12:43Z</time>
      </trkpt>
      <trkpt lat="45.24358" lon="6.15255">
        <ele>2345.6</ele>
        <time>2019-05-01T07:12:47Z</time>
      </trkpt>
      <trkpt lat="45.2436" lon="6.15251">
        <ele>2347</ele>
        <time>2019-05-01T07:12:53Z</time>
      </trkpt>
      <trkpt lat="45.24363" lon="6.15248">
        <ele>2347.7</ele>
        <time>2019-05-01T07:12:58Z</time>
      </trkpt>
      <trkpt lat="45.24365" lon="6.15245">
        <ele>2348.4</ele>
        <time>2019-05-01T07:13:01Z</time>
      </trkpt>
      <trkpt lat="45.24367" lon="6.15243">
        <ele>2349.7</ele>
        <time>2019-05-01T07:13:05Z</time>
      </trkpt>
      <trkpt lat="45.24368" lon="6.15239">
        <ele>2349.7</ele>
        <time>2019-05-01T07:13:11Z</time>
      </trkpt>
      <trkpt lat="45.2437" lon="6.15235">
        <ele>2351.1</ele>
        <time>2019-05-01T07:13:19Z</time>
      </trkpt>
      <trkpt lat="45.24372" lon="6.15235">
        <ele>2351.8</ele>
        <time>2019-05-01T07:13:25Z</time>
      </trkpt>
      <trkpt lat="45.24375" lon="6.15236">
        <ele>2352.5</ele>
        <time>2019-05-01T07:13:29Z</time>
      </trkpt>
      <trkpt lat="45.24378" lon="6.15238">
        <ele>2353.3</ele>
        <time>2019-05-01T07:13:32Z</time>
      </trkpt>
      <trkpt lat="45.24381" lon="6.15237">
        <ele>2354.2</ele>
        <time>2019-05-01T07:13:36Z</time>
      </trkpt>
      <trkpt lat="45.24384" lon="6.15238">
        <ele>2355.1</ele>
        <time>2019-05-01T07:13:41Z</time>
      </trkpt>
      <trkpt lat="45.24387" lon="6.1524">
        <ele>2355.4</ele>
        <time>2019-05-01T07:13:49Z</time>
      </trkpt>
      <trkpt lat="45.24387" lon="6.15244">
        <ele>2354.8</ele>
        <time>2019-05-01T07:13:53Z</time>
      </trkpt>
      <trkpt lat="45.24389" lon="6.15248">
        <ele>2354.2</ele>
        <time>2019-05-01T07:14:06Z</time>
      </trkpt>
      <trkpt lat="45.2439" lon="6.15252">
        <ele>2354.5</ele>
        <time>2019-05-01T07:14:09Z</time>
      </trkpt>
      <trkpt lat="45.2439" lon="6.15257">
        <ele>2353.9</ele>
        <time>2019-05-01T07:14:13Z</time>
      </trkpt>
      <trkpt lat="45.24391" lon="6.15261">
        <ele>2353.3</ele>
        <time>2019-05-01T07:14:17Z</time>
      </trkpt>
      <trkpt lat="45.24392" lon="6.15266">
        <ele>2352.8</ele>
        <time>2019-05-01T07:14:20Z</time>
      </trkpt>
      <trkpt lat="45.24393" lon="6.15269">
        <ele>2353.4</ele>
        <time>2019-05-01T07:14:23Z</time>
      </trkpt>
      <trkpt lat="45.24395" lon="6.15272">
        <ele>2353.4</ele>
        <time>2019-05-01T07:14:30Z</time>
      </trkpt>
      <trkpt lat="45.24398" lon="6.15272">
        <ele>2355.1</ele>
        <time>2019-05-01T07:14:37Z</time>
      </trkpt>
      <trkpt lat="45.24401" lon="6.1527">
        <ele>2356.1</ele>
        <time>2019-05-01T07:14:41Z</time>
      </trkpt>
      <trkpt lat="45.24403" lon="6.15268">
        <ele>2357.6</ele>
        <time>2019-05-01T07:14:44Z</time>
      </trkpt>
      <trkpt lat="45.24406" lon="6.15267">
        <ele>2358.6</ele>
        <time>2019-05-01T07:14:47Z</time>
      </trkpt>
      <trkpt lat="45.24409" lon="6.15267">
        <ele>2359.6</ele>
        <time>2019-05-01T07:14:51Z</time>
      </trkpt>
      <trkpt lat="45.24412" lon="6.15266">
        <ele>2360.7</ele>
        <time>2019-05-01T07:14:55Z</time>
      </trkpt>
      <trkpt lat="45.24415" lon="6.15263">
        <ele>2362.2</ele>
        <time>2019-05-01T07:15:01Z</time>
      </trkpt>
      <trkpt lat="45.24417" lon="6.1526">
        <ele>2363.3</ele>
        <time>2019-05-01T07:15:05Z</time>
      </trkpt>
      <trkpt lat="45.24421" lon="6.15259">
        <ele>2364.8</ele>
        <time>2019-05-01T07:15:11Z</time>
      </trkpt>
      <trkpt lat="45.24424" lon="6.15259">
        <ele>2365.8</ele>
        <time>2019-05-01T07:15:15Z</time>
      </trkpt>
      <trkpt lat="45.24427" lon="6.1526">
        <ele>2366.7</ele>
        <time>2019-05-01T07:15:19Z</time>
      </trkpt>
      <trkpt lat="45.2443" lon="6.15258">
        <ele>2367.5</ele>
        <time>2019-05-01T07:15:23Z</time>
      </trkpt>
      <trkpt lat="45.24432" lon="6.15256">
        <ele>2368.3</ele>
        <time>2019-05-01T07:15:28Z</time>
      </trkpt>
      <trkpt lat="45.24436" lon="6.15254">
        <ele>2369.5</ele>
        <time>2019-05-01T07:15:31Z</time>
      </trkpt>
      <trkpt lat="45.24439" lon="6.15253">
        <ele>2370.4</ele>
        <time>2019-05-01T07:15:34Z</time>
      </trkpt>
      <trkpt lat="45.24442" lon="6.1525">
        <ele>2371.8</ele>
        <time>2019-05-01T07:15:38Z</time>
      </trkpt>
      <trkpt lat="45.24444" lon="6.15247">
        <ele>2373.2</ele>
        <time>2019-05-01T07:15:44Z</time>
      </trkpt>
      <trkpt lat="45.24447" lon="6.15246">
        <ele>2374.1</ele>
        <time>2019-05-01T07:15:47Z</time>
      </trkpt>
      <trkpt lat="45.24451" lon="6.15244">
        <ele>2374.9</ele>
        <time>2019-05-01T07:15:51Z</time>
      </trkpt>
      <trkpt lat="45.24455" lon="6.15244">
        <ele>2375.6</ele>
        <time>2019-05-01T07:15:56Z</time>
      </trkpt>
      <trkpt lat="45.24458" lon="6.15244">
        <ele>2376.3</ele>
        <time>2019-05-01T07:15:58Z</time>
      </trkpt>
      <trkpt lat="45.24461" lon="6.15242">
        <ele>2377.5</ele>
        <time>2019-05-01T07:16:00Z</time>
      </trkpt>
      <trkpt lat="45.24463" lon="6.15239">
        <ele>2378.3</ele>
        <time>2019-05-01T07:16:02Z</time>
      </trkpt>
      <trkpt lat="45.24466" lon="6.15236">
        <ele>2379.7</ele>
        <time>2019-05-01T07:16:05Z</time>
      </trkpt>
      <trkpt lat="45.24464" lon="6.15233">
        <ele>2379.5</ele>
        <time>2019-05-01T07:16:15Z</time>
      </trkpt>
      <trkpt lat="45.24466" lon="6.15229">
        <ele>2380.9</ele>
        <time>2019-05-01T07:16:18Z</time>
      </trkpt>
      <trkpt lat="45.24468" lon="6.15227">
        <ele>2381.8</ele>
        <time>2019-05-01T07:16:21Z</time>
      </trkpt>
      <trkpt lat="45.24471" lon="6.15223">
        <ele>2382.3</ele>
        <time>2019-05-01T07:16:24Z</time>
      </trkpt>
      <trkpt lat="45.24473" lon="6.15218">
        <ele>2383.7</ele>
        <time>2019-05-01T07:16:30Z</time>
      </trkpt>
      <trkpt lat="45.24475" lon="6.15215">
        <ele>2385.1</ele>
        <time>2019-05-01T07:16:33Z</time>
      </trkpt>
      <trkpt lat="45.24477" lon="6.15212">
        <ele>2385.5</ele>
        <time>2019-05-01T07:16:36Z</time>
      </trkpt>
      <trkpt lat="45.24477" lon="6.15208">
        <ele>2385.9</ele>
        <time>2019-05-01T07:16:42Z</time>
      </trkpt>
      <trkpt lat="45.24478" lon="6.15204">
        <ele>2387</ele>
        <time>2019-05-01T07:16:47Z</time>
      </trkpt>
      <trkpt lat="45.2448" lon="6.15201">
        <ele>2387.9</ele>
        <time>2019-05-01T07:16:50Z</time>
      </trkpt>
      <trkpt lat="45.24482" lon="6.15197">
        <ele>2388.1</ele>
        <time>2019-05-01T07:16:54Z</time>
      </trkpt>
      <trkpt lat="45.24484" lon="6.15194">
        <ele>2389.1</ele>
        <time>2019-05-01T07:16:57Z</time>
      </trkpt>
      <trkpt lat="45.24485" lon="6.15189">
        <ele>2389.4</ele>
        <time>2019-05-01T07:17:01Z</time>
      </trkpt>
      <trkpt lat="45.24486" lon="6.15186">
        <ele>2390.3</ele>
        <time>2019-05-01T07:17:04Z</time>
      </trkpt>
      <trkpt lat="45.24486" lon="6.15182">
        <ele>2390.5</ele>
        <time>2019-05-01T07:17:08Z</time>
      </trkpt>
      <trkpt lat="45.24486" lon="6.15178">
        <ele>2390</ele>
        <time>2019-05-01T07:17:12Z</time>
      </trkpt>
      <trkpt lat="45.24488" lon="6.15174">
        <ele>2391</ele>
        <time>2019-05-01T07:17:15Z</time>
      </trkpt>
      <trkpt lat="45.2449" lon="6.1517">
        <ele>2391.8</ele>
        <time>2019-05-01T07:17:18Z</time>
      </trkpt>
      <trkpt lat="45.24492" lon="6.15166">
        <ele>2392.1</ele>
        <time>2019-05-01T07:17:21Z</time>
      </trkpt>
      <trkpt lat="45.24494" lon="6.15162">
        <ele>2393.2</ele>
        <time>2019-05-01T07:17:24Z</time>
      </trkpt>
      <trkpt lat="45.24495" lon="6.15159">
        <ele>2394.4</ele>
        <time>2019-05-01T07:17:27Z</time>
      </trkpt>
      <trkpt lat="45.24496" lon="6.15154">
        <ele>2394.6</ele>
        <time>2019-05-01T07:17:31Z</time>
      </trkpt>
      <trkpt lat="45.24496" lon="6.1515">
        <ele>2394.9</ele>
        <time>2019-05-01T07:17:37Z</time>
      </trkpt>
      <trkpt lat="45.24497" lon="6.15146">
        <ele>2395.1</ele>
        <time>2019-05-01T07:17:43Z</time>
      </trkpt>
      <trkpt lat="45.24497" lon="6.15142">
        <ele>2395.3</ele>
        <time>2019-05-01T07:17:48Z</time>
      </trkpt>
      <trkpt lat="45.24496" lon="6.15138">
        <ele>2395.5</ele>
        <time>2019-05-01T07:17:55Z</time>
      </trkpt>
      <trkpt lat="45.24495" lon="6.15134">
        <ele>2395.7</ele>
        <time>2019-05-01T07:18:00Z</time>
      </trkpt>
      <trkpt lat="45.24497" lon="6.1513">
        <ele>2395.9</ele>
        <time>2019-05-01T07:18:04Z</time>
      </trkpt>
      <trkpt lat="45.24498" lon="6.15126">
        <ele>2397.3</ele>
        <time>2019-05-01T07:18:08Z</time>
      </trkpt>
      <trkpt lat="45.24497" lon="6.15121">
        <ele>2396.7</ele>
        <time>2019-05-01T07:18:13Z</time>
      </trkpt>
      <trkpt lat="45.24497" lon="6.15118">
        <ele>2397.1</ele>
        <time>2019-05-01T07:18:17Z</time>
      </trkpt>
      <trkpt lat="45.24495" lon="6.15115">
        <ele>2396.2</ele>
        <time>2019-05-01T07:18:21Z</time>
      </trkpt>
      <trkpt lat="45.24496" lon="6.1511">
        <ele>2398.1</ele>
        <time>2019-05-01T07:18:25Z</time>
      </trkpt>
      <trkpt lat="45.24495" lon="6.15105">
        <ele>2398.6</ele>
        <time>2019-05-01T07:18:29Z</time>
      </trkpt>
      <trkpt lat="45.24495" lon="6.151">
        <ele>2398.2</ele>
        <time>2019-05-01T07:18:33Z</time>
      </trkpt>
      <trkpt lat="45.24498" lon="6.15095">
        <ele>2399.8</ele>
        <time>2019-05-01T07:18:36Z</time>
      </trkpt>
      <trkpt lat="45.24499" lon="6.15091">
        <ele>2401.5</ele>
        <time>2019-05-01T07:18:40Z</time>
      </trkpt>
      <trkpt lat="45.24501" lon="6.15088">
        <ele>2402.2</ele>
        <time>2019-05-01T07:18:43Z</time>
      </trkpt>
      <trkpt lat="45.24498" lon="6.15085">
        <ele>2401</ele>
        <time>2019-05-01T07:18:47Z</time>
      </trkpt>
      <trkpt lat="45.24498" lon="6.15081">
        <ele>2401.8</ele>
        <time>2019-05-01T07:18:51Z</time>
      </trkpt>
      <trkpt lat="45.245" lon="6.15077">
        <ele>2403.6</ele>
        <time>2019-05-01T07:18:53Z</time>
      </trkpt>
      <trkpt lat="45.24504" lon="6.15074">
        <ele>2405.7</ele>
        <time>2019-05-01T07:18:55Z</time>
      </trkpt>
      <trkpt lat="45.24506" lon="6.15071">
        <ele>2407.7</ele>
        <time>2019-05-01T07:18:58Z</time>
      </trkpt>
      <trkpt lat="45.24505" lon="6.15066">
        <ele>2408.5</ele>
        <time>2019-05-01T07:19:03Z</time>
      </trkpt>
      <trkpt lat="45.24507" lon="6.15062">
        <ele>2409.3</ele>
        <time>2019-05-01T07:19:06Z</time>
      </trkpt>
      <trkpt lat="45.24505" lon="6.15059">
        <ele>2409.3</ele>
        <time>2019-05-01T07:19:10Z</time>
      </trkpt>
      <trkpt lat="45.24505" lon="6.15055">
        <ele>2410.1</ele>
        <time>2019-05-01T07:19:14Z</time>
      </trkpt>
      <trkpt lat="45.24505" lon="6.1505">
        <ele>2411.8</ele>
        <time>2019-05-01T07:19:19Z</time>
      </trkpt>
      <trkpt lat="45.24506" lon="6.15045">
        <ele>2412.6</ele>
        <time>2019-05-01T07:19:23Z</time>
      </trkpt>
      <trkpt lat="45.24508" lon="6.15041">
        <ele>2415</ele>
        <time>2019-05-01T07:19:27Z</time>
      </trkpt>
      <trkpt lat="45.2451" lon="6.15038">
        <ele>2415</ele>
        <time>2019-05-01T07:19:31Z</time>
      </trkpt>
      <trkpt lat="45.2451" lon="6.15033">
        <ele>2416</ele>
        <time>2019-05-01T07:19:35Z</time>
      </trkpt>
      <trkpt lat="45.2451" lon="6.15029">
        <ele>2417.1</ele>
        <time>2019-05-01T07:19:38Z</time>
      </trkpt>
      <trkpt lat="45.2451" lon="6.15024">
        <ele>2418.2</ele>
        <time>2019-05-01T07:19:42Z</time>
      </trkpt>
      <trkpt lat="45.24509" lon="6.15021">
        <ele>2419.3</ele>
        <time>2019-05-01T07:19:46Z</time>
      </trkpt>
      <trkpt lat="45.24508" lon="6.15017">
        <ele>2420.4</ele>
        <time>2019-05-01T07:19:50Z</time>
      </trkpt>
      <trkpt lat="45.24506" lon="6.15013">
        <ele>2420</ele>
        <time>2019-05-01T07:19:56Z</time>
      </trkpt>
      <trkpt lat="45.24506" lon="6.15009">
        <ele>2421.1</ele>
        <time>2019-05-01T07:20:00Z</time>
      </trkpt>
      <trkpt lat="45.24506" lon="6.15005">
        <ele>2422.1</ele>
        <time>2019-05-01T07:20:04Z</time>
      </trkpt>
      <trkpt lat="45.24504" lon="6.15001">
        <ele>2421.8</ele>
        <time>2019-05-01T07:20:08Z</time>
      </trkpt>
      <trkpt lat="45.24503" lon="6.14997">
        <ele>2422.9</ele>
        <time>2019-05-01T07:20:14Z</time>
      </trkpt>
      <trkpt lat="45.24504" lon="6.14993">
        <ele>2424</ele>
        <time>2019-05-01T07:20:18Z</time>
      </trkpt>
      <trkpt lat="45.24503" lon="6.14988">
        <ele>2425.1</ele>
        <time>2019-05-01T07:20:22Z</time>
      </trkpt>
      <trkpt lat="45.24501" lon="6.14985">
        <ele>2426.2</ele>
        <time>2019-05-01T07:20:27Z</time>
      </trkpt>
      <trkpt lat="45.24503" lon="6.14981">
        <ele>2427.2</ele>
        <time>2019-05-01T07:20:32Z</time>
      </trkpt>
      <trkpt lat="45.24506" lon="6.14979">
        <ele>2428.6</ele>
        <time>2019-05-01T07:20:36Z</time>
      </trkpt>
      <trkpt lat="45.24509" lon="6.14979">
        <ele>2429.9</ele>
        <time>2019-05-01T07:21:50Z</time>
      </trkpt>
      <trkpt lat="45.24512" lon="6.14977">
        <ele>2431.2</ele>
        <time>2019-05-01T07:21:56Z</time>
      </trkpt>
      <trkpt lat="45.24514" lon="6.14975">
        <ele>2433.5</ele>
        <time>2019-05-01T07:22:00Z</time>
      </trkpt>
      <trkpt lat="45.24516" lon="6.14972">
        <ele>2434.4</ele>
        <time>2019-05-01T07:22:04Z</time>
      </trkpt>
      <trkpt lat="45.24517" lon="6.14967">
        <ele>2436.7</ele>
        <time>2019-05-01T07:22:08Z</time>
      </trkpt>
      <trkpt lat="45.24519" lon="6.14964">
        <ele>2436.7</ele>
        <time>2019-05-01T07:22:11Z</time>
      </trkpt>
      <trkpt lat="45.24522" lon="6.14962">
        <ele>2439.1</ele>
        <time>2019-05-01T07:22:28Z</time>
      </trkpt>
      <trkpt lat="45.24524" lon="6.14959">
        <ele>2441.7</ele>
        <time>2019-05-01T07:22:31Z</time>
      </trkpt>
      <trkpt lat="45.24527" lon="6.14956">
        <ele>2443.6</ele>
        <time>2019-05-01T07:22:35Z</time>
      </trkpt>
      <trkpt lat="45.24529" lon="6.14952">
        <ele>2446.4</ele>
        <time>2019-05-01T07:22:39Z</time>
      </trkpt>
      <trkpt lat="45.24531" lon="6.14949">
        <ele>2447.3</ele>
        <time>2019-05-01T07:22:41Z</time>
      </trkpt>
      <trkpt lat="45.24531" lon="6.14945">
        <ele>2448.4</ele>
        <time>2019-05-01T07:22:46Z</time>
      </trkpt>
      <trkpt lat="45.24531" lon="6.1494">
        <ele>2449.4</ele>
        <time>2019-05-01T07:22:51Z</time>
      </trkpt>
      <trkpt lat="45.24533" lon="6.14937">
        <ele>2452.2</ele>
        <time>2019-05-01T07:22:55Z</time>
      </trkpt>
      <trkpt lat="45.24532" lon="6.14933">
        <ele>2453.2</ele>
        <time>2019-05-01T07:23:01Z</time>
      </trkpt>
      <trkpt lat="45.24533" lon="6.14929">
        <ele>2454.1</ele>
        <time>2019-05-01T07:23:08Z</time>
      </trkpt>
      <trkpt lat="45.24533" lon="6.14924">
        <ele>2454.9</ele>
        <time>2019-05-01T07:23:12Z</time>
      </trkpt>
      <trkpt lat="45.24532" lon="6.1492">
        <ele>2455.8</ele>
        <time>2019-05-01T07:23:17Z</time>
      </trkpt>
      <trkpt lat="45.24533" lon="6.14916">
        <ele>2456.6</ele>
        <time>2019-05-01T07:23:22Z</time>
      </trkpt>
      <trkpt lat="45.24535" lon="6.14914">
        <ele>2458.2</ele>
        <time>2019-05-01T07:23:25Z</time>
      </trkpt>
      <trkpt lat="45.24538" lon="6.1491">
        <ele>2460.5</ele>
        <time>2019-05-01T07:23:29Z</time>
      </trkpt>
      <trkpt lat="45.24539" lon="6.14907">
        <ele>2461.4</ele>
        <time>2019-05-01T07:23:33Z</time>
      </trkpt>
      <trkpt lat="45.2454" lon="6.14902">
        <ele>2462.2</ele>
        <time>2019-05-01T07:23:38Z</time>
      </trkpt>
      <trkpt lat="45.24541" lon="6.14898">
        <ele>2464.6</ele>
        <time>2019-05-01T07:23:49Z</time>
      </trkpt>
      <trkpt lat="45.24542" lon="6.14894">
        <ele>2465.5</ele>
        <time>2019-05-01T07:23:53Z</time>
      </trkpt>
      <trkpt lat="45.24542" lon="6.14889">
        <ele>2466.4</ele>
        <time>2019-05-01T07:24:01Z</time>
      </trkpt>
      <trkpt lat="45.24543" lon="6.14885">
        <ele>2468.8</ele>
        <time>2019-05-01T07:24:05Z</time>
      </trkpt>
      <trkpt lat="45.24544" lon="6.14881">
        <ele>2469.7</ele>
        <time>2019-05-01T07:24:09Z</time>
      </trkpt>
      <trkpt lat="45.24543" lon="6.14876">
        <ele>2468.9</ele>
        <time>2019-05-01T07:24:14Z</time>
      </trkpt>
      <trkpt lat="45.24544" lon="6.14871">
        <ele>2471.2</ele>
        <time>2019-05-01T07:24:19Z</time>
      </trkpt>
      <trkpt lat="45.24544" lon="6.14868">
        <ele>2472</ele>
        <time>2019-05-01T07:24:23Z</time>
      </trkpt>
      <trkpt lat="45.24545" lon="6.14863">
        <ele>2472.8</ele>
        <time>2019-05-01T07:24:28Z</time>
      </trkpt>
      <trkpt lat="45.24544" lon="6.14859">
        <ele>2473.6</ele>
        <time>2019-05-01T07:24:35Z</time>
      </trkpt>
      <trkpt lat="45.24544" lon="6.14855">
        <ele>2474.4</ele>
        <time>2019-05-01T07:24:40Z</time>
      </trkpt>
      <trkpt lat="45.24547" lon="6.14851">
        <ele>2476.9</ele>
        <time>2019-05-01T07:24:48Z</time>
      </trkpt>
      <trkpt lat="45.24544" lon="6.14847">
        <ele>2476.1</ele>
        <time>2019-05-01T07:24:55Z</time>
      </trkpt>
      <trkpt lat="45.24543" lon="6.14842">
        <ele>2475.5</ele>
        <time>2019-05-01T07:25:00Z</time>
      </trkpt>
      <trkpt lat="45.24542" lon="6.14838">
        <ele>2476.4</ele>
        <time>2019-05-01T07:25:05Z</time>
      </trkpt>
      <trkpt lat="45.24545" lon="6.14835">
        <ele>2477.8</ele>
        <time>2019-05-01T07:25:12Z</time>
      </trkpt>
      <trkpt lat="45.24548" lon="6.14835">
        <ele>2480.1</ele>
        <time>2019-05-01T07:25:17Z</time>
      </trkpt>
      <trkpt lat="45.24551" lon="6.14834">
        <ele>2481.7</ele>
        <time>2019-05-01T07:25:24Z</time>
      </trkpt>
      <trkpt lat="45.24553" lon="6.14831">
        <ele>2484.1</ele>
        <time>2019-05-01T07:25:30Z</time>
      </trkpt>
      <trkpt lat="45.24555" lon="6.14828">
        <ele>2484.1</ele>
        <time>2019-05-01T07:25:34Z</time>
      </trkpt>
      <trkpt lat="45.24558" lon="6.14827">
        <ele>2485.7</ele>
        <time>2019-05-01T07:25:38Z</time>
      </trkpt>
      <trkpt lat="45.24556" lon="6.14824">
        <ele>2486.5</ele>
        <time>2019-05-01T07:25:44Z</time>
      </trkpt>
      <trkpt lat="45.24556" lon="6.14819">
        <ele>2487.2</ele>
        <time>2019-05-01T07:25:48Z</time>
      </trkpt>
      <trkpt lat="45.24554" lon="6.14817">
        <ele>2486.4</ele>
        <time>2019-05-01T07:25:52Z</time>
      </trkpt>
      <trkpt lat="45.24551" lon="6.14816">
        <ele>2484.8</ele>
        <time>2019-05-01T07:25:56Z</time>
      </trkpt>
      <trkpt lat="45.24547" lon="6.14811">
        <ele>2484.1</ele>
        <time>2019-05-01T07:26:12Z</time>
      </trkpt>
      <trkpt lat="45.24546" lon="6.14808">
        <ele>2483.6</ele>
        <time>2019-05-01T07:26:15Z</time>
      </trkpt>
      <trkpt lat="45.24545" lon="6.14802">
        <ele>2484.5</ele>
        <time>2019-05-01T07:26:18Z</time>
      </trkpt>
      <trkpt lat="45.24544" lon="6.14798">
        <ele>2485.4</ele>
        <time>2019-05-01T07:26:20Z</time>
      </trkpt>
      <trkpt lat="45.24544" lon="6.14793">
        <ele>2486.4</ele>
        <time>2019-05-01T07:26:24Z</time>
      </trkpt>
      <trkpt lat="45.24543" lon="6.14789">
        <ele>2486</ele>
        <time>2019-05-01T07:26:31Z</time>
      </trkpt>
      <trkpt lat="45.24544" lon="6.14786">
        <ele>2488.2</ele>
        <time>2019-05-01T07:26:34Z</time>
      </trkpt>
      <trkpt lat="45.24545" lon="6.14781">
        <ele>2489.1</ele>
        <time>2019-05-01T07:26:39Z</time>
      </trkpt>
      <trkpt lat="45.24547" lon="6.14778">
        <ele>2491.3</ele>
        <time>2019-05-01T07:26:42Z</time>
      </trkpt>
      <trkpt lat="45.24549" lon="6.14775">
        <ele>2492.2</ele>
        <time>2019-05-01T07:26:45Z</time>
      </trkpt>
      <trkpt lat="45.24551" lon="6.14772">
        <ele>2493.6</ele>
        <time>2019-05-01T07:26:48Z</time>
      </trkpt>
      <trkpt lat="45.24553" lon="6.14768">
        <ele>2496</ele>
        <time>2019-05-01T07:26:52Z</time>
      </trkpt>
      <trkpt lat="45.24556" lon="6.14767">
        <ele>2498.3</ele>
        <time>2019-05-01T07:26:58Z</time>
      </trkpt>
      <trkpt lat="45.24558" lon="6.14767">
        <ele>2497.4</ele>
        <time>2019-05-01T07:27:05Z</time>
      </trkpt>
      <trkpt lat="45.24562" lon="6.14768">
        <ele>2500</ele>
        <time>2019-05-01T07:27:11Z</time>
      </trkpt>
      <trkpt lat="45.24564" lon="6.14765">
        <ele>2500.9</ele>
        <time>2019-05-01T07:27:27Z</time>
      </trkpt>
      <trkpt lat="45.24567" lon="6.14764">
        <ele>2502.1</ele>
        <time>2019-05-01T07:27:31Z</time>
      </trkpt>
      <trkpt lat="45.2457" lon="6.14764">
        <ele>2503.3</ele>
        <time>2019-05-01T07:27:35Z</time>
      </trkpt>
      <trkpt lat="45.24568" lon="6.14761">
        <ele>2504.1</ele>
        <time>2019-05-01T07:27:47Z</time>
      </trkpt>
      <trkpt lat="45.24568" lon="6.14756">
        <ele>2505</ele>
        <time>2019-05-01T07:27:52Z</time>
      </trkpt>
      <trkpt lat="45.24571" lon="6.14752">
        <ele>2507.1</ele>
        <time>2019-05-01T07:27:55Z</time>
      </trkpt>
      <trkpt lat="45.24575" lon="6.14749">
        <ele>2509.2</ele>
        <time>2019-05-01T07:27:57Z</time>
      </trkpt>
      <trkpt lat="45.24577" lon="6.14746">
        <ele>2510.5</ele>
        <time>2019-05-01T07:27:59Z</time>
      </trkpt>
      <trkpt lat="45.24575" lon="6.14742">
        <ele>2510</ele>
        <time>2019-05-01T07:28:03Z</time>
      </trkpt>
      <trkpt lat="45.24574" lon="6.14739">
        <ele>2509.5</ele>
        <time>2019-05-01T07:28:09Z</time>
      </trkpt>
      <trkpt lat="45.24574" lon="6.14734">
        <ele>2510.3</ele>
        <time>2019-05-01T07:28:17Z</time>
      </trkpt>
      <trkpt lat="45.24573" lon="6.14729">
        <ele>2511.1</ele>
        <time>2019-05-01T07:28:22Z</time>
      </trkpt>
      <trkpt lat="45.24571" lon="6.14726">
        <ele>2512</ele>
        <time>2019-05-01T07:28:25Z</time>
      </trkpt>
      <trkpt lat="45.24569" lon="6.14723">
        <ele>2511.8</ele>
        <time>2019-05-01T07:28:28Z</time>
      </trkpt>
      <trkpt lat="45.24566" lon="6.1472">
        <ele>2510.6</ele>
        <time>2019-05-01T07:28:32Z</time>
      </trkpt>
      <trkpt lat="45.24565" lon="6.14716">
        <ele>2511.6</ele>
        <time>2019-05-01T07:28:37Z</time>
      </trkpt>
      <trkpt lat="45.24565" lon="6.14712">
        <ele>2512.7</ele>
        <time>2019-05-01T07:28:46Z</time>
      </trkpt>
      <trkpt lat="45.24565" lon="6.14708">
        <ele>2513.7</ele>
        <time>2019-05-01T07:28:52Z</time>
      </trkpt>
      <trkpt lat="45.24567" lon="6.14704">
        <ele>2514.6</ele>
        <time>2019-05-01T07:28:56Z</time>
      </trkpt>
      <trkpt lat="45.24568" lon="6.147">
        <ele>2516.6</ele>
        <time>2019-05-01T07:29:01Z</time>
      </trkpt>
      <trkpt lat="45.24568" lon="6.14697">
        <ele>2517.4</ele>
        <time>2019-05-01T07:29:14Z</time>
      </trkpt>
      <trkpt lat="45.24571" lon="6.14696">
        <ele>2518.5</ele>
        <time>2019-05-01T07:29:20Z</time>
      </trkpt>
      <trkpt lat="45.24573" lon="6.14698">
        <ele>2517.6</ele>
        <time>2019-05-01T07:29:32Z</time>
      </trkpt>
      <trkpt lat="45.24577" lon="6.14696">
        <ele>2519.5</ele>
        <time>2019-05-01T07:29:41Z</time>
      </trkpt>
      <trkpt lat="45.24579" lon="6.14694">
        <ele>2520.6</ele>
        <time>2019-05-01T07:29:45Z</time>
      </trkpt>
      <trkpt lat="45.24581" lon="6.14692">
        <ele>2522.5</ele>
        <time>2019-05-01T07:29:47Z</time>
      </trkpt>
      <trkpt lat="45.24584" lon="6.1469">
        <ele>2523.7</ele>
        <time>2019-05-01T07:29:57Z</time>
      </trkpt>
      <trkpt lat="45.24588" lon="6.14688">
        <ele>2525.6</ele>
        <time>2019-05-01T07:30:10Z</time>
      </trkpt>
      <trkpt lat="45.24591" lon="6.14687">
        <ele>2526.7</ele>
        <time>2019-05-01T07:30:12Z</time>
      </trkpt>
      <trkpt lat="45.24593" lon="6.14684">
        <ele>2528.6</ele>
        <time>2019-05-01T07:30:15Z</time>
      </trkpt>
      <trkpt lat="45.24594" lon="6.1468">
        <ele>2529.5</ele>
        <time>2019-05-01T07:30:23Z</time>
      </trkpt>
      <trkpt lat="45.24596" lon="6.14676">
        <ele>2531.3</ele>
        <time>2019-05-01T07:30:26Z</time>
      </trkpt>
      <trkpt lat="45.24597" lon="6.14672">
        <ele>2531.3</ele>
        <time>2019-05-01T07:30:29Z</time>
      </trkpt>
      <trkpt lat="45.24597" lon="6.14667">
        <ele>2533.4</ele>
        <time>2019-05-01T07:30:33Z</time>
      </trkpt>
      <trkpt lat="45.24598" lon="6.14664">
        <ele>2535.3</ele>
        <time>2019-05-01T07:30:43Z</time>
      </trkpt>
      <trkpt lat="45.24601" lon="6.14662">
        <ele>2535.3</ele>
        <time>2019-05-01T07:30:54Z</time>
      </trkpt>
      <trkpt lat="45.24603" lon="6.14659">
        <ele>2537.1</ele>
        <time>2019-05-01T07:30:59Z</time>
      </trkpt>
      <trkpt lat="45.24601" lon="6.14655">
        <ele>2537.2</ele>
        <time>2019-05-01T07:31:04Z</time>
      </trkpt>
      <trkpt lat="45.24604" lon="6.14653">
        <ele>2538.8</ele>
        <time>2019-05-01T07:31:08Z</time>
      </trkpt>
      <trkpt lat="45.24606" lon="6.1465">
        <ele>2539.6</ele>
        <time>2019-05-01T07:31:13Z</time>
      </trkpt>
      <trkpt lat="45.24607" lon="6.14644">
        <ele>2540.5</ele>
        <time>2019-05-01T07:31:17Z</time>
      </trkpt>
      <trkpt lat="45.24608" lon="6.14641">
        <ele>2542.1</ele>
        <time>2019-05-01T07:31:19Z</time>
      </trkpt>
      <trkpt lat="45.24611" lon="6.14637">
        <ele>2543.8</ele>
        <time>2019-05-01T07:31:22Z</time>
      </trkpt>
      <trkpt lat="45.24615" lon="6.14636">
        <ele>2544.7</ele>
        <time>2019-05-01T07:31:27Z</time>
      </trkpt>
      <trkpt lat="45.24617" lon="6.14632">
        <ele>2546.2</ele>
        <time>2019-05-01T07:31:30Z</time>
      </trkpt>
      <trkpt lat="45.24618" lon="6.14627">
        <ele>2547</ele>
        <time>2019-05-01T07:31:33Z</time>
      </trkpt>
      <trkpt lat="45.24617" lon="6.14622">
        <ele>2547.8</ele>
        <time>2019-05-01T07:31:37Z</time>
      </trkpt>
      <trkpt lat="45.24619" lon="6.14618">
        <ele>2548.6</ele>
        <time>2019-05-01T07:31:40Z</time>
      </trkpt>
      <trkpt lat="45.2462" lon="6.14614">
        <ele>2550.1</ele>
        <time>2019-05-01T07:31:43Z</time>
      </trkpt>
      <trkpt lat="45.24621" lon="6.1461">
        <ele>2550.9</ele>
        <time>2019-05-01T07:31:46Z</time>
      </trkpt>
      <trkpt lat="45.24621" lon="6.14605">
        <ele>2551.7</ele>
        <time>2019-05-01T07:31:49Z</time>
      </trkpt>
      <trkpt lat="45.24623" lon="6.146">
        <ele>2552.9</ele>
        <time>2019-05-01T07:31:52Z</time>
      </trkpt>
      <trkpt lat="45.24623" lon="6.14596">
        <ele>2553.6</ele>
        <time>2019-05-01T07:31:55Z</time>
      </trkpt>
      <trkpt lat="45.24623" lon="6.14592">
        <ele>2554.2</ele>
        <time>2019-05-01T07:31:59Z</time>
      </trkpt>
      <trkpt lat="45.24623" lon="6.14587">
        <ele>2554.9</ele>
        <time>2019-05-01T07:32:02Z</time>
      </trkpt>
      <trkpt lat="45.24623" lon="6.14583">
        <ele>2555.7</ele>
        <time>2019-05-01T07:32:05Z</time>
      </trkpt>
      <trkpt lat="45.24623" lon="6.14579">
        <ele>2556.5</ele>
        <time>2019-05-01T07:32:08Z</time>
      </trkpt>
      <trkpt lat="45.24625" lon="6.14576">
        <ele>2557.4</ele>
        <time>2019-05-01T07:32:11Z</time>
      </trkpt>
      <trkpt lat="45.24625" lon="6.14572">
        <ele>2559.3</ele>
        <time>2019-05-01T07:32:15Z</time>
      </trkpt>
      <trkpt lat="45.24627" lon="6.14568">
        <ele>2560.4</ele>
        <time>2019-05-01T07:32:22Z</time>
      </trkpt>
      <trkpt lat="45.24629" lon="6.14564">
        <ele>2562.7</ele>
        <time>2019-05-01T07:32:27Z</time>
      </trkpt>
      <trkpt lat="45.24631" lon="6.14561">
        <ele>2562.7</ele>
        <time>2019-05-01T07:32:33Z</time>
      </trkpt>
      <trkpt lat="45.24632" lon="6.14557">
        <ele>2565.3</ele>
        <time>2019-05-01T07:32:40Z</time>
      </trkpt>
      <trkpt lat="45.24632" lon="6.14553">
        <ele>2566.5</ele>
        <time>2019-05-01T07:32:44Z</time>
      </trkpt>
      <trkpt lat="45.24632" lon="6.14549">
        <ele>2567.8</ele>
        <time>2019-05-01T07:32:48Z</time>
      </trkpt>
      <trkpt lat="45.24629" lon="6.14545">
        <ele>2567.9</ele>
        <time>2019-05-01T07:32:51Z</time>
      </trkpt>
      <trkpt lat="45.24627" lon="6.14543">
        <ele>2568.2</ele>
        <time>2019-05-01T07:32:53Z</time>
      </trkpt>
      <trkpt lat="45.24625" lon="6.1454">
        <ele>2567.3</ele>
        <time>2019-05-01T07:33:02Z</time>
      </trkpt>
      <trkpt lat="45.24623" lon="6.14538">
        <ele>2568.5</ele>
        <time>2019-05-01T07:33:05Z</time>
      </trkpt>
      <trkpt lat="45.24619" lon="6.14536">
        <ele>2567.7</ele>
        <time>2019-05-01T07:33:10Z</time>
      </trkpt>
      <trkpt lat="45.24617" lon="6.14533">
        <ele>2568</ele>
        <time>2019-05-01T07:33:15Z</time>
      </trkpt>
      <trkpt lat="45.24619" lon="6.1453">
        <ele>2569.2</ele>
        <time>2019-05-01T07:33:18Z</time>
      </trkpt>
      <trkpt lat="45.2462" lon="6.14525">
        <ele>2571.2</ele>
        <time>2019-05-01T07:33:22Z</time>
      </trkpt>
      <trkpt lat="45.24622" lon="6.14521">
        <ele>2572.4</ele>
        <time>2019-05-01T07:33:29Z</time>
      </trkpt>
      <trkpt lat="45.24622" lon="6.14517">
        <ele>2574.4</ele>
        <time>2019-05-01T07:33:35Z</time>
      </trkpt>
      <trkpt lat="45.24623" lon="6.14513">
        <ele>2575.7</ele>
        <time>2019-05-01T07:33:40Z</time>
      </trkpt>
      <trkpt lat="45.24624" lon="6.14509">
        <ele>2577</ele>
        <time>2019-05-01T07:33:45Z</time>
      </trkpt>
      <trkpt lat="45.24626" lon="6.14506">
        <ele>2577.9</ele>
        <time>2019-05-01T07:33:50Z</time>
      </trkpt>
      <trkpt lat="45.24629" lon="6.14505">
        <ele>2580.2</ele>
        <time>2019-05-01T07:33:55Z</time>
      </trkpt>
      <trkpt lat="45.24632" lon="6.14503">
        <ele>2581.1</ele>
        <time>2019-05-01T07:34:00Z</time>
      </trkpt>
      <trkpt lat="45.24634" lon="6.14501">
        <ele>2582.1</ele>
        <time>2019-05-01T07:34:05Z</time>
      </trkpt>
      <trkpt lat="45.24637" lon="6.14498">
        <ele>2583.6</ele>
        <time>2019-05-01T07:34:13Z</time>
      </trkpt>
      <trkpt lat="45.24635" lon="6.14495">
        <ele>2585.1</ele>
        <time>2019-05-01T07:34:16Z</time>
      </trkpt>
      <trkpt lat="45.24633" lon="6.14492">
        <ele>2585.7</ele>
        <time>2019-05-01T07:34:19Z</time>
      </trkpt>
      <trkpt lat="45.24632" lon="6.14489">
        <ele>2585.7</ele>
        <time>2019-05-01T07:34:23Z</time>
      </trkpt>
      <trkpt lat="45.2463" lon="6.14485">
        <ele>2586.1</ele>
        <time>2019-05-01T07:34:27Z</time>
      </trkpt>
      <trkpt lat="45.24628" lon="6.14482">
        <ele>2586.3</ele>
        <time>2019-05-01T07:34:30Z</time>
      </trkpt>
      <trkpt lat="45.24626" lon="6.14479">
        <ele>2587.3</ele>
        <time>2019-05-01T07:34:33Z</time>
      </trkpt>
      <trkpt lat="45.24625" lon="6.14475">
        <ele>2587.3</ele>
        <time>2019-05-01T07:34:37Z</time>
      </trkpt>
      <trkpt lat="45.24623" lon="6.14471">
        <ele>2587.3</ele>
        <time>2019-05-01T07:34:47Z</time>
      </trkpt>
      <trkpt lat="45.24624" lon="6.14467">
        <ele>2588.1</ele>
        <time>2019-05-01T07:34:50Z</time>
      </trkpt>
      <trkpt lat="45.24625" lon="6.14464">
        <ele>2589.8</ele>
        <time>2019-05-01T07:34:53Z</time>
      </trkpt>
      <trkpt lat="45.24627" lon="6.14461">
        <ele>2590.8</ele>
        <time>2019-05-01T07:34:58Z</time>
      </trkpt>
      <trkpt lat="45.24629" lon="6.14458">
        <ele>2592.8</ele>
        <time>2019-05-01T07:35:03Z</time>
      </trkpt>
      <trkpt lat="45.24631" lon="6.14454">
        <ele>2592.8</ele>
        <time>2019-05-01T07:35:06Z</time>
      </trkpt>
      <trkpt lat="45.24634" lon="6.14453">
        <ele>2595</ele>
        <time>2019-05-01T07:35:11Z</time>
      </trkpt>
      <trkpt lat="45.24638" lon="6.14453">
        <ele>2596.8</ele>
        <time>2019-05-01T07:35:15Z</time>
      </trkpt>
      <trkpt lat="45.2464" lon="6.1445">
        <ele>2596.8</ele>
        <time>2019-05-01T07:35:18Z</time>
      </trkpt>
      <trkpt lat="45.24643" lon="6.14451">
        <ele>2598.8</ele>
        <time>2019-05-01T07:35:24Z</time>
      </trkpt>
      <trkpt lat="45.24646" lon="6.14453">
        <ele>2598.8</ele>
        <time>2019-05-01T07:35:27Z</time>
      </trkpt>
      <trkpt lat="45.24649" lon="6.14453">
        <ele>2599.9</ele>
        <time>2019-05-01T07:35:30Z</time>
      </trkpt>
      <trkpt lat="45.24653" lon="6.14453">
        <ele>2601.9</ele>
        <time>2019-05-01T07:35:34Z</time>
      </trkpt>
      <trkpt lat="45.2465" lon="6.1445">
        <ele>2600.9</ele>
        <time>2019-05-01T07:36:04Z</time>
      </trkpt>
      <trkpt lat="45.24648" lon="6.14446">
        <ele>2600.6</ele>
        <time>2019-05-01T07:36:07Z</time>
      </trkpt>
      <trkpt lat="45.24646" lon="6.14443">
        <ele>2600.8</ele>
        <time>2019-05-01T07:36:09Z</time>
      </trkpt>
      <trkpt lat="45.24644" lon="6.14441">
        <ele>2600.8</ele>
        <time>2019-05-01T07:36:11Z</time>
      </trkpt>
      <trkpt lat="45.24642" lon="6.14436">
        <ele>2601.4</ele>
        <time>2019-05-01T07:36:15Z</time>
      </trkpt>
      <trkpt lat="45.2464" lon="6.14433">
        <ele>2602.6</ele>
        <time>2019-05-01T07:36:17Z</time>
      </trkpt>
      <trkpt lat="45.24638" lon="6.1443">
        <ele>2604.3</ele>
        <time>2019-05-01T07:36:20Z</time>
      </trkpt>
      <trkpt lat="45.24635" lon="6.1443">
        <ele>2604.3</ele>
        <time>2019-05-01T07:36:25Z</time>
      </trkpt>
      <trkpt lat="45.24638" lon="6.14429">
        <ele>2604.3</ele>
        <time>2019-05-01T07:36:32Z</time>
      </trkpt>
      <trkpt lat="45.24641" lon="6.14429">
        <ele>2604.4</ele>
        <time>2019-05-01T07:36:36Z</time>
      </trkpt>
      <trkpt lat="45.24644" lon="6.14429">
        <ele>2604.6</ele>
        <time>2019-05-01T07:36:41Z</time>
      </trkpt>
      <trkpt lat="45.24647" lon="6.14429">
        <ele>2604.8</ele>
        <time>2019-05-01T07:36:46Z</time>
      </trkpt>
      <trkpt lat="45.2465" lon="6.1443">
        <ele>2605.2</ele>
        <time>2019-05-01T07:36:51Z</time>
      </trkpt>
      <trkpt lat="45.24652" lon="6.1443">
        <ele>2605.8</ele>
        <time>2019-05-01T07:37:04Z</time>
      </trkpt>
      <trkpt lat="45.24655" lon="6.14429">
        <ele>2606.5</ele>
        <time>2019-05-01T07:37:11Z</time>
      </trkpt>
      <trkpt lat="45.24658" lon="6.14432">
        <ele>2606.5</ele>
        <time>2019-05-01T07:37:16Z</time>
      </trkpt>
      <trkpt lat="45.24661" lon="6.14432">
        <ele>2606.4</ele>
        <time>2019-05-01T07:37:20Z</time>
      </trkpt>
      <trkpt lat="45.24664" lon="6.14434">
        <ele>2607.4</ele>
        <time>2019-05-01T07:37:24Z</time>
      </trkpt>
      <trkpt lat="45.24666" lon="6.14436">
        <ele>2607.8</ele>
        <time>2019-05-01T07:37:29Z</time>
      </trkpt>
      <trkpt lat="45.24669" lon="6.14438">
        <ele>2608.9</ele>
        <time>2019-05-01T07:37:34Z</time>
      </trkpt>
      <trkpt lat="45.24672" lon="6.14439">
        <ele>2610</ele>
        <time>2019-05-01T07:37:36Z</time>
      </trkpt>
      <trkpt lat="45.24674" lon="6.14441">
        <ele>2610.3</ele>
        <time>2019-05-01T07:37:38Z</time>
      </trkpt>
      <trkpt lat="45.24677" lon="6.14441">
        <ele>2611.3</ele>
        <time>2019-05-01T07:37:40Z</time>
      </trkpt>
      <trkpt lat="45.24677" lon="6.14436">
        <ele>2612.8</ele>
        <time>2019-05-01T07:37:45Z</time>
      </trkpt>
      <trkpt lat="45.24675" lon="6.14432">
        <ele>2611.8</ele>
        <time>2019-05-01T07:37:47Z</time>
      </trkpt>
      <trkpt lat="45.24672" lon="6.1443">
        <ele>2611.3</ele>
        <time>2019-05-01T07:37:49Z</time>
      </trkpt>
      <trkpt lat="45.24669" lon="6.14426">
        <ele>2611</ele>
        <time>2019-05-01T07:37:52Z</time>
      </trkpt>
      <trkpt lat="45.24668" lon="6.1442">
        <ele>2612</ele>
        <time>2019-05-01T07:38:14Z</time>
      </trkpt>
      <trkpt lat="45.24668" lon="6.14416">
        <ele>2613</ele>
        <time>2019-05-01T07:38:17Z</time>
      </trkpt>
      <trkpt lat="45.24666" lon="6.14411">
        <ele>2613.9</ele>
        <time>2019-05-01T07:38:20Z</time>
      </trkpt>
      <trkpt lat="45.24663" lon="6.14408">
        <ele>2615.3</ele>
        <time>2019-05-01T07:38:22Z</time>
      </trkpt>
      <trkpt lat="45.2466" lon="6.14406">
        <ele>2617.2</ele>
        <time>2019-05-01T07:38:23Z</time>
      </trkpt>
      <trkpt lat="45.24657" lon="6.14402">
        <ele>2617.1</ele>
        <time>2019-05-01T07:38:25Z</time>
      </trkpt>
      <trkpt lat="45.24656" lon="6.14399">
        <ele>2619.4</ele>
        <time>2019-05-01T07:38:28Z</time>
      </trkpt>
      <trkpt lat="45.24658" lon="6.14395">
        <ele>2621.6</ele>
        <time>2019-05-01T07:38:34Z</time>
      </trkpt>
      <trkpt lat="45.24659" lon="6.14391">
        <ele>2623.7</ele>
        <time>2019-05-01T07:38:38Z</time>
      </trkpt>
      <trkpt lat="45.24657" lon="6.14387">
        <ele>2625.9</ele>
        <time>2019-05-01T07:38:44Z</time>
      </trkpt>
      <trkpt lat="45.24656" lon="6.14383">
        <ele>2628</ele>
        <time>2019-05-01T07:38:49Z</time>
      </trkpt>
      <trkpt lat="45.24659" lon="6.14388">
        <ele>2625.8</ele>
        <time>2019-05-01T07:38:59Z</time>
      </trkpt>
      <trkpt lat="45.24662" lon="6.1439">
        <ele>2623.5</ele>
        <time>2019-05-01T07:39:05Z</time>
      </trkpt>
      <trkpt lat="45.24665" lon="6.14392">
        <ele>2623.4</ele>
        <time>2019-05-01T07:39:09Z</time>
      </trkpt>
      <trkpt lat="45.24667" lon="6.14395">
        <ele>2621.3</ele>
        <time>2019-05-01T07:39:12Z</time>
      </trkpt>
      <trkpt lat="45.2467" lon="6.14397">
        <ele>2621.2</ele>
        <time>2019-05-01T07:39:15Z</time>
      </trkpt>
      <trkpt lat="45.24672" lon="6.14398">
        <ele>2619.3</ele>
        <time>2019-05-01T07:39:19Z</time>
      </trkpt>
      <trkpt lat="45.24675" lon="6.14397">
        <ele>2621</ele>
        <time>2019-05-01T07:40:11Z</time>
      </trkpt>
      <trkpt lat="45.24672" lon="6.14392">
        <ele>2623</ele>
        <time>2019-05-01T07:40:15Z</time>
      </trkpt>
      <trkpt lat="45.24674" lon="6.14389">
        <ele>2622.9</ele>
        <time>2019-05-01T07:40:18Z</time>
      </trkpt>
      <trkpt lat="45.24676" lon="6.14387">
        <ele>2624.8</ele>
        <time>2019-05-01T07:40:21Z</time>
      </trkpt>
      <trkpt lat="45.2468" lon="6.14384">
        <ele>2626.2</ele>
        <time>2019-05-01T07:40:27Z</time>
      </trkpt>
      <trkpt lat="45.24679" lon="6.1438">
        <ele>2628.3</ele>
        <time>2019-05-01T07:40:36Z</time>
      </trkpt>
      <trkpt lat="45.24676" lon="6.1438">
        <ele>2628.3</ele>
        <time>2019-05-01T07:40:38Z</time>
      </trkpt>
      <trkpt lat="45.24673" lon="6.14378">
        <ele>2628.8</ele>
        <time>2019-05-01T07:40:42Z</time>
      </trkpt>
      <trkpt lat="45.2467" lon="6.14375">
        <ele>2630.9</ele>
        <time>2019-05-01T07:40:45Z</time>
      </trkpt>
      <trkpt lat="45.24671" lon="6.1437">
        <ele>2632.4</ele>
        <time>2019-05-01T07:41:59Z</time>
      </trkpt>
      <trkpt lat="45.24673" lon="6.14367">
        <ele>2634.3</ele>
        <time>2019-05-01T07:42:02Z</time>
      </trkpt>
      <trkpt lat="45.24676" lon="6.14369">
        <ele>2632.1</ele>
        <time>2019-05-01T07:42:05Z</time>
      </trkpt>
      <trkpt lat="45.24679" lon="6.1437">
        <ele>2631.8</ele>
        <time>2019-05-01T07:42:09Z</time>
      </trkpt>
      <trkpt lat="45.2468" lon="6.14366">
        <ele>2633.1</ele>
        <time>2019-05-01T07:42:11Z</time>
      </trkpt>
      <trkpt lat="45.24681" lon="6.14361">
        <ele>2634.7</ele>
        <time>2019-05-01T07:42:13Z</time>
      </trkpt>
      <trkpt lat="45.24681" lon="6.14357">
        <ele>2636.3</ele>
        <time>2019-05-01T07:42:16Z</time>
      </trkpt>
      <trkpt lat="45.24684" lon="6.14356">
        <ele>2635.7</ele>
        <time>2019-05-01T07:42:19Z</time>
      </trkpt>
      <trkpt lat="45.24683" lon="6.14351">
        <ele>2637.2</ele>
        <time>2019-05-01T07:42:27Z</time>
      </trkpt>
      <trkpt lat="45.24679" lon="6.1435">
        <ele>2640.1</ele>
        <time>2019-05-01T07:42:37Z</time>
      </trkpt>
      <trkpt lat="45.24674" lon="6.14351">
        <ele>2639.2</ele>
        <time>2019-05-01T07:42:51Z</time>
      </trkpt>
      <trkpt lat="45.24674" lon="6.14347">
        <ele>2640.9</ele>
        <time>2019-05-01T07:43:45Z</time>
      </trkpt>
      <trkpt lat="45.24672" lon="6.14343">
        <ele>2643.5</ele>
        <time>2019-05-01T07:43:58Z</time>
      </trkpt>
      <trkpt lat="45.24669" lon="6.14342">
        <ele>2646.3</ele>
        <time>2019-05-01T07:44:27Z</time>
      </trkpt>
      <trkpt lat="45.24666" lon="6.1434">
        <ele>2647.3</ele>
        <time>2019-05-01T07:44:29Z</time>
      </trkpt>
      <trkpt lat="45.2467" lon="6.1434">
        <ele>2646.3</ele>
        <time>2019-05-01T07:44:33Z</time>
      </trkpt>
      <trkpt lat="45.24674" lon="6.1434">
        <ele>2644.2</ele>
        <time>2019-05-01T07:44:35Z</time>
      </trkpt>
      <trkpt lat="45.24678" lon="6.14341">
        <ele>2643.2</ele>
        <time>2019-05-01T07:44:37Z</time>
      </trkpt>
      <trkpt lat="45.24672" lon="6.14338">
        <ele>2645.3</ele>
        <time>2019-05-01T07:44:45Z</time>
      </trkpt>
      <trkpt lat="45.24668" lon="6.14336">
        <ele>2648.2</ele>
        <time>2019-05-01T07:45:03Z</time>
      </trkpt>
      <trkpt lat="45.24667" lon="6.14331">
        <ele>2650.1</ele>
        <time>2019-05-01T07:45:09Z</time>
      </trkpt>
      <trkpt lat="45.24667" lon="6.14327">
        <ele>2653.5</ele>
        <time>2019-05-01T07:46:16Z</time>
      </trkpt>
      <trkpt lat="45.24665" lon="6.14324">
        <ele>2655.5</ele>
        <time>2019-05-01T07:46:21Z</time>
      </trkpt>
      <trkpt lat="45.24663" lon="6.14321">
        <ele>2656.9</ele>
        <time>2019-05-01T07:46:31Z</time>
      </trkpt>
      <trkpt lat="45.24663" lon="6.14317">
        <ele>2659.1</ele>
        <time>2019-05-01T07:46:45Z</time>
      </trkpt>
      <trkpt lat="45.24666" lon="6.14314">
        <ele>2659.7</ele>
        <time>2019-05-01T07:47:05Z</time>
      </trkpt>
      <trkpt lat="45.24669" lon="6.14313">
        <ele>2658</ele>
        <time>2019-05-01T07:47:24Z</time>
      </trkpt>
      <trkpt lat="45.24673" lon="6.14312">
        <ele>2656.3</ele>
        <time>2019-05-01T07:47:52Z</time>
      </trkpt>
      <trkpt lat="45.24676" lon="6.1431">
        <ele>2656.3</ele>
        <time>2019-05-01T07:47:56Z</time>
      </trkpt>
      <trkpt lat="45.24678" lon="6.14314">
        <ele>2652.7</ele>
        <time>2019-05-01T07:50:44Z</time>
      </trkpt>
      <trkpt lat="45.24678" lon="6.1431">
        <ele>2654.5</ele>
        <time>2019-05-01T07:51:39Z</time>
      </trkpt>
      <trkpt lat="45.24675" lon="6.14311">
        <ele>2656.3</ele>
        <time>2019-05-01T07:51:59Z</time>
      </trkpt>
      <trkpt lat="45.24674" lon="6.14306">
        <ele>2658.3</ele>
        <time>2019-05-01T07:52:39Z</time>
      </trkpt>
      <trkpt lat="45.24676" lon="6.1431">
        <ele>2656.3</ele>
        <time>2019-05-01T07:54:31Z</time>
      </trkpt>
      <trkpt lat="45.24679" lon="6.14308">
        <ele>2654.5</ele>
        <time>2019-05-01T07:55:51Z</time>
      </trkpt>
      <trkpt lat="45.24678" lon="6.14304">
        <ele>2656.4</ele>
        <time>2019-05-01T07:56:36Z</time>
      </trkpt>
      <trkpt lat="45.24676" lon="6.14311">
        <ele>2656.3</ele>
        <time>2019-05-01T07:56:56Z</time>
      </trkpt>
      <trkpt lat="45.24675" lon="6.14307">
        <ele>2658.3</ele>
        <time>2019-05-01T07:57:40Z</time>
      </trkpt>
      <trkpt lat="45.24678" lon="6.14313">
        <ele>2652.7</ele>
        <time>2019-05-01T07:57:47Z</time>
      </trkpt>
      <trkpt lat="45.24682" lon="6.14311">
        <ele>2652.8</ele>
        <time>2019-05-01T08:07:59Z</time>
      </trkpt>
      <trkpt lat="45.2468" lon="6.14308">
        <ele>2652.8</ele>
        <time>2019-05-01T08:10:09Z</time>
      </trkpt>
      <trkpt lat="45.24683" lon="6.14312">
        <ele>2649.5</ele>
        <time>2019-05-01T08:10:27Z</time>
      </trkpt>
      <trkpt lat="45.24684" lon="6.14308">
        <ele>2651.2</ele>
        <time>2019-05-01T08:11:34Z</time>
      </trkpt>
      <trkpt lat="45.24682" lon="6.14312">
        <ele>2651</ele>
        <time>2019-05-01T08:11:50Z</time>
      </trkpt>
      <trkpt lat="45.24678" lon="6.14314">
        <ele>2652.7</ele>
        <time>2019-05-01T08:12:09Z</time>
      </trkpt>
      <trkpt lat="45.24676" lon="6.14317">
        <ele>2652.6</ele>
        <time>2019-05-01T08:13:09Z</time>
      </trkpt>
      <trkpt lat="45.24675" lon="6.14313">
        <ele>2654.4</ele>
        <time>2019-05-01T08:13:16Z</time>
      </trkpt>
      <trkpt lat="45.24678" lon="6.14312">
        <ele>2654.5</ele>
        <time>2019-05-01T08:13:34Z</time>
      </trkpt>
      <trkpt lat="45.24683" lon="6.14314">
        <ele>2649.5</ele>
        <time>2019-05-01T08:13:51Z</time>
      </trkpt>
      <trkpt lat="45.24682" lon="6.14318">
        <ele>2649.4</ele>
        <time>2019-05-01T08:19:15Z</time>
      </trkpt>
      <trkpt lat="45.24681" lon="6.14313">
        <ele>2651</ele>
        <time>2019-05-01T08:20:00Z</time>
      </trkpt>
      <trkpt lat="45.24683" lon="6.14309">
        <ele>2651.2</ele>
        <time>2019-05-01T08:20:54Z</time>
      </trkpt>
      <trkpt lat="45.24682" lon="6.14305">
        <ele>2654.6</ele>
        <time>2019-05-01T08:21:19Z</time>
      </trkpt>
      <trkpt lat="45.2468" lon="6.14301">
        <ele>2656.4</ele>
        <time>2019-05-01T08:21:23Z</time>
      </trkpt>
      <trkpt lat="45.24681" lon="6.14296">
        <ele>2658.2</ele>
        <time>2019-05-01T08:21:46Z</time>
      </trkpt>
      <trkpt lat="45.2468" lon="6.14291">
        <ele>2659.9</ele>
        <time>2019-05-01T08:21:49Z</time>
      </trkpt>
      <trkpt lat="45.2468" lon="6.14281">
        <ele>2665.3</ele>
        <time>2019-05-01T08:21:56Z</time>
      </trkpt>
      <trkpt lat="45.24679" lon="6.14277">
        <ele>2667.2</ele>
        <time>2019-05-01T08:22:00Z</time>
      </trkpt>
      <trkpt lat="45.24677" lon="6.14272">
        <ele>2671.3</ele>
        <time>2019-05-01T08:22:04Z</time>
      </trkpt>
      <trkpt lat="45.24676" lon="6.14268">
        <ele>2673.4</ele>
        <time>2019-05-01T08:22:11Z</time>
      </trkpt>
      <trkpt lat="45.24677" lon="6.14263">
        <ele>2675.4</ele>
        <time>2019-05-01T08:22:15Z</time>
      </trkpt>
      <trkpt lat="45.24676" lon="6.1426">
        <ele>2679.8</ele>
        <time>2019-05-01T08:22:18Z</time>
      </trkpt>
      <trkpt lat="45.24674" lon="6.14256">
        <ele>2681.8</ele>
        <time>2019-05-01T08:22:30Z</time>
      </trkpt>
      <trkpt lat="45.24675" lon="6.14251">
        <ele>2683.6</ele>
        <time>2019-05-01T08:22:33Z</time>
      </trkpt>
      <trkpt lat="45.24676" lon="6.14247">
        <ele>2685.3</ele>
        <time>2019-05-01T08:22:36Z</time>
      </trkpt>
      <trkpt lat="45.24675" lon="6.14239">
        <ele>2686.9</ele>
        <time>2019-05-01T08:22:48Z</time>
      </trkpt>
      <trkpt lat="45.24675" lon="6.14234">
        <ele>2689.8</ele>
        <time>2019-05-01T08:22:54Z</time>
      </trkpt>
      <trkpt lat="45.24673" lon="6.14229">
        <ele>2693.6</ele>
        <time>2019-05-01T08:22:57Z</time>
      </trkpt>
      <trkpt lat="45.24672" lon="6.14226">
        <ele>2695</ele>
        <time>2019-05-01T08:22:59Z</time>
      </trkpt>
      <trkpt lat="45.2467" lon="6.14222">
        <ele>2697.4</ele>
        <time>2019-05-01T08:23:02Z</time>
      </trkpt>
      <trkpt lat="45.24669" lon="6.14218">
        <ele>2698.7</ele>
        <time>2019-05-01T08:23:07Z</time>
      </trkpt>
      <trkpt lat="45.24669" lon="6.14213">
        <ele>2699.9</ele>
        <time>2019-05-01T08:23:10Z</time>
      </trkpt>
      <trkpt lat="45.24669" lon="6.14209">
        <ele>2701</ele>
        <time>2019-05-01T08:23:12Z</time>
      </trkpt>
      <trkpt lat="45.2467" lon="6.14205">
        <ele>2702</ele>
        <time>2019-05-01T08:23:16Z</time>
      </trkpt>
      <trkpt lat="45.2467" lon="6.14199">
        <ele>2703.9</ele>
        <time>2019-05-01T08:23:20Z</time>
      </trkpt>
      <trkpt lat="45.2467" lon="6.14195">
        <ele>2704.8</ele>
        <time>2019-05-01T08:23:22Z</time>
      </trkpt>
      <trkpt lat="45.2467" lon="6.14191">
        <ele>2705.7</ele>
        <time>2019-05-01T08:23:25Z</time>
      </trkpt>
      <trkpt lat="45.24669" lon="6.14186">
        <ele>2706.8</ele>
        <time>2019-05-01T08:23:28Z</time>
      </trkpt>
      <trkpt lat="45.24669" lon="6.1418">
        <ele>2707.8</ele>
        <time>2019-05-01T08:23:34Z</time>
      </trkpt>
      <trkpt lat="45.2467" lon="6.14175">
        <ele>2708.9</ele>
        <time>2019-05-01T08:23:37Z</time>
      </trkpt>
      <trkpt lat="45.2467" lon="6.14171">
        <ele>2710</ele>
        <time>2019-05-01T08:23:41Z</time>
      </trkpt>
      <trkpt lat="45.2467" lon="6.14167">
        <ele>2711.2</ele>
        <time>2019-05-01T08:23:45Z</time>
      </trkpt>
      <trkpt lat="45.2467" lon="6.14162">
        <ele>2712.3</ele>
        <time>2019-05-01T08:23:49Z</time>
      </trkpt>
      <trkpt lat="45.2467" lon="6.14158">
        <ele>2711.1</ele>
        <time>2019-05-01T08:23:53Z</time>
      </trkpt>
      <trkpt lat="45.24672" lon="6.14154">
        <ele>2712.2</ele>
        <time>2019-05-01T08:23:57Z</time>
      </trkpt>
      <trkpt lat="45.24673" lon="6.14149">
        <ele>2713.3</ele>
        <time>2019-05-01T08:24:01Z</time>
      </trkpt>
      <trkpt lat="45.24674" lon="6.14145">
        <ele>2712.1</ele>
        <time>2019-05-01T08:24:05Z</time>
      </trkpt>
      <trkpt lat="45.24676" lon="6.14141">
        <ele>2713.2</ele>
        <time>2019-05-01T08:24:09Z</time>
      </trkpt>
      <trkpt lat="45.24676" lon="6.14137">
        <ele>2714.4</ele>
        <time>2019-05-01T08:24:13Z</time>
      </trkpt>
      <trkpt lat="45.24678" lon="6.14132">
        <ele>2714.2</ele>
        <time>2019-05-01T08:24:17Z</time>
      </trkpt>
      <trkpt lat="45.24678" lon="6.14128">
        <ele>2715.4</ele>
        <time>2019-05-01T08:24:21Z</time>
      </trkpt>
      <trkpt lat="45.24678" lon="6.14124">
        <ele>2716.5</ele>
        <time>2019-05-01T08:24:25Z</time>
      </trkpt>
      <trkpt lat="45.24678" lon="6.1412">
        <ele>2717.7</ele>
        <time>2019-05-01T08:24:30Z</time>
      </trkpt>
      <trkpt lat="45.24678" lon="6.14116">
        <ele>2718.8</ele>
        <time>2019-05-01T08:24:34Z</time>
      </trkpt>
      <trkpt lat="45.24677" lon="6.14111">
        <ele>2719.8</ele>
        <time>2019-05-01T08:24:38Z</time>
      </trkpt>
      <trkpt lat="45.24676" lon="6.14107">
        <ele>2723</ele>
        <time>2019-05-01T08:24:42Z</time>
      </trkpt>
      <trkpt lat="45.24676" lon="6.14102">
        <ele>2724</ele>
        <time>2019-05-01T08:24:46Z</time>
      </trkpt>
      <trkpt lat="45.24675" lon="6.14099">
        <ele>2724.9</ele>
        <time>2019-05-01T08:24:50Z</time>
      </trkpt>
      <trkpt lat="45.24674" lon="6.14094">
        <ele>2725.8</ele>
        <time>2019-05-01T08:24:54Z</time>
      </trkpt>
      <trkpt lat="45.24674" lon="6.1409">
        <ele>2726.8</ele>
        <time>2019-05-01T08:25:00Z</time>
      </trkpt>
      <trkpt lat="45.24674" lon="6.14085">
        <ele>2727.7</ele>
        <time>2019-05-01T08:25:04Z</time>
      </trkpt>
      <trkpt lat="45.24675" lon="6.14081">
        <ele>2728.6</ele>
        <time>2019-05-01T08:25:07Z</time>
      </trkpt>
      <trkpt lat="45.24675" lon="6.14078">
        <ele>2729.4</ele>
        <time>2019-05-01T08:25:10Z</time>
      </trkpt>
      <trkpt lat="45.24675" lon="6.14074">
        <ele>2730.2</ele>
        <time>2019-05-01T08:25:13Z</time>
      </trkpt>
      <trkpt lat="45.24674" lon="6.1407">
        <ele>2730.9</ele>
        <time>2019-05-01T08:25:18Z</time>
      </trkpt>
      <trkpt lat="45.24674" lon="6.14065">
        <ele>2731.6</ele>
        <time>2019-05-01T08:25:23Z</time>
      </trkpt>
      <trkpt lat="45.24674" lon="6.14061">
        <ele>2732.3</ele>
        <time>2019-05-01T08:25:27Z</time>
      </trkpt>
      <trkpt lat="45.24673" lon="6.14057">
        <ele>2735</ele>
        <time>2019-05-01T08:25:31Z</time>
      </trkpt>
      <trkpt lat="45.24673" lon="6.14053">
        <ele>2735.7</ele>
        <time>2019-05-01T08:25:36Z</time>
      </trkpt>
      <trkpt lat="45.24674" lon="6.14049">
        <ele>2734.5</ele>
        <time>2019-05-01T08:25:41Z</time>
      </trkpt>
      <trkpt lat="45.24676" lon="6.14045">
        <ele>2735.2</ele>
        <time>2019-05-01T08:25:47Z</time>
      </trkpt>
      <trkpt lat="45.24677" lon="6.14041">
        <ele>2734.1</ele>
        <time>2019-05-01T08:25:52Z</time>
      </trkpt>
      <trkpt lat="45.24675" lon="6.14037">
        <ele>2736.7</ele>
        <time>2019-05-01T08:25:57Z</time>
      </trkpt>
      <trkpt lat="45.24676" lon="6.14032">
        <ele>2737.3</ele>
        <time>2019-05-01T08:26:02Z</time>
      </trkpt>
      <trkpt lat="45.24677" lon="6.14028">
        <ele>2736.2</ele>
        <time>2019-05-01T08:26:09Z</time>
      </trkpt>
      <trkpt lat="45.24678" lon="6.14025">
        <ele>2736.2</ele>
        <time>2019-05-01T08:26:13Z</time>
      </trkpt>
      <trkpt lat="45.24676" lon="6.14022">
        <ele>2738.6</ele>
        <time>2019-05-01T08:26:26Z</time>
      </trkpt>
      <trkpt lat="45.24673" lon="6.14022">
        <ele>2740.3</ele>
        <time>2019-05-01T08:26:32Z</time>
      </trkpt>
      <trkpt lat="45.24671" lon="6.14029">
        <ele>2739.2</ele>
        <time>2019-05-01T08:26:40Z</time>
      </trkpt>
      <trkpt lat="45.24669" lon="6.14031">
        <ele>2741.1</ele>
        <time>2019-05-01T08:27:06Z</time>
      </trkpt>
      <trkpt lat="45.24666" lon="6.1403">
        <ele>2743</ele>
        <time>2019-05-01T08:27:10Z</time>
      </trkpt>
      <trkpt lat="45.24663" lon="6.1403">
        <ele>2745</ele>
        <time>2019-05-01T08:27:13Z</time>
      </trkpt>
      <trkpt lat="45.2466" lon="6.14029">
        <ele>2747</ele>
        <time>2019-05-01T08:27:16Z</time>
      </trkpt>
      <trkpt lat="45.24657" lon="6.14029">
        <ele>2748.9</ele>
        <time>2019-05-01T08:27:19Z</time>
      </trkpt>
      <trkpt lat="45.24654" lon="6.14028">
        <ele>2751.2</ele>
        <time>2019-05-01T08:27:22Z</time>
      </trkpt>
      <trkpt lat="45.24651" lon="6.14029">
        <ele>2752.4</ele>
        <time>2019-05-01T08:27:25Z</time>
      </trkpt>
      <trkpt lat="45.24648" lon="6.14031">
        <ele>2754.1</ele>
        <time>2019-05-01T08:27:29Z</time>
      </trkpt>
      <trkpt lat="45.2465" lon="6.14027">
        <ele>2753</ele>
        <time>2019-05-01T08:27:41Z</time>
      </trkpt>
      <trkpt lat="45.24652" lon="6.14024">
        <ele>2753.4</ele>
        <time>2019-05-01T08:27:47Z</time>
      </trkpt>
      <trkpt lat="45.24653" lon="6.1402">
        <ele>2751.7</ele>
        <time>2019-05-01T08:27:52Z</time>
      </trkpt>
      <trkpt lat="45.24655" lon="6.14016">
        <ele>2752.2</ele>
        <time>2019-05-01T08:27:57Z</time>
      </trkpt>
      <trkpt lat="45.24657" lon="6.14013">
        <ele>2750.8</ele>
        <time>2019-05-01T08:28:01Z</time>
      </trkpt>
      <trkpt lat="45.24658" lon="6.14009">
        <ele>2751.2</ele>
        <time>2019-05-01T08:28:05Z</time>
      </trkpt>
      <trkpt lat="45.24659" lon="6.14005">
        <ele>2749.8</ele>
        <time>2019-05-01T08:28:10Z</time>
      </trkpt>
      <trkpt lat="45.2466" lon="6.14001">
        <ele>2750.2</ele>
        <time>2019-05-01T08:28:15Z</time>
      </trkpt>
      <trkpt lat="45.24662" lon="6.13998">
        <ele>2748.7</ele>
        <time>2019-05-01T08:28:20Z</time>
      </trkpt>
      <trkpt lat="45.24663" lon="6.13994">
        <ele>2748.7</ele>
        <time>2019-05-01T08:28:25Z</time>
      </trkpt>
      <trkpt lat="45.24665" lon="6.13992">
        <ele>2747.2</ele>
        <time>2019-05-01T08:28:29Z</time>
      </trkpt>
      <trkpt lat="45.24667" lon="6.13989">
        <ele>2745.8</ele>
        <time>2019-05-01T08:28:33Z</time>
      </trkpt>
      <trkpt lat="45.24671" lon="6.13987">
        <ele>2744.1</ele>
        <time>2019-05-01T08:28:41Z</time>
      </trkpt>
      <trkpt lat="45.24669" lon="6.13986">
        <ele>2745.8</ele>
        <time>2019-05-01T08:28:45Z</time>
      </trkpt>
      <trkpt lat="45.24665" lon="6.13986">
        <ele>2747.6</ele>
        <time>2019-05-01T08:28:50Z</time>
      </trkpt>
      <trkpt lat="45.24662" lon="6.13985">
        <ele>2749.8</ele>
        <time>2019-05-01T08:28:55Z</time>
      </trkpt>
      <trkpt lat="45.24659" lon="6.13985">
        <ele>2751.7</ele>
        <time>2019-05-01T08:29:01Z</time>
      </trkpt>
      <trkpt lat="45.24656" lon="6.13984">
        <ele>2753.5</ele>
        <time>2019-05-01T08:29:04Z</time>
      </trkpt>
      <trkpt lat="45.24653" lon="6.13983">
        <ele>2755.2</ele>
        <time>2019-05-01T08:29:08Z</time>
      </trkpt>
      <trkpt lat="45.24656" lon="6.13981">
        <ele>2753.8</ele>
        <time>2019-05-01T08:29:27Z</time>
      </trkpt>
      <trkpt lat="45.24658" lon="6.1398">
        <ele>2753.8</ele>
        <time>2019-05-01T08:29:31Z</time>
      </trkpt>
      <trkpt lat="45.2466" lon="6.13977">
        <ele>2752.3</ele>
        <time>2019-05-01T08:29:36Z</time>
      </trkpt>
      <trkpt lat="45.24662" lon="6.13974">
        <ele>2750.5</ele>
        <time>2019-05-01T08:29:42Z</time>
      </trkpt>
      <trkpt lat="45.24665" lon="6.13972">
        <ele>2749</ele>
        <time>2019-05-01T08:29:47Z</time>
      </trkpt>
      <trkpt lat="45.24668" lon="6.1397">
        <ele>2747.2</ele>
        <time>2019-05-01T08:29:51Z</time>
      </trkpt>
      <trkpt lat="45.24667" lon="6.13966">
        <ele>2749.2</ele>
        <time>2019-05-01T08:30:02Z</time>
      </trkpt>
      <trkpt lat="45.24664" lon="6.13963">
        <ele>2751.2</ele>
        <time>2019-05-01T08:30:05Z</time>
      </trkpt>
      <trkpt lat="45.24661" lon="6.13961">
        <ele>2753</ele>
        <time>2019-05-01T08:30:08Z</time>
      </trkpt>
      <trkpt lat="45.24658" lon="6.13958">
        <ele>2754.9</ele>
        <time>2019-05-01T08:30:11Z</time>
      </trkpt>
      <trkpt lat="45.2466" lon="6.13956">
        <ele>2753.2</ele>
        <time>2019-05-01T08:30:56Z</time>
      </trkpt>
      <trkpt lat="45.24659" lon="6.13952">
        <ele>2753.3</ele>
        <time>2019-05-01T08:31:00Z</time>
      </trkpt>
      <trkpt lat="45.24662" lon="6.13952">
        <ele>2751.5</ele>
        <time>2019-05-01T08:31:06Z</time>
      </trkpt>
      <trkpt lat="45.24665" lon="6.1395">
        <ele>2749.8</ele>
        <time>2019-05-01T08:31:11Z</time>
      </trkpt>
      <trkpt lat="45.24662" lon="6.1395">
        <ele>2751.6</ele>
        <time>2019-05-01T08:31:22Z</time>
      </trkpt>
      <trkpt lat="45.24659" lon="6.13947">
        <ele>2753.4</ele>
        <time>2019-05-01T08:31:25Z</time>
      </trkpt>
      <trkpt lat="45.24657" lon="6.13944">
        <ele>2755.1</ele>
        <time>2019-05-01T08:31:28Z</time>
      </trkpt>
      <trkpt lat="45.24654" lon="6.13945">
        <ele>2756.7</ele>
        <time>2019-05-01T08:31:33Z</time>
      </trkpt>
      <trkpt lat="45.24651" lon="6.13947">
        <ele>2758.2</ele>
        <time>2019-05-01T08:31:38Z</time>
      </trkpt>
      <trkpt lat="45.24649" lon="6.13949">
        <ele>2759.7</ele>
        <time>2019-05-01T08:31:41Z</time>
      </trkpt>
      <trkpt lat="45.2465" lon="6.13945">
        <ele>2758.2</ele>
        <time>2019-05-01T08:31:55Z</time>
      </trkpt>
      <trkpt lat="45.24652" lon="6.13942">
        <ele>2756.7</ele>
        <time>2019-05-01T08:32:05Z</time>
      </trkpt>
      <trkpt lat="45.24656" lon="6.1394">
        <ele>2755.1</ele>
        <time>2019-05-01T08:32:09Z</time>
      </trkpt>
      <trkpt lat="45.24659" lon="6.13939">
        <ele>2753.4</ele>
        <time>2019-05-01T08:32:13Z</time>
      </trkpt>
      <trkpt lat="45.24662" lon="6.13938">
        <ele>2751.6</ele>
        <time>2019-05-01T08:32:16Z</time>
      </trkpt>
      <trkpt lat="45.24666" lon="6.13937">
        <ele>2749.9</ele>
        <time>2019-05-01T08:32:19Z</time>
      </trkpt>
      <trkpt lat="45.24669" lon="6.13936">
        <ele>2748.2</ele>
        <time>2019-05-01T08:32:22Z</time>
      </trkpt>
      <trkpt lat="45.24668" lon="6.13932">
        <ele>2748.1</ele>
        <time>2019-05-01T08:32:34Z</time>
      </trkpt>
      <trkpt lat="45.24665" lon="6.13933">
        <ele>2749.8</ele>
        <time>2019-05-01T08:32:38Z</time>
      </trkpt>
      <trkpt lat="45.24661" lon="6.13934">
        <ele>2751.6</ele>
        <time>2019-05-01T08:32:42Z</time>
      </trkpt>
      <trkpt lat="45.24658" lon="6.13932">
        <ele>2755</ele>
        <time>2019-05-01T08:32:45Z</time>
      </trkpt>
      <trkpt lat="45.24655" lon="6.1393">
        <ele>2755</ele>
        <time>2019-05-01T08:32:48Z</time>
      </trkpt>
      <trkpt lat="45.24653" lon="6.13927">
        <ele>2756.5</ele>
        <time>2019-05-01T08:32:51Z</time>
      </trkpt>
      <trkpt lat="45.2465" lon="6.13925">
        <ele>2758</ele>
        <time>2019-05-01T08:32:55Z</time>
      </trkpt>
      <trkpt lat="45.24653" lon="6.13927">
        <ele>2756.5</ele>
        <time>2019-05-01T08:33:06Z</time>
      </trkpt>
      <trkpt lat="45.24656" lon="6.13927">
        <ele>2754.9</ele>
        <time>2019-05-01T08:33:11Z</time>
      </trkpt>
      <trkpt lat="45.24658" lon="6.13925">
        <ele>2754.9</ele>
        <time>2019-05-01T08:33:17Z</time>
      </trkpt>
      <trkpt lat="45.24661" lon="6.13924">
        <ele>2753.2</ele>
        <time>2019-05-01T08:33:22Z</time>
      </trkpt>
      <trkpt lat="45.24663" lon="6.13923">
        <ele>2751.4</ele>
        <time>2019-05-01T08:33:26Z</time>
      </trkpt>
      <trkpt lat="45.24666" lon="6.13923">
        <ele>2749.6</ele>
        <time>2019-05-01T08:33:29Z</time>
      </trkpt>
      <trkpt lat="45.24669" lon="6.13922">
        <ele>2747.9</ele>
        <time>2019-05-01T08:33:34Z</time>
      </trkpt>
      <trkpt lat="45.24673" lon="6.13922">
        <ele>2746.2</ele>
        <time>2019-05-01T08:33:40Z</time>
      </trkpt>
      <trkpt lat="45.24674" lon="6.13918">
        <ele>2744.5</ele>
        <time>2019-05-01T08:33:43Z</time>
      </trkpt>
      <trkpt lat="45.24672" lon="6.13916">
        <ele>2745.9</ele>
        <time>2019-05-01T08:33:45Z</time>
      </trkpt>
      <trkpt lat="45.24669" lon="6.13915">
        <ele>2747.6</ele>
        <time>2019-05-01T08:33:47Z</time>
      </trkpt>
      <trkpt lat="45.24666" lon="6.13913">
        <ele>2749.4</ele>
        <time>2019-05-01T08:33:49Z</time>
      </trkpt>
      <trkpt lat="45.24663" lon="6.1391">
        <ele>2751</ele>
        <time>2019-05-01T08:33:52Z</time>
      </trkpt>
      <trkpt lat="45.24661" lon="6.13912">
        <ele>2752.8</ele>
        <time>2019-05-01T08:33:57Z</time>
      </trkpt>
      <trkpt lat="45.24658" lon="6.13913">
        <ele>2754.7</ele>
        <time>2019-05-01T08:34:04Z</time>
      </trkpt>
      <trkpt lat="45.24656" lon="6.13911">
        <ele>2754.6</ele>
        <time>2019-05-01T08:34:08Z</time>
      </trkpt>
      <trkpt lat="45.24652" lon="6.13913">
        <ele>2756.4</ele>
        <time>2019-05-01T08:34:31Z</time>
      </trkpt>
      <trkpt lat="45.24656" lon="6.13911">
        <ele>2754.6</ele>
        <time>2019-05-01T08:34:36Z</time>
      </trkpt>
      <trkpt lat="45.24659" lon="6.13911">
        <ele>2752.8</ele>
        <time>2019-05-01T08:34:38Z</time>
      </trkpt>
      <trkpt lat="45.24662" lon="6.13911">
        <ele>2751</ele>
        <time>2019-05-01T08:34:41Z</time>
      </trkpt>
      <trkpt lat="45.24665" lon="6.13911">
        <ele>2749.2</ele>
        <time>2019-05-01T08:34:44Z</time>
      </trkpt>
      <trkpt lat="45.24668" lon="6.13912">
        <ele>2747.4</ele>
        <time>2019-05-01T08:34:48Z</time>
      </trkpt>
      <trkpt lat="45.24671" lon="6.1391">
        <ele>2745.7</ele>
        <time>2019-05-01T08:34:52Z</time>
      </trkpt>
      <trkpt lat="45.24673" lon="6.13913">
        <ele>2744.3</ele>
        <time>2019-05-01T08:35:42Z</time>
      </trkpt>
      <trkpt lat="45.24677" lon="6.13912">
        <ele>2742.4</ele>
        <time>2019-05-01T08:35:47Z</time>
      </trkpt>
      <trkpt lat="45.2468" lon="6.13908">
        <ele>2740.6</ele>
        <time>2019-05-01T08:36:01Z</time>
      </trkpt>
      <trkpt lat="45.24684" lon="6.13911">
        <ele>2739.4</ele>
        <time>2019-05-01T08:36:42Z</time>
      </trkpt>
      <trkpt lat="45.24683" lon="6.13907">
        <ele>2739</ele>
        <time>2019-05-01T08:37:07Z</time>
      </trkpt>
      <trkpt lat="45.24681" lon="6.13904">
        <ele>2740.6</ele>
        <time>2019-05-01T08:37:10Z</time>
      </trkpt>
      <trkpt lat="45.24679" lon="6.13899">
        <ele>2741.5</ele>
        <time>2019-05-01T08:37:14Z</time>
      </trkpt>
      <trkpt lat="45.24679" lon="6.13894">
        <ele>2741.1</ele>
        <time>2019-05-01T08:37:34Z</time>
      </trkpt>
      <trkpt lat="45.24677" lon="6.1389">
        <ele>2740.6</ele>
        <time>2019-05-01T08:37:38Z</time>
      </trkpt>
      <trkpt lat="45.24678" lon="6.13896">
        <ele>2741.5</ele>
        <time>2019-05-01T08:37:46Z</time>
      </trkpt>
      <trkpt lat="45.2468" lon="6.13898">
        <ele>2739.8</ele>
        <time>2019-05-01T08:37:55Z</time>
      </trkpt>
      <trkpt lat="45.24683" lon="6.13892">
        <ele>2737.8</ele>
        <time>2019-05-01T08:48:34Z</time>
      </trkpt>
      <trkpt lat="45.24686" lon="6.13891">
        <ele>2735.6</ele>
        <time>2019-05-01T08:49:53Z</time>
      </trkpt>
      <trkpt lat="45.24687" lon="6.13886">
        <ele>2735</ele>
        <time>2019-05-01T08:50:19Z</time>
      </trkpt>
      <trkpt lat="45.2469" lon="6.13884">
        <ele>2733.2</ele>
        <time>2019-05-01T08:50:21Z</time>
      </trkpt>
      <trkpt lat="45.24692" lon="6.13881">
        <ele>2730.5</ele>
        <time>2019-05-01T08:50:23Z</time>
      </trkpt>
      <trkpt lat="45.24691" lon="6.13875">
        <ele>2731.8</ele>
        <time>2019-05-01T08:50:25Z</time>
      </trkpt>
      <trkpt lat="45.24692" lon="6.13868">
        <ele>2728</ele>
        <time>2019-05-01T08:50:27Z</time>
      </trkpt>
      <trkpt lat="45.24691" lon="6.13861">
        <ele>2729.1</ele>
        <time>2019-05-01T08:50:29Z</time>
      </trkpt>
      <trkpt lat="45.24691" lon="6.13856">
        <ele>2726.9</ele>
        <time>2019-05-01T08:50:31Z</time>
      </trkpt>
      <trkpt lat="45.24691" lon="6.13852">
        <ele>2725.9</ele>
        <time>2019-05-01T08:50:32Z</time>
      </trkpt>
      <trkpt lat="45.24691" lon="6.13846">
        <ele>2724.8</ele>
        <time>2019-05-01T08:50:34Z</time>
      </trkpt>
      <trkpt lat="45.2469" lon="6.13842">
        <ele>2723.8</ele>
        <time>2019-05-01T08:50:35Z</time>
      </trkpt>
      <trkpt lat="45.2469" lon="6.13837">
        <ele>2722.8</ele>
        <time>2019-05-01T08:50:36Z</time>
      </trkpt>
      <trkpt lat="45.24689" lon="6.13832">
        <ele>2721.7</ele>
        <time>2019-05-01T08:50:37Z</time>
      </trkpt>
      <trkpt lat="45.24687" lon="6.13827">
        <ele>2722.8</ele>
        <time>2019-05-01T08:50:38Z</time>
      </trkpt>
      <trkpt lat="45.24684" lon="6.13822">
        <ele>2722.8</ele>
        <time>2019-05-01T08:50:40Z</time>
      </trkpt>
      <trkpt lat="45.24683" lon="6.13819">
        <ele>2722.8</ele>
        <time>2019-05-01T08:50:41Z</time>
      </trkpt>
      <trkpt lat="45.24679" lon="6.13814">
        <ele>2726</ele>
        <time>2019-05-01T08:50:43Z</time>
      </trkpt>
      <trkpt lat="45.24677" lon="6.13808">
        <ele>2723.9</ele>
        <time>2019-05-01T08:50:45Z</time>
      </trkpt>
      <trkpt lat="45.24683" lon="6.13809">
        <ele>2719.6</ele>
        <time>2019-05-01T08:50:49Z</time>
      </trkpt>
      <trkpt lat="45.24687" lon="6.13812">
        <ele>2718.5</ele>
        <time>2019-05-01T08:50:50Z</time>
      </trkpt>
      <trkpt lat="45.24689" lon="6.13809">
        <ele>2715.1</ele>
        <time>2019-05-01T08:50:53Z</time>
      </trkpt>
      <trkpt lat="45.24683" lon="6.13804">
        <ele>2718.5</ele>
        <time>2019-05-01T08:50:59Z</time>
      </trkpt>
      <trkpt lat="45.24681" lon="6.138">
        <ele>2719.7</ele>
        <time>2019-05-01T08:51:26Z</time>
      </trkpt>
      <trkpt lat="45.24684" lon="6.13798">
        <ele>2717.5</ele>
        <time>2019-05-01T08:51:53Z</time>
      </trkpt>
      <trkpt lat="45.24687" lon="6.138">
        <ele>2715.2</ele>
        <time>2019-05-01T08:51:54Z</time>
      </trkpt>
      <trkpt lat="45.2469" lon="6.13802">
        <ele>2714</ele>
        <time>2019-05-01T08:51:55Z</time>
      </trkpt>
      <trkpt lat="45.24694" lon="6.13805">
        <ele>2712.6</ele>
        <time>2019-05-01T08:51:57Z</time>
      </trkpt>
      <trkpt lat="45.24698" lon="6.13807">
        <ele>2707.4</ele>
        <time>2019-05-01T08:51:58Z</time>
      </trkpt>
      <trkpt lat="45.24701" lon="6.13806">
        <ele>2704.9</ele>
        <time>2019-05-01T08:51:59Z</time>
      </trkpt>
      <trkpt lat="45.24703" lon="6.13803">
        <ele>2703.6</ele>
        <time>2019-05-01T08:52:00Z</time>
      </trkpt>
      <trkpt lat="45.24704" lon="6.13799">
        <ele>2699.9</ele>
        <time>2019-05-01T08:52:01Z</time>
      </trkpt>
      <trkpt lat="45.24703" lon="6.13794">
        <ele>2701</ele>
        <time>2019-05-01T08:52:02Z</time>
      </trkpt>
      <trkpt lat="45.24702" lon="6.1379">
        <ele>2699.7</ele>
        <time>2019-05-01T08:52:03Z</time>
      </trkpt>
      <trkpt lat="45.247" lon="6.13786">
        <ele>2701.1</ele>
        <time>2019-05-01T08:52:04Z</time>
      </trkpt>
      <trkpt lat="45.24698" lon="6.13781">
        <ele>2699.6</ele>
        <time>2019-05-01T08:52:06Z</time>
      </trkpt>
      <trkpt lat="45.24701" lon="6.13778">
        <ele>2695.1</ele>
        <time>2019-05-01T08:52:12Z</time>
      </trkpt>
      <trkpt lat="45.24701" lon="6.13776">
        <ele>2695.1</ele>
        <time>2019-05-01T08:56:40Z</time>
      </trkpt>
      <trkpt lat="45.24701" lon="6.13774">
        <ele>2696.2</ele>
        <time>2019-05-01T08:57:38Z</time>
      </trkpt>
      <trkpt lat="45.247" lon="6.13771">
        <ele>2696.2</ele>
        <time>2019-05-01T08:57:42Z</time>
      </trkpt>
      <trkpt lat="45.247" lon="6.13769">
        <ele>2694.4</ele>
        <time>2019-05-01T08:57:46Z</time>
      </trkpt>
      <trkpt lat="45.24699" lon="6.13767">
        <ele>2694.4</ele>
        <time>2019-05-01T08:57:50Z</time>
      </trkpt>
      <trkpt lat="45.24699" lon="6.13765">
        <ele>2692.6</ele>
        <time>2019-05-01T08:58:02Z</time>
      </trkpt>
      <trkpt lat="45.24699" lon="6.13762">
        <ele>2692.6</ele>
        <time>2019-05-01T08:58:05Z</time>
      </trkpt>
      <trkpt lat="45.24698" lon="6.1376">
        <ele>2690.8</ele>
        <time>2019-05-01T08:58:06Z</time>
      </trkpt>
      <trkpt lat="45.24692" lon="6.13757">
        <ele>2695.1</ele>
        <time>2019-05-01T08:58:07Z</time>
      </trkpt>
      <trkpt lat="45.24687" lon="6.13753">
        <ele>2699.1</ele>
        <time>2019-05-01T08:58:08Z</time>
      </trkpt>
      <trkpt lat="45.24682" lon="6.13748">
        <ele>2703</ele>
        <time>2019-05-01T08:58:09Z</time>
      </trkpt>
      <trkpt lat="45.24677" lon="6.13744">
        <ele>2704.1</ele>
        <time>2019-05-01T08:58:10Z</time>
      </trkpt>
      <trkpt lat="45.24673" lon="6.13741">
        <ele>2708.5</ele>
        <time>2019-05-01T08:58:11Z</time>
      </trkpt>
      <trkpt lat="45.24668" lon="6.13735">
        <ele>2709.9</ele>
        <time>2019-05-01T08:58:12Z</time>
      </trkpt>
      <trkpt lat="45.24665" lon="6.13731">
        <ele>2711.3</ele>
        <time>2019-05-01T08:58:13Z</time>
      </trkpt>
      <trkpt lat="45.24663" lon="6.13726">
        <ele>2712.8</ele>
        <time>2019-05-01T08:58:14Z</time>
      </trkpt>
      <trkpt lat="45.2466" lon="6.13721">
        <ele>2714.2</ele>
        <time>2019-05-01T08:58:15Z</time>
      </trkpt>
      <trkpt lat="45.24658" lon="6.13717">
        <ele>2715.6</ele>
        <time>2019-05-01T08:58:16Z</time>
      </trkpt>
      <trkpt lat="45.24656" lon="6.13712">
        <ele>2713.8</ele>
        <time>2019-05-01T08:58:17Z</time>
      </trkpt>
      <trkpt lat="45.24654" lon="6.13707">
        <ele>2715.3</ele>
        <time>2019-05-01T08:58:18Z</time>
      </trkpt>
      <trkpt lat="45.24653" lon="6.13703">
        <ele>2713.5</ele>
        <time>2019-05-01T08:58:19Z</time>
      </trkpt>
      <trkpt lat="45.24652" lon="6.13697">
        <ele>2713.2</ele>
        <time>2019-05-01T08:58:21Z</time>
      </trkpt>
      <trkpt lat="45.24651" lon="6.13693">
        <ele>2711.4</ele>
        <time>2019-05-01T08:58:22Z</time>
      </trkpt>
      <trkpt lat="45.24649" lon="6.13688">
        <ele>2709.5</ele>
        <time>2019-05-01T08:58:24Z</time>
      </trkpt>
      <trkpt lat="45.24648" lon="6.13681">
        <ele>2709</ele>
        <time>2019-05-01T08:58:26Z</time>
      </trkpt>
      <trkpt lat="45.24647" lon="6.13677">
        <ele>2709</ele>
        <time>2019-05-01T08:58:27Z</time>
      </trkpt>
      <trkpt lat="45.24646" lon="6.13673">
        <ele>2710.4</ele>
        <time>2019-05-01T08:58:28Z</time>
      </trkpt>
      <trkpt lat="45.24645" lon="6.13669">
        <ele>2708.6</ele>
        <time>2019-05-01T08:58:29Z</time>
      </trkpt>
      <trkpt lat="45.24645" lon="6.13665">
        <ele>2706.9</ele>
        <time>2019-05-01T08:58:30Z</time>
      </trkpt>
      <trkpt lat="45.24644" lon="6.13661">
        <ele>2705.3</ele>
        <time>2019-05-01T08:58:31Z</time>
      </trkpt>
      <trkpt lat="45.24643" lon="6.13657">
        <ele>2707.2</ele>
        <time>2019-05-01T08:58:32Z</time>
      </trkpt>
      <trkpt lat="45.24642" lon="6.13653">
        <ele>2705.7</ele>
        <time>2019-05-01T08:58:33Z</time>
      </trkpt>
      <trkpt lat="45.24641" lon="6.13648">
        <ele>2704.2</ele>
        <time>2019-05-01T08:58:34Z</time>
      </trkpt>
      <trkpt lat="45.2464" lon="6.13644">
        <ele>2706.2</ele>
        <time>2019-05-01T08:58:35Z</time>
      </trkpt>
      <trkpt lat="45.24639" lon="6.13639">
        <ele>2704.6</ele>
        <time>2019-05-01T08:58:36Z</time>
      </trkpt>
      <trkpt lat="45.24638" lon="6.13634">
        <ele>2703.1</ele>
        <time>2019-05-01T08:58:37Z</time>
      </trkpt>
      <trkpt lat="45.24637" lon="6.13629">
        <ele>2703.6</ele>
        <time>2019-05-01T08:58:38Z</time>
      </trkpt>
      <trkpt lat="45.24636" lon="6.13624">
        <ele>2702.3</ele>
        <time>2019-05-01T08:58:39Z</time>
      </trkpt>
      <trkpt lat="45.24635" lon="6.1362">
        <ele>2701.1</ele>
        <time>2019-05-01T08:58:40Z</time>
      </trkpt>
      <trkpt lat="45.24634" lon="6.13613">
        <ele>2703.1</ele>
        <time>2019-05-01T08:58:42Z</time>
      </trkpt>
      <trkpt lat="45.24633" lon="6.13607">
        <ele>2700.7</ele>
        <time>2019-05-01T08:58:44Z</time>
      </trkpt>
      <trkpt lat="45.24632" lon="6.13601">
        <ele>2699.6</ele>
        <time>2019-05-01T08:58:46Z</time>
      </trkpt>
      <trkpt lat="45.24632" lon="6.13596">
        <ele>2698.3</ele>
        <time>2019-05-01T08:58:47Z</time>
      </trkpt>
      <trkpt lat="45.24632" lon="6.13591">
        <ele>2697.1</ele>
        <time>2019-05-01T08:58:48Z</time>
      </trkpt>
      <trkpt lat="45.24632" lon="6.13587">
        <ele>2695.8</ele>
        <time>2019-05-01T08:58:49Z</time>
      </trkpt>
      <trkpt lat="45.24632" lon="6.13583">
        <ele>2694.5</ele>
        <time>2019-05-01T08:58:50Z</time>
      </trkpt>
      <trkpt lat="45.24632" lon="6.13579">
        <ele>2693.3</ele>
        <time>2019-05-01T08:58:51Z</time>
      </trkpt>
      <trkpt lat="45.24632" lon="6.13575">
        <ele>2692.1</ele>
        <time>2019-05-01T08:58:52Z</time>
      </trkpt>
      <trkpt lat="45.24632" lon="6.13571">
        <ele>2690.9</ele>
        <time>2019-05-01T08:58:53Z</time>
      </trkpt>
      <trkpt lat="45.24632" lon="6.13567">
        <ele>2689.9</ele>
        <time>2019-05-01T08:58:54Z</time>
      </trkpt>
      <trkpt lat="45.24633" lon="6.1356">
        <ele>2687.7</ele>
        <time>2019-05-01T08:58:56Z</time>
      </trkpt>
      <trkpt lat="45.24633" lon="6.13556">
        <ele>2686.7</ele>
        <time>2019-05-01T08:58:57Z</time>
      </trkpt>
      <trkpt lat="45.24633" lon="6.13551">
        <ele>2685.6</ele>
        <time>2019-05-01T08:58:58Z</time>
      </trkpt>
      <trkpt lat="45.24633" lon="6.13547">
        <ele>2684.6</ele>
        <time>2019-05-01T08:58:59Z</time>
      </trkpt>
      <trkpt lat="45.24633" lon="6.13541">
        <ele>2683.7</ele>
        <time>2019-05-01T08:59:01Z</time>
      </trkpt>
      <trkpt lat="45.24632" lon="6.13535">
        <ele>2682</ele>
        <time>2019-05-01T08:59:03Z</time>
      </trkpt>
      <trkpt lat="45.24632" lon="6.13528">
        <ele>2681.3</ele>
        <time>2019-05-01T08:59:05Z</time>
      </trkpt>
      <trkpt lat="45.24633" lon="6.13524">
        <ele>2680.7</ele>
        <time>2019-05-01T08:59:06Z</time>
      </trkpt>
      <trkpt lat="45.24633" lon="6.1352">
        <ele>2680.1</ele>
        <time>2019-05-01T08:59:07Z</time>
      </trkpt>
      <trkpt lat="45.24633" lon="6.13515">
        <ele>2679.6</ele>
        <time>2019-05-01T08:59:08Z</time>
      </trkpt>
      <trkpt lat="45.24634" lon="6.1351">
        <ele>2679.2</ele>
        <time>2019-05-01T08:59:09Z</time>
      </trkpt>
      <trkpt lat="45.24635" lon="6.13503">
        <ele>2675.5</ele>
        <time>2019-05-01T08:59:10Z</time>
      </trkpt>
      <trkpt lat="45.24635" lon="6.13493">
        <ele>2674.9</ele>
        <time>2019-05-01T08:59:11Z</time>
      </trkpt>
      <trkpt lat="45.24636" lon="6.13485">
        <ele>2674.6</ele>
        <time>2019-05-01T08:59:12Z</time>
      </trkpt>
      <trkpt lat="45.24639" lon="6.13477">
        <ele>2671.4</ele>
        <time>2019-05-01T08:59:13Z</time>
      </trkpt>
      <trkpt lat="45.2464" lon="6.13468">
        <ele>2671.2</ele>
        <time>2019-05-01T08:59:14Z</time>
      </trkpt>
      <trkpt lat="45.2464" lon="6.13462">
        <ele>2670.8</ele>
        <time>2019-05-01T08:59:15Z</time>
      </trkpt>
      <trkpt lat="45.24641" lon="6.13456">
        <ele>2667.8</ele>
        <time>2019-05-01T08:59:16Z</time>
      </trkpt>
      <trkpt lat="45.24642" lon="6.13451">
        <ele>2667.5</ele>
        <time>2019-05-01T08:59:18Z</time>
      </trkpt>
      <trkpt lat="45.24645" lon="6.13446">
        <ele>2664.6</ele>
        <time>2019-05-01T08:59:20Z</time>
      </trkpt>
      <trkpt lat="45.24646" lon="6.1344">
        <ele>2663.9</ele>
        <time>2019-05-01T08:59:22Z</time>
      </trkpt>
      <trkpt lat="45.24648" lon="6.13436">
        <ele>2661.2</ele>
        <time>2019-05-01T08:59:23Z</time>
      </trkpt>
      <trkpt lat="45.24647" lon="6.13432">
        <ele>2661.2</ele>
        <time>2019-05-01T08:59:24Z</time>
      </trkpt>
      <trkpt lat="45.24648" lon="6.13428">
        <ele>2660.9</ele>
        <time>2019-05-01T08:59:25Z</time>
      </trkpt>
      <trkpt lat="45.24649" lon="6.13421">
        <ele>2660.4</ele>
        <time>2019-05-01T08:59:27Z</time>
      </trkpt>
      <trkpt lat="45.24649" lon="6.13417">
        <ele>2657.9</ele>
        <time>2019-05-01T08:59:28Z</time>
      </trkpt>
      <trkpt lat="45.2465" lon="6.13413">
        <ele>2657.8</ele>
        <time>2019-05-01T08:59:29Z</time>
      </trkpt>
      <trkpt lat="45.24651" lon="6.13408">
        <ele>2657.7</ele>
        <time>2019-05-01T08:59:30Z</time>
      </trkpt>
      <trkpt lat="45.24652" lon="6.13403">
        <ele>2655.4</ele>
        <time>2019-05-01T08:59:31Z</time>
      </trkpt>
      <trkpt lat="45.24653" lon="6.13399">
        <ele>2655.4</ele>
        <time>2019-05-01T08:59:32Z</time>
      </trkpt>
      <trkpt lat="45.24655" lon="6.13395">
        <ele>2655.5</ele>
        <time>2019-05-01T08:59:33Z</time>
      </trkpt>
      <trkpt lat="45.24655" lon="6.13391">
        <ele>2653.3</ele>
        <time>2019-05-01T08:59:34Z</time>
      </trkpt>
      <trkpt lat="45.24657" lon="6.13387">
        <ele>2653.4</ele>
        <time>2019-05-01T08:59:35Z</time>
      </trkpt>
      <trkpt lat="45.24659" lon="6.13381">
        <ele>2651.2</ele>
        <time>2019-05-01T08:59:37Z</time>
      </trkpt>
      <trkpt lat="45.2466" lon="6.13377">
        <ele>2651.4</ele>
        <time>2019-05-01T08:59:38Z</time>
      </trkpt>
      <trkpt lat="45.24662" lon="6.13373">
        <ele>2649.3</ele>
        <time>2019-05-01T08:59:39Z</time>
      </trkpt>
      <trkpt lat="45.24663" lon="6.13368">
        <ele>2649.5</ele>
        <time>2019-05-01T08:59:40Z</time>
      </trkpt>
      <trkpt lat="45.24665" lon="6.13363">
        <ele>2647.7</ele>
        <time>2019-05-01T08:59:41Z</time>
      </trkpt>
      <trkpt lat="45.24666" lon="6.13358">
        <ele>2647.9</ele>
        <time>2019-05-01T08:59:42Z</time>
      </trkpt>
      <trkpt lat="45.2467" lon="6.13352">
        <ele>2643.9</ele>
        <time>2019-05-01T08:59:43Z</time>
      </trkpt>
      <trkpt lat="45.24673" lon="6.13347">
        <ele>2644.1</ele>
        <time>2019-05-01T08:59:44Z</time>
      </trkpt>
      <trkpt lat="45.24675" lon="6.13341">
        <ele>2642.7</ele>
        <time>2019-05-01T08:59:45Z</time>
      </trkpt>
      <trkpt lat="45.24677" lon="6.13334">
        <ele>2641.1</ele>
        <time>2019-05-01T08:59:46Z</time>
      </trkpt>
      <trkpt lat="45.24679" lon="6.13329">
        <ele>2641.9</ele>
        <time>2019-05-01T08:59:47Z</time>
      </trkpt>
      <trkpt lat="45.24682" lon="6.13325">
        <ele>2640.1</ele>
        <time>2019-05-01T08:59:48Z</time>
      </trkpt>
      <trkpt lat="45.24687" lon="6.13319">
        <ele>2637.6</ele>
        <time>2019-05-01T08:59:49Z</time>
      </trkpt>
      <trkpt lat="45.2469" lon="6.13316">
        <ele>2636.4</ele>
        <time>2019-05-01T08:59:50Z</time>
      </trkpt>
      <trkpt lat="45.24694" lon="6.13311">
        <ele>2635.2</ele>
        <time>2019-05-01T08:59:52Z</time>
      </trkpt>
      <trkpt lat="45.24697" lon="6.13307">
        <ele>2634</ele>
        <time>2019-05-01T08:59:54Z</time>
      </trkpt>
      <trkpt lat="45.247" lon="6.13302">
        <ele>2632.9</ele>
        <time>2019-05-01T08:59:56Z</time>
      </trkpt>
      <trkpt lat="45.24703" lon="6.13298">
        <ele>2632</ele>
        <time>2019-05-01T08:59:58Z</time>
      </trkpt>
      <trkpt lat="45.24706" lon="6.13294">
        <ele>2631.3</ele>
        <time>2019-05-01T09:00:00Z</time>
      </trkpt>
      <trkpt lat="45.24708" lon="6.1329">
        <ele>2630.7</ele>
        <time>2019-05-01T09:00:02Z</time>
      </trkpt>
      <trkpt lat="45.2471" lon="6.13285">
        <ele>2630.4</ele>
        <time>2019-05-01T09:00:04Z</time>
      </trkpt>
      <trkpt lat="45.24712" lon="6.13279">
        <ele>2631.1</ele>
        <time>2019-05-01T09:00:06Z</time>
      </trkpt>
      <trkpt lat="45.24714" lon="6.13273">
        <ele>2631.7</ele>
        <time>2019-05-01T09:00:08Z</time>
      </trkpt>
      <trkpt lat="45.24715" lon="6.13269">
        <ele>2631.7</ele>
        <time>2019-05-01T09:00:09Z</time>
      </trkpt>
      <trkpt lat="45.24718" lon="6.13264">
        <ele>2632</ele>
        <time>2019-05-01T09:00:11Z</time>
      </trkpt>
      <trkpt lat="45.2472" lon="6.1326">
        <ele>2631.5</ele>
        <time>2019-05-01T09:00:13Z</time>
      </trkpt>
      <trkpt lat="45.24722" lon="6.13256">
        <ele>2630.3</ele>
        <time>2019-05-01T09:00:15Z</time>
      </trkpt>
      <trkpt lat="45.24724" lon="6.13254">
        <ele>2631</ele>
        <time>2019-05-01T09:00:17Z</time>
      </trkpt>
      <trkpt lat="45.2472" lon="6.13254">
        <ele>2632.2</ele>
        <time>2019-05-01T09:00:25Z</time>
      </trkpt>
      <trkpt lat="45.24724" lon="6.13258">
        <ele>2630.3</ele>
        <time>2019-05-01T09:03:58Z</time>
      </trkpt>
      <trkpt lat="45.24727" lon="6.13254">
        <ele>2629.8</ele>
        <time>2019-05-01T09:04:48Z</time>
      </trkpt>
      <trkpt lat="45.24731" lon="6.13258">
        <ele>2628.1</ele>
        <time>2019-05-01T09:06:24Z</time>
      </trkpt>
      <trkpt lat="45.24728" lon="6.13251">
        <ele>2629.6</ele>
        <time>2019-05-01T09:06:28Z</time>
      </trkpt>
      <trkpt lat="45.24725" lon="6.13253">
        <ele>2629.8</ele>
        <time>2019-05-01T09:06:53Z</time>
      </trkpt>
      <trkpt lat="45.24727" lon="6.13249">
        <ele>2630.6</ele>
        <time>2019-05-01T09:08:32Z</time>
      </trkpt>
      <trkpt lat="45.24725" lon="6.13246">
        <ele>2631.4</ele>
        <time>2019-05-01T09:08:42Z</time>
      </trkpt>
      <trkpt lat="45.24724" lon="6.13242">
        <ele>2633.4</ele>
        <time>2019-05-01T09:08:46Z</time>
      </trkpt>
      <trkpt lat="45.24723" lon="6.13238">
        <ele>2634.4</ele>
        <time>2019-05-01T09:08:51Z</time>
      </trkpt>
      <trkpt lat="45.24723" lon="6.13234">
        <ele>2635.4</ele>
        <time>2019-05-01T09:08:55Z</time>
      </trkpt>
      <trkpt lat="45.24722" lon="6.1323">
        <ele>2636.4</ele>
        <time>2019-05-01T09:09:00Z</time>
      </trkpt>
      <trkpt lat="45.24721" lon="6.13226">
        <ele>2637.6</ele>
        <time>2019-05-01T09:09:07Z</time>
      </trkpt>
      <trkpt lat="45.24719" lon="6.13223">
        <ele>2638.7</ele>
        <time>2019-05-01T09:09:12Z</time>
      </trkpt>
      <trkpt lat="45.24718" lon="6.13219">
        <ele>2641</ele>
        <time>2019-05-01T09:09:17Z</time>
      </trkpt>
      <trkpt lat="45.24717" lon="6.13215">
        <ele>2642</ele>
        <time>2019-05-01T09:09:22Z</time>
      </trkpt>
      <trkpt lat="45.24717" lon="6.1321">
        <ele>2643</ele>
        <time>2019-05-01T09:09:28Z</time>
      </trkpt>
      <trkpt lat="45.24717" lon="6.13206">
        <ele>2644</ele>
        <time>2019-05-01T09:09:34Z</time>
      </trkpt>
      <trkpt lat="45.24716" lon="6.13201">
        <ele>2645</ele>
        <time>2019-05-01T09:09:43Z</time>
      </trkpt>
      <trkpt lat="45.24717" lon="6.13197">
        <ele>2646</ele>
        <time>2019-05-01T09:09:47Z</time>
      </trkpt>
      <trkpt lat="45.24716" lon="6.13194">
        <ele>2647.9</ele>
        <time>2019-05-01T09:09:55Z</time>
      </trkpt>
      <trkpt lat="45.24714" lon="6.1319">
        <ele>2649.1</ele>
        <time>2019-05-01T09:10:02Z</time>
      </trkpt>
      <trkpt lat="45.24713" lon="6.13186">
        <ele>2650.1</ele>
        <time>2019-05-01T09:10:08Z</time>
      </trkpt>
      <trkpt lat="45.24713" lon="6.13182">
        <ele>2651.1</ele>
        <time>2019-05-01T09:10:15Z</time>
      </trkpt>
      <trkpt lat="45.24713" lon="6.13177">
        <ele>2652.9</ele>
        <time>2019-05-01T09:10:22Z</time>
      </trkpt>
      <trkpt lat="45.24713" lon="6.13172">
        <ele>2653.1</ele>
        <time>2019-05-01T09:10:26Z</time>
      </trkpt>
      <trkpt lat="45.24712" lon="6.13168">
        <ele>2654.8</ele>
        <time>2019-05-01T09:10:31Z</time>
      </trkpt>
      <trkpt lat="45.24712" lon="6.13164">
        <ele>2655.8</ele>
        <time>2019-05-01T09:10:35Z</time>
      </trkpt>
      <trkpt lat="45.24709" lon="6.13163">
        <ele>2656.5</ele>
        <time>2019-05-01T09:10:41Z</time>
      </trkpt>
      <trkpt lat="45.24709" lon="6.13159">
        <ele>2657.5</ele>
        <time>2019-05-01T09:10:47Z</time>
      </trkpt>
      <trkpt lat="45.24709" lon="6.13155">
        <ele>2658.4</ele>
        <time>2019-05-01T09:10:54Z</time>
      </trkpt>
      <trkpt lat="45.24708" lon="6.13151">
        <ele>2659.3</ele>
        <time>2019-05-01T09:10:59Z</time>
      </trkpt>
      <trkpt lat="45.24709" lon="6.13146">
        <ele>2660.3</ele>
        <time>2019-05-01T09:11:03Z</time>
      </trkpt>
      <trkpt lat="45.2471" lon="6.13142">
        <ele>2661.3</ele>
        <time>2019-05-01T09:11:07Z</time>
      </trkpt>
      <trkpt lat="45.2471" lon="6.13138">
        <ele>2661.5</ele>
        <time>2019-05-01T09:11:12Z</time>
      </trkpt>
      <trkpt lat="45.24709" lon="6.13134">
        <ele>2663.1</ele>
        <time>2019-05-01T09:11:20Z</time>
      </trkpt>
      <trkpt lat="45.24708" lon="6.1313">
        <ele>2664</ele>
        <time>2019-05-01T09:11:27Z</time>
      </trkpt>
      <trkpt lat="45.24708" lon="6.13125">
        <ele>2664.9</ele>
        <time>2019-05-01T09:11:32Z</time>
      </trkpt>
      <trkpt lat="45.24708" lon="6.13121">
        <ele>2665.6</ele>
        <time>2019-05-01T09:11:46Z</time>
      </trkpt>
      <trkpt lat="45.24707" lon="6.13117">
        <ele>2666.2</ele>
        <time>2019-05-01T09:11:54Z</time>
      </trkpt>
      <trkpt lat="45.24706" lon="6.13113">
        <ele>2667.7</ele>
        <time>2019-05-01T09:12:00Z</time>
      </trkpt>
      <trkpt lat="45.24704" lon="6.1311">
        <ele>2667.7</ele>
        <time>2019-05-01T09:12:07Z</time>
      </trkpt>
      <trkpt lat="45.24704" lon="6.13106">
        <ele>2668.3</ele>
        <time>2019-05-01T09:12:14Z</time>
      </trkpt>
      <trkpt lat="45.24704" lon="6.13102">
        <ele>2668.9</ele>
        <time>2019-05-01T09:12:20Z</time>
      </trkpt>
      <trkpt lat="45.24704" lon="6.13098">
        <ele>2669.3</ele>
        <time>2019-05-01T09:12:28Z</time>
      </trkpt>
      <trkpt lat="45.24702" lon="6.13094">
        <ele>2670.7</ele>
        <time>2019-05-01T09:12:36Z</time>
      </trkpt>
      <trkpt lat="45.24701" lon="6.13091">
        <ele>2670.9</ele>
        <time>2019-05-01T09:12:43Z</time>
      </trkpt>
      <trkpt lat="45.24701" lon="6.13087">
        <ele>2671</ele>
        <time>2019-05-01T09:12:55Z</time>
      </trkpt>
      <trkpt lat="45.247" lon="6.13083">
        <ele>2672.2</ele>
        <time>2019-05-01T09:13:11Z</time>
      </trkpt>
      <trkpt lat="45.24701" lon="6.13079">
        <ele>2671.2</ele>
        <time>2019-05-01T09:13:16Z</time>
      </trkpt>
      <trkpt lat="45.24702" lon="6.13075">
        <ele>2671.2</ele>
        <time>2019-05-01T09:13:21Z</time>
      </trkpt>
      <trkpt lat="45.24703" lon="6.13072">
        <ele>2671.2</ele>
        <time>2019-05-01T09:13:26Z</time>
      </trkpt>
      <trkpt lat="45.24703" lon="6.13067">
        <ele>2671.1</ele>
        <time>2019-05-01T09:13:35Z</time>
      </trkpt>
      <trkpt lat="45.24702" lon="6.13063">
        <ele>2671</ele>
        <time>2019-05-01T09:13:42Z</time>
      </trkpt>
      <trkpt lat="45.24701" lon="6.13059">
        <ele>2670.8</ele>
        <time>2019-05-01T09:13:48Z</time>
      </trkpt>
      <trkpt lat="45.24699" lon="6.13055">
        <ele>2671.6</ele>
        <time>2019-05-01T09:13:53Z</time>
      </trkpt>
      <trkpt lat="45.24697" lon="6.13052">
        <ele>2672.4</ele>
        <time>2019-05-01T09:14:01Z</time>
      </trkpt>
      <trkpt lat="45.24697" lon="6.13048">
        <ele>2672</ele>
        <time>2019-05-01T09:14:06Z</time>
      </trkpt>
      <trkpt lat="45.24696" lon="6.13043">
        <ele>2671.5</ele>
        <time>2019-05-01T09:14:11Z</time>
      </trkpt>
      <trkpt lat="45.24696" lon="6.13039">
        <ele>2671</ele>
        <time>2019-05-01T09:14:15Z</time>
      </trkpt>
      <trkpt lat="45.24695" lon="6.13035">
        <ele>2670</ele>
        <time>2019-05-01T09:14:20Z</time>
      </trkpt>
      <trkpt lat="45.24695" lon="6.13031">
        <ele>2669.3</ele>
        <time>2019-05-01T09:15:44Z</time>
      </trkpt>
      <trkpt lat="45.24697" lon="6.13028">
        <ele>2668.4</ele>
        <time>2019-05-01T09:15:59Z</time>
      </trkpt>
      <trkpt lat="45.247" lon="6.1303">
        <ele>2668.3</ele>
        <time>2019-05-01T09:19:54Z</time>
      </trkpt>
      <trkpt lat="45.24702" lon="6.13023">
        <ele>2665.6</ele>
        <time>2019-05-01T09:24:37Z</time>
      </trkpt>
      <trkpt lat="45.24705" lon="6.13026">
        <ele>2666</ele>
        <time>2019-05-01T09:25:17Z</time>
      </trkpt>
      <trkpt lat="45.24709" lon="6.13027">
        <ele>2665.4</ele>
        <time>2019-05-01T09:27:28Z</time>
      </trkpt>
      <trkpt lat="45.24709" lon="6.13023">
        <ele>2664.4</ele>
        <time>2019-05-01T09:29:41Z</time>
      </trkpt>
      <trkpt lat="45.24706" lon="6.13019">
        <ele>2663.7</ele>
        <time>2019-05-01T09:29:44Z</time>
      </trkpt>
      <trkpt lat="45.24705" lon="6.13016">
        <ele>2662.2</ele>
        <time>2019-05-01T09:29:47Z</time>
      </trkpt>
      <trkpt lat="45.24703" lon="6.13012">
        <ele>2662.9</ele>
        <time>2019-05-01T09:29:51Z</time>
      </trkpt>
      <trkpt lat="45.24699" lon="6.1301">
        <ele>2661.8</ele>
        <time>2019-05-01T09:29:54Z</time>
      </trkpt>
      <trkpt lat="45.24695" lon="6.13009">
        <ele>2662.7</ele>
        <time>2019-05-01T09:29:56Z</time>
      </trkpt>
      <trkpt lat="45.24691" lon="6.13008">
        <ele>2665</ele>
        <time>2019-05-01T09:29:58Z</time>
      </trkpt>
      <trkpt lat="45.24688" lon="6.13007">
        <ele>2664.3</ele>
        <time>2019-05-01T09:30:00Z</time>
      </trkpt>
      <trkpt lat="45.24689" lon="6.13002">
        <ele>2661</ele>
        <time>2019-05-01T09:30:04Z</time>
      </trkpt>
      <trkpt lat="45.24692" lon="6.12997">
        <ele>2657.8</ele>
        <time>2019-05-01T09:30:07Z</time>
      </trkpt>
      <trkpt lat="45.24692" lon="6.12993">
        <ele>2656.1</ele>
        <time>2019-05-01T09:30:09Z</time>
      </trkpt>
      <trkpt lat="45.24691" lon="6.12988">
        <ele>2655.7</ele>
        <time>2019-05-01T09:30:11Z</time>
      </trkpt>
      <trkpt lat="45.2469" lon="6.12983">
        <ele>2654.1</ele>
        <time>2019-05-01T09:30:13Z</time>
      </trkpt>
      <trkpt lat="45.24691" lon="6.12978">
        <ele>2652.6</ele>
        <time>2019-05-01T09:30:16Z</time>
      </trkpt>
      <trkpt lat="45.24693" lon="6.12975">
        <ele>2650.7</ele>
        <time>2019-05-01T09:30:58Z</time>
      </trkpt>
      <trkpt lat="45.2469" lon="6.12972">
        <ele>2649.5</ele>
        <time>2019-05-01T09:31:00Z</time>
      </trkpt>
      <trkpt lat="45.24689" lon="6.12968">
        <ele>2647.7</ele>
        <time>2019-05-01T09:31:02Z</time>
      </trkpt>
      <trkpt lat="45.24691" lon="6.12964">
        <ele>2645.7</ele>
        <time>2019-05-01T09:31:03Z</time>
      </trkpt>
      <trkpt lat="45.24693" lon="6.12958">
        <ele>2643.8</ele>
        <time>2019-05-01T09:31:05Z</time>
      </trkpt>
      <trkpt lat="45.24693" lon="6.12952">
        <ele>2641.4</ele>
        <time>2019-05-01T09:31:07Z</time>
      </trkpt>
      <trkpt lat="45.24699" lon="6.12949">
        <ele>2639.5</ele>
        <time>2019-05-01T09:31:09Z</time>
      </trkpt>
      <trkpt lat="45.24702" lon="6.12949">
        <ele>2639.8</ele>
        <time>2019-05-01T09:31:10Z</time>
      </trkpt>
      <trkpt lat="45.24704" lon="6.12944">
        <ele>2636.9</ele>
        <time>2019-05-01T09:31:12Z</time>
      </trkpt>
      <trkpt lat="45.24699" lon="6.12939">
        <ele>2633.4</ele>
        <time>2019-05-01T09:31:14Z</time>
      </trkpt>
      <trkpt lat="45.24696" lon="6.12938">
        <ele>2630.2</ele>
        <time>2019-05-01T09:31:16Z</time>
      </trkpt>
      <trkpt lat="45.24702" lon="6.12936">
        <ele>2630.2</ele>
        <time>2019-05-01T09:31:19Z</time>
      </trkpt>
      <trkpt lat="45.24704" lon="6.12937">
        <ele>2630.3</ele>
        <time>2019-05-01T09:31:20Z</time>
      </trkpt>
      <trkpt lat="45.24707" lon="6.12939">
        <ele>2633.7</ele>
        <time>2019-05-01T09:31:22Z</time>
      </trkpt>
      <trkpt lat="45.24711" lon="6.12943">
        <ele>2636.7</ele>
        <time>2019-05-01T09:31:35Z</time>
      </trkpt>
      <trkpt lat="45.24713" lon="6.12939">
        <ele>2633.1</ele>
        <time>2019-05-01T09:31:38Z</time>
      </trkpt>
      <trkpt lat="45.24711" lon="6.12935">
        <ele>2630.1</ele>
        <time>2019-05-01T09:31:40Z</time>
      </trkpt>
      <trkpt lat="45.24704" lon="6.12943">
        <ele>2633.8</ele>
        <time>2019-05-01T09:31:43Z</time>
      </trkpt>
      <trkpt lat="45.24699" lon="6.12945">
        <ele>2636.7</ele>
        <time>2019-05-01T09:31:51Z</time>
      </trkpt>
      <trkpt lat="45.24695" lon="6.1294">
        <ele>2633.4</ele>
        <time>2019-05-01T09:31:53Z</time>
      </trkpt>
      <trkpt lat="45.24692" lon="6.12937">
        <ele>2630.5</ele>
        <time>2019-05-01T09:31:54Z</time>
      </trkpt>
      <trkpt lat="45.24689" lon="6.12935">
        <ele>2630.7</ele>
        <time>2019-05-01T09:33:36Z</time>
      </trkpt>
      <trkpt lat="45.2469" lon="6.12931">
        <ele>2628.1</ele>
        <time>2019-05-01T09:33:39Z</time>
      </trkpt>
      <trkpt lat="45.24693" lon="6.12928">
        <ele>2625</ele>
        <time>2019-05-01T09:33:41Z</time>
      </trkpt>
      <trkpt lat="45.24693" lon="6.12924">
        <ele>2622.4</ele>
        <time>2019-05-01T09:33:43Z</time>
      </trkpt>
      <trkpt lat="45.24695" lon="6.1292">
        <ele>2619.3</ele>
        <time>2019-05-01T09:33:47Z</time>
      </trkpt>
      <trkpt lat="45.24696" lon="6.12914">
        <ele>2616.9</ele>
        <time>2019-05-01T09:33:49Z</time>
      </trkpt>
      <trkpt lat="45.24693" lon="6.12908">
        <ele>2615.3</ele>
        <time>2019-05-01T09:33:51Z</time>
      </trkpt>
      <trkpt lat="45.24696" lon="6.12913">
        <ele>2617</ele>
        <time>2019-05-01T09:35:20Z</time>
      </trkpt>
      <trkpt lat="45.24699" lon="6.12912">
        <ele>2614.1</ele>
        <time>2019-05-01T09:35:21Z</time>
      </trkpt>
      <trkpt lat="45.24697" lon="6.12907">
        <ele>2612.6</ele>
        <time>2019-05-01T09:35:24Z</time>
      </trkpt>
      <trkpt lat="45.24695" lon="6.12904">
        <ele>2612.6</ele>
        <time>2019-05-01T09:35:25Z</time>
      </trkpt>
      <trkpt lat="45.24695" lon="6.129">
        <ele>2610.7</ele>
        <time>2019-05-01T09:35:27Z</time>
      </trkpt>
      <trkpt lat="45.24695" lon="6.12894">
        <ele>2607.1</ele>
        <time>2019-05-01T09:35:29Z</time>
      </trkpt>
      <trkpt lat="45.24695" lon="6.12889">
        <ele>2605.3</ele>
        <time>2019-05-01T09:35:31Z</time>
      </trkpt>
      <trkpt lat="45.24699" lon="6.12893">
        <ele>2606.3</ele>
        <time>2019-05-01T09:35:36Z</time>
      </trkpt>
      <trkpt lat="45.24701" lon="6.1289">
        <ele>2603.9</ele>
        <time>2019-05-01T09:37:01Z</time>
      </trkpt>
      <trkpt lat="45.24704" lon="6.12884">
        <ele>2601.5</ele>
        <time>2019-05-01T09:37:14Z</time>
      </trkpt>
      <trkpt lat="45.24707" lon="6.12884">
        <ele>2601</ele>
        <time>2019-05-01T09:37:15Z</time>
      </trkpt>
      <trkpt lat="45.2471" lon="6.12882">
        <ele>2598.6</ele>
        <time>2019-05-01T09:37:16Z</time>
      </trkpt>
      <trkpt lat="45.24713" lon="6.12881">
        <ele>2598.6</ele>
        <time>2019-05-01T09:37:17Z</time>
      </trkpt>
      <trkpt lat="45.24717" lon="6.12878">
        <ele>2595.7</ele>
        <time>2019-05-01T09:37:25Z</time>
      </trkpt>
      <trkpt lat="45.24715" lon="6.12874">
        <ele>2596.2</ele>
        <time>2019-05-01T09:37:28Z</time>
      </trkpt>
      <trkpt lat="45.24712" lon="6.12873">
        <ele>2594.8</ele>
        <time>2019-05-01T09:37:29Z</time>
      </trkpt>
      <trkpt lat="45.24709" lon="6.12873">
        <ele>2595.3</ele>
        <time>2019-05-01T09:37:30Z</time>
      </trkpt>
      <trkpt lat="45.24704" lon="6.12872">
        <ele>2595.9</ele>
        <time>2019-05-01T09:37:32Z</time>
      </trkpt>
      <trkpt lat="45.24699" lon="6.12872">
        <ele>2597.3</ele>
        <time>2019-05-01T09:37:34Z</time>
      </trkpt>
      <trkpt lat="45.24695" lon="6.12871">
        <ele>2598.1</ele>
        <time>2019-05-01T09:37:35Z</time>
      </trkpt>
      <trkpt lat="45.24691" lon="6.12871">
        <ele>2599.5</ele>
        <time>2019-05-01T09:37:36Z</time>
      </trkpt>
      <trkpt lat="45.24687" lon="6.1287">
        <ele>2600.1</ele>
        <time>2019-05-01T09:37:37Z</time>
      </trkpt>
      <trkpt lat="45.24684" lon="6.12868">
        <ele>2598.9</ele>
        <time>2019-05-01T09:37:38Z</time>
      </trkpt>
      <trkpt lat="45.24682" lon="6.12867">
        <ele>2599.4</ele>
        <time>2019-05-01T09:37:39Z</time>
      </trkpt>
      <trkpt lat="45.24678" lon="6.12864">
        <ele>2598.2</ele>
        <time>2019-05-01T09:37:41Z</time>
      </trkpt>
      <trkpt lat="45.24675" lon="6.12861">
        <ele>2597.1</ele>
        <time>2019-05-01T09:37:43Z</time>
      </trkpt>
      <trkpt lat="45.24672" lon="6.12858">
        <ele>2597.6</ele>
        <time>2019-05-01T09:37:45Z</time>
      </trkpt>
      <trkpt lat="45.24668" lon="6.12856">
        <ele>2596.9</ele>
        <time>2019-05-01T09:37:56Z</time>
      </trkpt>
      <trkpt lat="45.24669" lon="6.12852">
        <ele>2595.6</ele>
        <time>2019-05-01T09:38:01Z</time>
      </trkpt>
      <trkpt lat="45.24668" lon="6.12856">
        <ele>2596.9</ele>
        <time>2019-05-01T09:38:16Z</time>
      </trkpt>
      <trkpt lat="45.24665" lon="6.12852">
        <ele>2596.3</ele>
        <time>2019-05-01T09:38:54Z</time>
      </trkpt>
      <trkpt lat="45.24661" lon="6.12848">
        <ele>2598.1</ele>
        <time>2019-05-01T09:38:56Z</time>
      </trkpt>
      <trkpt lat="45.24657" lon="6.12844">
        <ele>2597.9</ele>
        <time>2019-05-01T09:38:58Z</time>
      </trkpt>
      <trkpt lat="45.24654" lon="6.12841">
        <ele>2597.9</ele>
        <time>2019-05-01T09:38:59Z</time>
      </trkpt>
      <trkpt lat="45.24648" lon="6.12837">
        <ele>2599.2</ele>
        <time>2019-05-01T09:39:00Z</time>
      </trkpt>
      <trkpt lat="45.24644" lon="6.12832">
        <ele>2599.5</ele>
        <time>2019-05-01T09:39:01Z</time>
      </trkpt>
      <trkpt lat="45.2464" lon="6.12828">
        <ele>2602.1</ele>
        <time>2019-05-01T09:39:02Z</time>
      </trkpt>
      <trkpt lat="45.24638" lon="6.12824">
        <ele>2600.7</ele>
        <time>2019-05-01T09:39:03Z</time>
      </trkpt>
      <trkpt lat="45.24636" lon="6.12821">
        <ele>2601.6</ele>
        <time>2019-05-01T09:39:04Z</time>
      </trkpt>
      <trkpt lat="45.24633" lon="6.12818">
        <ele>2602.4</ele>
        <time>2019-05-01T09:39:07Z</time>
      </trkpt>
      <trkpt lat="45.24631" lon="6.12813">
        <ele>2603</ele>
        <time>2019-05-01T09:39:09Z</time>
      </trkpt>
      <trkpt lat="45.24627" lon="6.12808">
        <ele>2603.4</ele>
        <time>2019-05-01T09:39:11Z</time>
      </trkpt>
      <trkpt lat="45.24624" lon="6.12804">
        <ele>2603.8</ele>
        <time>2019-05-01T09:39:12Z</time>
      </trkpt>
      <trkpt lat="45.24622" lon="6.12799">
        <ele>2604</ele>
        <time>2019-05-01T09:39:13Z</time>
      </trkpt>
      <trkpt lat="45.24618" lon="6.12794">
        <ele>2604.3</ele>
        <time>2019-05-01T09:39:14Z</time>
      </trkpt>
      <trkpt lat="45.24618" lon="6.12786">
        <ele>2601.7</ele>
        <time>2019-05-01T09:39:16Z</time>
      </trkpt>
      <trkpt lat="45.24617" lon="6.12781">
        <ele>2600.5</ele>
        <time>2019-05-01T09:39:17Z</time>
      </trkpt>
      <trkpt lat="45.24615" lon="6.12777">
        <ele>2600.7</ele>
        <time>2019-05-01T09:39:18Z</time>
      </trkpt>
      <trkpt lat="45.24613" lon="6.12772">
        <ele>2599.7</ele>
        <time>2019-05-01T09:39:19Z</time>
      </trkpt>
      <trkpt lat="45.2461" lon="6.12767">
        <ele>2600.1</ele>
        <time>2019-05-01T09:39:20Z</time>
      </trkpt>
      <trkpt lat="45.24608" lon="6.12764">
        <ele>2600.6</ele>
        <time>2019-05-01T09:39:21Z</time>
      </trkpt>
      <trkpt lat="45.24605" lon="6.12754">
        <ele>2600.6</ele>
        <time>2019-05-01T09:39:23Z</time>
      </trkpt>
      <trkpt lat="45.24603" lon="6.12748">
        <ele>2600.7</ele>
        <time>2019-05-01T09:39:33Z</time>
      </trkpt>
      <trkpt lat="45.246" lon="6.12742">
        <ele>2601.2</ele>
        <time>2019-05-01T09:39:34Z</time>
      </trkpt>
      <trkpt lat="45.24597" lon="6.12727">
        <ele>2600.5</ele>
        <time>2019-05-01T09:39:36Z</time>
      </trkpt>
      <trkpt lat="45.24593" lon="6.12718">
        <ele>2600.7</ele>
        <time>2019-05-01T09:39:37Z</time>
      </trkpt>
      <trkpt lat="45.2459" lon="6.12705">
        <ele>2600.5</ele>
        <time>2019-05-01T09:39:38Z</time>
      </trkpt>
      <trkpt lat="45.2459" lon="6.12697">
        <ele>2599.3</ele>
        <time>2019-05-01T09:39:39Z</time>
      </trkpt>
      <trkpt lat="45.24589" lon="6.12689">
        <ele>2597.8</ele>
        <time>2019-05-01T09:39:40Z</time>
      </trkpt>
      <trkpt lat="45.2459" lon="6.12685">
        <ele>2597</ele>
        <time>2019-05-01T09:39:41Z</time>
      </trkpt>
      <trkpt lat="45.24591" lon="6.12681">
        <ele>2596.3</ele>
        <time>2019-05-01T09:39:42Z</time>
      </trkpt>
      <trkpt lat="45.24591" lon="6.12674">
        <ele>2595.4</ele>
        <time>2019-05-01T09:39:43Z</time>
      </trkpt>
      <trkpt lat="45.24591" lon="6.12668">
        <ele>2593.6</ele>
        <time>2019-05-01T09:39:44Z</time>
      </trkpt>
      <trkpt lat="45.24591" lon="6.12661">
        <ele>2592.5</ele>
        <time>2019-05-01T09:39:45Z</time>
      </trkpt>
      <trkpt lat="45.2459" lon="6.12655">
        <ele>2590.3</ele>
        <time>2019-05-01T09:39:46Z</time>
      </trkpt>
      <trkpt lat="45.24589" lon="6.1265">
        <ele>2589</ele>
        <time>2019-05-01T09:39:47Z</time>
      </trkpt>
      <trkpt lat="45.2459" lon="6.12644">
        <ele>2587.8</ele>
        <time>2019-05-01T09:39:48Z</time>
      </trkpt>
      <trkpt lat="45.2459" lon="6.12638">
        <ele>2585.4</ele>
        <time>2019-05-01T09:39:49Z</time>
      </trkpt>
      <trkpt lat="45.2459" lon="6.12631">
        <ele>2584.5</ele>
        <time>2019-05-01T09:39:50Z</time>
      </trkpt>
      <trkpt lat="45.24591" lon="6.12624">
        <ele>2583</ele>
        <time>2019-05-01T09:39:51Z</time>
      </trkpt>
      <trkpt lat="45.24591" lon="6.12619">
        <ele>2582.6</ele>
        <time>2019-05-01T09:39:52Z</time>
      </trkpt>
      <trkpt lat="45.2459" lon="6.12613">
        <ele>2582.4</ele>
        <time>2019-05-01T09:39:54Z</time>
      </trkpt>
      <trkpt lat="45.24594" lon="6.12613">
        <ele>2581.1</ele>
        <time>2019-05-01T09:40:51Z</time>
      </trkpt>
      <trkpt lat="45.24595" lon="6.1261">
        <ele>2579.5</ele>
        <time>2019-05-01T09:44:30Z</time>
      </trkpt>
      <trkpt lat="45.24596" lon="6.12605">
        <ele>2579.3</ele>
        <time>2019-05-01T09:44:33Z</time>
      </trkpt>
      <trkpt lat="45.24596" lon="6.126">
        <ele>2579.2</ele>
        <time>2019-05-01T09:44:37Z</time>
      </trkpt>
      <trkpt lat="45.24597" lon="6.12596">
        <ele>2579.1</ele>
        <time>2019-05-01T09:44:41Z</time>
      </trkpt>
      <trkpt lat="45.24598" lon="6.1259">
        <ele>2579.3</ele>
        <time>2019-05-01T09:44:45Z</time>
      </trkpt>
      <trkpt lat="45.24598" lon="6.12583">
        <ele>2579.5</ele>
        <time>2019-05-01T09:44:47Z</time>
      </trkpt>
      <trkpt lat="45.24598" lon="6.12579">
        <ele>2577.5</ele>
        <time>2019-05-01T09:44:48Z</time>
      </trkpt>
      <trkpt lat="45.24599" lon="6.12575">
        <ele>2577.9</ele>
        <time>2019-05-01T09:44:49Z</time>
      </trkpt>
      <trkpt lat="45.24599" lon="6.1257">
        <ele>2578.3</ele>
        <time>2019-05-01T09:44:50Z</time>
      </trkpt>
      <trkpt lat="45.246" lon="6.12565">
        <ele>2579.6</ele>
        <time>2019-05-01T09:44:51Z</time>
      </trkpt>
      <trkpt lat="45.24601" lon="6.12559">
        <ele>2578.1</ele>
        <time>2019-05-01T09:44:52Z</time>
      </trkpt>
      <trkpt lat="45.24602" lon="6.12554">
        <ele>2579</ele>
        <time>2019-05-01T09:44:53Z</time>
      </trkpt>
      <trkpt lat="45.24604" lon="6.12549">
        <ele>2580.1</ele>
        <time>2019-05-01T09:44:54Z</time>
      </trkpt>
      <trkpt lat="45.24607" lon="6.12555">
        <ele>2574.1</ele>
        <time>2019-05-01T09:44:55Z</time>
      </trkpt>
      <trkpt lat="45.2461" lon="6.1256">
        <ele>2573.1</ele>
        <time>2019-05-01T09:44:56Z</time>
      </trkpt>
      <trkpt lat="45.24615" lon="6.12559">
        <ele>2567.8</ele>
        <time>2019-05-01T09:44:57Z</time>
      </trkpt>
      <trkpt lat="45.24619" lon="6.12562">
        <ele>2564.4</ele>
        <time>2019-05-01T09:44:58Z</time>
      </trkpt>
      <trkpt lat="45.24625" lon="6.12565">
        <ele>2557.8</ele>
        <time>2019-05-01T09:44:59Z</time>
      </trkpt>
      <trkpt lat="45.24631" lon="6.12569">
        <ele>2552.6</ele>
        <time>2019-05-01T09:45:00Z</time>
      </trkpt>
      <trkpt lat="45.24638" lon="6.12569">
        <ele>2547.8</ele>
        <time>2019-05-01T09:45:01Z</time>
      </trkpt>
      <trkpt lat="45.24643" lon="6.12572">
        <ele>2544.8</ele>
        <time>2019-05-01T09:45:02Z</time>
      </trkpt>
      <trkpt lat="45.24647" lon="6.12574">
        <ele>2540.3</ele>
        <time>2019-05-01T09:45:03Z</time>
      </trkpt>
      <trkpt lat="45.24651" lon="6.12575">
        <ele>2538.5</ele>
        <time>2019-05-01T09:45:04Z</time>
      </trkpt>
      <trkpt lat="45.24656" lon="6.12575">
        <ele>2535</ele>
        <time>2019-05-01T09:45:05Z</time>
      </trkpt>
      <trkpt lat="45.24661" lon="6.12577">
        <ele>2533.2</ele>
        <time>2019-05-01T09:45:06Z</time>
      </trkpt>
      <trkpt lat="45.24666" lon="6.12577">
        <ele>2529.5</ele>
        <time>2019-05-01T09:45:07Z</time>
      </trkpt>
      <trkpt lat="45.24671" lon="6.12577">
        <ele>2525.9</ele>
        <time>2019-05-01T09:45:08Z</time>
      </trkpt>
      <trkpt lat="45.24674" lon="6.12579">
        <ele>2524.2</ele>
        <time>2019-05-01T09:45:09Z</time>
      </trkpt>
      <trkpt lat="45.24679" lon="6.12582">
        <ele>2522.6</ele>
        <time>2019-05-01T09:45:10Z</time>
      </trkpt>
      <trkpt lat="45.24683" lon="6.12587">
        <ele>2519.9</ele>
        <time>2019-05-01T09:45:11Z</time>
      </trkpt>
      <trkpt lat="45.24689" lon="6.12595">
        <ele>2517.4</ele>
        <time>2019-05-01T09:45:12Z</time>
      </trkpt>
      <trkpt lat="45.24695" lon="6.126">
        <ele>2515.3</ele>
        <time>2019-05-01T09:45:13Z</time>
      </trkpt>
      <trkpt lat="45.24699" lon="6.12605">
        <ele>2514.4</ele>
        <time>2019-05-01T09:45:14Z</time>
      </trkpt>
      <trkpt lat="45.24703" lon="6.1261">
        <ele>2513.7</ele>
        <time>2019-05-01T09:45:15Z</time>
      </trkpt>
      <trkpt lat="45.24708" lon="6.12616">
        <ele>2511.9</ele>
        <time>2019-05-01T09:45:16Z</time>
      </trkpt>
      <trkpt lat="45.24712" lon="6.12623">
        <ele>2512.5</ele>
        <time>2019-05-01T09:45:17Z</time>
      </trkpt>
      <trkpt lat="45.24717" lon="6.12624">
        <ele>2509.9</ele>
        <time>2019-05-01T09:45:18Z</time>
      </trkpt>
      <trkpt lat="45.24715" lon="6.12619">
        <ele>2510.3</ele>
        <time>2019-05-01T09:45:19Z</time>
      </trkpt>
      <trkpt lat="45.24713" lon="6.12616">
        <ele>2509.4</ele>
        <time>2019-05-01T09:45:56Z</time>
      </trkpt>
      <trkpt lat="45.24718" lon="6.12614">
        <ele>2508.1</ele>
        <time>2019-05-01T09:45:58Z</time>
      </trkpt>
      <trkpt lat="45.24717" lon="6.12608">
        <ele>2507.2</ele>
        <time>2019-05-01T09:46:04Z</time>
      </trkpt>
      <trkpt lat="45.24718" lon="6.12601">
        <ele>2505.6</ele>
        <time>2019-05-01T09:46:06Z</time>
      </trkpt>
      <trkpt lat="45.2472" lon="6.12594">
        <ele>2502.9</ele>
        <time>2019-05-01T09:46:08Z</time>
      </trkpt>
      <trkpt lat="45.24722" lon="6.12589">
        <ele>2500.9</ele>
        <time>2019-05-01T09:46:09Z</time>
      </trkpt>
      <trkpt lat="45.24722" lon="6.12582">
        <ele>2500.3</ele>
        <time>2019-05-01T09:46:10Z</time>
      </trkpt>
      <trkpt lat="45.24725" lon="6.12575">
        <ele>2498.7</ele>
        <time>2019-05-01T09:46:11Z</time>
      </trkpt>
      <trkpt lat="45.24727" lon="6.12566">
        <ele>2498.6</ele>
        <time>2019-05-01T09:46:12Z</time>
      </trkpt>
      <trkpt lat="45.2473" lon="6.12557">
        <ele>2497.4</ele>
        <time>2019-05-01T09:46:13Z</time>
      </trkpt>
      <trkpt lat="45.24735" lon="6.12548">
        <ele>2495.7</ele>
        <time>2019-05-01T09:46:14Z</time>
      </trkpt>
      <trkpt lat="45.24739" lon="6.12539">
        <ele>2495.2</ele>
        <time>2019-05-01T09:46:15Z</time>
      </trkpt>
      <trkpt lat="45.24744" lon="6.1253">
        <ele>2493.4</ele>
        <time>2019-05-01T09:46:16Z</time>
      </trkpt>
      <trkpt lat="45.24746" lon="6.12522">
        <ele>2492.5</ele>
        <time>2019-05-01T09:46:17Z</time>
      </trkpt>
      <trkpt lat="45.24751" lon="6.12518">
        <ele>2491.6</ele>
        <time>2019-05-01T09:46:18Z</time>
      </trkpt>
      <trkpt lat="45.24757" lon="6.12515">
        <ele>2489.7</ele>
        <time>2019-05-01T09:46:19Z</time>
      </trkpt>
      <trkpt lat="45.24761" lon="6.12517">
        <ele>2487.6</ele>
        <time>2019-05-01T09:46:20Z</time>
      </trkpt>
      <trkpt lat="45.24764" lon="6.12523">
        <ele>2486.9</ele>
        <time>2019-05-01T09:46:21Z</time>
      </trkpt>
      <trkpt lat="45.24768" lon="6.12523">
        <ele>2485.1</ele>
        <time>2019-05-01T09:46:22Z</time>
      </trkpt>
      <trkpt lat="45.24773" lon="6.12526">
        <ele>2483.5</ele>
        <time>2019-05-01T09:46:23Z</time>
      </trkpt>
      <trkpt lat="45.24778" lon="6.12525">
        <ele>2482.7</ele>
        <time>2019-05-01T09:46:24Z</time>
      </trkpt>
      <trkpt lat="45.24783" lon="6.12525">
        <ele>2481.1</ele>
        <time>2019-05-01T09:46:25Z</time>
      </trkpt>
      <trkpt lat="45.24786" lon="6.12532">
        <ele>2480</ele>
        <time>2019-05-01T09:46:26Z</time>
      </trkpt>
      <trkpt lat="45.24789" lon="6.12533">
        <ele>2479.4</ele>
        <time>2019-05-01T09:46:28Z</time>
      </trkpt>
      <trkpt lat="45.24793" lon="6.12525">
        <ele>2479.3</ele>
        <time>2019-05-01T09:46:30Z</time>
      </trkpt>
      <trkpt lat="45.24795" lon="6.12519">
        <ele>2479</ele>
        <time>2019-05-01T09:46:32Z</time>
      </trkpt>
      <trkpt lat="45.24797" lon="6.12514">
        <ele>2479.5</ele>
        <time>2019-05-01T09:46:33Z</time>
      </trkpt>
      <trkpt lat="45.24798" lon="6.12518">
        <ele>2478.7</ele>
        <time>2019-05-01T09:47:41Z</time>
      </trkpt>
      <trkpt lat="45.248" lon="6.12522">
        <ele>2478.5</ele>
        <time>2019-05-01T09:48:12Z</time>
      </trkpt>
      <trkpt lat="45.24801" lon="6.12526">
        <ele>2477.7</ele>
        <time>2019-05-01T09:48:13Z</time>
      </trkpt>
      <trkpt lat="45.24803" lon="6.12531">
        <ele>2477.4</ele>
        <time>2019-05-01T09:48:14Z</time>
      </trkpt>
      <trkpt lat="45.24804" lon="6.12536">
        <ele>2476.6</ele>
        <time>2019-05-01T09:48:15Z</time>
      </trkpt>
      <trkpt lat="45.24805" lon="6.12541">
        <ele>2476.4</ele>
        <time>2019-05-01T09:48:16Z</time>
      </trkpt>
      <trkpt lat="45.24808" lon="6.12543">
        <ele>2475.6</ele>
        <time>2019-05-01T09:48:17Z</time>
      </trkpt>
      <trkpt lat="45.24811" lon="6.12542">
        <ele>2474.8</ele>
        <time>2019-05-01T09:48:18Z</time>
      </trkpt>
      <trkpt lat="45.24815" lon="6.12541">
        <ele>2474.1</ele>
        <time>2019-05-01T09:48:19Z</time>
      </trkpt>
      <trkpt lat="45.24819" lon="6.12539">
        <ele>2473</ele>
        <time>2019-05-01T09:48:20Z</time>
      </trkpt>
      <trkpt lat="45.24823" lon="6.12538">
        <ele>2472.2</ele>
        <time>2019-05-01T09:48:21Z</time>
      </trkpt>
      <trkpt lat="45.24827" lon="6.12538">
        <ele>2471.4</ele>
        <time>2019-05-01T09:48:22Z</time>
      </trkpt>
      <trkpt lat="45.2483" lon="6.1254">
        <ele>2470</ele>
        <time>2019-05-01T09:48:23Z</time>
      </trkpt>
      <trkpt lat="45.24836" lon="6.12547">
        <ele>2467.4</ele>
        <time>2019-05-01T09:48:24Z</time>
      </trkpt>
      <trkpt lat="45.24839" lon="6.12553">
        <ele>2465.6</ele>
        <time>2019-05-01T09:48:25Z</time>
      </trkpt>
      <trkpt lat="45.24843" lon="6.12558">
        <ele>2463.2</ele>
        <time>2019-05-01T09:48:26Z</time>
      </trkpt>
      <trkpt lat="45.24845" lon="6.12564">
        <ele>2462.9</ele>
        <time>2019-05-01T09:48:27Z</time>
      </trkpt>
      <trkpt lat="45.24847" lon="6.1257">
        <ele>2461.1</ele>
        <time>2019-05-01T09:48:28Z</time>
      </trkpt>
      <trkpt lat="45.24849" lon="6.12576">
        <ele>2459.6</ele>
        <time>2019-05-01T09:48:29Z</time>
      </trkpt>
      <trkpt lat="45.24846" lon="6.12577">
        <ele>2460.7</ele>
        <time>2019-05-01T09:48:30Z</time>
      </trkpt>
      <trkpt lat="45.24844" lon="6.12581">
        <ele>2461.4</ele>
        <time>2019-05-01T09:48:31Z</time>
      </trkpt>
      <trkpt lat="45.24839" lon="6.12584">
        <ele>2463.4</ele>
        <time>2019-05-01T09:49:10Z</time>
      </trkpt>
      <trkpt lat="45.24837" lon="6.12586">
        <ele>2463.4</ele>
        <time>2019-05-01T09:49:24Z</time>
      </trkpt>
      <trkpt lat="45.24843" lon="6.12591">
        <ele>2460.5</ele>
        <time>2019-05-01T09:49:26Z</time>
      </trkpt>
      <trkpt lat="45.24848" lon="6.12588">
        <ele>2459.6</ele>
        <time>2019-05-01T09:49:27Z</time>
      </trkpt>
      <trkpt lat="45.24853" lon="6.12587">
        <ele>2457.3</ele>
        <time>2019-05-01T09:49:28Z</time>
      </trkpt>
      <trkpt lat="45.24858" lon="6.12593">
        <ele>2455.7</ele>
        <time>2019-05-01T09:49:29Z</time>
      </trkpt>
      <trkpt lat="45.24863" lon="6.12596">
        <ele>2452.8</ele>
        <time>2019-05-01T09:49:30Z</time>
      </trkpt>
      <trkpt lat="45.24869" lon="6.12602">
        <ele>2449.9</ele>
        <time>2019-05-01T09:49:32Z</time>
      </trkpt>
      <trkpt lat="45.24874" lon="6.12606">
        <ele>2447</ele>
        <time>2019-05-01T09:49:34Z</time>
      </trkpt>
      <trkpt lat="45.24877" lon="6.12607">
        <ele>2445.8</ele>
        <time>2019-05-01T09:49:35Z</time>
      </trkpt>
      <trkpt lat="45.24882" lon="6.1261">
        <ele>2444.2</ele>
        <time>2019-05-01T09:49:36Z</time>
      </trkpt>
      <trkpt lat="45.24884" lon="6.12624">
        <ele>2442.4</ele>
        <time>2019-05-01T09:49:37Z</time>
      </trkpt>
      <trkpt lat="45.24888" lon="6.12634">
        <ele>2439.7</ele>
        <time>2019-05-01T09:49:38Z</time>
      </trkpt>
      <trkpt lat="45.24893" lon="6.12644">
        <ele>2438.7</ele>
        <time>2019-05-01T09:49:39Z</time>
      </trkpt>
      <trkpt lat="45.24898" lon="6.12655">
        <ele>2436.5</ele>
        <time>2019-05-01T09:49:40Z</time>
      </trkpt>
      <trkpt lat="45.24903" lon="6.12664">
        <ele>2436.8</ele>
        <time>2019-05-01T09:49:41Z</time>
      </trkpt>
      <trkpt lat="45.24909" lon="6.12673">
        <ele>2435</ele>
        <time>2019-05-01T09:49:42Z</time>
      </trkpt>
      <trkpt lat="45.24914" lon="6.12682">
        <ele>2433</ele>
        <time>2019-05-01T09:49:43Z</time>
      </trkpt>
      <trkpt lat="45.24919" lon="6.12688">
        <ele>2430.4</ele>
        <time>2019-05-01T09:49:44Z</time>
      </trkpt>
      <trkpt lat="45.24924" lon="6.12694">
        <ele>2428.1</ele>
        <time>2019-05-01T09:49:45Z</time>
      </trkpt>
      <trkpt lat="45.24928" lon="6.12698">
        <ele>2428.6</ele>
        <time>2019-05-01T09:49:46Z</time>
      </trkpt>
      <trkpt lat="45.24932" lon="6.12702">
        <ele>2427.1</ele>
        <time>2019-05-01T09:49:47Z</time>
      </trkpt>
      <trkpt lat="45.24937" lon="6.12701">
        <ele>2424</ele>
        <time>2019-05-01T09:49:48Z</time>
      </trkpt>
      <trkpt lat="45.24941" lon="6.12703">
        <ele>2423.3</ele>
        <time>2019-05-01T09:49:49Z</time>
      </trkpt>
      <trkpt lat="45.24945" lon="6.12707">
        <ele>2421.7</ele>
        <time>2019-05-01T09:49:50Z</time>
      </trkpt>
      <trkpt lat="45.2495" lon="6.12705">
        <ele>2418.6</ele>
        <time>2019-05-01T09:49:51Z</time>
      </trkpt>
      <trkpt lat="45.24954" lon="6.12707">
        <ele>2417.9</ele>
        <time>2019-05-01T09:49:52Z</time>
      </trkpt>
      <trkpt lat="45.24957" lon="6.12709">
        <ele>2416.5</ele>
        <time>2019-05-01T09:49:53Z</time>
      </trkpt>
      <trkpt lat="45.24961" lon="6.12711">
        <ele>2414.6</ele>
        <time>2019-05-01T09:49:54Z</time>
      </trkpt>
      <trkpt lat="45.24966" lon="6.12711">
        <ele>2412.6</ele>
        <time>2019-05-01T09:49:55Z</time>
      </trkpt>
      <trkpt lat="45.24969" lon="6.12712">
        <ele>2412</ele>
        <time>2019-05-01T09:49:56Z</time>
      </trkpt>
      <trkpt lat="45.24972" lon="6.12714">
        <ele>2410.6</ele>
        <time>2019-05-01T09:49:57Z</time>
      </trkpt>
      <trkpt lat="45.24975" lon="6.12717">
        <ele>2410</ele>
        <time>2019-05-01T09:49:58Z</time>
      </trkpt>
      <trkpt lat="45.24978" lon="6.1272">
        <ele>2409.4</ele>
        <time>2019-05-01T09:49:59Z</time>
      </trkpt>
      <trkpt lat="45.24981" lon="6.12722">
        <ele>2407.9</ele>
        <time>2019-05-01T09:50:00Z</time>
      </trkpt>
      <trkpt lat="45.24984" lon="6.12724">
        <ele>2407.5</ele>
        <time>2019-05-01T09:50:01Z</time>
      </trkpt>
      <trkpt lat="45.24987" lon="6.12726">
        <ele>2406.3</ele>
        <time>2019-05-01T09:50:03Z</time>
      </trkpt>
      <trkpt lat="45.2499" lon="6.12731">
        <ele>2406.1</ele>
        <time>2019-05-01T09:50:18Z</time>
      </trkpt>
      <trkpt lat="45.2499" lon="6.12735">
        <ele>2407.1</ele>
        <time>2019-05-01T09:50:21Z</time>
      </trkpt>
      <trkpt lat="45.24986" lon="6.1274">
        <ele>2409.5</ele>
        <time>2019-05-01T09:50:40Z</time>
      </trkpt>
      <trkpt lat="45.24981" lon="6.12741">
        <ele>2413.6</ele>
        <time>2019-05-01T09:51:27Z</time>
      </trkpt>
      <trkpt lat="45.24984" lon="6.12744">
        <ele>2412.1</ele>
        <time>2019-05-01T09:53:01Z</time>
      </trkpt>
      <trkpt lat="45.24986" lon="6.12747">
        <ele>2412.1</ele>
        <time>2019-05-01T09:53:03Z</time>
      </trkpt>
      <trkpt lat="45.24988" lon="6.12754">
        <ele>2414.3</ele>
        <time>2019-05-01T09:53:05Z</time>
      </trkpt>
      <trkpt lat="45.24991" lon="6.12758">
        <ele>2412.9</ele>
        <time>2019-05-01T09:53:06Z</time>
      </trkpt>
      <trkpt lat="45.24995" lon="6.12758">
        <ele>2411.4</ele>
        <time>2019-05-01T09:53:07Z</time>
      </trkpt>
      <trkpt lat="45.24999" lon="6.12756">
        <ele>2409.7</ele>
        <time>2019-05-01T09:53:08Z</time>
      </trkpt>
      <trkpt lat="45.25001" lon="6.12753">
        <ele>2406.5</ele>
        <time>2019-05-01T09:53:09Z</time>
      </trkpt>
      <trkpt lat="45.25003" lon="6.1275">
        <ele>2404.9</ele>
        <time>2019-05-01T09:53:10Z</time>
      </trkpt>
      <trkpt lat="45.25006" lon="6.12746">
        <ele>2402.2</ele>
        <time>2019-05-01T09:53:12Z</time>
      </trkpt>
      <trkpt lat="45.2501" lon="6.12741">
        <ele>2399.8</ele>
        <time>2019-05-01T09:53:14Z</time>
      </trkpt>
      <trkpt lat="45.25011" lon="6.12738">
        <ele>2398.7</ele>
        <time>2019-05-01T09:53:15Z</time>
      </trkpt>
      <trkpt lat="45.25014" lon="6.12735">
        <ele>2396.7</ele>
        <time>2019-05-01T09:53:16Z</time>
      </trkpt>
      <trkpt lat="45.25017" lon="6.12736">
        <ele>2395.6</ele>
        <time>2019-05-01T09:53:17Z</time>
      </trkpt>
      <trkpt lat="45.2502" lon="6.12737">
        <ele>2395.5</ele>
        <time>2019-05-01T09:53:18Z</time>
      </trkpt>
      <trkpt lat="45.25024" lon="6.12739">
        <ele>2392.9</ele>
        <time>2019-05-01T09:53:19Z</time>
      </trkpt>
      <trkpt lat="45.25028" lon="6.12741">
        <ele>2391.6</ele>
        <time>2019-05-01T09:53:20Z</time>
      </trkpt>
      <trkpt lat="45.25031" lon="6.12743">
        <ele>2391.2</ele>
        <time>2019-05-01T09:53:21Z</time>
      </trkpt>
      <trkpt lat="45.25034" lon="6.12746">
        <ele>2390.9</ele>
        <time>2019-05-01T09:53:22Z</time>
      </trkpt>
      <trkpt lat="45.25038" lon="6.12747">
        <ele>2389.5</ele>
        <time>2019-05-01T09:53:23Z</time>
      </trkpt>
      <trkpt lat="45.25041" lon="6.12746">
        <ele>2388.2</ele>
        <time>2019-05-01T09:53:24Z</time>
      </trkpt>
      <trkpt lat="45.25044" lon="6.12743">
        <ele>2386</ele>
        <time>2019-05-01T09:53:25Z</time>
      </trkpt>
      <trkpt lat="45.25047" lon="6.1274">
        <ele>2383.9</ele>
        <time>2019-05-01T09:53:26Z</time>
      </trkpt>
      <trkpt lat="45.25051" lon="6.12738">
        <ele>2382.5</ele>
        <time>2019-05-01T09:53:27Z</time>
      </trkpt>
      <trkpt lat="45.25051" lon="6.12743">
        <ele>2381.7</ele>
        <time>2019-05-01T09:53:30Z</time>
      </trkpt>
      <trkpt lat="45.2505" lon="6.12748">
        <ele>2384</ele>
        <time>2019-05-01T09:53:32Z</time>
      </trkpt>
      <trkpt lat="45.25049" lon="6.12755">
        <ele>2385.8</ele>
        <time>2019-05-01T09:53:34Z</time>
      </trkpt>
      <trkpt lat="45.25048" lon="6.12761">
        <ele>2388.2</ele>
        <time>2019-05-01T09:53:35Z</time>
      </trkpt>
      <trkpt lat="45.25046" lon="6.12767">
        <ele>2390.2</ele>
        <time>2019-05-01T09:53:36Z</time>
      </trkpt>
      <trkpt lat="45.2504" lon="6.12777">
        <ele>2395.6</ele>
        <time>2019-05-01T09:53:37Z</time>
      </trkpt>
      <trkpt lat="45.25043" lon="6.12781">
        <ele>2395.6</ele>
        <time>2019-05-01T09:53:38Z</time>
      </trkpt>
      <trkpt lat="45.25047" lon="6.12783">
        <ele>2394</ele>
        <time>2019-05-01T09:53:39Z</time>
      </trkpt>
      <trkpt lat="45.25052" lon="6.12779">
        <ele>2389.3</ele>
        <time>2019-05-01T09:53:40Z</time>
      </trkpt>
      <trkpt lat="45.25056" lon="6.12777">
        <ele>2387.4</ele>
        <time>2019-05-01T09:53:41Z</time>
      </trkpt>
      <trkpt lat="45.25063" lon="6.12781">
        <ele>2382.5</ele>
        <time>2019-05-01T09:53:42Z</time>
      </trkpt>
      <trkpt lat="45.25069" lon="6.12786">
        <ele>2381.5</ele>
        <time>2019-05-01T09:53:43Z</time>
      </trkpt>
      <trkpt lat="45.25066" lon="6.12796">
        <ele>2383.8</ele>
        <time>2019-05-01T09:53:44Z</time>
      </trkpt>
      <trkpt lat="45.25069" lon="6.12804">
        <ele>2386.4</ele>
        <time>2019-05-01T09:53:45Z</time>
      </trkpt>
      <trkpt lat="45.25075" lon="6.12806">
        <ele>2380.4</ele>
        <time>2019-05-01T09:53:46Z</time>
      </trkpt>
      <trkpt lat="45.25078" lon="6.12798">
        <ele>2375.7</ele>
        <time>2019-05-01T09:53:48Z</time>
      </trkpt>
      <trkpt lat="45.25082" lon="6.1279">
        <ele>2371.5</ele>
        <time>2019-05-01T09:53:49Z</time>
      </trkpt>
      <trkpt lat="45.25083" lon="6.12785">
        <ele>2370.8</ele>
        <time>2019-05-01T09:53:50Z</time>
      </trkpt>
      <trkpt lat="45.25082" lon="6.1278">
        <ele>2370.2</ele>
        <time>2019-05-01T09:53:51Z</time>
      </trkpt>
      <trkpt lat="45.25084" lon="6.12777">
        <ele>2369.5</ele>
        <time>2019-05-01T09:53:52Z</time>
      </trkpt>
      <trkpt lat="45.25086" lon="6.12784">
        <ele>2367.7</ele>
        <time>2019-05-01T09:54:13Z</time>
      </trkpt>
      <trkpt lat="45.25087" lon="6.12788">
        <ele>2368.2</ele>
        <time>2019-05-01T09:54:14Z</time>
      </trkpt>
      <trkpt lat="45.25089" lon="6.12797">
        <ele>2366.5</ele>
        <time>2019-05-01T09:54:15Z</time>
      </trkpt>
      <trkpt lat="45.2509" lon="6.12802">
        <ele>2367.6</ele>
        <time>2019-05-01T09:54:16Z</time>
      </trkpt>
      <trkpt lat="45.25091" lon="6.12808">
        <ele>2365.4</ele>
        <time>2019-05-01T09:54:17Z</time>
      </trkpt>
      <trkpt lat="45.25091" lon="6.12814">
        <ele>2366.1</ele>
        <time>2019-05-01T09:54:18Z</time>
      </trkpt>
      <trkpt lat="45.25092" lon="6.12819">
        <ele>2368.1</ele>
        <time>2019-05-01T09:54:19Z</time>
      </trkpt>
      <trkpt lat="45.25093" lon="6.12823">
        <ele>2366.1</ele>
        <time>2019-05-01T09:54:20Z</time>
      </trkpt>
      <trkpt lat="45.25096" lon="6.12827">
        <ele>2366.1</ele>
        <time>2019-05-01T09:54:21Z</time>
      </trkpt>
      <trkpt lat="45.25099" lon="6.12828">
        <ele>2364.2</ele>
        <time>2019-05-01T09:54:22Z</time>
      </trkpt>
      <trkpt lat="45.25102" lon="6.12827">
        <ele>2360</ele>
        <time>2019-05-01T09:54:23Z</time>
      </trkpt>
      <trkpt lat="45.25104" lon="6.12823">
        <ele>2356.1</ele>
        <time>2019-05-01T09:54:24Z</time>
      </trkpt>
      <trkpt lat="45.25106" lon="6.12817">
        <ele>2352.3</ele>
        <time>2019-05-01T09:54:26Z</time>
      </trkpt>
      <trkpt lat="45.25107" lon="6.12824">
        <ele>2353.5</ele>
        <time>2019-05-01T09:54:37Z</time>
      </trkpt>
      <trkpt lat="45.25109" lon="6.1283">
        <ele>2350.8</ele>
        <time>2019-05-01T09:54:38Z</time>
      </trkpt>
      <trkpt lat="45.2511" lon="6.12835">
        <ele>2351.6</ele>
        <time>2019-05-01T09:54:39Z</time>
      </trkpt>
      <trkpt lat="45.25112" lon="6.12841">
        <ele>2349.3</ele>
        <time>2019-05-01T09:54:40Z</time>
      </trkpt>
      <trkpt lat="45.25113" lon="6.12845">
        <ele>2349.9</ele>
        <time>2019-05-01T09:54:41Z</time>
      </trkpt>
      <trkpt lat="45.25114" lon="6.12849">
        <ele>2350.4</ele>
        <time>2019-05-01T09:54:42Z</time>
      </trkpt>
      <trkpt lat="45.25116" lon="6.12854">
        <ele>2347</ele>
        <time>2019-05-01T09:54:44Z</time>
      </trkpt>
      <trkpt lat="45.25119" lon="6.12857">
        <ele>2343.6</ele>
        <time>2019-05-01T09:54:49Z</time>
      </trkpt>
      <trkpt lat="45.25124" lon="6.12859">
        <ele>2337.3</ele>
        <time>2019-05-01T09:54:51Z</time>
      </trkpt>
      <trkpt lat="45.25127" lon="6.12859">
        <ele>2334.3</ele>
        <time>2019-05-01T09:54:52Z</time>
      </trkpt>
      <trkpt lat="45.2513" lon="6.12858">
        <ele>2331.3</ele>
        <time>2019-05-01T09:54:54Z</time>
      </trkpt>
      <trkpt lat="45.25134" lon="6.12859">
        <ele>2328.5</ele>
        <time>2019-05-01T09:54:56Z</time>
      </trkpt>
      <trkpt lat="45.25138" lon="6.12858">
        <ele>2325.7</ele>
        <time>2019-05-01T09:54:58Z</time>
      </trkpt>
      <trkpt lat="45.25135" lon="6.12864">
        <ele>2328.2</ele>
        <time>2019-05-01T09:55:02Z</time>
      </trkpt>
      <trkpt lat="45.25133" lon="6.12869">
        <ele>2327.9</ele>
        <time>2019-05-01T09:55:20Z</time>
      </trkpt>
      <trkpt lat="45.25127" lon="6.12869">
        <ele>2333.9</ele>
        <time>2019-05-01T09:55:27Z</time>
      </trkpt>
      <trkpt lat="45.25132" lon="6.12869">
        <ele>2330.8</ele>
        <time>2019-05-01T09:55:29Z</time>
      </trkpt>
      <trkpt lat="45.25134" lon="6.12866">
        <ele>2327.9</ele>
        <time>2019-05-01T09:55:30Z</time>
      </trkpt>
      <trkpt lat="45.25137" lon="6.12863">
        <ele>2325.4</ele>
        <time>2019-05-01T09:55:31Z</time>
      </trkpt>
      <trkpt lat="45.2514" lon="6.12861">
        <ele>2323.1</ele>
        <time>2019-05-01T09:55:32Z</time>
      </trkpt>
      <trkpt lat="45.25143" lon="6.12859">
        <ele>2320.7</ele>
        <time>2019-05-01T09:55:33Z</time>
      </trkpt>
      <trkpt lat="45.25146" lon="6.12856">
        <ele>2318.9</ele>
        <time>2019-05-01T09:55:34Z</time>
      </trkpt>
      <trkpt lat="45.25148" lon="6.12853">
        <ele>2316.9</ele>
        <time>2019-05-01T09:55:35Z</time>
      </trkpt>
      <trkpt lat="45.25151" lon="6.12848">
        <ele>2315.7</ele>
        <time>2019-05-01T09:55:37Z</time>
      </trkpt>
      <trkpt lat="45.25148" lon="6.12846">
        <ele>2317.4</ele>
        <time>2019-05-01T09:55:52Z</time>
      </trkpt>
      <trkpt lat="45.25143" lon="6.12845">
        <ele>2321.5</ele>
        <time>2019-05-01T09:55:57Z</time>
      </trkpt>
      <trkpt lat="45.25142" lon="6.12841">
        <ele>2321.7</ele>
        <time>2019-05-01T09:56:09Z</time>
      </trkpt>
      <trkpt lat="45.25142" lon="6.12832">
        <ele>2322.1</ele>
        <time>2019-05-01T09:56:11Z</time>
      </trkpt>
      <trkpt lat="45.25142" lon="6.12828">
        <ele>2322.3</ele>
        <time>2019-05-01T09:56:12Z</time>
      </trkpt>
      <trkpt lat="45.25143" lon="6.12824">
        <ele>2322.6</ele>
        <time>2019-05-01T09:56:13Z</time>
      </trkpt>
      <trkpt lat="45.25144" lon="6.1282">
        <ele>2322.9</ele>
        <time>2019-05-01T09:56:14Z</time>
      </trkpt>
      <trkpt lat="45.25146" lon="6.12815">
        <ele>2321.5</ele>
        <time>2019-05-01T09:56:15Z</time>
      </trkpt>
      <trkpt lat="45.25149" lon="6.1281">
        <ele>2320.4</ele>
        <time>2019-05-01T09:56:16Z</time>
      </trkpt>
      <trkpt lat="45.25151" lon="6.12806">
        <ele>2319.6</ele>
        <time>2019-05-01T09:56:17Z</time>
      </trkpt>
      <trkpt lat="45.25156" lon="6.12798">
        <ele>2319.8</ele>
        <time>2019-05-01T09:56:18Z</time>
      </trkpt>
      <trkpt lat="45.25158" lon="6.12793">
        <ele>2319.6</ele>
        <time>2019-05-01T09:56:19Z</time>
      </trkpt>
      <trkpt lat="45.25162" lon="6.12789">
        <ele>2319.5</ele>
        <time>2019-05-01T09:56:20Z</time>
      </trkpt>
      <trkpt lat="45.25167" lon="6.12785">
        <ele>2318.4</ele>
        <time>2019-05-01T09:56:21Z</time>
      </trkpt>
      <trkpt lat="45.25172" lon="6.12781">
        <ele>2317.9</ele>
        <time>2019-05-01T09:56:22Z</time>
      </trkpt>
      <trkpt lat="45.25177" lon="6.1278">
        <ele>2317.4</ele>
        <time>2019-05-01T09:56:23Z</time>
      </trkpt>
      <trkpt lat="45.25182" lon="6.12778">
        <ele>2316.1</ele>
        <time>2019-05-01T09:56:24Z</time>
      </trkpt>
      <trkpt lat="45.25186" lon="6.12778">
        <ele>2315.5</ele>
        <time>2019-05-01T09:56:26Z</time>
      </trkpt>
      <trkpt lat="45.25189" lon="6.12777">
        <ele>2314.9</ele>
        <time>2019-05-01T09:56:27Z</time>
      </trkpt>
      <trkpt lat="45.25193" lon="6.12774">
        <ele>2315.7</ele>
        <time>2019-05-01T09:56:28Z</time>
      </trkpt>
      <trkpt lat="45.25196" lon="6.1277">
        <ele>2316</ele>
        <time>2019-05-01T09:56:29Z</time>
      </trkpt>
      <trkpt lat="45.252" lon="6.12766">
        <ele>2317</ele>
        <time>2019-05-01T09:56:30Z</time>
      </trkpt>
      <trkpt lat="45.25203" lon="6.12761">
        <ele>2318.2</ele>
        <time>2019-05-01T09:56:31Z</time>
      </trkpt>
      <trkpt lat="45.25208" lon="6.12757">
        <ele>2319.2</ele>
        <time>2019-05-01T09:56:32Z</time>
      </trkpt>
      <trkpt lat="45.25215" lon="6.12754">
        <ele>2320.4</ele>
        <time>2019-05-01T09:56:33Z</time>
      </trkpt>
      <trkpt lat="45.25221" lon="6.12751">
        <ele>2320</ele>
        <time>2019-05-01T09:56:34Z</time>
      </trkpt>
      <trkpt lat="45.25228" lon="6.12755">
        <ele>2318.3</ele>
        <time>2019-05-01T09:56:35Z</time>
      </trkpt>
      <trkpt lat="45.25232" lon="6.12751">
        <ele>2319.9</ele>
        <time>2019-05-01T09:56:37Z</time>
      </trkpt>
      <trkpt lat="45.25225" lon="6.12754">
        <ele>2318.3</ele>
        <time>2019-05-01T09:56:38Z</time>
      </trkpt>
      <trkpt lat="45.25227" lon="6.12762">
        <ele>2316.7</ele>
        <time>2019-05-01T09:56:56Z</time>
      </trkpt>
      <trkpt lat="45.25227" lon="6.12765">
        <ele>2315.1</ele>
        <time>2019-05-01T09:56:57Z</time>
      </trkpt>
      <trkpt lat="45.25229" lon="6.1277">
        <ele>2313.4</ele>
        <time>2019-05-01T09:56:58Z</time>
      </trkpt>
      <trkpt lat="45.25227" lon="6.12773">
        <ele>2311.7</ele>
        <time>2019-05-01T09:56:59Z</time>
      </trkpt>
      <trkpt lat="45.25224" lon="6.12779">
        <ele>2310</ele>
        <time>2019-05-01T09:57:00Z</time>
      </trkpt>
      <trkpt lat="45.25224" lon="6.12786">
        <ele>2306.3</ele>
        <time>2019-05-01T09:57:01Z</time>
      </trkpt>
      <trkpt lat="45.25222" lon="6.12793">
        <ele>2303.2</ele>
        <time>2019-05-01T09:57:02Z</time>
      </trkpt>
      <trkpt lat="45.2522" lon="6.12798">
        <ele>2301.6</ele>
        <time>2019-05-01T09:57:03Z</time>
      </trkpt>
      <trkpt lat="45.25217" lon="6.12799">
        <ele>2302.5</ele>
        <time>2019-05-01T09:57:04Z</time>
      </trkpt>
      <trkpt lat="45.25215" lon="6.12805">
        <ele>2301.1</ele>
        <time>2019-05-01T09:57:05Z</time>
      </trkpt>
      <trkpt lat="45.25216" lon="6.1281">
        <ele>2299.7</ele>
        <time>2019-05-01T09:57:06Z</time>
      </trkpt>
      <trkpt lat="45.25218" lon="6.12813">
        <ele>2297.9</ele>
        <time>2019-05-01T09:57:07Z</time>
      </trkpt>
      <trkpt lat="45.25217" lon="6.12821">
        <ele>2295.2</ele>
        <time>2019-05-01T09:57:08Z</time>
      </trkpt>
      <trkpt lat="45.25222" lon="6.1284">
        <ele>2289.1</ele>
        <time>2019-05-01T09:57:09Z</time>
      </trkpt>
      <trkpt lat="45.25221" lon="6.12854">
        <ele>2284.5</ele>
        <time>2019-05-01T09:57:10Z</time>
      </trkpt>
      <trkpt lat="45.25226" lon="6.12862">
        <ele>2281.4</ele>
        <time>2019-05-01T09:57:11Z</time>
      </trkpt>
      <trkpt lat="45.25232" lon="6.1287">
        <ele>2277.4</ele>
        <time>2019-05-01T09:57:12Z</time>
      </trkpt>
      <trkpt lat="45.25235" lon="6.12879">
        <ele>2274.3</ele>
        <time>2019-05-01T09:57:13Z</time>
      </trkpt>
      <trkpt lat="45.25239" lon="6.12886">
        <ele>2271.7</ele>
        <time>2019-05-01T09:57:14Z</time>
      </trkpt>
      <trkpt lat="45.25241" lon="6.12894">
        <ele>2269.9</ele>
        <time>2019-05-01T09:57:15Z</time>
      </trkpt>
      <trkpt lat="45.25243" lon="6.12899">
        <ele>2268.3</ele>
        <time>2019-05-01T09:57:16Z</time>
      </trkpt>
      <trkpt lat="45.25244" lon="6.12903">
        <ele>2267.6</ele>
        <time>2019-05-01T09:57:17Z</time>
      </trkpt>
      <trkpt lat="45.25248" lon="6.12905">
        <ele>2265.4</ele>
        <time>2019-05-01T09:57:18Z</time>
      </trkpt>
      <trkpt lat="45.2525" lon="6.12911">
        <ele>2264.9</ele>
        <time>2019-05-01T09:57:19Z</time>
      </trkpt>
      <trkpt lat="45.25252" lon="6.12915">
        <ele>2263.7</ele>
        <time>2019-05-01T09:57:21Z</time>
      </trkpt>
      <trkpt lat="45.25256" lon="6.12918">
        <ele>2262.6</ele>
        <time>2019-05-01T09:57:23Z</time>
      </trkpt>
      <trkpt lat="45.25259" lon="6.1292">
        <ele>2261.7</ele>
        <time>2019-05-01T09:57:24Z</time>
      </trkpt>
      <trkpt lat="45.25264" lon="6.1292">
        <ele>2260.2</ele>
        <time>2019-05-01T09:57:25Z</time>
      </trkpt>
      <trkpt lat="45.25266" lon="6.12915">
        <ele>2259.8</ele>
        <time>2019-05-01T09:57:26Z</time>
      </trkpt>
      <trkpt lat="45.25267" lon="6.12909">
        <ele>2260.3</ele>
        <time>2019-05-01T09:57:27Z</time>
      </trkpt>
      <trkpt lat="45.25264" lon="6.12904">
        <ele>2261.5</ele>
        <time>2019-05-01T09:57:28Z</time>
      </trkpt>
      <trkpt lat="45.25269" lon="6.12903">
        <ele>2260.8</ele>
        <time>2019-05-01T09:57:30Z</time>
      </trkpt>
      <trkpt lat="45.25271" lon="6.12906">
        <ele>2260.1</ele>
        <time>2019-05-01T09:57:31Z</time>
      </trkpt>
      <trkpt lat="45.25276" lon="6.12911">
        <ele>2257.7</ele>
        <time>2019-05-01T09:57:32Z</time>
      </trkpt>
      <trkpt lat="45.25281" lon="6.12916">
        <ele>2255.2</ele>
        <time>2019-05-01T09:57:33Z</time>
      </trkpt>
      <trkpt lat="45.25286" lon="6.12921">
        <ele>2253.8</ele>
        <time>2019-05-01T09:57:34Z</time>
      </trkpt>
      <trkpt lat="45.25287" lon="6.12927">
        <ele>2252.4</ele>
        <time>2019-05-01T09:57:35Z</time>
      </trkpt>
      <trkpt lat="45.25289" lon="6.12932">
        <ele>2252.3</ele>
        <time>2019-05-01T09:57:36Z</time>
      </trkpt>
      <trkpt lat="45.2529" lon="6.12938">
        <ele>2251.6</ele>
        <time>2019-05-01T09:57:37Z</time>
      </trkpt>
      <trkpt lat="45.25293" lon="6.12939">
        <ele>2251.1</ele>
        <time>2019-05-01T09:57:38Z</time>
      </trkpt>
      <trkpt lat="45.25297" lon="6.1294">
        <ele>2250.2</ele>
        <time>2019-05-01T09:57:39Z</time>
      </trkpt>
      <trkpt lat="45.25306" lon="6.12942">
        <ele>2247.4</ele>
        <time>2019-05-01T09:57:40Z</time>
      </trkpt>
      <trkpt lat="45.25313" lon="6.12944">
        <ele>2245.9</ele>
        <time>2019-05-01T09:57:41Z</time>
      </trkpt>
      <trkpt lat="45.25317" lon="6.1295">
        <ele>2245.3</ele>
        <time>2019-05-01T09:57:42Z</time>
      </trkpt>
      <trkpt lat="45.2532" lon="6.12955">
        <ele>2243.9</ele>
        <time>2019-05-01T09:57:43Z</time>
      </trkpt>
      <trkpt lat="45.25324" lon="6.12953">
        <ele>2243</ele>
        <time>2019-05-01T09:57:44Z</time>
      </trkpt>
      <trkpt lat="45.25324" lon="6.12958">
        <ele>2243.5</ele>
        <time>2019-05-01T09:58:00Z</time>
      </trkpt>
      <trkpt lat="45.25332" lon="6.12954">
        <ele>2240.1</ele>
        <time>2019-05-01T09:58:02Z</time>
      </trkpt>
      <trkpt lat="45.25336" lon="6.1295">
        <ele>2238.8</ele>
        <time>2019-05-01T09:58:03Z</time>
      </trkpt>
      <trkpt lat="45.25345" lon="6.12945">
        <ele>2236</ele>
        <time>2019-05-01T09:58:04Z</time>
      </trkpt>
      <trkpt lat="45.25354" lon="6.12945">
        <ele>2233.9</ele>
        <time>2019-05-01T09:58:05Z</time>
      </trkpt>
      <trkpt lat="45.25357" lon="6.12944">
        <ele>2233.3</ele>
        <time>2019-05-01T09:58:07Z</time>
      </trkpt>
      <trkpt lat="45.25362" lon="6.12944">
        <ele>2232.6</ele>
        <time>2019-05-01T09:58:08Z</time>
      </trkpt>
      <trkpt lat="45.25365" lon="6.12946">
        <ele>2231.9</ele>
        <time>2019-05-01T09:58:09Z</time>
      </trkpt>
      <trkpt lat="45.25368" lon="6.12947">
        <ele>2230.7</ele>
        <time>2019-05-01T09:58:10Z</time>
      </trkpt>
      <trkpt lat="45.25371" lon="6.12952">
        <ele>2230.6</ele>
        <time>2019-05-01T09:58:12Z</time>
      </trkpt>
      <trkpt lat="45.25376" lon="6.12954">
        <ele>2229.7</ele>
        <time>2019-05-01T09:58:14Z</time>
      </trkpt>
      <trkpt lat="45.25381" lon="6.12956">
        <ele>2228.5</ele>
        <time>2019-05-01T09:58:16Z</time>
      </trkpt>
      <trkpt lat="45.25384" lon="6.12957">
        <ele>2228</ele>
        <time>2019-05-01T09:58:17Z</time>
      </trkpt>
      <trkpt lat="45.25387" lon="6.12958">
        <ele>2227.4</ele>
        <time>2019-05-01T09:58:19Z</time>
      </trkpt>
      <trkpt lat="45.2539" lon="6.1296">
        <ele>2226.8</ele>
        <time>2019-05-01T09:58:20Z</time>
      </trkpt>
      <trkpt lat="45.25394" lon="6.12962">
        <ele>2226.1</ele>
        <time>2019-05-01T09:58:22Z</time>
      </trkpt>
      <trkpt lat="45.25397" lon="6.12963">
        <ele>2225.7</ele>
        <time>2019-05-01T09:58:24Z</time>
      </trkpt>
      <trkpt lat="45.25401" lon="6.12964">
        <ele>2225.2</ele>
        <time>2019-05-01T09:58:26Z</time>
      </trkpt>
      <trkpt lat="45.25406" lon="6.12966">
        <ele>2224.3</ele>
        <time>2019-05-01T09:58:28Z</time>
      </trkpt>
      <trkpt lat="45.25411" lon="6.12969">
        <ele>2223.4</ele>
        <time>2019-05-01T09:58:30Z</time>
      </trkpt>
      <trkpt lat="45.25414" lon="6.12971">
        <ele>2222.8</ele>
        <time>2019-05-01T09:58:31Z</time>
      </trkpt>
      <trkpt lat="45.25417" lon="6.12974">
        <ele>2222.4</ele>
        <time>2019-05-01T09:58:32Z</time>
      </trkpt>
      <trkpt lat="45.2542" lon="6.12975">
        <ele>2221.8</ele>
        <time>2019-05-01T09:58:33Z</time>
      </trkpt>
      <trkpt lat="45.25423" lon="6.12977">
        <ele>2221.8</ele>
        <time>2019-05-01T09:58:34Z</time>
      </trkpt>
      <trkpt lat="45.25428" lon="6.12979">
        <ele>2221</ele>
        <time>2019-05-01T09:58:36Z</time>
      </trkpt>
      <trkpt lat="45.25431" lon="6.12981">
        <ele>2220.5</ele>
        <time>2019-05-01T09:58:37Z</time>
      </trkpt>
      <trkpt lat="45.25434" lon="6.12983">
        <ele>2220.4</ele>
        <time>2019-05-01T09:58:38Z</time>
      </trkpt>
      <trkpt lat="45.25439" lon="6.12986">
        <ele>2219.3</ele>
        <time>2019-05-01T09:58:39Z</time>
      </trkpt>
      <trkpt lat="45.25446" lon="6.12989">
        <ele>2218.5</ele>
        <time>2019-05-01T09:58:40Z</time>
      </trkpt>
      <trkpt lat="45.25452" lon="6.12992">
        <ele>2217.6</ele>
        <time>2019-05-01T09:58:41Z</time>
      </trkpt>
      <trkpt lat="45.25457" lon="6.12996">
        <ele>2217</ele>
        <time>2019-05-01T09:58:42Z</time>
      </trkpt>
      <trkpt lat="45.25462" lon="6.13003">
        <ele>2218.4</ele>
        <time>2019-05-01T09:58:43Z</time>
      </trkpt>
      <trkpt lat="45.25466" lon="6.13009">
        <ele>2217.9</ele>
        <time>2019-05-01T09:58:44Z</time>
      </trkpt>
      <trkpt lat="45.25471" lon="6.13015">
        <ele>2218.2</ele>
        <time>2019-05-01T09:58:45Z</time>
      </trkpt>
      <trkpt lat="45.25477" lon="6.13019">
        <ele>2217.4</ele>
        <time>2019-05-01T09:58:46Z</time>
      </trkpt>
      <trkpt lat="45.2548" lon="6.13024">
        <ele>2216.9</ele>
        <time>2019-05-01T09:58:47Z</time>
      </trkpt>
      <trkpt lat="45.25484" lon="6.13028">
        <ele>2217.3</ele>
        <time>2019-05-01T09:58:48Z</time>
      </trkpt>
      <trkpt lat="45.25487" lon="6.13031">
        <ele>2217.7</ele>
        <time>2019-05-01T09:58:49Z</time>
      </trkpt>
      <trkpt lat="45.25492" lon="6.13032">
        <ele>2216.9</ele>
        <time>2019-05-01T09:58:50Z</time>
      </trkpt>
      <trkpt lat="45.25495" lon="6.13034">
        <ele>2217.2</ele>
        <time>2019-05-01T09:58:51Z</time>
      </trkpt>
      <trkpt lat="45.25497" lon="6.13036">
        <ele>2216.3</ele>
        <time>2019-05-01T09:58:52Z</time>
      </trkpt>
      <trkpt lat="45.255" lon="6.13036">
        <ele>2215.3</ele>
        <time>2019-05-01T09:58:53Z</time>
      </trkpt>
      <trkpt lat="45.25505" lon="6.13035">
        <ele>2213.5</ele>
        <time>2019-05-01T09:58:55Z</time>
      </trkpt>
      <trkpt lat="45.25508" lon="6.13036">
        <ele>2212.5</ele>
        <time>2019-05-01T09:58:56Z</time>
      </trkpt>
      <trkpt lat="45.25512" lon="6.13036">
        <ele>2211.5</ele>
        <time>2019-05-01T09:58:58Z</time>
      </trkpt>
      <trkpt lat="45.25515" lon="6.13036">
        <ele>2210.6</ele>
        <time>2019-05-01T09:58:59Z</time>
      </trkpt>
      <trkpt lat="45.25518" lon="6.13037">
        <ele>2209.6</ele>
        <time>2019-05-01T09:59:00Z</time>
      </trkpt>
      <trkpt lat="45.25521" lon="6.13038">
        <ele>2210.8</ele>
        <time>2019-05-01T09:59:01Z</time>
      </trkpt>
      <trkpt lat="45.25524" lon="6.13038">
        <ele>2209.8</ele>
        <time>2019-05-01T09:59:02Z</time>
      </trkpt>
      <trkpt lat="45.25527" lon="6.13039">
        <ele>2208.6</ele>
        <time>2019-05-01T09:59:03Z</time>
      </trkpt>
      <trkpt lat="45.25532" lon="6.13041">
        <ele>2206.3</ele>
        <time>2019-05-01T09:59:05Z</time>
      </trkpt>
      <trkpt lat="45.25537" lon="6.13043">
        <ele>2206.7</ele>
        <time>2019-05-01T09:59:07Z</time>
      </trkpt>
      <trkpt lat="45.25541" lon="6.13046">
        <ele>2206.4</ele>
        <time>2019-05-01T09:59:09Z</time>
      </trkpt>
      <trkpt lat="45.25546" lon="6.13048">
        <ele>2205.4</ele>
        <time>2019-05-01T09:59:11Z</time>
      </trkpt>
      <trkpt lat="45.25552" lon="6.1305">
        <ele>2205.2</ele>
        <time>2019-05-01T09:59:13Z</time>
      </trkpt>
      <trkpt lat="45.25555" lon="6.13052">
        <ele>2204.1</ele>
        <time>2019-05-01T09:59:14Z</time>
      </trkpt>
      <trkpt lat="45.25558" lon="6.13053">
        <ele>2203</ele>
        <time>2019-05-01T09:59:15Z</time>
      </trkpt>
      <trkpt lat="45.25561" lon="6.13055">
        <ele>2203.8</ele>
        <time>2019-05-01T09:59:16Z</time>
      </trkpt>
      <trkpt lat="45.25565" lon="6.13058">
        <ele>2201.8</ele>
        <time>2019-05-01T09:59:18Z</time>
      </trkpt>
      <trkpt lat="45.25569" lon="6.1306">
        <ele>2202.7</ele>
        <time>2019-05-01T09:59:20Z</time>
      </trkpt>
      <trkpt lat="45.25573" lon="6.13063">
        <ele>2203.5</ele>
        <time>2019-05-01T09:59:22Z</time>
      </trkpt>
      <trkpt lat="45.25578" lon="6.13066">
        <ele>2201.6</ele>
        <time>2019-05-01T09:59:24Z</time>
      </trkpt>
      <trkpt lat="45.25582" lon="6.13069">
        <ele>2202.3</ele>
        <time>2019-05-01T09:59:26Z</time>
      </trkpt>
      <trkpt lat="45.25585" lon="6.13072">
        <ele>2203.1</ele>
        <time>2019-05-01T09:59:28Z</time>
      </trkpt>
      <trkpt lat="45.25589" lon="6.13074">
        <ele>2201.4</ele>
        <time>2019-05-01T09:59:30Z</time>
      </trkpt>
      <trkpt lat="45.25592" lon="6.13076">
        <ele>2203.1</ele>
        <time>2019-05-01T09:59:32Z</time>
      </trkpt>
      <trkpt lat="45.25595" lon="6.1308">
        <ele>2201.7</ele>
        <time>2019-05-01T09:59:36Z</time>
      </trkpt>
      <trkpt lat="45.25599" lon="6.13083">
        <ele>2202.8</ele>
        <time>2019-05-01T09:59:38Z</time>
      </trkpt>
      <trkpt lat="45.25601" lon="6.13086">
        <ele>2204.1</ele>
        <time>2019-05-01T09:59:40Z</time>
      </trkpt>
      <trkpt lat="45.25604" lon="6.13086">
        <ele>2203.4</ele>
        <time>2019-05-01T09:59:50Z</time>
      </trkpt>
      <trkpt lat="45.25608" lon="6.13087">
        <ele>2202.7</ele>
        <time>2019-05-01T09:59:52Z</time>
      </trkpt>
      <trkpt lat="45.25611" lon="6.13089">
        <ele>2204.1</ele>
        <time>2019-05-01T10:00:02Z</time>
      </trkpt>
      <trkpt lat="45.25616" lon="6.13088">
        <ele>2201.4</ele>
        <time>2019-05-01T10:00:22Z</time>
      </trkpt>
      <trkpt lat="45.25619" lon="6.13089">
        <ele>2202.8</ele>
        <time>2019-05-01T10:00:32Z</time>
      </trkpt>
      <trkpt lat="45.25622" lon="6.13094">
        <ele>2204.3</ele>
        <time>2019-05-01T10:00:36Z</time>
      </trkpt>
      <trkpt lat="45.25625" lon="6.13096">
        <ele>2203.2</ele>
        <time>2019-05-01T10:00:42Z</time>
      </trkpt>
      <trkpt lat="45.25629" lon="6.13097">
        <ele>2202.7</ele>
        <time>2019-05-01T10:00:44Z</time>
      </trkpt>
      <trkpt lat="45.25632" lon="6.13098">
        <ele>2204.4</ele>
        <time>2019-05-01T10:00:46Z</time>
      </trkpt>
      <trkpt lat="45.25636" lon="6.13099">
        <ele>2203.9</ele>
        <time>2019-05-01T10:00:48Z</time>
      </trkpt>
      <trkpt lat="45.25639" lon="6.13101">
        <ele>2203.3</ele>
        <time>2019-05-01T10:00:50Z</time>
      </trkpt>
      <trkpt lat="45.25643" lon="6.13102">
        <ele>2204.9</ele>
        <time>2019-05-01T10:00:52Z</time>
      </trkpt>
      <trkpt lat="45.25645" lon="6.13105">
        <ele>2204.3</ele>
        <time>2019-05-01T10:01:06Z</time>
      </trkpt>
      <trkpt lat="45.25649" lon="6.13104">
        <ele>2203.3</ele>
        <time>2019-05-01T10:01:08Z</time>
      </trkpt>
      <trkpt lat="45.25654" lon="6.13104">
        <ele>2202.9</ele>
        <time>2019-05-01T10:01:10Z</time>
      </trkpt>
      <trkpt lat="45.25658" lon="6.13103">
        <ele>2201.9</ele>
        <time>2019-05-01T10:01:12Z</time>
      </trkpt>
      <trkpt lat="45.25663" lon="6.13102">
        <ele>2201.3</ele>
        <time>2019-05-01T10:01:14Z</time>
      </trkpt>
      <trkpt lat="45.25666" lon="6.13103">
        <ele>2200.8</ele>
        <time>2019-05-01T10:01:16Z</time>
      </trkpt>
      <trkpt lat="45.25668" lon="6.13103">
        <ele>2200.2</ele>
        <time>2019-05-01T10:01:18Z</time>
      </trkpt>
      <trkpt lat="45.25671" lon="6.13103">
        <ele>2199.6</ele>
        <time>2019-05-01T10:01:20Z</time>
      </trkpt>
      <trkpt lat="45.25675" lon="6.13104">
        <ele>2199.1</ele>
        <time>2019-05-01T10:01:22Z</time>
      </trkpt>
      <trkpt lat="45.25678" lon="6.13105">
        <ele>2198.6</ele>
        <time>2019-05-01T10:01:24Z</time>
      </trkpt>
      <trkpt lat="45.25682" lon="6.13106">
        <ele>2198.1</ele>
        <time>2019-05-01T10:01:26Z</time>
      </trkpt>
      <trkpt lat="45.25686" lon="6.13106">
        <ele>2197.1</ele>
        <time>2019-05-01T10:01:28Z</time>
      </trkpt>
      <trkpt lat="45.25687" lon="6.1311">
        <ele>2199.3</ele>
        <time>2019-05-01T10:01:54Z</time>
      </trkpt>
      <trkpt lat="45.25689" lon="6.13104">
        <ele>2196.5</ele>
        <time>2019-05-01T10:02:26Z</time>
      </trkpt>
      <trkpt lat="45.25691" lon="6.13101">
        <ele>2194.3</ele>
        <time>2019-05-01T10:02:28Z</time>
      </trkpt>
      <trkpt lat="45.25686" lon="6.131">
        <ele>2194.9</ele>
        <time>2019-05-01T10:02:42Z</time>
      </trkpt>
      <trkpt lat="45.25688" lon="6.13098">
        <ele>2194.9</ele>
        <time>2019-05-01T10:05:58Z</time>
      </trkpt>
      <trkpt lat="45.25686" lon="6.131">
        <ele>2194.9</ele>
        <time>2019-05-01T10:09:15Z</time>
      </trkpt>
      <trkpt lat="45.25684" lon="6.13105">
        <ele>2197.6</ele>
        <time>2019-05-01T10:12:37Z</time>
      </trkpt>
      <trkpt lat="45.2569" lon="6.13107">
        <ele>2198.7</ele>
        <time>2019-05-01T10:12:43Z</time>
      </trkpt>
      <trkpt lat="45.25694" lon="6.13108">
        <ele>2198.2</ele>
        <time>2019-05-01T10:12:46Z</time>
      </trkpt>
      <trkpt lat="45.25697" lon="6.13108">
        <ele>2197.6</ele>
        <time>2019-05-01T10:12:49Z</time>
      </trkpt>
      <trkpt lat="45.257" lon="6.1311">
        <ele>2197.1</ele>
        <time>2019-05-01T10:12:52Z</time>
      </trkpt>
      <trkpt lat="45.25703" lon="6.13112">
        <ele>2198.8</ele>
        <time>2019-05-01T10:12:55Z</time>
      </trkpt>
      <trkpt lat="45.25706" lon="6.13114">
        <ele>2198.3</ele>
        <time>2019-05-01T10:12:59Z</time>
      </trkpt>
      <trkpt lat="45.2571" lon="6.13116">
        <ele>2199.6</ele>
        <time>2019-05-01T10:13:02Z</time>
      </trkpt>
      <trkpt lat="45.25713" lon="6.13118">
        <ele>2199.6</ele>
        <time>2019-05-01T10:13:05Z</time>
      </trkpt>
      <trkpt lat="45.25715" lon="6.13119">
        <ele>2201.3</ele>
        <time>2019-05-01T10:13:12Z</time>
      </trkpt>
      <trkpt lat="45.25716" lon="6.13123">
        <ele>2203.1</ele>
        <time>2019-05-01T10:17:59Z</time>
      </trkpt>
      <trkpt lat="45.2572" lon="6.13124">
        <ele>2202.7</ele>
        <time>2019-05-01T10:18:03Z</time>
      </trkpt>
      <trkpt lat="45.25723" lon="6.13126">
        <ele>2202.3</ele>
        <time>2019-05-01T10:18:06Z</time>
      </trkpt>
      <trkpt lat="45.25726" lon="6.13129">
        <ele>2204.1</ele>
        <time>2019-05-01T10:18:09Z</time>
      </trkpt>
      <trkpt lat="45.2573" lon="6.13131">
        <ele>2203.7</ele>
        <time>2019-05-01T10:18:12Z</time>
      </trkpt>
      <trkpt lat="45.25732" lon="6.13133">
        <ele>2205.7</ele>
        <time>2019-05-01T10:18:15Z</time>
      </trkpt>
      <trkpt lat="45.25734" lon="6.13135">
        <ele>2205.4</ele>
        <time>2019-05-01T10:18:19Z</time>
      </trkpt>
      <trkpt lat="45.25737" lon="6.13138">
        <ele>2207.9</ele>
        <time>2019-05-01T10:18:23Z</time>
      </trkpt>
      <trkpt lat="45.2574" lon="6.13139">
        <ele>2207.5</ele>
        <time>2019-05-01T10:18:28Z</time>
      </trkpt>
      <trkpt lat="45.25742" lon="6.13142">
        <ele>2209.8</ele>
        <time>2019-05-01T10:18:31Z</time>
      </trkpt>
      <trkpt lat="45.25745" lon="6.13145">
        <ele>2212</ele>
        <time>2019-05-01T10:18:35Z</time>
      </trkpt>
      <trkpt lat="45.25748" lon="6.13146">
        <ele>2211.6</ele>
        <time>2019-05-01T10:18:39Z</time>
      </trkpt>
      <trkpt lat="45.2575" lon="6.13147">
        <ele>2211.1</ele>
        <time>2019-05-01T10:18:44Z</time>
      </trkpt>
      <trkpt lat="45.25753" lon="6.1315">
        <ele>2213.2</ele>
        <time>2019-05-01T10:18:52Z</time>
      </trkpt>
      <trkpt lat="45.25755" lon="6.13151">
        <ele>2212.8</ele>
        <time>2019-05-01T10:18:57Z</time>
      </trkpt>
      <trkpt lat="45.25758" lon="6.13153">
        <ele>2215.2</ele>
        <time>2019-05-01T10:19:03Z</time>
      </trkpt>
      <trkpt lat="45.25761" lon="6.13155">
        <ele>2214.9</ele>
        <time>2019-05-01T10:19:09Z</time>
      </trkpt>
      <trkpt lat="45.25764" lon="6.13158">
        <ele>2216.9</ele>
        <time>2019-05-01T10:19:14Z</time>
      </trkpt>
      <trkpt lat="45.25766" lon="6.13158">
        <ele>2216.6</ele>
        <time>2019-05-01T10:19:18Z</time>
      </trkpt>
      <trkpt lat="45.25769" lon="6.13158">
        <ele>2216.3</ele>
        <time>2019-05-01T10:19:23Z</time>
      </trkpt>
      <trkpt lat="45.25772" lon="6.13159">
        <ele>2215.9</ele>
        <time>2019-05-01T10:19:28Z</time>
      </trkpt>
      <trkpt lat="45.25775" lon="6.13162">
        <ele>2217.8</ele>
        <time>2019-05-01T10:19:34Z</time>
      </trkpt>
      <trkpt lat="45.25777" lon="6.13164">
        <ele>2217.4</ele>
        <time>2019-05-01T10:19:37Z</time>
      </trkpt>
      <trkpt lat="45.2578" lon="6.13166">
        <ele>2217</ele>
        <time>2019-05-01T10:19:41Z</time>
      </trkpt>
      <trkpt lat="45.25783" lon="6.13167">
        <ele>2218.6</ele>
        <time>2019-05-01T10:19:46Z</time>
      </trkpt>
      <trkpt lat="45.25787" lon="6.13169">
        <ele>2218.2</ele>
        <time>2019-05-01T10:19:49Z</time>
      </trkpt>
      <trkpt lat="45.25789" lon="6.13171">
        <ele>2219.8</ele>
        <time>2019-05-01T10:19:52Z</time>
      </trkpt>
      <trkpt lat="45.25791" lon="6.13173">
        <ele>2219.8</ele>
        <time>2019-05-01T10:19:56Z</time>
      </trkpt>
      <trkpt lat="45.25789" lon="6.13177">
        <ele>2221.9</ele>
        <time>2019-05-01T10:20:01Z</time>
      </trkpt>
      <trkpt lat="45.25792" lon="6.1318">
        <ele>2223.6</ele>
        <time>2019-05-01T10:20:22Z</time>
      </trkpt>
      <trkpt lat="45.25794" lon="6.13183">
        <ele>2225.8</ele>
        <time>2019-05-01T10:20:25Z</time>
      </trkpt>
      <trkpt lat="45.25794" lon="6.13188">
        <ele>2227.5</ele>
        <time>2019-05-01T10:20:30Z</time>
      </trkpt>
      <trkpt lat="45.25794" lon="6.13192">
        <ele>2230.3</ele>
        <time>2019-05-01T10:20:36Z</time>
      </trkpt>
      <trkpt lat="45.25796" lon="6.13196">
        <ele>2229.7</ele>
        <time>2019-05-01T10:20:43Z</time>
      </trkpt>
      <trkpt lat="45.25799" lon="6.13199">
        <ele>2231.3</ele>
        <time>2019-05-01T10:20:46Z</time>
      </trkpt>
      <trkpt lat="45.25802" lon="6.13202">
        <ele>2232.6</ele>
        <time>2019-05-01T10:20:49Z</time>
      </trkpt>
      <trkpt lat="45.25805" lon="6.13206">
        <ele>2233.8</ele>
        <time>2019-05-01T10:20:53Z</time>
      </trkpt>
      <trkpt lat="45.25807" lon="6.13209">
        <ele>2234.9</ele>
        <time>2019-05-01T10:21:46Z</time>
      </trkpt>
      <trkpt lat="45.25809" lon="6.13212">
        <ele>2234.9</ele>
        <time>2019-05-01T10:21:50Z</time>
      </trkpt>
      <trkpt lat="45.25812" lon="6.13213">
        <ele>2234</ele>
        <time>2019-05-01T10:21:54Z</time>
      </trkpt>
      <trkpt lat="45.25815" lon="6.13215">
        <ele>2234.9</ele>
        <time>2019-05-01T10:21:57Z</time>
      </trkpt>
      <trkpt lat="45.25817" lon="6.13213">
        <ele>2232.2</ele>
        <time>2019-05-01T10:22:06Z</time>
      </trkpt>
      <trkpt lat="45.2582" lon="6.13216">
        <ele>2233.1</ele>
        <time>2019-05-01T10:22:13Z</time>
      </trkpt>
      <trkpt lat="45.25824" lon="6.13219">
        <ele>2234.1</ele>
        <time>2019-05-01T10:22:16Z</time>
      </trkpt>
      <trkpt lat="45.25824" lon="6.13223">
        <ele>2236.1</ele>
        <time>2019-05-01T10:22:27Z</time>
      </trkpt>
      <trkpt lat="45.25825" lon="6.13227">
        <ele>2237.2</ele>
        <time>2019-05-01T10:22:31Z</time>
      </trkpt>
      <trkpt lat="45.25826" lon="6.13233">
        <ele>2239.1</ele>
        <time>2019-05-01T10:22:36Z</time>
      </trkpt>
      <trkpt lat="45.25828" lon="6.13236">
        <ele>2240</ele>
        <time>2019-05-01T10:22:43Z</time>
      </trkpt>
      <trkpt lat="45.2583" lon="6.1324">
        <ele>2241.8</ele>
        <time>2019-05-01T10:22:51Z</time>
      </trkpt>
      <trkpt lat="45.25831" lon="6.13245">
        <ele>2242.4</ele>
        <time>2019-05-01T10:22:56Z</time>
      </trkpt>
      <trkpt lat="45.2583" lon="6.13249">
        <ele>2245.1</ele>
        <time>2019-05-01T10:23:01Z</time>
      </trkpt>
      <trkpt lat="45.2583" lon="6.13253">
        <ele>2246.7</ele>
        <time>2019-05-01T10:23:04Z</time>
      </trkpt>
      <trkpt lat="45.25833" lon="6.13256">
        <ele>2245.6</ele>
        <time>2019-05-01T10:23:15Z</time>
      </trkpt>
      <trkpt lat="45.25836" lon="6.13257">
        <ele>2246.1</ele>
        <time>2019-05-01T10:23:18Z</time>
      </trkpt>
      <trkpt lat="45.25839" lon="6.13259">
        <ele>2245</ele>
        <time>2019-05-01T10:23:23Z</time>
      </trkpt>
      <trkpt lat="45.2584" lon="6.13263">
        <ele>2245.6</ele>
        <time>2019-05-01T10:23:28Z</time>
      </trkpt>
      <trkpt lat="45.25843" lon="6.13266">
        <ele>2246.4</ele>
        <time>2019-05-01T10:23:32Z</time>
      </trkpt>
      <trkpt lat="45.25845" lon="6.1327">
        <ele>2248.1</ele>
        <time>2019-05-01T10:23:39Z</time>
      </trkpt>
      <trkpt lat="45.25848" lon="6.13272">
        <ele>2247.4</ele>
        <time>2019-05-01T10:23:44Z</time>
      </trkpt>
      <trkpt lat="45.25851" lon="6.13274">
        <ele>2248.5</ele>
        <time>2019-05-01T10:23:51Z</time>
      </trkpt>
      <trkpt lat="45.25852" lon="6.13278">
        <ele>2249.7</ele>
        <time>2019-05-01T10:24:25Z</time>
      </trkpt>
      <trkpt lat="45.25855" lon="6.13281">
        <ele>2249.1</ele>
        <time>2019-05-01T10:25:05Z</time>
      </trkpt>
      <trkpt lat="45.25857" lon="6.13284">
        <ele>2250.9</ele>
        <time>2019-05-01T10:25:12Z</time>
      </trkpt>
      <trkpt lat="45.25858" lon="6.13288">
        <ele>2252</ele>
        <time>2019-05-01T10:25:17Z</time>
      </trkpt>
      <trkpt lat="45.2586" lon="6.13292">
        <ele>2253.6</ele>
        <time>2019-05-01T10:25:22Z</time>
      </trkpt>
      <trkpt lat="45.25862" lon="6.13295">
        <ele>2254.7</ele>
        <time>2019-05-01T10:25:28Z</time>
      </trkpt>
      <trkpt lat="45.25863" lon="6.13298">
        <ele>2254.7</ele>
        <time>2019-05-01T10:25:33Z</time>
      </trkpt>
      <trkpt lat="45.25865" lon="6.13301">
        <ele>2255.8</ele>
        <time>2019-05-01T10:25:37Z</time>
      </trkpt>
      <trkpt lat="45.25867" lon="6.13304">
        <ele>2257.1</ele>
        <time>2019-05-01T10:25:42Z</time>
      </trkpt>
      <trkpt lat="45.2587" lon="6.13306">
        <ele>2256.9</ele>
        <time>2019-05-01T10:25:46Z</time>
      </trkpt>
      <trkpt lat="45.25873" lon="6.13308">
        <ele>2258.4</ele>
        <time>2019-05-01T10:25:51Z</time>
      </trkpt>
      <trkpt lat="45.25875" lon="6.1331">
        <ele>2258.4</ele>
        <time>2019-05-01T10:25:55Z</time>
      </trkpt>
      <trkpt lat="45.25878" lon="6.13313">
        <ele>2259.9</ele>
        <time>2019-05-01T10:25:59Z</time>
      </trkpt>
      <trkpt lat="45.25879" lon="6.13317">
        <ele>2261.6</ele>
        <time>2019-05-01T10:26:05Z</time>
      </trkpt>
      <trkpt lat="45.25882" lon="6.13318">
        <ele>2261.6</ele>
        <time>2019-05-01T10:26:12Z</time>
      </trkpt>
      <trkpt lat="45.25884" lon="6.13321">
        <ele>2263.3</ele>
        <time>2019-05-01T10:26:15Z</time>
      </trkpt>
      <trkpt lat="45.25887" lon="6.13322">
        <ele>2263.5</ele>
        <time>2019-05-01T10:26:23Z</time>
      </trkpt>
      <trkpt lat="45.25886" lon="6.13325">
        <ele>2265.2</ele>
        <time>2019-05-01T10:26:30Z</time>
      </trkpt>
      <trkpt lat="45.25883" lon="6.13326">
        <ele>2265</ele>
        <time>2019-05-01T10:26:34Z</time>
      </trkpt>
      <trkpt lat="45.2588" lon="6.13328">
        <ele>2264.9</ele>
        <time>2019-05-01T10:26:40Z</time>
      </trkpt>
      <trkpt lat="45.25877" lon="6.13328">
        <ele>2264.8</ele>
        <time>2019-05-01T10:26:44Z</time>
      </trkpt>
      <trkpt lat="45.25874" lon="6.1333">
        <ele>2266.3</ele>
        <time>2019-05-01T10:26:50Z</time>
      </trkpt>
      <trkpt lat="45.25872" lon="6.13331">
        <ele>2266.3</ele>
        <time>2019-05-01T10:26:54Z</time>
      </trkpt>
      <trkpt lat="45.25869" lon="6.13332">
        <ele>2266.3</ele>
        <time>2019-05-01T10:26:59Z</time>
      </trkpt>
      <trkpt lat="45.25866" lon="6.13334">
        <ele>2267.9</ele>
        <time>2019-05-01T10:27:06Z</time>
      </trkpt>
      <trkpt lat="45.25863" lon="6.13336">
        <ele>2268.1</ele>
        <time>2019-05-01T10:27:12Z</time>
      </trkpt>
      <trkpt lat="45.25861" lon="6.13337">
        <ele>2268.4</ele>
        <time>2019-05-01T10:27:17Z</time>
      </trkpt>
      <trkpt lat="45.25858" lon="6.13339">
        <ele>2270</ele>
        <time>2019-05-01T10:27:23Z</time>
      </trkpt>
      <trkpt lat="45.25855" lon="6.13341">
        <ele>2270</ele>
        <time>2019-05-01T10:27:29Z</time>
      </trkpt>
      <trkpt lat="45.25853" lon="6.13343">
        <ele>2271.6</ele>
        <time>2019-05-01T10:27:34Z</time>
      </trkpt>
      <trkpt lat="45.2585" lon="6.13344">
        <ele>2271.9</ele>
        <time>2019-05-01T10:27:40Z</time>
      </trkpt>
      <trkpt lat="45.25846" lon="6.13344">
        <ele>2272.3</ele>
        <time>2019-05-01T10:27:45Z</time>
      </trkpt>
      <trkpt lat="45.25844" lon="6.13346">
        <ele>2272.7</ele>
        <time>2019-05-01T10:27:50Z</time>
      </trkpt>
      <trkpt lat="45.2584" lon="6.13346">
        <ele>2274.3</ele>
        <time>2019-05-01T10:27:55Z</time>
      </trkpt>
      <trkpt lat="45.25838" lon="6.13349">
        <ele>2274.9</ele>
        <time>2019-05-01T10:28:02Z</time>
      </trkpt>
      <trkpt lat="45.25835" lon="6.13349">
        <ele>2275.6</ele>
        <time>2019-05-01T10:28:06Z</time>
      </trkpt>
      <trkpt lat="45.25832" lon="6.1335">
        <ele>2277.5</ele>
        <time>2019-05-01T10:28:15Z</time>
      </trkpt>
      <trkpt lat="45.25834" lon="6.13353">
        <ele>2276.7</ele>
        <time>2019-05-01T10:28:21Z</time>
      </trkpt>
      <trkpt lat="45.25835" lon="6.13357">
        <ele>2277.9</ele>
        <time>2019-05-01T10:28:25Z</time>
      </trkpt>
      <trkpt lat="45.25836" lon="6.13361">
        <ele>2279.2</ele>
        <time>2019-05-01T10:28:28Z</time>
      </trkpt>
      <trkpt lat="45.25839" lon="6.13361">
        <ele>2278.5</ele>
        <time>2019-05-01T10:28:36Z</time>
      </trkpt>
      <trkpt lat="45.25841" lon="6.13365">
        <ele>2279.3</ele>
        <time>2019-05-01T10:28:40Z</time>
      </trkpt>
      <trkpt lat="45.25842" lon="6.1337">
        <ele>2280.6</ele>
        <time>2019-05-01T10:28:45Z</time>
      </trkpt>
      <trkpt lat="45.25841" lon="6.13374">
        <ele>2281.9</ele>
        <time>2019-05-01T10:28:49Z</time>
      </trkpt>
      <trkpt lat="45.25843" lon="6.13377">
        <ele>2282.7</ele>
        <time>2019-05-01T10:29:02Z</time>
      </trkpt>
      <trkpt lat="45.25844" lon="6.13381">
        <ele>2284</ele>
        <time>2019-05-01T10:29:10Z</time>
      </trkpt>
      <trkpt lat="45.25844" lon="6.13385">
        <ele>2285.2</ele>
        <time>2019-05-01T10:29:14Z</time>
      </trkpt>
      <trkpt lat="45.25846" lon="6.13389">
        <ele>2284.9</ele>
        <time>2019-05-01T10:29:20Z</time>
      </trkpt>
      <trkpt lat="45.25847" lon="6.13392">
        <ele>2286.1</ele>
        <time>2019-05-01T10:29:27Z</time>
      </trkpt>
      <trkpt lat="45.25844" lon="6.13394">
        <ele>2287.6</ele>
        <time>2019-05-01T10:29:30Z</time>
      </trkpt>
      <trkpt lat="45.25842" lon="6.13395">
        <ele>2287.9</ele>
        <time>2019-05-01T10:29:33Z</time>
      </trkpt>
      <trkpt lat="45.25839" lon="6.13397">
        <ele>2288.4</ele>
        <time>2019-05-01T10:29:37Z</time>
      </trkpt>
      <trkpt lat="45.25836" lon="6.13398">
        <ele>2290.2</ele>
        <time>2019-05-01T10:29:41Z</time>
      </trkpt>
      <trkpt lat="45.25833" lon="6.13399">
        <ele>2290.8</ele>
        <time>2019-05-01T10:29:45Z</time>
      </trkpt>
      <trkpt lat="45.2583" lon="6.13401">
        <ele>2291.5</ele>
        <time>2019-05-01T10:29:51Z</time>
      </trkpt>
      <trkpt lat="45.25827" lon="6.13402">
        <ele>2293.5</ele>
        <time>2019-05-01T10:29:55Z</time>
      </trkpt>
      <trkpt lat="45.25824" lon="6.13402">
        <ele>2294.3</ele>
        <time>2019-05-01T10:29:59Z</time>
      </trkpt>
      <trkpt lat="45.25822" lon="6.13403">
        <ele>2294.3</ele>
        <time>2019-05-01T10:30:03Z</time>
      </trkpt>
      <trkpt lat="45.2582" lon="6.13406">
        <ele>2295.2</ele>
        <time>2019-05-01T10:30:11Z</time>
      </trkpt>
      <trkpt lat="45.25817" lon="6.13408">
        <ele>2297.5</ele>
        <time>2019-05-01T10:30:17Z</time>
      </trkpt>
      <trkpt lat="45.25814" lon="6.13409">
        <ele>2298.7</ele>
        <time>2019-05-01T10:30:23Z</time>
      </trkpt>
      <trkpt lat="45.25811" lon="6.13409">
        <ele>2300</ele>
        <time>2019-05-01T10:30:26Z</time>
      </trkpt>
      <trkpt lat="45.25808" lon="6.13409">
        <ele>2301.4</ele>
        <time>2019-05-01T10:30:29Z</time>
      </trkpt>
      <trkpt lat="45.25805" lon="6.13411">
        <ele>2304.1</ele>
        <time>2019-05-01T10:30:34Z</time>
      </trkpt>
      <trkpt lat="45.25803" lon="6.13412">
        <ele>2305.5</ele>
        <time>2019-05-01T10:30:38Z</time>
      </trkpt>
      <trkpt lat="45.25799" lon="6.13412">
        <ele>2307</ele>
        <time>2019-05-01T10:30:42Z</time>
      </trkpt>
      <trkpt lat="45.25796" lon="6.13413">
        <ele>2308.6</ele>
        <time>2019-05-01T10:30:47Z</time>
      </trkpt>
      <trkpt lat="45.25793" lon="6.13414">
        <ele>2310.1</ele>
        <time>2019-05-01T10:30:51Z</time>
      </trkpt>
      <trkpt lat="45.2579" lon="6.13415">
        <ele>2311.7</ele>
        <time>2019-05-01T10:30:57Z</time>
      </trkpt>
      <trkpt lat="45.25787" lon="6.13416">
        <ele>2314.4</ele>
        <time>2019-05-01T10:31:03Z</time>
      </trkpt>
      <trkpt lat="45.25784" lon="6.13416">
        <ele>2316</ele>
        <time>2019-05-01T10:31:11Z</time>
      </trkpt>
      <trkpt lat="45.25781" lon="6.13417">
        <ele>2317.7</ele>
        <time>2019-05-01T10:31:16Z</time>
      </trkpt>
      <trkpt lat="45.25778" lon="6.13418">
        <ele>2319.4</ele>
        <time>2019-05-01T10:31:21Z</time>
      </trkpt>
      <trkpt lat="45.25777" lon="6.13422">
        <ele>2320.4</ele>
        <time>2019-05-01T10:31:26Z</time>
      </trkpt>
      <trkpt lat="45.25775" lon="6.13426">
        <ele>2323.1</ele>
        <time>2019-05-01T10:31:31Z</time>
      </trkpt>
      <trkpt lat="45.25776" lon="6.1343">
        <ele>2322.2</ele>
        <time>2019-05-01T10:31:33Z</time>
      </trkpt>
      <trkpt lat="45.25777" lon="6.13434">
        <ele>2323</ele>
        <time>2019-05-01T10:31:35Z</time>
      </trkpt>
      <trkpt lat="45.25779" lon="6.13438">
        <ele>2323.9</ele>
        <time>2019-05-01T10:31:39Z</time>
      </trkpt>
      <trkpt lat="45.25782" lon="6.1344">
        <ele>2322.2</ele>
        <time>2019-05-01T10:31:43Z</time>
      </trkpt>
      <trkpt lat="45.25785" lon="6.13444">
        <ele>2321.4</ele>
        <time>2019-05-01T10:31:46Z</time>
      </trkpt>
      <trkpt lat="45.25787" lon="6.13447">
        <ele>2320.9</ele>
        <time>2019-05-01T10:31:48Z</time>
      </trkpt>
      <trkpt lat="45.25788" lon="6.13452">
        <ele>2320.5</ele>
        <time>2019-05-01T10:31:51Z</time>
      </trkpt>
      <trkpt lat="45.25789" lon="6.13456">
        <ele>2321.6</ele>
        <time>2019-05-01T10:31:54Z</time>
      </trkpt>
      <trkpt lat="45.2579" lon="6.1346">
        <ele>2322.7</ele>
        <time>2019-05-01T10:31:58Z</time>
      </trkpt>
      <trkpt lat="45.25792" lon="6.13462">
        <ele>2322.6</ele>
        <time>2019-05-01T10:32:04Z</time>
      </trkpt>
      <trkpt lat="45.25794" lon="6.13466">
        <ele>2322.6</ele>
        <time>2019-05-01T10:32:08Z</time>
      </trkpt>
      <trkpt lat="45.25795" lon="6.1347">
        <ele>2322.7</ele>
        <time>2019-05-01T10:32:14Z</time>
      </trkpt>
      <trkpt lat="45.25796" lon="6.13474">
        <ele>2324</ele>
        <time>2019-05-01T10:32:17Z</time>
      </trkpt>
      <trkpt lat="45.25797" lon="6.13477">
        <ele>2325.4</ele>
        <time>2019-05-01T10:32:22Z</time>
      </trkpt>
      <trkpt lat="45.258" lon="6.13479">
        <ele>2325.8</ele>
        <time>2019-05-01T10:32:27Z</time>
      </trkpt>
      <trkpt lat="45.25802" lon="6.13482">
        <ele>2324.8</ele>
        <time>2019-05-01T10:32:36Z</time>
      </trkpt>
      <trkpt lat="45.25804" lon="6.13485">
        <ele>2325.6</ele>
        <time>2019-05-01T10:32:40Z</time>
      </trkpt>
      <trkpt lat="45.25804" lon="6.13489">
        <ele>2327.3</ele>
        <time>2019-05-01T10:32:46Z</time>
      </trkpt>
      <trkpt lat="45.25804" lon="6.13495">
        <ele>2329.2</ele>
        <time>2019-05-01T10:33:13Z</time>
      </trkpt>
      <trkpt lat="45.25807" lon="6.13498">
        <ele>2330.6</ele>
        <time>2019-05-01T10:33:17Z</time>
      </trkpt>
      <trkpt lat="45.25809" lon="6.135">
        <ele>2330.6</ele>
        <time>2019-05-01T10:33:21Z</time>
      </trkpt>
      <trkpt lat="45.25812" lon="6.135">
        <ele>2330.1</ele>
        <time>2019-05-01T10:33:25Z</time>
      </trkpt>
      <trkpt lat="45.25809" lon="6.13502">
        <ele>2332.8</ele>
        <time>2019-05-01T10:34:03Z</time>
      </trkpt>
      <trkpt lat="45.25806" lon="6.13508">
        <ele>2335.4</ele>
        <time>2019-05-01T10:34:12Z</time>
      </trkpt>
      <trkpt lat="45.25802" lon="6.1351">
        <ele>2337.9</ele>
        <time>2019-05-01T10:34:17Z</time>
      </trkpt>
      <trkpt lat="45.25799" lon="6.13512">
        <ele>2338.3</ele>
        <time>2019-05-01T10:34:21Z</time>
      </trkpt>
      <trkpt lat="45.25797" lon="6.13513">
        <ele>2338.8</ele>
        <time>2019-05-01T10:34:24Z</time>
      </trkpt>
      <trkpt lat="45.25794" lon="6.13515">
        <ele>2340.9</ele>
        <time>2019-05-01T10:34:27Z</time>
      </trkpt>
      <trkpt lat="45.25791" lon="6.13516">
        <ele>2340.9</ele>
        <time>2019-05-01T10:34:30Z</time>
      </trkpt>
      <trkpt lat="45.25791" lon="6.1352">
        <ele>2342.9</ele>
        <time>2019-05-01T10:34:37Z</time>
      </trkpt>
      <trkpt lat="45.25788" lon="6.13522">
        <ele>2342.9</ele>
        <time>2019-05-01T10:34:45Z</time>
      </trkpt>
      <trkpt lat="45.25789" lon="6.13526">
        <ele>2344.4</ele>
        <time>2019-05-01T10:34:50Z</time>
      </trkpt>
      <trkpt lat="45.25792" lon="6.13528">
        <ele>2345.6</ele>
        <time>2019-05-01T10:34:55Z</time>
      </trkpt>
      <trkpt lat="45.25794" lon="6.13532">
        <ele>2346.9</ele>
        <time>2019-05-01T10:35:29Z</time>
      </trkpt>
      <trkpt lat="45.25798" lon="6.13535">
        <ele>2348.5</ele>
        <time>2019-05-01T10:35:31Z</time>
      </trkpt>
      <trkpt lat="45.258" lon="6.13539">
        <ele>2348.4</ele>
        <time>2019-05-01T10:35:33Z</time>
      </trkpt>
      <trkpt lat="45.25798" lon="6.13542">
        <ele>2350.3</ele>
        <time>2019-05-01T10:35:37Z</time>
      </trkpt>
      <trkpt lat="45.25795" lon="6.13543">
        <ele>2350.4</ele>
        <time>2019-05-01T10:35:40Z</time>
      </trkpt>
      <trkpt lat="45.25791" lon="6.13543">
        <ele>2350.7</ele>
        <time>2019-05-01T10:35:43Z</time>
      </trkpt>
      <trkpt lat="45.25788" lon="6.13544">
        <ele>2352.7</ele>
        <time>2019-05-01T10:35:48Z</time>
      </trkpt>
      <trkpt lat="45.25786" lon="6.13547">
        <ele>2352.7</ele>
        <time>2019-05-01T10:35:55Z</time>
      </trkpt>
      <trkpt lat="45.25784" lon="6.13549">
        <ele>2354.9</ele>
        <time>2019-05-01T10:36:00Z</time>
      </trkpt>
      <trkpt lat="45.25781" lon="6.13551">
        <ele>2355.3</ele>
        <time>2019-05-01T10:36:05Z</time>
      </trkpt>
      <trkpt lat="45.2578" lon="6.13555">
        <ele>2357.2</ele>
        <time>2019-05-01T10:36:11Z</time>
      </trkpt>
      <trkpt lat="45.25782" lon="6.1356">
        <ele>2359</ele>
        <time>2019-05-01T10:39:20Z</time>
      </trkpt>
      <trkpt lat="45.25787" lon="6.13566">
        <ele>2362.2</ele>
        <time>2019-05-01T10:39:26Z</time>
      </trkpt>
      <trkpt lat="45.2579" lon="6.13568">
        <ele>2362.1</ele>
        <time>2019-05-01T10:44:45Z</time>
      </trkpt>
      <trkpt lat="45.25792" lon="6.13571">
        <ele>2364.1</ele>
        <time>2019-05-01T10:44:48Z</time>
      </trkpt>
      <trkpt lat="45.25792" lon="6.13576">
        <ele>2366.3</ele>
        <time>2019-05-01T10:44:53Z</time>
      </trkpt>
      <trkpt lat="45.25791" lon="6.13579">
        <ele>2368.6</ele>
        <time>2019-05-01T10:45:02Z</time>
      </trkpt>
      <trkpt lat="45.25792" lon="6.13583">
        <ele>2371.3</ele>
        <time>2019-05-01T10:45:06Z</time>
      </trkpt>
      <trkpt lat="45.2579" lon="6.13585">
        <ele>2371.2</ele>
        <time>2019-05-01T10:45:14Z</time>
      </trkpt>
      <trkpt lat="45.25787" lon="6.13587">
        <ele>2373.8</ele>
        <time>2019-05-01T10:45:20Z</time>
      </trkpt>
      <trkpt lat="45.25784" lon="6.13587">
        <ele>2373.8</ele>
        <time>2019-05-01T10:45:24Z</time>
      </trkpt>
      <trkpt lat="45.25781" lon="6.13587">
        <ele>2373.9</ele>
        <time>2019-05-01T10:45:27Z</time>
      </trkpt>
      <trkpt lat="45.25779" lon="6.13589">
        <ele>2374.1</ele>
        <time>2019-05-01T10:45:32Z</time>
      </trkpt>
      <trkpt lat="45.25776" lon="6.1359">
        <ele>2374.4</ele>
        <time>2019-05-01T10:45:38Z</time>
      </trkpt>
      <trkpt lat="45.25772" lon="6.13591">
        <ele>2374.8</ele>
        <time>2019-05-01T10:45:43Z</time>
      </trkpt>
      <trkpt lat="45.25768" lon="6.13591">
        <ele>2375.1</ele>
        <time>2019-05-01T10:45:46Z</time>
      </trkpt>
      <trkpt lat="45.25766" lon="6.13592">
        <ele>2377.8</ele>
        <time>2019-05-01T10:45:50Z</time>
      </trkpt>
      <trkpt lat="45.25763" lon="6.13593">
        <ele>2378.2</ele>
        <time>2019-05-01T10:45:54Z</time>
      </trkpt>
      <trkpt lat="45.25766" lon="6.13595">
        <ele>2377.8</ele>
        <time>2019-05-01T10:47:04Z</time>
      </trkpt>
      <trkpt lat="45.2577" lon="6.13597">
        <ele>2379.8</ele>
        <time>2019-05-01T10:47:06Z</time>
      </trkpt>
      <trkpt lat="45.25773" lon="6.136">
        <ele>2381.7</ele>
        <time>2019-05-01T10:47:08Z</time>
      </trkpt>
      <trkpt lat="45.25776" lon="6.13601">
        <ele>2381.6</ele>
        <time>2019-05-01T10:47:11Z</time>
      </trkpt>
      <trkpt lat="45.25779" lon="6.13602">
        <ele>2381.6</ele>
        <time>2019-05-01T10:47:13Z</time>
      </trkpt>
      <trkpt lat="45.25783" lon="6.13604">
        <ele>2384.2</ele>
        <time>2019-05-01T10:47:15Z</time>
      </trkpt>
      <trkpt lat="45.25787" lon="6.13607">
        <ele>2384.4</ele>
        <time>2019-05-01T10:47:17Z</time>
      </trkpt>
      <trkpt lat="45.2579" lon="6.13608">
        <ele>2387.2</ele>
        <time>2019-05-01T10:47:19Z</time>
      </trkpt>
      <trkpt lat="45.25793" lon="6.13611">
        <ele>2387.5</ele>
        <time>2019-05-01T10:47:23Z</time>
      </trkpt>
      <trkpt lat="45.25772" lon="6.13587">
        <ele>2374.8</ele>
        <time>2019-05-01T10:47:26Z</time>
      </trkpt>
      <trkpt lat="45.25774" lon="6.13591">
        <ele>2374.4</ele>
        <time>2019-05-01T10:47:28Z</time>
      </trkpt>
      <trkpt lat="45.25772" lon="6.13594">
        <ele>2377.2</ele>
        <time>2019-05-01T10:47:32Z</time>
      </trkpt>
      <trkpt lat="45.25772" lon="6.13599">
        <ele>2379.6</ele>
        <time>2019-05-01T10:47:36Z</time>
      </trkpt>
      <trkpt lat="45.25771" lon="6.13603">
        <ele>2381.9</ele>
        <time>2019-05-01T10:47:41Z</time>
      </trkpt>
      <trkpt lat="45.25769" lon="6.13605">
        <ele>2384.3</ele>
        <time>2019-05-01T10:47:47Z</time>
      </trkpt>
      <trkpt lat="45.25766" lon="6.13607">
        <ele>2384.5</ele>
        <time>2019-05-01T10:47:52Z</time>
      </trkpt>
      <trkpt lat="45.25763" lon="6.13609">
        <ele>2386.8</ele>
        <time>2019-05-01T10:47:56Z</time>
      </trkpt>
      <trkpt lat="45.25764" lon="6.13614">
        <ele>2389</ele>
        <time>2019-05-01T10:48:04Z</time>
      </trkpt>
      <trkpt lat="45.25768" lon="6.13616">
        <ele>2388.8</ele>
        <time>2019-05-01T10:48:06Z</time>
      </trkpt>
      <trkpt lat="45.25771" lon="6.13619">
        <ele>2391.2</ele>
        <time>2019-05-01T10:48:08Z</time>
      </trkpt>
      <trkpt lat="45.25775" lon="6.13621">
        <ele>2393.7</ele>
        <time>2019-05-01T10:48:10Z</time>
      </trkpt>
      <trkpt lat="45.25777" lon="6.13622">
        <ele>2393.8</ele>
        <time>2019-05-01T10:48:13Z</time>
      </trkpt>
      <trkpt lat="45.2578" lon="6.13621">
        <ele>2394</ele>
        <time>2019-05-01T10:48:18Z</time>
      </trkpt>
      <trkpt lat="45.25783" lon="6.13625">
        <ele>2394.3</ele>
        <time>2019-05-01T10:48:20Z</time>
      </trkpt>
      <trkpt lat="45.25786" lon="6.13629">
        <ele>2397.2</ele>
        <time>2019-05-01T10:48:22Z</time>
      </trkpt>
      <trkpt lat="45.25788" lon="6.13633">
        <ele>2400</ele>
        <time>2019-05-01T10:48:23Z</time>
      </trkpt>
      <trkpt lat="45.2579" lon="6.13635">
        <ele>2403.3</ele>
        <time>2019-05-01T10:48:24Z</time>
      </trkpt>
      <trkpt lat="45.25792" lon="6.13638">
        <ele>2403.6</ele>
        <time>2019-05-01T10:48:25Z</time>
      </trkpt>
      <trkpt lat="45.25794" lon="6.13641">
        <ele>2406.5</ele>
        <time>2019-05-01T10:48:27Z</time>
      </trkpt>
      <trkpt lat="45.25791" lon="6.13639">
        <ele>2406.5</ele>
        <time>2019-05-01T10:48:31Z</time>
      </trkpt>
      <trkpt lat="45.25789" lon="6.13636">
        <ele>2403.3</ele>
        <time>2019-05-01T10:48:33Z</time>
      </trkpt>
      <trkpt lat="45.25787" lon="6.13634">
        <ele>2403</ele>
        <time>2019-05-01T10:48:35Z</time>
      </trkpt>
      <trkpt lat="45.25785" lon="6.13631">
        <ele>2399.8</ele>
        <time>2019-05-01T10:48:37Z</time>
      </trkpt>
      <trkpt lat="45.25781" lon="6.13629">
        <ele>2396.7</ele>
        <time>2019-05-01T10:48:39Z</time>
      </trkpt>
      <trkpt lat="45.25778" lon="6.13627">
        <ele>2396.5</ele>
        <time>2019-05-01T10:48:41Z</time>
      </trkpt>
      <trkpt lat="45.25774" lon="6.13622">
        <ele>2393.7</ele>
        <time>2019-05-01T10:48:45Z</time>
      </trkpt>
      <trkpt lat="45.2577" lon="6.13621">
        <ele>2391.2</ele>
        <time>2019-05-01T10:49:58Z</time>
      </trkpt>
      <trkpt lat="45.25767" lon="6.13623">
        <ele>2393.7</ele>
        <time>2019-05-01T10:50:03Z</time>
      </trkpt>
      <trkpt lat="45.25765" lon="6.13625">
        <ele>2393.7</ele>
        <time>2019-05-01T10:50:08Z</time>
      </trkpt>
      <trkpt lat="45.25761" lon="6.13626">
        <ele>2396.4</ele>
        <time>2019-05-01T10:50:13Z</time>
      </trkpt>
      <trkpt lat="45.25764" lon="6.13628">
        <ele>2396.3</ele>
        <time>2019-05-01T10:50:25Z</time>
      </trkpt>
      <trkpt lat="45.25769" lon="6.13632">
        <ele>2399.2</ele>
        <time>2019-05-01T10:50:27Z</time>
      </trkpt>
      <trkpt lat="45.25772" lon="6.13634">
        <ele>2402.3</ele>
        <time>2019-05-01T10:50:28Z</time>
      </trkpt>
      <trkpt lat="45.25775" lon="6.13636">
        <ele>2402.3</ele>
        <time>2019-05-01T10:50:30Z</time>
      </trkpt>
      <trkpt lat="45.25777" lon="6.13638">
        <ele>2402.4</ele>
        <time>2019-05-01T10:50:32Z</time>
      </trkpt>
      <trkpt lat="45.2578" lon="6.1364">
        <ele>2405.6</ele>
        <time>2019-05-01T10:50:34Z</time>
      </trkpt>
      <trkpt lat="45.25784" lon="6.13642">
        <ele>2405.7</ele>
        <time>2019-05-01T10:50:35Z</time>
      </trkpt>
      <trkpt lat="45.25789" lon="6.13646">
        <ele>2409.1</ele>
        <time>2019-05-01T10:50:36Z</time>
      </trkpt>
      <trkpt lat="45.25793" lon="6.1365">
        <ele>2412.1</ele>
        <time>2019-05-01T10:50:37Z</time>
      </trkpt>
      <trkpt lat="45.25798" lon="6.13655">
        <ele>2415.3</ele>
        <time>2019-05-01T10:50:38Z</time>
      </trkpt>
      <trkpt lat="45.258" lon="6.13658">
        <ele>2418.3</ele>
        <time>2019-05-01T10:50:39Z</time>
      </trkpt>
      <trkpt lat="45.25795" lon="6.13653">
        <ele>2415</ele>
        <time>2019-05-01T10:50:42Z</time>
      </trkpt>
      <trkpt lat="45.2578" lon="6.13632">
        <ele>2399.5</ele>
        <time>2019-05-01T10:50:44Z</time>
      </trkpt>
      <trkpt lat="45.258" lon="6.13656">
        <ele>2417.9</ele>
        <time>2019-05-01T10:50:48Z</time>
      </trkpt>
      <trkpt lat="45.25799" lon="6.13653">
        <ele>2415.3</ele>
        <time>2019-05-01T10:50:58Z</time>
      </trkpt>
      <trkpt lat="45.25796" lon="6.13648">
        <ele>2412.4</ele>
        <time>2019-05-01T10:51:07Z</time>
      </trkpt>
      <trkpt lat="45.25793" lon="6.13645">
        <ele>2409.4</ele>
        <time>2019-05-01T10:51:11Z</time>
      </trkpt>
      <trkpt lat="45.25789" lon="6.13644">
        <ele>2409.1</ele>
        <time>2019-05-01T10:51:13Z</time>
      </trkpt>
      <trkpt lat="45.25786" lon="6.13643">
        <ele>2408.9</ele>
        <time>2019-05-01T10:51:15Z</time>
      </trkpt>
      <trkpt lat="45.25782" lon="6.13642">
        <ele>2405.7</ele>
        <time>2019-05-01T10:51:17Z</time>
      </trkpt>
      <trkpt lat="45.25779" lon="6.13641">
        <ele>2405.6</ele>
        <time>2019-05-01T10:51:19Z</time>
      </trkpt>
      <trkpt lat="45.25776" lon="6.13641">
        <ele>2405.5</ele>
        <time>2019-05-01T10:51:22Z</time>
      </trkpt>
      <trkpt lat="45.25773" lon="6.13641">
        <ele>2405.5</ele>
        <time>2019-05-01T10:51:26Z</time>
      </trkpt>
      <trkpt lat="45.25771" lon="6.13643">
        <ele>2408.6</ele>
        <time>2019-05-01T10:51:30Z</time>
      </trkpt>
      <trkpt lat="45.25768" lon="6.13645">
        <ele>2408.7</ele>
        <time>2019-05-01T10:51:35Z</time>
      </trkpt>
      <trkpt lat="45.25771" lon="6.13643">
        <ele>2408.6</ele>
        <time>2019-05-01T10:51:57Z</time>
      </trkpt>
      <trkpt lat="45.25773" lon="6.13644">
        <ele>2408.6</ele>
        <time>2019-05-01T10:51:59Z</time>
      </trkpt>
      <trkpt lat="45.25777" lon="6.13648">
        <ele>2411.4</ele>
        <time>2019-05-01T10:52:01Z</time>
      </trkpt>
      <trkpt lat="45.2578" lon="6.13651">
        <ele>2411.5</ele>
        <time>2019-05-01T10:52:03Z</time>
      </trkpt>
      <trkpt lat="45.25784" lon="6.13652">
        <ele>2414.2</ele>
        <time>2019-05-01T10:52:07Z</time>
      </trkpt>
      <trkpt lat="45.25787" lon="6.13654">
        <ele>2414.3</ele>
        <time>2019-05-01T10:52:10Z</time>
      </trkpt>
      <trkpt lat="45.25792" lon="6.13658">
        <ele>2417.3</ele>
        <time>2019-05-01T10:52:12Z</time>
      </trkpt>
      <trkpt lat="45.25795" lon="6.13663">
        <ele>2420.1</ele>
        <time>2019-05-01T10:52:14Z</time>
      </trkpt>
      <trkpt lat="45.25798" lon="6.13665">
        <ele>2423</ele>
        <time>2019-05-01T10:52:18Z</time>
      </trkpt>
      <trkpt lat="45.25797" lon="6.13659">
        <ele>2417.6</ele>
        <time>2019-05-01T10:52:26Z</time>
      </trkpt>
      <trkpt lat="45.25794" lon="6.13659">
        <ele>2417.3</ele>
        <time>2019-05-01T10:52:29Z</time>
      </trkpt>
      <trkpt lat="45.25791" lon="6.13659">
        <ele>2417.1</ele>
        <time>2019-05-01T10:52:31Z</time>
      </trkpt>
      <trkpt lat="45.25787" lon="6.13659">
        <ele>2416.9</ele>
        <time>2019-05-01T10:52:34Z</time>
      </trkpt>
      <trkpt lat="45.25784" lon="6.13658">
        <ele>2416.8</ele>
        <time>2019-05-01T10:52:37Z</time>
      </trkpt>
      <trkpt lat="45.25781" lon="6.13658">
        <ele>2416.8</ele>
        <time>2019-05-01T10:52:40Z</time>
      </trkpt>
      <trkpt lat="45.25778" lon="6.13659">
        <ele>2419.4</ele>
        <time>2019-05-01T10:52:44Z</time>
      </trkpt>
      <trkpt lat="45.25775" lon="6.1366">
        <ele>2419.4</ele>
        <time>2019-05-01T10:52:48Z</time>
      </trkpt>
      <trkpt lat="45.25772" lon="6.1366">
        <ele>2419.6</ele>
        <time>2019-05-01T10:52:51Z</time>
      </trkpt>
      <trkpt lat="45.25769" lon="6.1366">
        <ele>2419.7</ele>
        <time>2019-05-01T10:52:54Z</time>
      </trkpt>
      <trkpt lat="45.25766" lon="6.13662">
        <ele>2419.9</ele>
        <time>2019-05-01T10:52:59Z</time>
      </trkpt>
      <trkpt lat="45.25769" lon="6.13666">
        <ele>2422.3</ele>
        <time>2019-05-01T10:53:05Z</time>
      </trkpt>
      <trkpt lat="45.25772" lon="6.13668">
        <ele>2424.8</ele>
        <time>2019-05-01T10:53:07Z</time>
      </trkpt>
      <trkpt lat="45.25778" lon="6.13675">
        <ele>2427.3</ele>
        <time>2019-05-01T10:53:16Z</time>
      </trkpt>
      <trkpt lat="45.25781" lon="6.13675">
        <ele>2427.3</ele>
        <time>2019-05-01T10:55:28Z</time>
      </trkpt>
      <trkpt lat="45.25785" lon="6.13675">
        <ele>2427.4</ele>
        <time>2019-05-01T10:55:35Z</time>
      </trkpt>
      <trkpt lat="45.25787" lon="6.13675">
        <ele>2427.6</ele>
        <time>2019-05-01T10:55:42Z</time>
      </trkpt>
      <trkpt lat="45.2579" lon="6.13673">
        <ele>2427.7</ele>
        <time>2019-05-01T10:55:49Z</time>
      </trkpt>
      <trkpt lat="45.25793" lon="6.13672">
        <ele>2425.2</ele>
        <time>2019-05-01T10:55:53Z</time>
      </trkpt>
      <trkpt lat="45.2579" lon="6.13672">
        <ele>2425</ele>
        <time>2019-05-01T10:56:06Z</time>
      </trkpt>
      <trkpt lat="45.25787" lon="6.13673">
        <ele>2427.6</ele>
        <time>2019-05-01T10:56:11Z</time>
      </trkpt>
      <trkpt lat="45.25784" lon="6.13675">
        <ele>2427.4</ele>
        <time>2019-05-01T10:56:16Z</time>
      </trkpt>
      <trkpt lat="45.25782" lon="6.13677">
        <ele>2430.1</ele>
        <time>2019-05-01T10:56:22Z</time>
      </trkpt>
      <trkpt lat="45.25778" lon="6.13678">
        <ele>2430</ele>
        <time>2019-05-01T10:56:28Z</time>
      </trkpt>
      <trkpt lat="45.25776" lon="6.13679">
        <ele>2430</ele>
        <time>2019-05-01T10:56:33Z</time>
      </trkpt>
      <trkpt lat="45.25773" lon="6.13681">
        <ele>2430</ele>
        <time>2019-05-01T10:56:38Z</time>
      </trkpt>
      <trkpt lat="45.25775" lon="6.13685">
        <ele>2435.5</ele>
        <time>2019-05-01T10:56:55Z</time>
      </trkpt>
      <trkpt lat="45.25777" lon="6.13683">
        <ele>2432.8</ele>
        <time>2019-05-01T10:57:03Z</time>
      </trkpt>
      <trkpt lat="45.2578" lon="6.13682">
        <ele>2432.8</ele>
        <time>2019-05-01T10:57:07Z</time>
      </trkpt>
      <trkpt lat="45.25783" lon="6.13684">
        <ele>2432.9</ele>
        <time>2019-05-01T10:57:10Z</time>
      </trkpt>
      <trkpt lat="45.25785" lon="6.13686">
        <ele>2435.6</ele>
        <time>2019-05-01T10:57:14Z</time>
      </trkpt>
      <trkpt lat="45.25788" lon="6.13686">
        <ele>2435.8</ele>
        <time>2019-05-01T10:57:18Z</time>
      </trkpt>
      <trkpt lat="45.25791" lon="6.13688">
        <ele>2436</ele>
        <time>2019-05-01T10:57:21Z</time>
      </trkpt>
      <trkpt lat="45.25794" lon="6.13687">
        <ele>2436.2</ele>
        <time>2019-05-01T10:57:31Z</time>
      </trkpt>
      <trkpt lat="45.25791" lon="6.13688">
        <ele>2436</ele>
        <time>2019-05-01T10:57:41Z</time>
      </trkpt>
      <trkpt lat="45.25789" lon="6.1369">
        <ele>2438.7</ele>
        <time>2019-05-01T10:57:46Z</time>
      </trkpt>
      <trkpt lat="45.25786" lon="6.13691">
        <ele>2438.5</ele>
        <time>2019-05-01T10:57:52Z</time>
      </trkpt>
      <trkpt lat="45.25783" lon="6.13692">
        <ele>2438.3</ele>
        <time>2019-05-01T10:57:57Z</time>
      </trkpt>
      <trkpt lat="45.25781" lon="6.13694">
        <ele>2440.8</ele>
        <time>2019-05-01T10:58:04Z</time>
      </trkpt>
      <trkpt lat="45.25778" lon="6.13695">
        <ele>2440.8</ele>
        <time>2019-05-01T10:58:08Z</time>
      </trkpt>
      <trkpt lat="45.2578" lon="6.13698">
        <ele>2440.8</ele>
        <time>2019-05-01T10:58:28Z</time>
      </trkpt>
      <trkpt lat="45.25782" lon="6.13699">
        <ele>2443.3</ele>
        <time>2019-05-01T10:58:32Z</time>
      </trkpt>
      <trkpt lat="45.25786" lon="6.13698">
        <ele>2441</ele>
        <time>2019-05-01T10:58:35Z</time>
      </trkpt>
      <trkpt lat="45.25788" lon="6.13696">
        <ele>2441.2</ele>
        <time>2019-05-01T10:58:42Z</time>
      </trkpt>
      <trkpt lat="45.25791" lon="6.13698">
        <ele>2441.2</ele>
        <time>2019-05-01T10:58:46Z</time>
      </trkpt>
      <trkpt lat="45.25792" lon="6.13702">
        <ele>2443.8</ele>
        <time>2019-05-01T10:58:53Z</time>
      </trkpt>
      <trkpt lat="45.25789" lon="6.13703">
        <ele>2446</ele>
        <time>2019-05-01T10:59:10Z</time>
      </trkpt>
      <trkpt lat="45.25787" lon="6.13704">
        <ele>2445.8</ele>
        <time>2019-05-01T10:59:15Z</time>
      </trkpt>
      <trkpt lat="45.25784" lon="6.13704">
        <ele>2445.7</ele>
        <time>2019-05-01T10:59:20Z</time>
      </trkpt>
      <trkpt lat="45.25781" lon="6.13706">
        <ele>2445.7</ele>
        <time>2019-05-01T10:59:25Z</time>
      </trkpt>
      <trkpt lat="45.25778" lon="6.13708">
        <ele>2448</ele>
        <time>2019-05-01T10:59:30Z</time>
      </trkpt>
      <trkpt lat="45.25776" lon="6.1371">
        <ele>2448.1</ele>
        <time>2019-05-01T10:59:35Z</time>
      </trkpt>
      <trkpt lat="45.25773" lon="6.13711">
        <ele>2450.4</ele>
        <time>2019-05-01T10:59:40Z</time>
      </trkpt>
      <trkpt lat="45.25777" lon="6.13711">
        <ele>2450.4</ele>
        <time>2019-05-01T11:01:11Z</time>
      </trkpt>
      <trkpt lat="45.2578" lon="6.13713">
        <ele>2450.4</ele>
        <time>2019-05-01T11:01:14Z</time>
      </trkpt>
      <trkpt lat="45.25784" lon="6.13716">
        <ele>2452.8</ele>
        <time>2019-05-01T11:01:17Z</time>
      </trkpt>
      <trkpt lat="45.25781" lon="6.13717">
        <ele>2452.8</ele>
        <time>2019-05-01T11:01:34Z</time>
      </trkpt>
      <trkpt lat="45.25778" lon="6.13718">
        <ele>2452.8</ele>
        <time>2019-05-01T11:01:39Z</time>
      </trkpt>
      <trkpt lat="45.25776" lon="6.1372">
        <ele>2455.4</ele>
        <time>2019-05-01T11:01:44Z</time>
      </trkpt>
      <trkpt lat="45.25773" lon="6.13722">
        <ele>2455.6</ele>
        <time>2019-05-01T11:01:50Z</time>
      </trkpt>
      <trkpt lat="45.2577" lon="6.13723">
        <ele>2455.6</ele>
        <time>2019-05-01T11:01:55Z</time>
      </trkpt>
      <trkpt lat="45.25768" lon="6.13726">
        <ele>2458.3</ele>
        <time>2019-05-01T11:02:01Z</time>
      </trkpt>
      <trkpt lat="45.25766" lon="6.13728">
        <ele>2461.1</ele>
        <time>2019-05-01T11:02:06Z</time>
      </trkpt>
      <trkpt lat="45.25769" lon="6.1373">
        <ele>2460.9</ele>
        <time>2019-05-01T11:02:12Z</time>
      </trkpt>
      <trkpt lat="45.25772" lon="6.13729">
        <ele>2460.7</ele>
        <time>2019-05-01T11:02:15Z</time>
      </trkpt>
      <trkpt lat="45.25775" lon="6.1373">
        <ele>2460.5</ele>
        <time>2019-05-01T11:02:19Z</time>
      </trkpt>
      <trkpt lat="45.25778" lon="6.1373">
        <ele>2460.4</ele>
        <time>2019-05-01T11:02:24Z</time>
      </trkpt>
      <trkpt lat="45.25781" lon="6.13732">
        <ele>2460.3</ele>
        <time>2019-05-01T11:02:27Z</time>
      </trkpt>
      <trkpt lat="45.25783" lon="6.13734">
        <ele>2462.7</ele>
        <time>2019-05-01T11:02:30Z</time>
      </trkpt>
      <trkpt lat="45.25785" lon="6.13736">
        <ele>2462.7</ele>
        <time>2019-05-01T11:02:36Z</time>
      </trkpt>
      <trkpt lat="45.25788" lon="6.13735">
        <ele>2462.8</ele>
        <time>2019-05-01T11:02:42Z</time>
      </trkpt>
      <trkpt lat="45.25791" lon="6.13735">
        <ele>2462.8</ele>
        <time>2019-05-01T11:02:48Z</time>
      </trkpt>
      <trkpt lat="45.25794" lon="6.13735">
        <ele>2462.8</ele>
        <time>2019-05-01T11:02:54Z</time>
      </trkpt>
      <trkpt lat="45.25796" lon="6.13739">
        <ele>2465.1</ele>
        <time>2019-05-01T11:02:59Z</time>
      </trkpt>
      <trkpt lat="45.25797" lon="6.13743">
        <ele>2467.1</ele>
        <time>2019-05-01T11:03:04Z</time>
      </trkpt>
      <trkpt lat="45.25799" lon="6.13746">
        <ele>2469.3</ele>
        <time>2019-05-01T11:03:09Z</time>
      </trkpt>
      <trkpt lat="45.25801" lon="6.13745">
        <ele>2467.4</ele>
        <time>2019-05-01T11:03:21Z</time>
      </trkpt>
      <trkpt lat="45.25804" lon="6.13747">
        <ele>2469.6</ele>
        <time>2019-05-01T11:03:24Z</time>
      </trkpt>
      <trkpt lat="45.25807" lon="6.13749">
        <ele>2469.8</ele>
        <time>2019-05-01T11:03:30Z</time>
      </trkpt>
      <trkpt lat="45.2581" lon="6.13751">
        <ele>2472.1</ele>
        <time>2019-05-01T11:03:33Z</time>
      </trkpt>
      <trkpt lat="45.25813" lon="6.13752">
        <ele>2472.4</ele>
        <time>2019-05-01T11:03:36Z</time>
      </trkpt>
      <trkpt lat="45.25813" lon="6.13756">
        <ele>2474.4</ele>
        <time>2019-05-01T11:03:46Z</time>
      </trkpt>
      <trkpt lat="45.2581" lon="6.13758">
        <ele>2476.2</ele>
        <time>2019-05-01T11:03:50Z</time>
      </trkpt>
      <trkpt lat="45.25808" lon="6.1376">
        <ele>2475.9</ele>
        <time>2019-05-01T11:03:54Z</time>
      </trkpt>
      <trkpt lat="45.25805" lon="6.13761">
        <ele>2475.6</ele>
        <time>2019-05-01T11:03:58Z</time>
      </trkpt>
      <trkpt lat="45.25802" lon="6.13762">
        <ele>2475.4</ele>
        <time>2019-05-01T11:04:02Z</time>
      </trkpt>
      <trkpt lat="45.258" lon="6.13765">
        <ele>2477.2</ele>
        <time>2019-05-01T11:04:08Z</time>
      </trkpt>
      <trkpt lat="45.25801" lon="6.13769">
        <ele>2479.5</ele>
        <time>2019-05-01T11:04:20Z</time>
      </trkpt>
      <trkpt lat="45.25802" lon="6.13772">
        <ele>2481.5</ele>
        <time>2019-05-01T11:04:25Z</time>
      </trkpt>
      <trkpt lat="45.25805" lon="6.13776">
        <ele>2483.8</ele>
        <time>2019-05-01T11:04:41Z</time>
      </trkpt>
      <trkpt lat="45.25807" lon="6.13782">
        <ele>2486.1</ele>
        <time>2019-05-01T11:04:54Z</time>
      </trkpt>
      <trkpt lat="45.2581" lon="6.13786">
        <ele>2488.2</ele>
        <time>2019-05-01T11:06:38Z</time>
      </trkpt>
      <trkpt lat="45.25809" lon="6.1379">
        <ele>2489.6</ele>
        <time>2019-05-01T11:06:46Z</time>
      </trkpt>
      <trkpt lat="45.25807" lon="6.13793">
        <ele>2491.2</ele>
        <time>2019-05-01T11:06:53Z</time>
      </trkpt>
      <trkpt lat="45.25805" lon="6.13796">
        <ele>2490.9</ele>
        <time>2019-05-01T11:06:59Z</time>
      </trkpt>
      <trkpt lat="45.25803" lon="6.13798">
        <ele>2492.1</ele>
        <time>2019-05-01T11:07:06Z</time>
      </trkpt>
      <trkpt lat="45.258" lon="6.138">
        <ele>2492</ele>
        <time>2019-05-01T11:07:12Z</time>
      </trkpt>
      <trkpt lat="45.25797" lon="6.13801">
        <ele>2493.4</ele>
        <time>2019-05-01T11:07:17Z</time>
      </trkpt>
      <trkpt lat="45.25795" lon="6.13802">
        <ele>2493.4</ele>
        <time>2019-05-01T11:07:22Z</time>
      </trkpt>
      <trkpt lat="45.25792" lon="6.13804">
        <ele>2493.4</ele>
        <time>2019-05-01T11:07:28Z</time>
      </trkpt>
      <trkpt lat="45.25794" lon="6.13808">
        <ele>2494.9</ele>
        <time>2019-05-01T11:07:46Z</time>
      </trkpt>
      <trkpt lat="45.25795" lon="6.13812">
        <ele>2496.5</ele>
        <time>2019-05-01T11:07:49Z</time>
      </trkpt>
      <trkpt lat="45.25797" lon="6.13816">
        <ele>2498.1</ele>
        <time>2019-05-01T11:07:54Z</time>
      </trkpt>
      <trkpt lat="45.25799" lon="6.13818">
        <ele>2498.2</ele>
        <time>2019-05-01T11:07:58Z</time>
      </trkpt>
      <trkpt lat="45.25796" lon="6.13817">
        <ele>2498.1</ele>
        <time>2019-05-01T11:08:18Z</time>
      </trkpt>
      <trkpt lat="45.25794" lon="6.13819">
        <ele>2499.6</ele>
        <time>2019-05-01T11:08:23Z</time>
      </trkpt>
      <trkpt lat="45.25791" lon="6.13819">
        <ele>2499.6</ele>
        <time>2019-05-01T11:08:27Z</time>
      </trkpt>
      <trkpt lat="45.25789" lon="6.13823">
        <ele>2501</ele>
        <time>2019-05-01T11:08:44Z</time>
      </trkpt>
      <trkpt lat="45.25788" lon="6.13827">
        <ele>2502.5</ele>
        <time>2019-05-01T11:08:45Z</time>
      </trkpt>
      <trkpt lat="45.25787" lon="6.13834">
        <ele>2503.8</ele>
        <time>2019-05-01T11:08:47Z</time>
      </trkpt>
      <trkpt lat="45.25787" lon="6.13839">
        <ele>2505.1</ele>
        <time>2019-05-01T11:08:49Z</time>
      </trkpt>
      <trkpt lat="45.25789" lon="6.13844">
        <ele>2506.1</ele>
        <time>2019-05-01T11:08:52Z</time>
      </trkpt>
      <trkpt lat="45.2579" lon="6.13845">
        <ele>2507.2</ele>
        <time>2019-05-01T11:08:54Z</time>
      </trkpt>
      <trkpt lat="45.2579" lon="6.13847">
        <ele>2507.2</ele>
        <time>2019-05-01T11:08:56Z</time>
      </trkpt>
      <trkpt lat="45.2579" lon="6.13849">
        <ele>2508.3</ele>
        <time>2019-05-01T11:09:00Z</time>
      </trkpt>
      <trkpt lat="45.2579" lon="6.1385">
        <ele>2508.3</ele>
        <time>2019-05-01T11:09:05Z</time>
      </trkpt>
      <trkpt lat="45.25791" lon="6.13852">
        <ele>2508.3</ele>
        <time>2019-05-01T11:09:14Z</time>
      </trkpt>
      <trkpt lat="45.25791" lon="6.13854">
        <ele>2509.4</ele>
        <time>2019-05-01T11:09:18Z</time>
      </trkpt>
      <trkpt lat="45.25791" lon="6.13855">
        <ele>2509.4</ele>
        <time>2019-05-01T11:09:25Z</time>
      </trkpt>
      <trkpt lat="45.25792" lon="6.13857">
        <ele>2510.4</ele>
        <time>2019-05-01T11:09:38Z</time>
      </trkpt>
      <trkpt lat="45.25792" lon="6.13859">
        <ele>2510.4</ele>
        <time>2019-05-01T11:09:42Z</time>
      </trkpt>
      <trkpt lat="45.25792" lon="6.13861">
        <ele>2510.4</ele>
        <time>2019-05-01T11:09:46Z</time>
      </trkpt>
      <trkpt lat="45.25793" lon="6.13862">
        <ele>2511.4</ele>
        <time>2019-05-01T11:09:50Z</time>
      </trkpt>
      <trkpt lat="45.25793" lon="6.13864">
        <ele>2511.4</ele>
        <time>2019-05-01T11:10:03Z</time>
      </trkpt>
      <trkpt lat="45.25793" lon="6.13866">
        <ele>2512.4</ele>
        <time>2019-05-01T11:10:07Z</time>
      </trkpt>
      <trkpt lat="45.25794" lon="6.13867">
        <ele>2512.4</ele>
        <time>2019-05-01T11:10:11Z</time>
      </trkpt>
      <trkpt lat="45.25794" lon="6.13869">
        <ele>2512.4</ele>
        <time>2019-05-01T11:10:17Z</time>
      </trkpt>
      <trkpt lat="45.25794" lon="6.13871">
        <ele>2513.2</ele>
        <time>2019-05-01T11:10:19Z</time>
      </trkpt>
      <trkpt lat="45.25794" lon="6.13872">
        <ele>2513.3</ele>
        <time>2019-05-01T11:10:21Z</time>
      </trkpt>
      <trkpt lat="45.25795" lon="6.13874">
        <ele>2514</ele>
        <time>2019-05-01T11:10:25Z</time>
      </trkpt>
      <trkpt lat="45.25795" lon="6.13876">
        <ele>2514</ele>
        <time>2019-05-01T11:10:29Z</time>
      </trkpt>
      <trkpt lat="45.25795" lon="6.13877">
        <ele>2514</ele>
        <time>2019-05-01T11:10:37Z</time>
      </trkpt>
      <trkpt lat="45.25796" lon="6.13879">
        <ele>2514.7</ele>
        <time>2019-05-01T11:10:51Z</time>
      </trkpt>
      <trkpt lat="45.25796" lon="6.13881">
        <ele>2514.7</ele>
        <time>2019-05-01T11:10:55Z</time>
      </trkpt>
      <trkpt lat="45.25796" lon="6.13883">
        <ele>2514.7</ele>
        <time>2019-05-01T11:11:00Z</time>
      </trkpt>
      <trkpt lat="45.25797" lon="6.13884">
        <ele>2515.3</ele>
        <time>2019-05-01T11:11:13Z</time>
      </trkpt>
      <trkpt lat="45.25797" lon="6.13886">
        <ele>2515.3</ele>
        <time>2019-05-01T11:11:16Z</time>
      </trkpt>
      <trkpt lat="45.25797" lon="6.13888">
        <ele>2515.8</ele>
        <time>2019-05-01T11:11:19Z</time>
      </trkpt>
      <trkpt lat="45.25797" lon="6.13889">
        <ele>2515.9</ele>
        <time>2019-05-01T11:11:24Z</time>
      </trkpt>
      <trkpt lat="45.25798" lon="6.13891">
        <ele>2515.9</ele>
        <time>2019-05-01T11:11:38Z</time>
      </trkpt>
      <trkpt lat="45.25798" lon="6.13893">
        <ele>2516.4</ele>
        <time>2019-05-01T11:11:43Z</time>
      </trkpt>
      <trkpt lat="45.25798" lon="6.13894">
        <ele>2516.4</ele>
        <time>2019-05-01T11:12:05Z</time>
      </trkpt>
      <trkpt lat="45.25799" lon="6.13896">
        <ele>2516.9</ele>
        <time>2019-05-01T11:12:10Z</time>
      </trkpt>
      <trkpt lat="45.25799" lon="6.13898">
        <ele>2516.9</ele>
        <time>2019-05-01T11:12:14Z</time>
      </trkpt>
      <trkpt lat="45.25799" lon="6.139">
        <ele>2516.9</ele>
        <time>2019-05-01T11:12:19Z</time>
      </trkpt>
      <trkpt lat="45.258" lon="6.13901">
        <ele>2517.4</ele>
        <time>2019-05-01T11:12:31Z</time>
      </trkpt>
      <trkpt lat="45.258" lon="6.13903">
        <ele>2517.4</ele>
        <time>2019-05-01T11:12:35Z</time>
      </trkpt>
      <trkpt lat="45.258" lon="6.13905">
        <ele>2517.8</ele>
        <time>2019-05-01T11:12:40Z</time>
      </trkpt>
      <trkpt lat="45.25801" lon="6.13906">
        <ele>2517.9</ele>
        <time>2019-05-01T11:12:46Z</time>
      </trkpt>
      <trkpt lat="45.25801" lon="6.13908">
        <ele>2517.9</ele>
        <time>2019-05-01T11:12:49Z</time>
      </trkpt>
      <trkpt lat="45.25801" lon="6.1391">
        <ele>2518.3</ele>
        <time>2019-05-01T11:12:53Z</time>
      </trkpt>
      <trkpt lat="45.25801" lon="6.13911">
        <ele>2518.3</ele>
        <time>2019-05-01T11:13:00Z</time>
      </trkpt>
      <trkpt lat="45.25802" lon="6.13913">
        <ele>2518.6</ele>
        <time>2019-05-01T11:13:47Z</time>
      </trkpt>
      <trkpt lat="45.25802" lon="6.13915">
        <ele>2518.6</ele>
        <time>2019-05-01T11:17:58Z</time>
      </trkpt>
      <trkpt lat="45.25802" lon="6.13916">
        <ele>2518.6</ele>
        <time>2019-05-01T11:19:13Z</time>
      </trkpt>
      <trkpt lat="45.25803" lon="6.13918">
        <ele>2518.8</ele>
        <time>2019-05-01T11:36:29Z</time>
      </trkpt>
      <trkpt lat="45.25803" lon="6.1392">
        <ele>2518.8</ele>
        <time>2019-05-01T11:37:30Z</time>
      </trkpt>
      <trkpt lat="45.25803" lon="6.13922">
        <ele>2519</ele>
        <time>2019-05-01T11:39:44Z</time>
      </trkpt>
      <trkpt lat="45.25804" lon="6.13923">
        <ele>2519.2</ele>
        <time>2019-05-01T11:41:04Z</time>
      </trkpt>
      <trkpt lat="45.25804" lon="6.13925">
        <ele>2519.2</ele>
        <time>2019-05-01T11:41:05Z</time>
      </trkpt>
      <trkpt lat="45.25809" lon="6.13927">
        <ele>2519.5</ele>
        <time>2019-05-01T11:41:06Z</time>
      </trkpt>
      <trkpt lat="45.25814" lon="6.1393">
        <ele>2520.2</ele>
        <time>2019-05-01T11:41:07Z</time>
      </trkpt>
      <trkpt lat="45.25819" lon="6.13934">
        <ele>2521.1</ele>
        <time>2019-05-01T11:41:08Z</time>
      </trkpt>
      <trkpt lat="45.25824" lon="6.13939">
        <ele>2521.5</ele>
        <time>2019-05-01T11:41:09Z</time>
      </trkpt>
      <trkpt lat="45.25829" lon="6.13943">
        <ele>2522.7</ele>
        <time>2019-05-01T11:41:10Z</time>
      </trkpt>
      <trkpt lat="45.25834" lon="6.13949">
        <ele>2524.4</ele>
        <time>2019-05-01T11:41:11Z</time>
      </trkpt>
      <trkpt lat="45.25838" lon="6.13954">
        <ele>2525.2</ele>
        <time>2019-05-01T11:41:12Z</time>
      </trkpt>
      <trkpt lat="45.25841" lon="6.13959">
        <ele>2526</ele>
        <time>2019-05-01T11:41:13Z</time>
      </trkpt>
      <trkpt lat="45.25841" lon="6.13965">
        <ele>2525.5</ele>
        <time>2019-05-01T11:41:14Z</time>
      </trkpt>
      <trkpt lat="45.25834" lon="6.13972">
        <ele>2523.3</ele>
        <time>2019-05-01T11:41:16Z</time>
      </trkpt>
      <trkpt lat="45.25833" lon="6.13979">
        <ele>2521.7</ele>
        <time>2019-05-01T11:41:17Z</time>
      </trkpt>
      <trkpt lat="45.25832" lon="6.13986">
        <ele>2520.7</ele>
        <time>2019-05-01T11:41:18Z</time>
      </trkpt>
      <trkpt lat="45.25824" lon="6.13983">
        <ele>2519.1</ele>
        <time>2019-05-01T11:41:19Z</time>
      </trkpt>
      <trkpt lat="45.2582" lon="6.13983">
        <ele>2518.6</ele>
        <time>2019-05-01T11:41:20Z</time>
      </trkpt>
      <trkpt lat="45.25816" lon="6.13984">
        <ele>2518.1</ele>
        <time>2019-05-01T11:41:21Z</time>
      </trkpt>
      <trkpt lat="45.25809" lon="6.13986">
        <ele>2516.4</ele>
        <time>2019-05-01T11:41:22Z</time>
      </trkpt>
      <trkpt lat="45.25804" lon="6.13992">
        <ele>2515.5</ele>
        <time>2019-05-01T11:41:23Z</time>
      </trkpt>
      <trkpt lat="45.25801" lon="6.13995">
        <ele>2514.6</ele>
        <time>2019-05-01T11:41:24Z</time>
      </trkpt>
      <trkpt lat="45.25797" lon="6.13999">
        <ele>2513.6</ele>
        <time>2019-05-01T11:41:25Z</time>
      </trkpt>
      <trkpt lat="45.25791" lon="6.14002">
        <ele>2513.5</ele>
        <time>2019-05-01T11:41:26Z</time>
      </trkpt>
      <trkpt lat="45.25791" lon="6.14012">
        <ele>2511.2</ele>
        <time>2019-05-01T11:41:27Z</time>
      </trkpt>
      <trkpt lat="45.25791" lon="6.14022">
        <ele>2509.8</ele>
        <time>2019-05-01T11:41:28Z</time>
      </trkpt>
      <trkpt lat="45.25791" lon="6.1403">
        <ele>2508</ele>
        <time>2019-05-01T11:41:29Z</time>
      </trkpt>
      <trkpt lat="45.25792" lon="6.14038">
        <ele>2506.1</ele>
        <time>2019-05-01T11:41:30Z</time>
      </trkpt>
      <trkpt lat="45.25795" lon="6.14044">
        <ele>2505.1</ele>
        <time>2019-05-01T11:41:31Z</time>
      </trkpt>
      <trkpt lat="45.25796" lon="6.1405">
        <ele>2502.8</ele>
        <time>2019-05-01T11:41:32Z</time>
      </trkpt>
      <trkpt lat="45.25797" lon="6.14059">
        <ele>2500.4</ele>
        <time>2019-05-01T11:41:33Z</time>
      </trkpt>
      <trkpt lat="45.25799" lon="6.14068">
        <ele>2498.3</ele>
        <time>2019-05-01T11:41:34Z</time>
      </trkpt>
      <trkpt lat="45.25795" lon="6.14073">
        <ele>2497</ele>
        <time>2019-05-01T11:41:35Z</time>
      </trkpt>
      <trkpt lat="45.25796" lon="6.14081">
        <ele>2494.5</ele>
        <time>2019-05-01T11:41:36Z</time>
      </trkpt>
      <trkpt lat="45.25797" lon="6.14088">
        <ele>2493.3</ele>
        <time>2019-05-01T11:41:37Z</time>
      </trkpt>
      <trkpt lat="45.25793" lon="6.14087">
        <ele>2493.1</ele>
        <time>2019-05-01T11:41:38Z</time>
      </trkpt>
      <trkpt lat="45.2579" lon="6.14087">
        <ele>2492.9</ele>
        <time>2019-05-01T11:41:39Z</time>
      </trkpt>
      <trkpt lat="45.25787" lon="6.14087">
        <ele>2492.8</ele>
        <time>2019-05-01T11:42:00Z</time>
      </trkpt>
      <trkpt lat="45.25784" lon="6.14092">
        <ele>2491.3</ele>
        <time>2019-05-01T11:42:02Z</time>
      </trkpt>
      <trkpt lat="45.2578" lon="6.14094">
        <ele>2489.7</ele>
        <time>2019-05-01T11:42:03Z</time>
      </trkpt>
      <trkpt lat="45.25777" lon="6.14097">
        <ele>2489.5</ele>
        <time>2019-05-01T11:42:04Z</time>
      </trkpt>
      <trkpt lat="45.2578" lon="6.14106">
        <ele>2485.9</ele>
        <time>2019-05-01T11:42:05Z</time>
      </trkpt>
      <trkpt lat="45.25779" lon="6.14113">
        <ele>2484.4</ele>
        <time>2019-05-01T11:42:06Z</time>
      </trkpt>
      <trkpt lat="45.25783" lon="6.14118">
        <ele>2483.7</ele>
        <time>2019-05-01T11:42:07Z</time>
      </trkpt>
      <trkpt lat="45.25784" lon="6.14123">
        <ele>2481.1</ele>
        <time>2019-05-01T11:42:08Z</time>
      </trkpt>
      <trkpt lat="45.25781" lon="6.14129">
        <ele>2479.4</ele>
        <time>2019-05-01T11:42:09Z</time>
      </trkpt>
      <trkpt lat="45.25778" lon="6.14137">
        <ele>2475.3</ele>
        <time>2019-05-01T11:42:11Z</time>
      </trkpt>
      <trkpt lat="45.25779" lon="6.14145">
        <ele>2472.6</ele>
        <time>2019-05-01T11:42:12Z</time>
      </trkpt>
      <trkpt lat="45.2578" lon="6.14152">
        <ele>2471.8</ele>
        <time>2019-05-01T11:42:13Z</time>
      </trkpt>
      <trkpt lat="45.25781" lon="6.14159">
        <ele>2469.3</ele>
        <time>2019-05-01T11:42:14Z</time>
      </trkpt>
      <trkpt lat="45.25778" lon="6.14164">
        <ele>2467.5</ele>
        <time>2019-05-01T11:42:15Z</time>
      </trkpt>
      <trkpt lat="45.25775" lon="6.14171">
        <ele>2464.2</ele>
        <time>2019-05-01T11:42:16Z</time>
      </trkpt>
      <trkpt lat="45.25775" lon="6.14185">
        <ele>2460.1</ele>
        <time>2019-05-01T11:42:17Z</time>
      </trkpt>
      <trkpt lat="45.25776" lon="6.14194">
        <ele>2457.6</ele>
        <time>2019-05-01T11:42:18Z</time>
      </trkpt>
      <trkpt lat="45.25777" lon="6.14203">
        <ele>2455.8</ele>
        <time>2019-05-01T11:42:19Z</time>
      </trkpt>
      <trkpt lat="45.25773" lon="6.14207">
        <ele>2453.1</ele>
        <time>2019-05-01T11:42:20Z</time>
      </trkpt>
      <trkpt lat="45.25769" lon="6.1421">
        <ele>2451</ele>
        <time>2019-05-01T11:42:23Z</time>
      </trkpt>
      <trkpt lat="45.25765" lon="6.14206">
        <ele>2451.7</ele>
        <time>2019-05-01T11:42:34Z</time>
      </trkpt>
      <trkpt lat="45.25763" lon="6.14209">
        <ele>2449.7</ele>
        <time>2019-05-01T11:42:36Z</time>
      </trkpt>
      <trkpt lat="45.2576" lon="6.14212">
        <ele>2449.1</ele>
        <time>2019-05-01T11:42:54Z</time>
      </trkpt>
      <trkpt lat="45.2576" lon="6.14217">
        <ele>2447.6</ele>
        <time>2019-05-01T11:42:55Z</time>
      </trkpt>
      <trkpt lat="45.25759" lon="6.14226">
        <ele>2443.1</ele>
        <time>2019-05-01T11:42:56Z</time>
      </trkpt>
      <trkpt lat="45.25757" lon="6.14233">
        <ele>2441.1</ele>
        <time>2019-05-01T11:42:57Z</time>
      </trkpt>
      <trkpt lat="45.2576" lon="6.14241">
        <ele>2439.2</ele>
        <time>2019-05-01T11:42:58Z</time>
      </trkpt>
      <trkpt lat="45.25762" lon="6.14248">
        <ele>2437.5</ele>
        <time>2019-05-01T11:42:59Z</time>
      </trkpt>
      <trkpt lat="45.2576" lon="6.14253">
        <ele>2435.7</ele>
        <time>2019-05-01T11:43:00Z</time>
      </trkpt>
      <trkpt lat="45.25757" lon="6.14258">
        <ele>2433.8</ele>
        <time>2019-05-01T11:43:01Z</time>
      </trkpt>
      <trkpt lat="45.25746" lon="6.14254">
        <ele>2432.5</ele>
        <time>2019-05-01T11:43:02Z</time>
      </trkpt>
      <trkpt lat="45.2574" lon="6.14255">
        <ele>2430.8</ele>
        <time>2019-05-01T11:43:03Z</time>
      </trkpt>
      <trkpt lat="45.25736" lon="6.1426">
        <ele>2428.1</ele>
        <time>2019-05-01T11:43:04Z</time>
      </trkpt>
      <trkpt lat="45.25732" lon="6.14263">
        <ele>2426.1</ele>
        <time>2019-05-01T11:43:05Z</time>
      </trkpt>
      <trkpt lat="45.25729" lon="6.14264">
        <ele>2425.3</ele>
        <time>2019-05-01T11:43:06Z</time>
      </trkpt>
      <trkpt lat="45.25727" lon="6.14261">
        <ele>2424.4</ele>
        <time>2019-05-01T11:43:07Z</time>
      </trkpt>
      <trkpt lat="45.25723" lon="6.14265">
        <ele>2422.2</ele>
        <time>2019-05-01T11:43:25Z</time>
      </trkpt>
      <trkpt lat="45.25721" lon="6.14268">
        <ele>2421.3</ele>
        <time>2019-05-01T11:43:26Z</time>
      </trkpt>
      <trkpt lat="45.25722" lon="6.14276">
        <ele>2419.8</ele>
        <time>2019-05-01T11:43:27Z</time>
      </trkpt>
      <trkpt lat="45.25722" lon="6.14281">
        <ele>2418.7</ele>
        <time>2019-05-01T11:43:28Z</time>
      </trkpt>
      <trkpt lat="45.25718" lon="6.14288">
        <ele>2414.8</ele>
        <time>2019-05-01T11:43:29Z</time>
      </trkpt>
      <trkpt lat="45.25718" lon="6.14297">
        <ele>2412.8</ele>
        <time>2019-05-01T11:43:30Z</time>
      </trkpt>
      <trkpt lat="45.25718" lon="6.14303">
        <ele>2410.9</ele>
        <time>2019-05-01T11:43:31Z</time>
      </trkpt>
      <trkpt lat="45.25714" lon="6.14295">
        <ele>2411.9</ele>
        <time>2019-05-01T11:43:32Z</time>
      </trkpt>
      <trkpt lat="45.25711" lon="6.14298">
        <ele>2411</ele>
        <time>2019-05-01T11:43:33Z</time>
      </trkpt>
      <trkpt lat="45.25708" lon="6.14302">
        <ele>2409.1</ele>
        <time>2019-05-01T11:43:34Z</time>
      </trkpt>
      <trkpt lat="45.25707" lon="6.14306">
        <ele>2407.1</ele>
        <time>2019-05-01T11:43:35Z</time>
      </trkpt>
      <trkpt lat="45.25704" lon="6.14317">
        <ele>2404.4</ele>
        <time>2019-05-01T11:43:36Z</time>
      </trkpt>
      <trkpt lat="45.25702" lon="6.14325">
        <ele>2402</ele>
        <time>2019-05-01T11:43:37Z</time>
      </trkpt>
      <trkpt lat="45.257" lon="6.14331">
        <ele>2400.4</ele>
        <time>2019-05-01T11:43:38Z</time>
      </trkpt>
      <trkpt lat="45.25698" lon="6.14338">
        <ele>2399.2</ele>
        <time>2019-05-01T11:43:39Z</time>
      </trkpt>
      <trkpt lat="45.25693" lon="6.14332">
        <ele>2398.3</ele>
        <time>2019-05-01T11:43:40Z</time>
      </trkpt>
      <trkpt lat="45.25685" lon="6.14338">
        <ele>2394</ele>
        <time>2019-05-01T11:43:41Z</time>
      </trkpt>
      <trkpt lat="45.25683" lon="6.14348">
        <ele>2392.7</ele>
        <time>2019-05-01T11:43:42Z</time>
      </trkpt>
      <trkpt lat="45.25681" lon="6.14354">
        <ele>2391</ele>
        <time>2019-05-01T11:43:43Z</time>
      </trkpt>
      <trkpt lat="45.25679" lon="6.1436">
        <ele>2388.6</ele>
        <time>2019-05-01T11:43:44Z</time>
      </trkpt>
      <trkpt lat="45.25677" lon="6.14366">
        <ele>2388</ele>
        <time>2019-05-01T11:43:45Z</time>
      </trkpt>
      <trkpt lat="45.25676" lon="6.14373">
        <ele>2385.9</ele>
        <time>2019-05-01T11:43:46Z</time>
      </trkpt>
      <trkpt lat="45.25674" lon="6.1438">
        <ele>2385.5</ele>
        <time>2019-05-01T11:43:47Z</time>
      </trkpt>
      <trkpt lat="45.25671" lon="6.14384">
        <ele>2384</ele>
        <time>2019-05-01T11:43:48Z</time>
      </trkpt>
      <trkpt lat="45.25668" lon="6.14389">
        <ele>2382.5</ele>
        <time>2019-05-01T11:43:49Z</time>
      </trkpt>
      <trkpt lat="45.25664" lon="6.14394">
        <ele>2379.5</ele>
        <time>2019-05-01T11:43:50Z</time>
      </trkpt>
      <trkpt lat="45.25661" lon="6.144">
        <ele>2378</ele>
        <time>2019-05-01T11:43:51Z</time>
      </trkpt>
      <trkpt lat="45.25658" lon="6.14406">
        <ele>2376.6</ele>
        <time>2019-05-01T11:43:52Z</time>
      </trkpt>
      <trkpt lat="45.25656" lon="6.1441">
        <ele>2376.4</ele>
        <time>2019-05-01T11:43:53Z</time>
      </trkpt>
      <trkpt lat="45.25655" lon="6.14416">
        <ele>2375.1</ele>
        <time>2019-05-01T11:43:55Z</time>
      </trkpt>
      <trkpt lat="45.25651" lon="6.14419">
        <ele>2374</ele>
        <time>2019-05-01T11:44:54Z</time>
      </trkpt>
      <trkpt lat="45.25649" lon="6.14421">
        <ele>2373</ele>
        <time>2019-05-01T11:44:55Z</time>
      </trkpt>
      <trkpt lat="45.25646" lon="6.14425">
        <ele>2372</ele>
        <time>2019-05-01T11:44:56Z</time>
      </trkpt>
      <trkpt lat="45.25643" lon="6.14429">
        <ele>2372.1</ele>
        <time>2019-05-01T11:44:57Z</time>
      </trkpt>
      <trkpt lat="45.25638" lon="6.14436">
        <ele>2370.2</ele>
        <time>2019-05-01T11:44:58Z</time>
      </trkpt>
      <trkpt lat="45.25633" lon="6.14443">
        <ele>2368.7</ele>
        <time>2019-05-01T11:44:59Z</time>
      </trkpt>
      <trkpt lat="45.25627" lon="6.14451">
        <ele>2367.5</ele>
        <time>2019-05-01T11:45:00Z</time>
      </trkpt>
      <trkpt lat="45.25623" lon="6.1446">
        <ele>2367.1</ele>
        <time>2019-05-01T11:45:01Z</time>
      </trkpt>
      <trkpt lat="45.25618" lon="6.14469">
        <ele>2365.4</ele>
        <time>2019-05-01T11:45:02Z</time>
      </trkpt>
      <trkpt lat="45.2561" lon="6.14479">
        <ele>2363.7</ele>
        <time>2019-05-01T11:45:03Z</time>
      </trkpt>
      <trkpt lat="45.25604" lon="6.14487">
        <ele>2361.5</ele>
        <time>2019-05-01T11:45:04Z</time>
      </trkpt>
      <trkpt lat="45.25599" lon="6.14494">
        <ele>2359.8</ele>
        <time>2019-05-01T11:45:05Z</time>
      </trkpt>
      <trkpt lat="45.25595" lon="6.14497">
        <ele>2358.9</ele>
        <time>2019-05-01T11:45:06Z</time>
      </trkpt>
      <trkpt lat="45.25591" lon="6.14502">
        <ele>2356.7</ele>
        <time>2019-05-01T11:45:07Z</time>
      </trkpt>
      <trkpt lat="45.25586" lon="6.14505">
        <ele>2355.7</ele>
        <time>2019-05-01T11:45:08Z</time>
      </trkpt>
      <trkpt lat="45.25582" lon="6.1451">
        <ele>2353.5</ele>
        <time>2019-05-01T11:45:09Z</time>
      </trkpt>
      <trkpt lat="45.2558" lon="6.14514">
        <ele>2353.6</ele>
        <time>2019-05-01T11:45:10Z</time>
      </trkpt>
      <trkpt lat="45.25578" lon="6.14517">
        <ele>2352.4</ele>
        <time>2019-05-01T11:45:11Z</time>
      </trkpt>
      <trkpt lat="45.25572" lon="6.14515">
        <ele>2350.5</ele>
        <time>2019-05-01T11:45:12Z</time>
      </trkpt>
      <trkpt lat="45.25567" lon="6.14518">
        <ele>2348.9</ele>
        <time>2019-05-01T11:45:13Z</time>
      </trkpt>
      <trkpt lat="45.25564" lon="6.14523">
        <ele>2348.1</ele>
        <time>2019-05-01T11:45:14Z</time>
      </trkpt>
      <trkpt lat="45.25567" lon="6.14531">
        <ele>2348.7</ele>
        <time>2019-05-01T11:45:15Z</time>
      </trkpt>
      <trkpt lat="45.25568" lon="6.14538">
        <ele>2348.7</ele>
        <time>2019-05-01T11:45:16Z</time>
      </trkpt>
      <trkpt lat="45.2557" lon="6.14544">
        <ele>2349.8</ele>
        <time>2019-05-01T11:45:17Z</time>
      </trkpt>
      <trkpt lat="45.25571" lon="6.14549">
        <ele>2351.1</ele>
        <time>2019-05-01T11:45:18Z</time>
      </trkpt>
      <trkpt lat="45.25572" lon="6.14554">
        <ele>2351.2</ele>
        <time>2019-05-01T11:45:20Z</time>
      </trkpt>
      <trkpt lat="45.25573" lon="6.14549">
        <ele>2351.1</ele>
        <time>2019-05-01T11:46:14Z</time>
      </trkpt>
      <trkpt lat="45.2557" lon="6.14547">
        <ele>2349.8</ele>
        <time>2019-05-01T11:46:16Z</time>
      </trkpt>
      <trkpt lat="45.25567" lon="6.14545">
        <ele>2348.8</ele>
        <time>2019-05-01T11:46:17Z</time>
      </trkpt>
      <trkpt lat="45.25562" lon="6.14547">
        <ele>2347.7</ele>
        <time>2019-05-01T11:46:18Z</time>
      </trkpt>
      <trkpt lat="45.25565" lon="6.14558">
        <ele>2348.8</ele>
        <time>2019-05-01T11:46:19Z</time>
      </trkpt>
      <trkpt lat="45.25565" lon="6.14566">
        <ele>2348.7</ele>
        <time>2019-05-01T11:46:20Z</time>
      </trkpt>
      <trkpt lat="45.25566" lon="6.14574">
        <ele>2348.5</ele>
        <time>2019-05-01T11:46:21Z</time>
      </trkpt>
      <trkpt lat="45.25561" lon="6.1458">
        <ele>2345.5</ele>
        <time>2019-05-01T11:46:22Z</time>
      </trkpt>
      <trkpt lat="45.25559" lon="6.14586">
        <ele>2345.2</ele>
        <time>2019-05-01T11:46:23Z</time>
      </trkpt>
      <trkpt lat="45.25552" lon="6.14584">
        <ele>2340.7</ele>
        <time>2019-05-01T11:46:24Z</time>
      </trkpt>
      <trkpt lat="45.25547" lon="6.14586">
        <ele>2338.9</ele>
        <time>2019-05-01T11:46:25Z</time>
      </trkpt>
      <trkpt lat="45.25547" lon="6.14602">
        <ele>2337.5</ele>
        <time>2019-05-01T11:46:26Z</time>
      </trkpt>
      <trkpt lat="45.25545" lon="6.1461">
        <ele>2335.1</ele>
        <time>2019-05-01T11:46:27Z</time>
      </trkpt>
      <trkpt lat="45.25545" lon="6.14615">
        <ele>2334.6</ele>
        <time>2019-05-01T11:46:28Z</time>
      </trkpt>
      <trkpt lat="45.25545" lon="6.1462">
        <ele>2334</ele>
        <time>2019-05-01T11:46:29Z</time>
      </trkpt>
      <trkpt lat="45.25545" lon="6.14626">
        <ele>2332.9</ele>
        <time>2019-05-01T11:46:30Z</time>
      </trkpt>
      <trkpt lat="45.25543" lon="6.14629">
        <ele>2331.4</ele>
        <time>2019-05-01T11:46:31Z</time>
      </trkpt>
      <trkpt lat="45.25537" lon="6.14633">
        <ele>2327.9</ele>
        <time>2019-05-01T11:46:32Z</time>
      </trkpt>
      <trkpt lat="45.25534" lon="6.14642">
        <ele>2326.5</ele>
        <time>2019-05-01T11:46:33Z</time>
      </trkpt>
      <trkpt lat="45.25533" lon="6.14649">
        <ele>2323.5</ele>
        <time>2019-05-01T11:46:34Z</time>
      </trkpt>
      <trkpt lat="45.25529" lon="6.14655">
        <ele>2320.4</ele>
        <time>2019-05-01T11:46:35Z</time>
      </trkpt>
      <trkpt lat="45.25523" lon="6.14662">
        <ele>2316.2</ele>
        <time>2019-05-01T11:46:36Z</time>
      </trkpt>
      <trkpt lat="45.25517" lon="6.14671">
        <ele>2311.5</ele>
        <time>2019-05-01T11:46:37Z</time>
      </trkpt>
      <trkpt lat="45.25512" lon="6.1468">
        <ele>2307</ele>
        <time>2019-05-01T11:46:38Z</time>
      </trkpt>
      <trkpt lat="45.25513" lon="6.14688">
        <ele>2305.4</ele>
        <time>2019-05-01T11:46:39Z</time>
      </trkpt>
      <trkpt lat="45.25513" lon="6.14692">
        <ele>2304.6</ele>
        <time>2019-05-01T11:46:40Z</time>
      </trkpt>
      <trkpt lat="45.2551" lon="6.14699">
        <ele>2301.5</ele>
        <time>2019-05-01T11:46:41Z</time>
      </trkpt>
      <trkpt lat="45.25498" lon="6.14699">
        <ele>2295.4</ele>
        <time>2019-05-01T11:46:42Z</time>
      </trkpt>
      <trkpt lat="45.25494" lon="6.14704">
        <ele>2292.8</ele>
        <time>2019-05-01T11:46:43Z</time>
      </trkpt>
      <trkpt lat="45.25486" lon="6.14708">
        <ele>2288.9</ele>
        <time>2019-05-01T11:46:44Z</time>
      </trkpt>
      <trkpt lat="45.25482" lon="6.14711">
        <ele>2286.5</ele>
        <time>2019-05-01T11:46:45Z</time>
      </trkpt>
      <trkpt lat="45.25476" lon="6.14713">
        <ele>2282.8</ele>
        <time>2019-05-01T11:46:46Z</time>
      </trkpt>
      <trkpt lat="45.2547" lon="6.14718">
        <ele>2278.9</ele>
        <time>2019-05-01T11:46:47Z</time>
      </trkpt>
      <trkpt lat="45.25464" lon="6.14726">
        <ele>2274</ele>
        <time>2019-05-01T11:46:49Z</time>
      </trkpt>
      <trkpt lat="45.25458" lon="6.14739">
        <ele>2268.8</ele>
        <time>2019-05-01T11:46:50Z</time>
      </trkpt>
      <trkpt lat="45.25456" lon="6.14751">
        <ele>2265.8</ele>
        <time>2019-05-01T11:46:51Z</time>
      </trkpt>
      <trkpt lat="45.25456" lon="6.14763">
        <ele>2263</ele>
        <time>2019-05-01T11:46:52Z</time>
      </trkpt>
      <trkpt lat="45.25456" lon="6.14772">
        <ele>2260.4</ele>
        <time>2019-05-01T11:46:53Z</time>
      </trkpt>
      <trkpt lat="45.25459" lon="6.14781">
        <ele>2260.1</ele>
        <time>2019-05-01T11:46:54Z</time>
      </trkpt>
      <trkpt lat="45.25461" lon="6.14786">
        <ele>2260.5</ele>
        <time>2019-05-01T11:46:55Z</time>
      </trkpt>
      <trkpt lat="45.25463" lon="6.14793">
        <ele>2260.5</ele>
        <time>2019-05-01T11:46:56Z</time>
      </trkpt>
      <trkpt lat="45.25466" lon="6.14792">
        <ele>2262.5</ele>
        <time>2019-05-01T11:46:57Z</time>
      </trkpt>
      <trkpt lat="45.25468" lon="6.14799">
        <ele>2261.3</ele>
        <time>2019-05-01T11:46:58Z</time>
      </trkpt>
      <trkpt lat="45.25468" lon="6.14804">
        <ele>2262.3</ele>
        <time>2019-05-01T11:46:59Z</time>
      </trkpt>
      <trkpt lat="45.2547" lon="6.14808">
        <ele>2261.8</ele>
        <time>2019-05-01T11:47:01Z</time>
      </trkpt>
      <trkpt lat="45.25475" lon="6.14801">
        <ele>2265.6</ele>
        <time>2019-05-01T11:47:11Z</time>
      </trkpt>
      <trkpt lat="45.25471" lon="6.14807">
        <ele>2263.4</ele>
        <time>2019-05-01T11:48:13Z</time>
      </trkpt>
      <trkpt lat="45.25467" lon="6.14813">
        <ele>2259.7</ele>
        <time>2019-05-01T11:48:15Z</time>
      </trkpt>
      <trkpt lat="45.25463" lon="6.14819">
        <ele>2257.5</ele>
        <time>2019-05-01T11:48:16Z</time>
      </trkpt>
      <trkpt lat="45.25453" lon="6.14819">
        <ele>2254.2</ele>
        <time>2019-05-01T11:48:17Z</time>
      </trkpt>
      <trkpt lat="45.25445" lon="6.14823">
        <ele>2250.3</ele>
        <time>2019-05-01T11:48:18Z</time>
      </trkpt>
      <trkpt lat="45.25439" lon="6.14825">
        <ele>2248</ele>
        <time>2019-05-01T11:48:19Z</time>
      </trkpt>
      <trkpt lat="45.25437" lon="6.14828">
        <ele>2246.6</ele>
        <time>2019-05-01T11:48:20Z</time>
      </trkpt>
      <trkpt lat="45.25432" lon="6.14831">
        <ele>2245.7</ele>
        <time>2019-05-01T11:48:21Z</time>
      </trkpt>
      <trkpt lat="45.25429" lon="6.14833">
        <ele>2243.6</ele>
        <time>2019-05-01T11:48:22Z</time>
      </trkpt>
      <trkpt lat="45.25425" lon="6.14836">
        <ele>2242.3</ele>
        <time>2019-05-01T11:48:23Z</time>
      </trkpt>
      <trkpt lat="45.2542" lon="6.14847">
        <ele>2240.5</ele>
        <time>2019-05-01T11:48:24Z</time>
      </trkpt>
      <trkpt lat="45.25419" lon="6.14854">
        <ele>2238.9</ele>
        <time>2019-05-01T11:48:25Z</time>
      </trkpt>
      <trkpt lat="45.25412" lon="6.1486">
        <ele>2237</ele>
        <time>2019-05-01T11:48:26Z</time>
      </trkpt>
      <trkpt lat="45.25407" lon="6.14866">
        <ele>2235</ele>
        <time>2019-05-01T11:48:27Z</time>
      </trkpt>
      <trkpt lat="45.2541" lon="6.14884">
        <ele>2233.7</ele>
        <time>2019-05-01T11:48:28Z</time>
      </trkpt>
      <trkpt lat="45.25405" lon="6.14897">
        <ele>2231.4</ele>
        <time>2019-05-01T11:48:29Z</time>
      </trkpt>
      <trkpt lat="45.25396" lon="6.14904">
        <ele>2229.8</ele>
        <time>2019-05-01T11:48:30Z</time>
      </trkpt>
      <trkpt lat="45.2539" lon="6.14913">
        <ele>2227.5</ele>
        <time>2019-05-01T11:48:31Z</time>
      </trkpt>
      <trkpt lat="45.25382" lon="6.14922">
        <ele>2225.8</ele>
        <time>2019-05-01T11:48:32Z</time>
      </trkpt>
      <trkpt lat="45.25375" lon="6.14931">
        <ele>2224.1</ele>
        <time>2019-05-01T11:48:33Z</time>
      </trkpt>
      <trkpt lat="45.2537" lon="6.14938">
        <ele>2223.1</ele>
        <time>2019-05-01T11:48:34Z</time>
      </trkpt>
      <trkpt lat="45.25365" lon="6.14942">
        <ele>2221.4</ele>
        <time>2019-05-01T11:48:35Z</time>
      </trkpt>
      <trkpt lat="45.25365" lon="6.14949">
        <ele>2220</ele>
        <time>2019-05-01T11:48:36Z</time>
      </trkpt>
      <trkpt lat="45.25368" lon="6.14959">
        <ele>2217.7</ele>
        <time>2019-05-01T11:48:37Z</time>
      </trkpt>
      <trkpt lat="45.25369" lon="6.14968">
        <ele>2215.9</ele>
        <time>2019-05-01T11:48:38Z</time>
      </trkpt>
      <trkpt lat="45.25367" lon="6.14975">
        <ele>2214.3</ele>
        <time>2019-05-01T11:48:39Z</time>
      </trkpt>
      <trkpt lat="45.25367" lon="6.14984">
        <ele>2212.8</ele>
        <time>2019-05-01T11:48:40Z</time>
      </trkpt>
      <trkpt lat="45.25366" lon="6.14991">
        <ele>2211.6</ele>
        <time>2019-05-01T11:48:41Z</time>
      </trkpt>
      <trkpt lat="45.25365" lon="6.14999">
        <ele>2209.9</ele>
        <time>2019-05-01T11:48:42Z</time>
      </trkpt>
      <trkpt lat="45.25367" lon="6.1501">
        <ele>2207</ele>
        <time>2019-05-01T11:48:43Z</time>
      </trkpt>
      <trkpt lat="45.25363" lon="6.15019">
        <ele>2205.3</ele>
        <time>2019-05-01T11:48:44Z</time>
      </trkpt>
      <trkpt lat="45.25361" lon="6.15029">
        <ele>2202.7</ele>
        <time>2019-05-01T11:48:45Z</time>
      </trkpt>
      <trkpt lat="45.25361" lon="6.1504">
        <ele>2200.9</ele>
        <time>2019-05-01T11:48:46Z</time>
      </trkpt>
      <trkpt lat="45.25357" lon="6.15053">
        <ele>2197.6</ele>
        <time>2019-05-01T11:48:47Z</time>
      </trkpt>
      <trkpt lat="45.25359" lon="6.1506">
        <ele>2195.7</ele>
        <time>2019-05-01T11:48:48Z</time>
      </trkpt>
      <trkpt lat="45.25361" lon="6.15069">
        <ele>2193.9</ele>
        <time>2019-05-01T11:48:49Z</time>
      </trkpt>
      <trkpt lat="45.25357" lon="6.15079">
        <ele>2191.6</ele>
        <time>2019-05-01T11:48:50Z</time>
      </trkpt>
      <trkpt lat="45.25358" lon="6.15087">
        <ele>2189.6</ele>
        <time>2019-05-01T11:48:51Z</time>
      </trkpt>
      <trkpt lat="45.25359" lon="6.15093">
        <ele>2187.9</ele>
        <time>2019-05-01T11:48:52Z</time>
      </trkpt>
      <trkpt lat="45.25359" lon="6.151">
        <ele>2186.5</ele>
        <time>2019-05-01T11:48:53Z</time>
      </trkpt>
      <trkpt lat="45.25357" lon="6.15094">
        <ele>2185</ele>
        <time>2019-05-01T11:48:55Z</time>
      </trkpt>
      <trkpt lat="45.25353" lon="6.15093">
        <ele>2184.1</ele>
        <time>2019-05-01T11:49:22Z</time>
      </trkpt>
      <trkpt lat="45.25348" lon="6.15098">
        <ele>2182</ele>
        <time>2019-05-01T11:49:24Z</time>
      </trkpt>
      <trkpt lat="45.25345" lon="6.15105">
        <ele>2179.3</ele>
        <time>2019-05-01T11:49:25Z</time>
      </trkpt>
      <trkpt lat="45.25341" lon="6.15112">
        <ele>2177.6</ele>
        <time>2019-05-01T11:49:26Z</time>
      </trkpt>
      <trkpt lat="45.2534" lon="6.15127">
        <ele>2173.7</ele>
        <time>2019-05-01T11:49:27Z</time>
      </trkpt>
      <trkpt lat="45.25336" lon="6.1514">
        <ele>2171</ele>
        <time>2019-05-01T11:49:28Z</time>
      </trkpt>
      <trkpt lat="45.25334" lon="6.15158">
        <ele>2167.3</ele>
        <time>2019-05-01T11:49:29Z</time>
      </trkpt>
      <trkpt lat="45.25331" lon="6.15176">
        <ele>2163.1</ele>
        <time>2019-05-01T11:49:30Z</time>
      </trkpt>
      <trkpt lat="45.25327" lon="6.15195">
        <ele>2159.7</ele>
        <time>2019-05-01T11:49:31Z</time>
      </trkpt>
      <trkpt lat="45.25324" lon="6.15212">
        <ele>2156.6</ele>
        <time>2019-05-01T11:49:32Z</time>
      </trkpt>
      <trkpt lat="45.2532" lon="6.15232">
        <ele>2153.1</ele>
        <time>2019-05-01T11:49:33Z</time>
      </trkpt>
      <trkpt lat="45.25311" lon="6.15246">
        <ele>2150.3</ele>
        <time>2019-05-01T11:49:34Z</time>
      </trkpt>
      <trkpt lat="45.25305" lon="6.15265">
        <ele>2147.7</ele>
        <time>2019-05-01T11:49:35Z</time>
      </trkpt>
      <trkpt lat="45.25301" lon="6.15282">
        <ele>2145.7</ele>
        <time>2019-05-01T11:49:36Z</time>
      </trkpt>
      <trkpt lat="45.25297" lon="6.15302">
        <ele>2144</ele>
        <time>2019-05-01T11:49:37Z</time>
      </trkpt>
      <trkpt lat="45.2529" lon="6.15318">
        <ele>2143.7</ele>
        <time>2019-05-01T11:49:38Z</time>
      </trkpt>
      <trkpt lat="45.25287" lon="6.15336">
        <ele>2142.3</ele>
        <time>2019-05-01T11:49:39Z</time>
      </trkpt>
      <trkpt lat="45.25282" lon="6.15352">
        <ele>2140.7</ele>
        <time>2019-05-01T11:49:40Z</time>
      </trkpt>
      <trkpt lat="45.25279" lon="6.15368">
        <ele>2138.6</ele>
        <time>2019-05-01T11:49:41Z</time>
      </trkpt>
      <trkpt lat="45.25274" lon="6.15385">
        <ele>2136.7</ele>
        <time>2019-05-01T11:49:42Z</time>
      </trkpt>
      <trkpt lat="45.25268" lon="6.15397">
        <ele>2135.8</ele>
        <time>2019-05-01T11:49:43Z</time>
      </trkpt>
      <trkpt lat="45.25266" lon="6.15414">
        <ele>2135.1</ele>
        <time>2019-05-01T11:49:44Z</time>
      </trkpt>
      <trkpt lat="45.25262" lon="6.15424">
        <ele>2134.8</ele>
        <time>2019-05-01T11:49:45Z</time>
      </trkpt>
      <trkpt lat="45.25258" lon="6.15436">
        <ele>2134.7</ele>
        <time>2019-05-01T11:49:46Z</time>
      </trkpt>
      <trkpt lat="45.25256" lon="6.15445">
        <ele>2134.4</ele>
        <time>2019-05-01T11:49:47Z</time>
      </trkpt>
      <trkpt lat="45.25253" lon="6.15455">
        <ele>2134.6</ele>
        <time>2019-05-01T11:49:48Z</time>
      </trkpt>
      <trkpt lat="45.2525" lon="6.15461">
        <ele>2134.3</ele>
        <time>2019-05-01T11:49:49Z</time>
      </trkpt>
      <trkpt lat="45.25247" lon="6.1547">
        <ele>2134.1</ele>
        <time>2019-05-01T11:49:50Z</time>
      </trkpt>
      <trkpt lat="45.25241" lon="6.15473">
        <ele>2134.1</ele>
        <time>2019-05-01T11:49:51Z</time>
      </trkpt>
      <trkpt lat="45.25239" lon="6.1548">
        <ele>2134.2</ele>
        <time>2019-05-01T11:49:52Z</time>
      </trkpt>
      <trkpt lat="45.25235" lon="6.15487">
        <ele>2134.2</ele>
        <time>2019-05-01T11:49:53Z</time>
      </trkpt>
      <trkpt lat="45.25233" lon="6.15495">
        <ele>2133.7</ele>
        <time>2019-05-01T11:49:54Z</time>
      </trkpt>
      <trkpt lat="45.2523" lon="6.15499">
        <ele>2133.5</ele>
        <time>2019-05-01T11:49:55Z</time>
      </trkpt>
      <trkpt lat="45.2523" lon="6.15509">
        <ele>2132.7</ele>
        <time>2019-05-01T11:49:56Z</time>
      </trkpt>
      <trkpt lat="45.25221" lon="6.15511">
        <ele>2132.3</ele>
        <time>2019-05-01T11:49:57Z</time>
      </trkpt>
      <trkpt lat="45.25214" lon="6.15516">
        <ele>2131.7</ele>
        <time>2019-05-01T11:49:58Z</time>
      </trkpt>
      <trkpt lat="45.2521" lon="6.15522">
        <ele>2131.1</ele>
        <time>2019-05-01T11:49:59Z</time>
      </trkpt>
      <trkpt lat="45.25207" lon="6.1553">
        <ele>2130.6</ele>
        <time>2019-05-01T11:50:00Z</time>
      </trkpt>
      <trkpt lat="45.25204" lon="6.15537">
        <ele>2130.2</ele>
        <time>2019-05-01T11:50:01Z</time>
      </trkpt>
      <trkpt lat="45.25201" lon="6.15544">
        <ele>2129.5</ele>
        <time>2019-05-01T11:50:02Z</time>
      </trkpt>
      <trkpt lat="45.25201" lon="6.15552">
        <ele>2128.8</ele>
        <time>2019-05-01T11:50:03Z</time>
      </trkpt>
      <trkpt lat="45.25198" lon="6.15559">
        <ele>2128.1</ele>
        <time>2019-05-01T11:50:04Z</time>
      </trkpt>
      <trkpt lat="45.25197" lon="6.15565">
        <ele>2127.7</ele>
        <time>2019-05-01T11:50:05Z</time>
      </trkpt>
      <trkpt lat="45.25195" lon="6.15572">
        <ele>2127.1</ele>
        <time>2019-05-01T11:50:06Z</time>
      </trkpt>
      <trkpt lat="45.25192" lon="6.15578">
        <ele>2126.5</ele>
        <time>2019-05-01T11:50:07Z</time>
      </trkpt>
      <trkpt lat="45.2519" lon="6.15584">
        <ele>2125.9</ele>
        <time>2019-05-01T11:50:08Z</time>
      </trkpt>
      <trkpt lat="45.25188" lon="6.1559">
        <ele>2125.4</ele>
        <time>2019-05-01T11:50:09Z</time>
      </trkpt>
      <trkpt lat="45.25186" lon="6.15596">
        <ele>2124.7</ele>
        <time>2019-05-01T11:50:10Z</time>
      </trkpt>
      <trkpt lat="45.25183" lon="6.15601">
        <ele>2124.1</ele>
        <time>2019-05-01T11:50:11Z</time>
      </trkpt>
      <trkpt lat="45.2518" lon="6.15606">
        <ele>2123.4</ele>
        <time>2019-05-01T11:50:12Z</time>
      </trkpt>
      <trkpt lat="45.25178" lon="6.15612">
        <ele>2122.6</ele>
        <time>2019-05-01T11:50:13Z</time>
      </trkpt>
      <trkpt lat="45.25175" lon="6.15619">
        <ele>2121.9</ele>
        <time>2019-05-01T11:50:14Z</time>
      </trkpt>
      <trkpt lat="45.25172" lon="6.15625">
        <ele>2121.3</ele>
        <time>2019-05-01T11:50:15Z</time>
      </trkpt>
      <trkpt lat="45.2517" lon="6.15632">
        <ele>2120.8</ele>
        <time>2019-05-01T11:50:16Z</time>
      </trkpt>
      <trkpt lat="45.25168" lon="6.1564">
        <ele>2120.1</ele>
        <time>2019-05-01T11:50:17Z</time>
      </trkpt>
      <trkpt lat="45.25166" lon="6.15648">
        <ele>2119.1</ele>
        <time>2019-05-01T11:50:18Z</time>
      </trkpt>
      <trkpt lat="45.25166" lon="6.15655">
        <ele>2118.3</ele>
        <time>2019-05-01T11:50:19Z</time>
      </trkpt>
      <trkpt lat="45.25164" lon="6.15662">
        <ele>2117.9</ele>
        <time>2019-05-01T11:50:20Z</time>
      </trkpt>
      <trkpt lat="45.25162" lon="6.15669">
        <ele>2117.5</ele>
        <time>2019-05-01T11:50:21Z</time>
      </trkpt>
      <trkpt lat="45.2516" lon="6.15675">
        <ele>2117.1</ele>
        <time>2019-05-01T11:50:22Z</time>
      </trkpt>
      <trkpt lat="45.25158" lon="6.15681">
        <ele>2116.5</ele>
        <time>2019-05-01T11:50:23Z</time>
      </trkpt>
      <trkpt lat="45.25157" lon="6.15686">
        <ele>2116.1</ele>
        <time>2019-05-01T11:50:24Z</time>
      </trkpt>
      <trkpt lat="45.25155" lon="6.1569">
        <ele>2115.7</ele>
        <time>2019-05-01T11:50:25Z</time>
      </trkpt>
      <trkpt lat="45.25155" lon="6.15695">
        <ele>2115.4</ele>
        <time>2019-05-01T11:50:26Z</time>
      </trkpt>
      <trkpt lat="45.25154" lon="6.15699">
        <ele>2115</ele>
        <time>2019-05-01T11:50:27Z</time>
      </trkpt>
      <trkpt lat="45.25152" lon="6.15703">
        <ele>2114.5</ele>
        <time>2019-05-01T11:50:28Z</time>
      </trkpt>
      <trkpt lat="45.25151" lon="6.15707">
        <ele>2114.5</ele>
        <time>2019-05-01T11:50:29Z</time>
      </trkpt>
      <trkpt lat="45.25148" lon="6.15713">
        <ele>2114</ele>
        <time>2019-05-01T11:50:31Z</time>
      </trkpt>
      <trkpt lat="45.25146" lon="6.15719">
        <ele>2113.1</ele>
        <time>2019-05-01T11:50:32Z</time>
      </trkpt>
      <trkpt lat="45.25145" lon="6.15723">
        <ele>2112.4</ele>
        <time>2019-05-01T11:50:33Z</time>
      </trkpt>
      <trkpt lat="45.25143" lon="6.15728">
        <ele>2111.9</ele>
        <time>2019-05-01T11:50:34Z</time>
      </trkpt>
      <trkpt lat="45.25141" lon="6.15732">
        <ele>2111.3</ele>
        <time>2019-05-01T11:50:35Z</time>
      </trkpt>
      <trkpt lat="45.25139" lon="6.15736">
        <ele>2110.7</ele>
        <time>2019-05-01T11:50:36Z</time>
      </trkpt>
      <trkpt lat="45.25137" lon="6.1574">
        <ele>2110.2</ele>
        <time>2019-05-01T11:50:37Z</time>
      </trkpt>
      <trkpt lat="45.25135" lon="6.15744">
        <ele>2109.5</ele>
        <time>2019-05-01T11:50:39Z</time>
      </trkpt>
      <trkpt lat="45.25133" lon="6.15748">
        <ele>2109</ele>
        <time>2019-05-01T11:50:41Z</time>
      </trkpt>
      <trkpt lat="45.25131" lon="6.1575">
        <ele>2108.5</ele>
        <time>2019-05-01T11:50:47Z</time>
      </trkpt>
      <trkpt lat="45.25128" lon="6.15752">
        <ele>2108</ele>
        <time>2019-05-01T11:50:53Z</time>
      </trkpt>
      <trkpt lat="45.2513" lon="6.15749">
        <ele>2107.6</ele>
        <time>2019-05-01T11:51:40Z</time>
      </trkpt>
      <trkpt lat="45.25129" lon="6.15754">
        <ele>2107</ele>
        <time>2019-05-01T11:52:03Z</time>
      </trkpt>
      <trkpt lat="45.25127" lon="6.15758">
        <ele>2106.3</ele>
        <time>2019-05-01T11:52:05Z</time>
      </trkpt>
      <trkpt lat="45.25124" lon="6.15765">
        <ele>2105.4</ele>
        <time>2019-05-01T11:52:07Z</time>
      </trkpt>
      <trkpt lat="45.25122" lon="6.1577">
        <ele>2105</ele>
        <time>2019-05-01T11:52:08Z</time>
      </trkpt>
      <trkpt lat="45.2512" lon="6.15778">
        <ele>2104.1</ele>
        <time>2019-05-01T11:52:09Z</time>
      </trkpt>
      <trkpt lat="45.25116" lon="6.15784">
        <ele>2103.3</ele>
        <time>2019-05-01T11:52:10Z</time>
      </trkpt>
      <trkpt lat="45.25112" lon="6.15792">
        <ele>2102.7</ele>
        <time>2019-05-01T11:52:11Z</time>
      </trkpt>
      <trkpt lat="45.25108" lon="6.158">
        <ele>2101.9</ele>
        <time>2019-05-01T11:52:12Z</time>
      </trkpt>
      <trkpt lat="45.25103" lon="6.15809">
        <ele>2100.5</ele>
        <time>2019-05-01T11:52:13Z</time>
      </trkpt>
      <trkpt lat="45.25097" lon="6.15817">
        <ele>2099.3</ele>
        <time>2019-05-01T11:52:14Z</time>
      </trkpt>
      <trkpt lat="45.25092" lon="6.15825">
        <ele>2098.2</ele>
        <time>2019-05-01T11:52:15Z</time>
      </trkpt>
      <trkpt lat="45.25088" lon="6.1583">
        <ele>2097.7</ele>
        <time>2019-05-01T11:52:16Z</time>
      </trkpt>
      <trkpt lat="45.25083" lon="6.15837">
        <ele>2096.8</ele>
        <time>2019-05-01T11:52:17Z</time>
      </trkpt>
      <trkpt lat="45.2508" lon="6.15845">
        <ele>2095.3</ele>
        <time>2019-05-01T11:52:18Z</time>
      </trkpt>
      <trkpt lat="45.25077" lon="6.15856">
        <ele>2093.4</ele>
        <time>2019-05-01T11:52:19Z</time>
      </trkpt>
      <trkpt lat="45.25076" lon="6.15866">
        <ele>2091.8</ele>
        <time>2019-05-01T11:52:20Z</time>
      </trkpt>
      <trkpt lat="45.25077" lon="6.15878">
        <ele>2090.5</ele>
        <time>2019-05-01T11:52:21Z</time>
      </trkpt>
      <trkpt lat="45.25077" lon="6.15891">
        <ele>2089</ele>
        <time>2019-05-01T11:52:22Z</time>
      </trkpt>
      <trkpt lat="45.25078" lon="6.15904">
        <ele>2087.1</ele>
        <time>2019-05-01T11:52:23Z</time>
      </trkpt>
      <trkpt lat="45.25076" lon="6.15919">
        <ele>2085.7</ele>
        <time>2019-05-01T11:52:24Z</time>
      </trkpt>
      <trkpt lat="45.25074" lon="6.15931">
        <ele>2083.7</ele>
        <time>2019-05-01T11:52:25Z</time>
      </trkpt>
      <trkpt lat="45.25071" lon="6.1594">
        <ele>2082.6</ele>
        <time>2019-05-01T11:52:26Z</time>
      </trkpt>
      <trkpt lat="45.25066" lon="6.1595">
        <ele>2082.3</ele>
        <time>2019-05-01T11:52:27Z</time>
      </trkpt>
      <trkpt lat="45.25061" lon="6.15956">
        <ele>2081.1</ele>
        <time>2019-05-01T11:52:28Z</time>
      </trkpt>
      <trkpt lat="45.25056" lon="6.15962">
        <ele>2079.7</ele>
        <time>2019-05-01T11:52:29Z</time>
      </trkpt>
      <trkpt lat="45.25051" lon="6.1597">
        <ele>2078.1</ele>
        <time>2019-05-01T11:52:30Z</time>
      </trkpt>
      <trkpt lat="45.25046" lon="6.15977">
        <ele>2077.3</ele>
        <time>2019-05-01T11:52:31Z</time>
      </trkpt>
      <trkpt lat="45.25044" lon="6.15987">
        <ele>2076.1</ele>
        <time>2019-05-01T11:52:32Z</time>
      </trkpt>
      <trkpt lat="45.25044" lon="6.15998">
        <ele>2075.1</ele>
        <time>2019-05-01T11:52:33Z</time>
      </trkpt>
      <trkpt lat="45.25044" lon="6.16006">
        <ele>2074.8</ele>
        <time>2019-05-01T11:52:34Z</time>
      </trkpt>
      <trkpt lat="45.25041" lon="6.16017">
        <ele>2074.6</ele>
        <time>2019-05-01T11:52:35Z</time>
      </trkpt>
      <trkpt lat="45.2504" lon="6.1603">
        <ele>2073.7</ele>
        <time>2019-05-01T11:52:36Z</time>
      </trkpt>
      <trkpt lat="45.25037" lon="6.16038">
        <ele>2073</ele>
        <time>2019-05-01T11:52:37Z</time>
      </trkpt>
      <trkpt lat="45.25032" lon="6.16043">
        <ele>2072.4</ele>
        <time>2019-05-01T11:52:38Z</time>
      </trkpt>
      <trkpt lat="45.25027" lon="6.1605">
        <ele>2071.3</ele>
        <time>2019-05-01T11:52:39Z</time>
      </trkpt>
      <trkpt lat="45.2502" lon="6.16058">
        <ele>2070.1</ele>
        <time>2019-05-01T11:52:40Z</time>
      </trkpt>
      <trkpt lat="45.25016" lon="6.16067">
        <ele>2067.7</ele>
        <time>2019-05-01T11:52:41Z</time>
      </trkpt>
      <trkpt lat="45.25012" lon="6.16078">
        <ele>2065.6</ele>
        <time>2019-05-01T11:52:42Z</time>
      </trkpt>
      <trkpt lat="45.25007" lon="6.16089">
        <ele>2065.2</ele>
        <time>2019-05-01T11:52:43Z</time>
      </trkpt>
      <trkpt lat="45.25002" lon="6.161">
        <ele>2062.6</ele>
        <time>2019-05-01T11:52:44Z</time>
      </trkpt>
      <trkpt lat="45.24997" lon="6.16111">
        <ele>2059.2</ele>
        <time>2019-05-01T11:52:45Z</time>
      </trkpt>
      <trkpt lat="45.24992" lon="6.16121">
        <ele>2056.6</ele>
        <time>2019-05-01T11:52:46Z</time>
      </trkpt>
      <trkpt lat="45.24987" lon="6.16131">
        <ele>2053.3</ele>
        <time>2019-05-01T11:52:47Z</time>
      </trkpt>
      <trkpt lat="45.24982" lon="6.16142">
        <ele>2051.2</ele>
        <time>2019-05-01T11:52:48Z</time>
      </trkpt>
      <trkpt lat="45.24978" lon="6.16154">
        <ele>2049.2</ele>
        <time>2019-05-01T11:52:49Z</time>
      </trkpt>
      <trkpt lat="45.24973" lon="6.16167">
        <ele>2046.6</ele>
        <time>2019-05-01T11:52:50Z</time>
      </trkpt>
      <trkpt lat="45.2497" lon="6.16177">
        <ele>2045.4</ele>
        <time>2019-05-01T11:52:51Z</time>
      </trkpt>
      <trkpt lat="45.24966" lon="6.16188">
        <ele>2043.2</ele>
        <time>2019-05-01T11:52:52Z</time>
      </trkpt>
      <trkpt lat="45.24963" lon="6.16198">
        <ele>2041.4</ele>
        <time>2019-05-01T11:52:53Z</time>
      </trkpt>
      <trkpt lat="45.2496" lon="6.16206">
        <ele>2039.5</ele>
        <time>2019-05-01T11:52:54Z</time>
      </trkpt>
      <trkpt lat="45.24958" lon="6.16215">
        <ele>2038</ele>
        <time>2019-05-01T11:52:55Z</time>
      </trkpt>
      <trkpt lat="45.24955" lon="6.16222">
        <ele>2033.5</ele>
        <time>2019-05-01T11:52:56Z</time>
      </trkpt>
      <trkpt lat="45.24952" lon="6.16229">
        <ele>2033.2</ele>
        <time>2019-05-01T11:52:57Z</time>
      </trkpt>
      <trkpt lat="45.24949" lon="6.16236">
        <ele>2032.9</ele>
        <time>2019-05-01T11:52:58Z</time>
      </trkpt>
      <trkpt lat="45.24945" lon="6.1624">
        <ele>2032.8</ele>
        <time>2019-05-01T11:52:59Z</time>
      </trkpt>
      <trkpt lat="45.24944" lon="6.16244">
        <ele>2032.6</ele>
        <time>2019-05-01T11:53:00Z</time>
      </trkpt>
      <trkpt lat="45.24941" lon="6.1625">
        <ele>2032.5</ele>
        <time>2019-05-01T11:53:01Z</time>
      </trkpt>
      <trkpt lat="45.24938" lon="6.16254">
        <ele>2032.5</ele>
        <time>2019-05-01T11:53:02Z</time>
      </trkpt>
      <trkpt lat="45.24936" lon="6.16258">
        <ele>2032.5</ele>
        <time>2019-05-01T11:53:03Z</time>
      </trkpt>
      <trkpt lat="45.24936" lon="6.16265">
        <ele>2032.5</ele>
        <time>2019-05-01T11:53:34Z</time>
      </trkpt>
      <trkpt lat="45.24939" lon="6.16266">
        <ele>2032.7</ele>
        <time>2019-05-01T11:53:35Z</time>
      </trkpt>
      <trkpt lat="45.24943" lon="6.16267">
        <ele>2031.6</ele>
        <time>2019-05-01T11:53:36Z</time>
      </trkpt>
      <trkpt lat="45.24947" lon="6.16269">
        <ele>2030.2</ele>
        <time>2019-05-01T11:53:37Z</time>
      </trkpt>
      <trkpt lat="45.24952" lon="6.1628">
        <ele>2027.5</ele>
        <time>2019-05-01T11:53:38Z</time>
      </trkpt>
      <trkpt lat="45.24953" lon="6.1629">
        <ele>2024.8</ele>
        <time>2019-05-01T11:53:39Z</time>
      </trkpt>
      <trkpt lat="45.24955" lon="6.16304">
        <ele>2021.9</ele>
        <time>2019-05-01T11:53:40Z</time>
      </trkpt>
      <trkpt lat="45.24958" lon="6.16314">
        <ele>2020.2</ele>
        <time>2019-05-01T11:53:41Z</time>
      </trkpt>
      <trkpt lat="45.24961" lon="6.16325">
        <ele>2017.7</ele>
        <time>2019-05-01T11:53:42Z</time>
      </trkpt>
      <trkpt lat="45.24958" lon="6.16331">
        <ele>2017.1</ele>
        <time>2019-05-01T11:53:43Z</time>
      </trkpt>
      <trkpt lat="45.24953" lon="6.16337">
        <ele>2016</ele>
        <time>2019-05-01T11:53:44Z</time>
      </trkpt>
      <trkpt lat="45.24948" lon="6.16346">
        <ele>2013.5</ele>
        <time>2019-05-01T11:53:45Z</time>
      </trkpt>
      <trkpt lat="45.24943" lon="6.16352">
        <ele>2012.7</ele>
        <time>2019-05-01T11:53:46Z</time>
      </trkpt>
      <trkpt lat="45.24941" lon="6.16357">
        <ele>2011.7</ele>
        <time>2019-05-01T11:53:47Z</time>
      </trkpt>
      <trkpt lat="45.24936" lon="6.16361">
        <ele>2010.8</ele>
        <time>2019-05-01T11:53:48Z</time>
      </trkpt>
      <trkpt lat="45.24933" lon="6.16364">
        <ele>2009.7</ele>
        <time>2019-05-01T11:53:49Z</time>
      </trkpt>
      <trkpt lat="45.2493" lon="6.16367">
        <ele>2009.9</ele>
        <time>2019-05-01T11:53:50Z</time>
      </trkpt>
      <trkpt lat="45.24927" lon="6.1637">
        <ele>2008.8</ele>
        <time>2019-05-01T11:53:51Z</time>
      </trkpt>
      <trkpt lat="45.24925" lon="6.16372">
        <ele>2007.8</ele>
        <time>2019-05-01T11:53:53Z</time>
      </trkpt>
      <trkpt lat="45.24919" lon="6.16375">
        <ele>2008.2</ele>
        <time>2019-05-01T11:53:55Z</time>
      </trkpt>
      <trkpt lat="45.24915" lon="6.16379">
        <ele>2007.3</ele>
        <time>2019-05-01T11:53:56Z</time>
      </trkpt>
      <trkpt lat="45.24911" lon="6.16384">
        <ele>2006.2</ele>
        <time>2019-05-01T11:53:57Z</time>
      </trkpt>
      <trkpt lat="45.24906" lon="6.1639">
        <ele>2003.6</ele>
        <time>2019-05-01T11:53:58Z</time>
      </trkpt>
      <trkpt lat="45.24901" lon="6.16396">
        <ele>2002.4</ele>
        <time>2019-05-01T11:53:59Z</time>
      </trkpt>
      <trkpt lat="45.24896" lon="6.16404">
        <ele>1999.8</ele>
        <time>2019-05-01T11:54:00Z</time>
      </trkpt>
      <trkpt lat="45.24892" lon="6.16409">
        <ele>1998.5</ele>
        <time>2019-05-01T11:54:01Z</time>
      </trkpt>
      <trkpt lat="45.2489" lon="6.16411">
        <ele>1997.1</ele>
        <time>2019-05-01T11:54:02Z</time>
      </trkpt>
      <trkpt lat="45.24886" lon="6.16416">
        <ele>1995.5</ele>
        <time>2019-05-01T11:54:03Z</time>
      </trkpt>
      <trkpt lat="45.24884" lon="6.16419">
        <ele>1995.7</ele>
        <time>2019-05-01T11:54:04Z</time>
      </trkpt>
      <trkpt lat="45.24882" lon="6.16425">
        <ele>1992.3</ele>
        <time>2019-05-01T11:54:05Z</time>
      </trkpt>
      <trkpt lat="45.2488" lon="6.1643">
        <ele>1990.7</ele>
        <time>2019-05-01T11:54:06Z</time>
      </trkpt>
      <trkpt lat="45.24877" lon="6.16435">
        <ele>1989.3</ele>
        <time>2019-05-01T11:54:07Z</time>
      </trkpt>
      <trkpt lat="45.24876" lon="6.16441">
        <ele>1986.3</ele>
        <time>2019-05-01T11:54:08Z</time>
      </trkpt>
      <trkpt lat="45.24876" lon="6.16449">
        <ele>1985</ele>
        <time>2019-05-01T11:54:09Z</time>
      </trkpt>
      <trkpt lat="45.24876" lon="6.16456">
        <ele>1982.2</ele>
        <time>2019-05-01T11:54:10Z</time>
      </trkpt>
      <trkpt lat="45.24883" lon="6.16466">
        <ele>1979.3</ele>
        <time>2019-05-01T11:54:11Z</time>
      </trkpt>
      <trkpt lat="45.24886" lon="6.16472">
        <ele>1976.7</ele>
        <time>2019-05-01T11:54:12Z</time>
      </trkpt>
      <trkpt lat="45.24889" lon="6.16474">
        <ele>1977</ele>
        <time>2019-05-01T11:54:13Z</time>
      </trkpt>
      <trkpt lat="45.24889" lon="6.16482">
        <ele>1974.7</ele>
        <time>2019-05-01T11:54:14Z</time>
      </trkpt>
      <trkpt lat="45.2489" lon="6.16487">
        <ele>1973.8</ele>
        <time>2019-05-01T11:54:15Z</time>
      </trkpt>
      <trkpt lat="45.2489" lon="6.16494">
        <ele>1971.8</ele>
        <time>2019-05-01T11:54:16Z</time>
      </trkpt>
      <trkpt lat="45.2489" lon="6.1649">
        <ele>1973</ele>
        <time>2019-05-01T11:54:17Z</time>
      </trkpt>
      <trkpt lat="45.24894" lon="6.16486">
        <ele>1974.9</ele>
        <time>2019-05-01T11:54:21Z</time>
      </trkpt>
      <trkpt lat="45.24895" lon="6.1649">
        <ele>1974</ele>
        <time>2019-05-01T11:54:26Z</time>
      </trkpt>
      <trkpt lat="45.24892" lon="6.16491">
        <ele>1973.7</ele>
        <time>2019-05-01T11:54:28Z</time>
      </trkpt>
      <trkpt lat="45.24885" lon="6.16495">
        <ele>1972.1</ele>
        <time>2019-05-01T11:54:30Z</time>
      </trkpt>
      <trkpt lat="45.24881" lon="6.16499">
        <ele>1970.4</ele>
        <time>2019-05-01T11:54:31Z</time>
      </trkpt>
      <trkpt lat="45.24876" lon="6.16499">
        <ele>1970.3</ele>
        <time>2019-05-01T11:54:32Z</time>
      </trkpt>
      <trkpt lat="45.24873" lon="6.16506">
        <ele>1967.7</ele>
        <time>2019-05-01T11:54:33Z</time>
      </trkpt>
      <trkpt lat="45.24869" lon="6.16512">
        <ele>1966.1</ele>
        <time>2019-05-01T11:54:34Z</time>
      </trkpt>
      <trkpt lat="45.24865" lon="6.16516">
        <ele>1964.8</ele>
        <time>2019-05-01T11:54:35Z</time>
      </trkpt>
      <trkpt lat="45.24863" lon="6.16522">
        <ele>1962.3</ele>
        <time>2019-05-01T11:54:36Z</time>
      </trkpt>
      <trkpt lat="45.24861" lon="6.1653">
        <ele>1961.1</ele>
        <time>2019-05-01T11:54:37Z</time>
      </trkpt>
      <trkpt lat="45.24861" lon="6.16538">
        <ele>1958.9</ele>
        <time>2019-05-01T11:54:38Z</time>
      </trkpt>
      <trkpt lat="45.24856" lon="6.16544">
        <ele>1956.3</ele>
        <time>2019-05-01T11:54:39Z</time>
      </trkpt>
      <trkpt lat="45.24854" lon="6.16549">
        <ele>1954.8</ele>
        <time>2019-05-01T11:54:40Z</time>
      </trkpt>
      <trkpt lat="45.24853" lon="6.16556">
        <ele>1953.4</ele>
        <time>2019-05-01T11:54:41Z</time>
      </trkpt>
      <trkpt lat="45.24846" lon="6.16557">
        <ele>1951.2</ele>
        <time>2019-05-01T11:54:42Z</time>
      </trkpt>
      <trkpt lat="45.2484" lon="6.16559">
        <ele>1951.2</ele>
        <time>2019-05-01T11:54:43Z</time>
      </trkpt>
      <trkpt lat="45.24835" lon="6.16561">
        <ele>1949.5</ele>
        <time>2019-05-01T11:54:44Z</time>
      </trkpt>
      <trkpt lat="45.2483" lon="6.16564">
        <ele>1949.6</ele>
        <time>2019-05-01T11:54:45Z</time>
      </trkpt>
      <trkpt lat="45.24825" lon="6.16567">
        <ele>1948.2</ele>
        <time>2019-05-01T11:54:46Z</time>
      </trkpt>
      <trkpt lat="45.24819" lon="6.16569">
        <ele>1948.6</ele>
        <time>2019-05-01T11:54:47Z</time>
      </trkpt>
      <trkpt lat="45.24814" lon="6.1657">
        <ele>1947.7</ele>
        <time>2019-05-01T11:54:48Z</time>
      </trkpt>
      <trkpt lat="45.24809" lon="6.16572">
        <ele>1948.2</ele>
        <time>2019-05-01T11:54:49Z</time>
      </trkpt>
      <trkpt lat="45.24806" lon="6.16574">
        <ele>1947</ele>
        <time>2019-05-01T11:54:50Z</time>
      </trkpt>
      <trkpt lat="45.24803" lon="6.16577">
        <ele>1945.9</ele>
        <time>2019-05-01T11:54:51Z</time>
      </trkpt>
      <trkpt lat="45.24801" lon="6.16581">
        <ele>1944.8</ele>
        <time>2019-05-01T11:54:52Z</time>
      </trkpt>
      <trkpt lat="45.24798" lon="6.16586">
        <ele>1943.2</ele>
        <time>2019-05-01T11:54:53Z</time>
      </trkpt>
      <trkpt lat="45.24794" lon="6.16589">
        <ele>1941.2</ele>
        <time>2019-05-01T11:54:54Z</time>
      </trkpt>
      <trkpt lat="45.24791" lon="6.16592">
        <ele>1939.5</ele>
        <time>2019-05-01T11:54:55Z</time>
      </trkpt>
      <trkpt lat="45.24788" lon="6.16595">
        <ele>1937.8</ele>
        <time>2019-05-01T11:54:57Z</time>
      </trkpt>
      <trkpt lat="45.24784" lon="6.16599">
        <ele>1935.3</ele>
        <time>2019-05-01T11:54:59Z</time>
      </trkpt>
      <trkpt lat="45.24781" lon="6.16602">
        <ele>1933.5</ele>
        <time>2019-05-01T11:55:00Z</time>
      </trkpt>
      <trkpt lat="45.24777" lon="6.16606">
        <ele>1931.8</ele>
        <time>2019-05-01T11:55:01Z</time>
      </trkpt>
      <trkpt lat="45.24773" lon="6.1661">
        <ele>1930.7</ele>
        <time>2019-05-01T11:55:02Z</time>
      </trkpt>
      <trkpt lat="45.24768" lon="6.16615">
        <ele>1929</ele>
        <time>2019-05-01T11:55:03Z</time>
      </trkpt>
      <trkpt lat="45.24764" lon="6.16621">
        <ele>1927.1</ele>
        <time>2019-05-01T11:55:04Z</time>
      </trkpt>
      <trkpt lat="45.24759" lon="6.16629">
        <ele>1925.3</ele>
        <time>2019-05-01T11:55:05Z</time>
      </trkpt>
      <trkpt lat="45.24754" lon="6.16637">
        <ele>1923.2</ele>
        <time>2019-05-01T11:55:06Z</time>
      </trkpt>
      <trkpt lat="45.24749" lon="6.16645">
        <ele>1921.4</ele>
        <time>2019-05-01T11:55:07Z</time>
      </trkpt>
      <trkpt lat="45.24744" lon="6.16653">
        <ele>1921</ele>
        <time>2019-05-01T11:55:08Z</time>
      </trkpt>
      <trkpt lat="45.24739" lon="6.16659">
        <ele>1919.7</ele>
        <time>2019-05-01T11:55:09Z</time>
      </trkpt>
      <trkpt lat="45.24735" lon="6.16664">
        <ele>1918.3</ele>
        <time>2019-05-01T11:55:10Z</time>
      </trkpt>
      <trkpt lat="45.24731" lon="6.16669">
        <ele>1917.2</ele>
        <time>2019-05-01T11:55:11Z</time>
      </trkpt>
      <trkpt lat="45.24728" lon="6.16674">
        <ele>1916.2</ele>
        <time>2019-05-01T11:55:12Z</time>
      </trkpt>
      <trkpt lat="45.24723" lon="6.16678">
        <ele>1915.4</ele>
        <time>2019-05-01T11:55:13Z</time>
      </trkpt>
      <trkpt lat="45.2472" lon="6.16681">
        <ele>1914.8</ele>
        <time>2019-05-01T11:55:14Z</time>
      </trkpt>
      <trkpt lat="45.24722" lon="6.16683">
        <ele>1914.4</ele>
        <time>2019-05-01T11:56:25Z</time>
      </trkpt>
      <trkpt lat="45.24718" lon="6.16681">
        <ele>1913.5</ele>
        <time>2019-05-01T11:56:30Z</time>
      </trkpt>
      <trkpt lat="45.24721" lon="6.16679">
        <ele>1913</ele>
        <time>2019-05-01T11:56:44Z</time>
      </trkpt>
      <trkpt lat="45.24718" lon="6.16684">
        <ele>1912.3</ele>
        <time>2019-05-01T11:57:31Z</time>
      </trkpt>
      <trkpt lat="45.24713" lon="6.16687">
        <ele>1912</ele>
        <time>2019-05-01T11:57:33Z</time>
      </trkpt>
      <trkpt lat="45.2471" lon="6.1669">
        <ele>1911.8</ele>
        <time>2019-05-01T11:57:34Z</time>
      </trkpt>
      <trkpt lat="45.24709" lon="6.16693">
        <ele>1911.2</ele>
        <time>2019-05-01T11:57:35Z</time>
      </trkpt>
      <trkpt lat="45.2471" lon="6.16698">
        <ele>1910.4</ele>
        <time>2019-05-01T11:57:36Z</time>
      </trkpt>
      <trkpt lat="45.24713" lon="6.16701">
        <ele>1909.6</ele>
        <time>2019-05-01T11:57:37Z</time>
      </trkpt>
      <trkpt lat="45.24717" lon="6.16703">
        <ele>1908.6</ele>
        <time>2019-05-01T11:57:38Z</time>
      </trkpt>
      <trkpt lat="45.24719" lon="6.16706">
        <ele>1907.8</ele>
        <time>2019-05-01T11:57:39Z</time>
      </trkpt>
      <trkpt lat="45.24718" lon="6.1671">
        <ele>1907.1</ele>
        <time>2019-05-01T11:57:40Z</time>
      </trkpt>
      <trkpt lat="45.24716" lon="6.16713">
        <ele>1906.3</ele>
        <time>2019-05-01T11:57:41Z</time>
      </trkpt>
      <trkpt lat="45.24713" lon="6.16714">
        <ele>1905.6</ele>
        <time>2019-05-01T11:57:42Z</time>
      </trkpt>
      <trkpt lat="45.24708" lon="6.16714">
        <ele>1904.4</ele>
        <time>2019-05-01T11:57:44Z</time>
      </trkpt>
      <trkpt lat="45.24703" lon="6.16716">
        <ele>1903.1</ele>
        <time>2019-05-01T11:57:46Z</time>
      </trkpt>
      <trkpt lat="45.247" lon="6.16717">
        <ele>1902.3</ele>
        <time>2019-05-01T11:57:47Z</time>
      </trkpt>
      <trkpt lat="45.24696" lon="6.16718">
        <ele>1901.5</ele>
        <time>2019-05-01T11:57:48Z</time>
      </trkpt>
      <trkpt lat="45.24693" lon="6.16718">
        <ele>1900.5</ele>
        <time>2019-05-01T11:57:49Z</time>
      </trkpt>
      <trkpt lat="45.24689" lon="6.16723">
        <ele>1899</ele>
        <time>2019-05-01T11:58:01Z</time>
      </trkpt>
      <trkpt lat="45.24686" lon="6.16726">
        <ele>1897.5</ele>
        <time>2019-05-01T11:58:02Z</time>
      </trkpt>
      <trkpt lat="45.24683" lon="6.16727">
        <ele>1896</ele>
        <time>2019-05-01T11:58:03Z</time>
      </trkpt>
      <trkpt lat="45.24679" lon="6.16727">
        <ele>1894.2</ele>
        <time>2019-05-01T11:58:04Z</time>
      </trkpt>
      <trkpt lat="45.24676" lon="6.16727">
        <ele>1892.7</ele>
        <time>2019-05-01T11:58:05Z</time>
      </trkpt>
      <trkpt lat="45.24671" lon="6.16728">
        <ele>1891.4</ele>
        <time>2019-05-01T11:58:06Z</time>
      </trkpt>
      <trkpt lat="45.24667" lon="6.16728">
        <ele>1889.9</ele>
        <time>2019-05-01T11:58:07Z</time>
      </trkpt>
      <trkpt lat="45.24663" lon="6.16729">
        <ele>1888.8</ele>
        <time>2019-05-01T11:58:08Z</time>
      </trkpt>
      <trkpt lat="45.24661" lon="6.16736">
        <ele>1886.9</ele>
        <time>2019-05-01T11:58:09Z</time>
      </trkpt>
      <trkpt lat="45.24658" lon="6.16742">
        <ele>1885.3</ele>
        <time>2019-05-01T11:58:10Z</time>
      </trkpt>
      <trkpt lat="45.24655" lon="6.16747">
        <ele>1883.7</ele>
        <time>2019-05-01T11:58:11Z</time>
      </trkpt>
      <trkpt lat="45.24651" lon="6.16747">
        <ele>1882.1</ele>
        <time>2019-05-01T11:58:13Z</time>
      </trkpt>
      <trkpt lat="45.24647" lon="6.16745">
        <ele>1880.4</ele>
        <time>2019-05-01T11:58:22Z</time>
      </trkpt>
      <trkpt lat="45.24645" lon="6.16743">
        <ele>1879</ele>
        <time>2019-05-01T11:58:42Z</time>
      </trkpt>
      <trkpt lat="45.24642" lon="6.16742">
        <ele>1878</ele>
        <time>2019-05-01T11:58:49Z</time>
      </trkpt>
      <trkpt lat="45.24639" lon="6.16741">
        <ele>1877.2</ele>
        <time>2019-05-01T11:58:52Z</time>
      </trkpt>
      <trkpt lat="45.24637" lon="6.16738">
        <ele>1876.4</ele>
        <time>2019-05-01T11:58:54Z</time>
      </trkpt>
      <trkpt lat="45.24633" lon="6.16736">
        <ele>1875.2</ele>
        <time>2019-05-01T11:58:56Z</time>
      </trkpt>
      <trkpt lat="45.2463" lon="6.16737">
        <ele>1873.3</ele>
        <time>2019-05-01T11:58:58Z</time>
      </trkpt>
      <trkpt lat="45.24627" lon="6.1674">
        <ele>1871.5</ele>
        <time>2019-05-01T11:59:00Z</time>
      </trkpt>
      <trkpt lat="45.24627" lon="6.16744">
        <ele>1869.9</ele>
        <time>2019-05-01T11:59:01Z</time>
      </trkpt>
      <trkpt lat="45.24625" lon="6.1675">
        <ele>1868</ele>
        <time>2019-05-01T11:59:03Z</time>
      </trkpt>
      <trkpt lat="45.24622" lon="6.16756">
        <ele>1866.3</ele>
        <time>2019-05-01T11:59:08Z</time>
      </trkpt>
      <trkpt lat="45.2462" lon="6.16759">
        <ele>1865.2</ele>
        <time>2019-05-01T11:59:09Z</time>
      </trkpt>
      <trkpt lat="45.24617" lon="6.16762">
        <ele>1863.9</ele>
        <time>2019-05-01T11:59:10Z</time>
      </trkpt>
      <trkpt lat="45.24614" lon="6.16763">
        <ele>1862.8</ele>
        <time>2019-05-01T11:59:11Z</time>
      </trkpt>
      <trkpt lat="45.24613" lon="6.16767">
        <ele>1861.7</ele>
        <time>2019-05-01T11:59:17Z</time>
      </trkpt>
      <trkpt lat="45.24616" lon="6.16771">
        <ele>1860.7</ele>
        <time>2019-05-01T11:59:19Z</time>
      </trkpt>
      <trkpt lat="45.24613" lon="6.16768">
        <ele>1859.7</ele>
        <time>2019-05-01T11:59:41Z</time>
      </trkpt>
      <trkpt lat="45.2461" lon="6.1677">
        <ele>1858.7</ele>
        <time>2019-05-01T11:59:49Z</time>
      </trkpt>
      <trkpt lat="45.24608" lon="6.16773">
        <ele>1857.3</ele>
        <time>2019-05-01T12:00:41Z</time>
      </trkpt>
      <trkpt lat="45.24605" lon="6.16775">
        <ele>1856.3</ele>
        <time>2019-05-01T12:01:04Z</time>
      </trkpt>
      <trkpt lat="45.24604" lon="6.16778">
        <ele>1855.3</ele>
        <time>2019-05-01T12:01:27Z</time>
      </trkpt>
      <trkpt lat="45.24601" lon="6.16778">
        <ele>1854.2</ele>
        <time>2019-05-01T12:03:13Z</time>
      </trkpt>
      <trkpt lat="45.24599" lon="6.1678">
        <ele>1853.2</ele>
        <time>2019-05-01T12:03:14Z</time>
      </trkpt>
      <trkpt lat="45.24594" lon="6.16785">
        <ele>1851.2</ele>
        <time>2019-05-01T12:03:16Z</time>
      </trkpt>
      <trkpt lat="45.24592" lon="6.16789">
        <ele>1849.4</ele>
        <time>2019-05-01T12:03:18Z</time>
      </trkpt>
      <trkpt lat="45.2459" lon="6.16793">
        <ele>1848.1</ele>
        <time>2019-05-01T12:03:21Z</time>
      </trkpt>
      <trkpt lat="45.24594" lon="6.16796">
        <ele>1846.6</ele>
        <time>2019-05-01T12:03:23Z</time>
      </trkpt>
      <trkpt lat="45.24596" lon="6.168">
        <ele>1845.3</ele>
        <time>2019-05-01T12:03:25Z</time>
      </trkpt>
      <trkpt lat="45.24593" lon="6.16805">
        <ele>1843.9</ele>
        <time>2019-05-01T12:03:27Z</time>
      </trkpt>
      <trkpt lat="45.24589" lon="6.16809">
        <ele>1842.2</ele>
        <time>2019-05-01T12:03:29Z</time>
      </trkpt>
      <trkpt lat="45.24586" lon="6.16813">
        <ele>1841</ele>
        <time>2019-05-01T12:03:30Z</time>
      </trkpt>
      <trkpt lat="45.24583" lon="6.16816">
        <ele>1839.6</ele>
        <time>2019-05-01T12:03:32Z</time>
      </trkpt>
      <trkpt lat="45.2458" lon="6.16822">
        <ele>1837.9</ele>
        <time>2019-05-01T12:03:37Z</time>
      </trkpt>
      <trkpt lat="45.24579" lon="6.16824">
        <ele>1837.2</ele>
        <time>2019-05-01T12:03:38Z</time>
      </trkpt>
      <trkpt lat="45.24578" lon="6.16829">
        <ele>1836.1</ele>
        <time>2019-05-01T12:03:40Z</time>
      </trkpt>
      <trkpt lat="45.24576" lon="6.16835">
        <ele>1834.8</ele>
        <time>2019-05-01T12:05:53Z</time>
      </trkpt>
      <trkpt lat="45.24573" lon="6.16836">
        <ele>1833.7</ele>
        <time>2019-05-01T12:05:57Z</time>
      </trkpt>
      <trkpt lat="45.24569" lon="6.16835">
        <ele>1832.5</ele>
        <time>2019-05-01T12:05:59Z</time>
      </trkpt>
      <trkpt lat="45.24566" lon="6.16836">
        <ele>1831.7</ele>
        <time>2019-05-01T12:06:01Z</time>
      </trkpt>
      <trkpt lat="45.24564" lon="6.16832">
        <ele>1831</ele>
        <time>2019-05-01T12:06:06Z</time>
      </trkpt>
      <trkpt lat="45.24561" lon="6.16834">
        <ele>1830.2</ele>
        <time>2019-05-01T12:06:26Z</time>
      </trkpt>
      <trkpt lat="45.24559" lon="6.16836">
        <ele>1829.5</ele>
        <time>2019-05-01T12:06:35Z</time>
      </trkpt>
      <trkpt lat="45.24556" lon="6.16839">
        <ele>1828.3</ele>
        <time>2019-05-01T12:06:39Z</time>
      </trkpt>
      <trkpt lat="45.24554" lon="6.16842">
        <ele>1827</ele>
        <time>2019-05-01T12:06:43Z</time>
      </trkpt>
      <trkpt lat="45.24552" lon="6.16842">
        <ele>1825.9</ele>
        <time>2019-05-01T12:06:52Z</time>
      </trkpt>
      <trkpt lat="45.24549" lon="6.16844">
        <ele>1824.7</ele>
        <time>2019-05-01T12:06:55Z</time>
      </trkpt>
      <trkpt lat="45.24547" lon="6.16846">
        <ele>1824.2</ele>
        <time>2019-05-01T12:06:58Z</time>
      </trkpt>
      <trkpt lat="45.24544" lon="6.16848">
        <ele>1823.6</ele>
        <time>2019-05-01T12:07:02Z</time>
      </trkpt>
      <trkpt lat="45.24541" lon="6.16849">
        <ele>1822.9</ele>
        <time>2019-05-01T12:07:04Z</time>
      </trkpt>
      <trkpt lat="45.24538" lon="6.16848">
        <ele>1822.4</ele>
        <time>2019-05-01T12:07:07Z</time>
      </trkpt>
      <trkpt lat="45.24535" lon="6.1685">
        <ele>1821.7</ele>
        <time>2019-05-01T12:07:22Z</time>
      </trkpt>
      <trkpt lat="45.24533" lon="6.16855">
        <ele>1821</ele>
        <time>2019-05-01T12:07:25Z</time>
      </trkpt>
      <trkpt lat="45.24533" lon="6.16859">
        <ele>1820.4</ele>
        <time>2019-05-01T12:07:28Z</time>
      </trkpt>
      <trkpt lat="45.24532" lon="6.16863">
        <ele>1819.9</ele>
        <time>2019-05-01T12:07:31Z</time>
      </trkpt>
      <trkpt lat="45.24532" lon="6.16867">
        <ele>1819.3</ele>
        <time>2019-05-01T12:07:34Z</time>
      </trkpt>
      <trkpt lat="45.24531" lon="6.16871">
        <ele>1816.8</ele>
        <time>2019-05-01T12:08:43Z</time>
      </trkpt>
      <trkpt lat="45.24531" lon="6.16878">
        <ele>1814.4</ele>
        <time>2019-05-01T12:08:55Z</time>
      </trkpt>
      <trkpt lat="45.24534" lon="6.16878">
        <ele>1811.9</ele>
        <time>2019-05-01T12:10:15Z</time>
      </trkpt>
      <trkpt lat="45.24529" lon="6.16877">
        <ele>1814</ele>
        <time>2019-05-01T12:10:25Z</time>
      </trkpt>
      <trkpt lat="45.24526" lon="6.16876">
        <ele>1813.9</ele>
        <time>2019-05-01T12:10:28Z</time>
      </trkpt>
      <trkpt lat="45.24522" lon="6.16877">
        <ele>1813.9</ele>
        <time>2019-05-01T12:11:52Z</time>
      </trkpt>
      <trkpt lat="45.24517" lon="6.16879">
        <ele>1811.7</ele>
        <time>2019-05-01T12:11:54Z</time>
      </trkpt>
      <trkpt lat="45.24515" lon="6.16886">
        <ele>1809.6</ele>
        <time>2019-05-01T12:11:56Z</time>
      </trkpt>
      <trkpt lat="45.24515" lon="6.16891">
        <ele>1807.4</ele>
        <time>2019-05-01T12:11:57Z</time>
      </trkpt>
      <trkpt lat="45.24514" lon="6.16896">
        <ele>1803.5</ele>
        <time>2019-05-01T12:11:58Z</time>
      </trkpt>
      <trkpt lat="45.24511" lon="6.16899">
        <ele>1803.5</ele>
        <time>2019-05-01T12:11:59Z</time>
      </trkpt>
      <trkpt lat="45.24507" lon="6.16902">
        <ele>1801.7</ele>
        <time>2019-05-01T12:12:00Z</time>
      </trkpt>
      <trkpt lat="45.24504" lon="6.16903">
        <ele>1801.9</ele>
        <time>2019-05-01T12:12:01Z</time>
      </trkpt>
      <trkpt lat="45.24501" lon="6.16905">
        <ele>1800.1</ele>
        <time>2019-05-01T12:12:02Z</time>
      </trkpt>
      <trkpt lat="45.24498" lon="6.16907">
        <ele>1800.1</ele>
        <time>2019-05-01T12:12:03Z</time>
      </trkpt>
      <trkpt lat="45.24498" lon="6.16913">
        <ele>1795.9</ele>
        <time>2019-05-01T12:12:05Z</time>
      </trkpt>
      <trkpt lat="45.24501" lon="6.16916">
        <ele>1795.5</ele>
        <time>2019-05-01T12:12:06Z</time>
      </trkpt>
      <trkpt lat="45.24505" lon="6.16918">
        <ele>1793.2</ele>
        <time>2019-05-01T12:12:07Z</time>
      </trkpt>
      <trkpt lat="45.24508" lon="6.16921">
        <ele>1790.9</ele>
        <time>2019-05-01T12:12:08Z</time>
      </trkpt>
      <trkpt lat="45.24507" lon="6.16926">
        <ele>1788.9</ele>
        <time>2019-05-01T12:12:09Z</time>
      </trkpt>
      <trkpt lat="45.24506" lon="6.16931">
        <ele>1787.3</ele>
        <time>2019-05-01T12:12:10Z</time>
      </trkpt>
      <trkpt lat="45.24503" lon="6.16936">
        <ele>1785.8</ele>
        <time>2019-05-01T12:12:11Z</time>
      </trkpt>
      <trkpt lat="45.24499" lon="6.1694">
        <ele>1784.3</ele>
        <time>2019-05-01T12:12:12Z</time>
      </trkpt>
      <trkpt lat="45.24496" lon="6.16944">
        <ele>1782.9</ele>
        <time>2019-05-01T12:12:13Z</time>
      </trkpt>
      <trkpt lat="45.24498" lon="6.16951">
        <ele>1781.1</ele>
        <time>2019-05-01T12:12:15Z</time>
      </trkpt>
      <trkpt lat="45.24501" lon="6.16954">
        <ele>1779.1</ele>
        <time>2019-05-01T12:12:16Z</time>
      </trkpt>
      <trkpt lat="45.24502" lon="6.16959">
        <ele>1777</ele>
        <time>2019-05-01T12:12:17Z</time>
      </trkpt>
      <trkpt lat="45.24501" lon="6.16964">
        <ele>1774</ele>
        <time>2019-05-01T12:12:18Z</time>
      </trkpt>
      <trkpt lat="45.24498" lon="6.16969">
        <ele>1772.7</ele>
        <time>2019-05-01T12:12:19Z</time>
      </trkpt>
      <trkpt lat="45.24494" lon="6.16977">
        <ele>1770.2</ele>
        <time>2019-05-01T12:12:20Z</time>
      </trkpt>
      <trkpt lat="45.24492" lon="6.16987">
        <ele>1768.2</ele>
        <time>2019-05-01T12:12:21Z</time>
      </trkpt>
      <trkpt lat="45.24488" lon="6.16996">
        <ele>1766.4</ele>
        <time>2019-05-01T12:12:22Z</time>
      </trkpt>
      <trkpt lat="45.24485" lon="6.17003">
        <ele>1764.4</ele>
        <time>2019-05-01T12:12:23Z</time>
      </trkpt>
      <trkpt lat="45.24485" lon="6.17011">
        <ele>1763</ele>
        <time>2019-05-01T12:12:24Z</time>
      </trkpt>
      <trkpt lat="45.24484" lon="6.17019">
        <ele>1760.6</ele>
        <time>2019-05-01T12:12:25Z</time>
      </trkpt>
      <trkpt lat="45.24481" lon="6.17024">
        <ele>1759.9</ele>
        <time>2019-05-01T12:12:26Z</time>
      </trkpt>
      <trkpt lat="45.24478" lon="6.17029">
        <ele>1758</ele>
        <time>2019-05-01T12:12:28Z</time>
      </trkpt>
      <trkpt lat="45.24476" lon="6.17033">
        <ele>1757.2</ele>
        <time>2019-05-01T12:12:29Z</time>
      </trkpt>
      <trkpt lat="45.24474" lon="6.17036">
        <ele>1757.5</ele>
        <time>2019-05-01T12:12:31Z</time>
      </trkpt>
      <trkpt lat="45.2447" lon="6.17033">
        <ele>1757.8</ele>
        <time>2019-05-01T12:12:39Z</time>
      </trkpt>
      <trkpt lat="45.24467" lon="6.17032">
        <ele>1759.2</ele>
        <time>2019-05-01T12:12:41Z</time>
      </trkpt>
      <trkpt lat="45.24467" lon="6.17038">
        <ele>1756.7</ele>
        <time>2019-05-01T12:12:58Z</time>
      </trkpt>
      <trkpt lat="45.24466" lon="6.17042">
        <ele>1755.3</ele>
        <time>2019-05-01T12:13:00Z</time>
      </trkpt>
      <trkpt lat="45.24464" lon="6.17048">
        <ele>1754.3</ele>
        <time>2019-05-01T12:13:02Z</time>
      </trkpt>
      <trkpt lat="45.24466" lon="6.17053">
        <ele>1752.3</ele>
        <time>2019-05-01T12:13:04Z</time>
      </trkpt>
      <trkpt lat="45.2447" lon="6.17053">
        <ele>1751.7</ele>
        <time>2019-05-01T12:13:10Z</time>
      </trkpt>
      <trkpt lat="45.24468" lon="6.17056">
        <ele>1750.6</ele>
        <time>2019-05-01T12:14:17Z</time>
      </trkpt>
      <trkpt lat="45.24472" lon="6.17058">
        <ele>1749.4</ele>
        <time>2019-05-01T12:14:38Z</time>
      </trkpt>
      <trkpt lat="45.24475" lon="6.17061">
        <ele>1747.4</ele>
        <time>2019-05-01T12:14:39Z</time>
      </trkpt>
      <trkpt lat="45.24477" lon="6.17064">
        <ele>1745.4</ele>
        <time>2019-05-01T12:14:40Z</time>
      </trkpt>
      <trkpt lat="45.2448" lon="6.17068">
        <ele>1743.5</ele>
        <time>2019-05-01T12:14:41Z</time>
      </trkpt>
      <trkpt lat="45.24483" lon="6.17072">
        <ele>1741.7</ele>
        <time>2019-05-01T12:14:42Z</time>
      </trkpt>
      <trkpt lat="45.24486" lon="6.17077">
        <ele>1740.4</ele>
        <time>2019-05-01T12:14:43Z</time>
      </trkpt>
      <trkpt lat="45.24488" lon="6.17082">
        <ele>1738.6</ele>
        <time>2019-05-01T12:14:44Z</time>
      </trkpt>
      <trkpt lat="45.24491" lon="6.17087">
        <ele>1736.8</ele>
        <time>2019-05-01T12:14:45Z</time>
      </trkpt>
      <trkpt lat="45.24493" lon="6.17092">
        <ele>1735</ele>
        <time>2019-05-01T12:14:46Z</time>
      </trkpt>
      <trkpt lat="45.24495" lon="6.17097">
        <ele>1733.7</ele>
        <time>2019-05-01T12:14:47Z</time>
      </trkpt>
      <trkpt lat="45.24496" lon="6.17102">
        <ele>1730.8</ele>
        <time>2019-05-01T12:14:48Z</time>
      </trkpt>
      <trkpt lat="45.24498" lon="6.17107">
        <ele>1729.6</ele>
        <time>2019-05-01T12:14:49Z</time>
      </trkpt>
      <trkpt lat="45.245" lon="6.17112">
        <ele>1727.9</ele>
        <time>2019-05-01T12:14:50Z</time>
      </trkpt>
      <trkpt lat="45.24502" lon="6.17117">
        <ele>1726.2</ele>
        <time>2019-05-01T12:14:51Z</time>
      </trkpt>
      <trkpt lat="45.24506" lon="6.17121">
        <ele>1724.4</ele>
        <time>2019-05-01T12:14:52Z</time>
      </trkpt>
      <trkpt lat="45.2451" lon="6.17123">
        <ele>1722.7</ele>
        <time>2019-05-01T12:14:53Z</time>
      </trkpt>
      <trkpt lat="45.24513" lon="6.17122">
        <ele>1723</ele>
        <time>2019-05-01T12:14:54Z</time>
      </trkpt>
      <trkpt lat="45.24512" lon="6.17126">
        <ele>1721.8</ele>
        <time>2019-05-01T12:14:56Z</time>
      </trkpt>
      <trkpt lat="45.24515" lon="6.17125">
        <ele>1721</ele>
        <time>2019-05-01T12:15:14Z</time>
      </trkpt>
      <trkpt lat="45.24514" lon="6.1713">
        <ele>1719.8</ele>
        <time>2019-05-01T12:15:17Z</time>
      </trkpt>
      <trkpt lat="45.24514" lon="6.17136">
        <ele>1717.2</ele>
        <time>2019-05-01T12:15:18Z</time>
      </trkpt>
      <trkpt lat="45.24514" lon="6.17141">
        <ele>1715.8</ele>
        <time>2019-05-01T12:15:19Z</time>
      </trkpt>
      <trkpt lat="45.24516" lon="6.17146">
        <ele>1714.3</ele>
        <time>2019-05-01T12:15:20Z</time>
      </trkpt>
      <trkpt lat="45.24518" lon="6.17151">
        <ele>1712.4</ele>
        <time>2019-05-01T12:15:21Z</time>
      </trkpt>
      <trkpt lat="45.24525" lon="6.17156">
        <ele>1709.5</ele>
        <time>2019-05-01T12:15:22Z</time>
      </trkpt>
      <trkpt lat="45.24523" lon="6.17165">
        <ele>1707.5</ele>
        <time>2019-05-01T12:15:23Z</time>
      </trkpt>
      <trkpt lat="45.24522" lon="6.17172">
        <ele>1705.1</ele>
        <time>2019-05-01T12:15:24Z</time>
      </trkpt>
      <trkpt lat="45.24523" lon="6.17177">
        <ele>1703.7</ele>
        <time>2019-05-01T12:15:25Z</time>
      </trkpt>
      <trkpt lat="45.24513" lon="6.17188">
        <ele>1701.4</ele>
        <time>2019-05-01T12:15:26Z</time>
      </trkpt>
      <trkpt lat="45.24508" lon="6.17194">
        <ele>1700.9</ele>
        <time>2019-05-01T12:15:27Z</time>
      </trkpt>
      <trkpt lat="45.24503" lon="6.17199">
        <ele>1700.5</ele>
        <time>2019-05-01T12:15:28Z</time>
      </trkpt>
      <trkpt lat="45.24499" lon="6.17206">
        <ele>1698.5</ele>
        <time>2019-05-01T12:15:29Z</time>
      </trkpt>
      <trkpt lat="45.24494" lon="6.17211">
        <ele>1698.1</ele>
        <time>2019-05-01T12:15:30Z</time>
      </trkpt>
      <trkpt lat="45.24491" lon="6.17215">
        <ele>1697.3</ele>
        <time>2019-05-01T12:15:31Z</time>
      </trkpt>
      <trkpt lat="45.24488" lon="6.17221">
        <ele>1695.3</ele>
        <time>2019-05-01T12:15:32Z</time>
      </trkpt>
      <trkpt lat="45.24495" lon="6.17227">
        <ele>1692.7</ele>
        <time>2019-05-01T12:15:33Z</time>
      </trkpt>
      <trkpt lat="45.24499" lon="6.1723">
        <ele>1692.1</ele>
        <time>2019-05-01T12:15:34Z</time>
      </trkpt>
      <trkpt lat="45.24496" lon="6.1724">
        <ele>1688.9</ele>
        <time>2019-05-01T12:15:35Z</time>
      </trkpt>
      <trkpt lat="45.24497" lon="6.17247">
        <ele>1686.7</ele>
        <time>2019-05-01T12:15:36Z</time>
      </trkpt>
      <trkpt lat="45.24494" lon="6.17253">
        <ele>1686</ele>
        <time>2019-05-01T12:15:37Z</time>
      </trkpt>
      <trkpt lat="45.24493" lon="6.1726">
        <ele>1683.9</ele>
        <time>2019-05-01T12:15:38Z</time>
      </trkpt>
      <trkpt lat="45.24493" lon="6.17266">
        <ele>1682.7</ele>
        <time>2019-05-01T12:15:39Z</time>
      </trkpt>
      <trkpt lat="45.24491" lon="6.17273">
        <ele>1682</ele>
        <time>2019-05-01T12:15:40Z</time>
      </trkpt>
      <trkpt lat="45.24492" lon="6.17277">
        <ele>1680.8</ele>
        <time>2019-05-01T12:15:41Z</time>
      </trkpt>
      <trkpt lat="45.24497" lon="6.17278">
        <ele>1678.6</ele>
        <time>2019-05-01T12:15:42Z</time>
      </trkpt>
      <trkpt lat="45.24499" lon="6.17281">
        <ele>1677.8</ele>
        <time>2019-05-01T12:15:43Z</time>
      </trkpt>
      <trkpt lat="45.24501" lon="6.17284">
        <ele>1676</ele>
        <time>2019-05-01T12:15:44Z</time>
      </trkpt>
      <trkpt lat="45.24498" lon="6.17294">
        <ele>1674.6</ele>
        <time>2019-05-01T12:15:45Z</time>
      </trkpt>
      <trkpt lat="45.24497" lon="6.17302">
        <ele>1673.5</ele>
        <time>2019-05-01T12:15:46Z</time>
      </trkpt>
      <trkpt lat="45.24493" lon="6.17309">
        <ele>1672.5</ele>
        <time>2019-05-01T12:15:47Z</time>
      </trkpt>
      <trkpt lat="45.24491" lon="6.17315">
        <ele>1672.3</ele>
        <time>2019-05-01T12:15:48Z</time>
      </trkpt>
      <trkpt lat="45.24488" lon="6.17321">
        <ele>1671.3</ele>
        <time>2019-05-01T12:15:49Z</time>
      </trkpt>
      <trkpt lat="45.24487" lon="6.17328">
        <ele>1670.5</ele>
        <time>2019-05-01T12:15:50Z</time>
      </trkpt>
      <trkpt lat="45.24486" lon="6.17336">
        <ele>1669.1</ele>
        <time>2019-05-01T12:15:51Z</time>
      </trkpt>
      <trkpt lat="45.24487" lon="6.17342">
        <ele>1667.9</ele>
        <time>2019-05-01T12:15:52Z</time>
      </trkpt>
      <trkpt lat="45.24487" lon="6.17347">
        <ele>1667.3</ele>
        <time>2019-05-01T12:15:53Z</time>
      </trkpt>
      <trkpt lat="45.24488" lon="6.17352">
        <ele>1666.8</ele>
        <time>2019-05-01T12:15:54Z</time>
      </trkpt>
      <trkpt lat="45.24489" lon="6.17358">
        <ele>1666.3</ele>
        <time>2019-05-01T12:15:55Z</time>
      </trkpt>
      <trkpt lat="45.24489" lon="6.17363">
        <ele>1665.8</ele>
        <time>2019-05-01T12:15:56Z</time>
      </trkpt>
      <trkpt lat="45.24492" lon="6.17363">
        <ele>1664.7</ele>
        <time>2019-05-01T12:15:57Z</time>
      </trkpt>
      <trkpt lat="45.24494" lon="6.17373">
        <ele>1663.5</ele>
        <time>2019-05-01T12:15:59Z</time>
      </trkpt>
      <trkpt lat="45.24497" lon="6.17376">
        <ele>1662.4</ele>
        <time>2019-05-01T12:16:00Z</time>
      </trkpt>
      <trkpt lat="45.245" lon="6.1738">
        <ele>1661.4</ele>
        <time>2019-05-01T12:16:01Z</time>
      </trkpt>
      <trkpt lat="45.24503" lon="6.17386">
        <ele>1660.4</ele>
        <time>2019-05-01T12:16:02Z</time>
      </trkpt>
      <trkpt lat="45.24508" lon="6.17389">
        <ele>1658.6</ele>
        <time>2019-05-01T12:16:03Z</time>
      </trkpt>
      <trkpt lat="45.24513" lon="6.17393">
        <ele>1657.1</ele>
        <time>2019-05-01T12:16:04Z</time>
      </trkpt>
      <trkpt lat="45.24519" lon="6.17396">
        <ele>1656.3</ele>
        <time>2019-05-01T12:16:05Z</time>
      </trkpt>
      <trkpt lat="45.24521" lon="6.17399">
        <ele>1655.5</ele>
        <time>2019-05-01T12:16:06Z</time>
      </trkpt>
      <trkpt lat="45.24524" lon="6.17406">
        <ele>1654.6</ele>
        <time>2019-05-01T12:16:08Z</time>
      </trkpt>
      <trkpt lat="45.24526" lon="6.1741">
        <ele>1653.8</ele>
        <time>2019-05-01T12:16:10Z</time>
      </trkpt>
      <trkpt lat="45.24529" lon="6.17415">
        <ele>1653.1</ele>
        <time>2019-05-01T12:16:12Z</time>
      </trkpt>
      <trkpt lat="45.24533" lon="6.17418">
        <ele>1652.4</ele>
        <time>2019-05-01T12:16:14Z</time>
      </trkpt>
      <trkpt lat="45.24536" lon="6.17422">
        <ele>1651.8</ele>
        <time>2019-05-01T12:16:16Z</time>
      </trkpt>
      <trkpt lat="45.24539" lon="6.17424">
        <ele>1651.4</ele>
        <time>2019-05-01T12:16:17Z</time>
      </trkpt>
      <trkpt lat="45.24542" lon="6.17426">
        <ele>1650.8</ele>
        <time>2019-05-01T12:16:18Z</time>
      </trkpt>
      <trkpt lat="45.24543" lon="6.1743">
        <ele>1650.7</ele>
        <time>2019-05-01T12:16:31Z</time>
      </trkpt>
      <trkpt lat="45.24542" lon="6.17435">
        <ele>1650.7</ele>
        <time>2019-05-01T12:16:45Z</time>
      </trkpt>
      <trkpt lat="45.24549" lon="6.17437">
        <ele>1649.6</ele>
        <time>2019-05-01T12:17:30Z</time>
      </trkpt>
      <trkpt lat="45.24551" lon="6.17439">
        <ele>1648.8</ele>
        <time>2019-05-01T12:17:34Z</time>
      </trkpt>
      <trkpt lat="45.24555" lon="6.17443">
        <ele>1648</ele>
        <time>2019-05-01T12:17:36Z</time>
      </trkpt>
      <trkpt lat="45.24559" lon="6.17445">
        <ele>1646.7</ele>
        <time>2019-05-01T12:17:38Z</time>
      </trkpt>
      <trkpt lat="45.24562" lon="6.17447">
        <ele>1646.1</ele>
        <time>2019-05-01T12:17:39Z</time>
      </trkpt>
      <trkpt lat="45.24566" lon="6.17451">
        <ele>1645.4</ele>
        <time>2019-05-01T12:17:41Z</time>
      </trkpt>
      <trkpt lat="45.24568" lon="6.17457">
        <ele>1644.7</ele>
        <time>2019-05-01T12:17:43Z</time>
      </trkpt>
      <trkpt lat="45.24572" lon="6.17462">
        <ele>1644.2</ele>
        <time>2019-05-01T12:17:45Z</time>
      </trkpt>
      <trkpt lat="45.24575" lon="6.17465">
        <ele>1643.6</ele>
        <time>2019-05-01T12:18:06Z</time>
      </trkpt>
      <trkpt lat="45.24579" lon="6.17467">
        <ele>1643.1</ele>
        <time>2019-05-01T12:18:15Z</time>
      </trkpt>
      <trkpt lat="45.24581" lon="6.17471">
        <ele>1642.6</ele>
        <time>2019-05-01T12:18:22Z</time>
      </trkpt>
      <trkpt lat="45.24583" lon="6.17474">
        <ele>1642</ele>
        <time>2019-05-01T12:18:25Z</time>
      </trkpt>
      <trkpt lat="45.24587" lon="6.17477">
        <ele>1641.5</ele>
        <time>2019-05-01T12:18:28Z</time>
      </trkpt>
      <trkpt lat="45.24592" lon="6.1748">
        <ele>1640.6</ele>
        <time>2019-05-01T12:18:30Z</time>
      </trkpt>
      <trkpt lat="45.24595" lon="6.17482">
        <ele>1640</ele>
        <time>2019-05-01T12:18:31Z</time>
      </trkpt>
      <trkpt lat="45.24598" lon="6.17483">
        <ele>1639.6</ele>
        <time>2019-05-01T12:18:32Z</time>
      </trkpt>
      <trkpt lat="45.24602" lon="6.17485">
        <ele>1639</ele>
        <time>2019-05-01T12:18:33Z</time>
      </trkpt>
      <trkpt lat="45.24606" lon="6.17487">
        <ele>1638.4</ele>
        <time>2019-05-01T12:18:34Z</time>
      </trkpt>
      <trkpt lat="45.24609" lon="6.17488">
        <ele>1637.8</ele>
        <time>2019-05-01T12:18:35Z</time>
      </trkpt>
      <trkpt lat="45.24611" lon="6.1749">
        <ele>1637.1</ele>
        <time>2019-05-01T12:18:36Z</time>
      </trkpt>
      <trkpt lat="45.24614" lon="6.17492">
        <ele>1636.6</ele>
        <time>2019-05-01T12:18:37Z</time>
      </trkpt>
      <trkpt lat="45.24618" lon="6.17494">
        <ele>1635.9</ele>
        <time>2019-05-01T12:18:38Z</time>
      </trkpt>
      <trkpt lat="45.24621" lon="6.17496">
        <ele>1635.2</ele>
        <time>2019-05-01T12:18:39Z</time>
      </trkpt>
      <trkpt lat="45.24627" lon="6.175">
        <ele>1634.5</ele>
        <time>2019-05-01T12:18:50Z</time>
      </trkpt>
      <trkpt lat="45.24628" lon="6.17504">
        <ele>1634.2</ele>
        <time>2019-05-01T12:18:54Z</time>
      </trkpt>
      <trkpt lat="45.2463" lon="6.17508">
        <ele>1634.3</ele>
        <time>2019-05-01T12:19:02Z</time>
      </trkpt>
      <trkpt lat="45.2463" lon="6.17513">
        <ele>1634.4</ele>
        <time>2019-05-01T12:19:06Z</time>
      </trkpt>
      <trkpt lat="45.24631" lon="6.17516">
        <ele>1634.6</ele>
        <time>2019-05-01T12:19:20Z</time>
      </trkpt>
      <trkpt lat="45.24635" lon="6.17525">
        <ele>1634.2</ele>
        <time>2019-05-01T12:19:30Z</time>
      </trkpt>
      <trkpt lat="45.24638" lon="6.17526">
        <ele>1633.5</ele>
        <time>2019-05-01T12:19:32Z</time>
      </trkpt>
      <trkpt lat="45.24641" lon="6.17527">
        <ele>1633.2</ele>
        <time>2019-05-01T12:19:34Z</time>
      </trkpt>
      <trkpt lat="45.24644" lon="6.17529">
        <ele>1632.5</ele>
        <time>2019-05-01T12:19:36Z</time>
      </trkpt>
      <trkpt lat="45.24648" lon="6.17531">
        <ele>1632.3</ele>
        <time>2019-05-01T12:19:38Z</time>
      </trkpt>
      <trkpt lat="45.24651" lon="6.17534">
        <ele>1631.7</ele>
        <time>2019-05-01T12:19:40Z</time>
      </trkpt>
      <trkpt lat="45.24654" lon="6.17535">
        <ele>1631.4</ele>
        <time>2019-05-01T12:19:44Z</time>
      </trkpt>
      <trkpt lat="45.24656" lon="6.17539">
        <ele>1631.5</ele>
        <time>2019-05-01T12:19:47Z</time>
      </trkpt>
      <trkpt lat="45.24659" lon="6.17541">
        <ele>1631.5</ele>
        <time>2019-05-01T12:19:49Z</time>
      </trkpt>
      <trkpt lat="45.24664" lon="6.17542">
        <ele>1631.6</ele>
        <time>2019-05-01T12:19:56Z</time>
      </trkpt>
      <trkpt lat="45.24668" lon="6.17548">
        <ele>1631.7</ele>
        <time>2019-05-01T12:20:05Z</time>
      </trkpt>
      <trkpt lat="45.24671" lon="6.17549">
        <ele>1631.8</ele>
        <time>2019-05-01T12:20:08Z</time>
      </trkpt>
      <trkpt lat="45.24673" lon="6.17552">
        <ele>1631.9</ele>
        <time>2019-05-01T12:20:13Z</time>
      </trkpt>
      <trkpt lat="45.24675" lon="6.17557">
        <ele>1631.9</ele>
        <time>2019-05-01T12:20:16Z</time>
      </trkpt>
      <trkpt lat="45.24677" lon="6.1756">
        <ele>1632</ele>
        <time>2019-05-01T12:20:19Z</time>
      </trkpt>
      <trkpt lat="45.24681" lon="6.17562">
        <ele>1632.2</ele>
        <time>2019-05-01T12:20:22Z</time>
      </trkpt>
      <trkpt lat="45.24685" lon="6.17565">
        <ele>1632.3</ele>
        <time>2019-05-01T12:20:24Z</time>
      </trkpt>
      <trkpt lat="45.24688" lon="6.17568">
        <ele>1632.6</ele>
        <time>2019-05-01T12:20:26Z</time>
      </trkpt>
      <trkpt lat="45.24689" lon="6.17574">
        <ele>1632.8</ele>
        <time>2019-05-01T12:22:17Z</time>
      </trkpt>
      <trkpt lat="45.24691" lon="6.17577">
        <ele>1633</ele>
        <time>2019-05-01T12:22:21Z</time>
      </trkpt>
      <trkpt lat="45.24693" lon="6.17576">
        <ele>1633.1</ele>
        <time>2019-05-01T12:23:16Z</time>
      </trkpt>
      <trkpt lat="45.24696" lon="6.17576">
        <ele>1633.3</ele>
        <time>2019-05-01T12:23:17Z</time>
      </trkpt>
      <trkpt lat="45.247" lon="6.17576">
        <ele>1633.6</ele>
        <time>2019-05-01T12:23:18Z</time>
      </trkpt>
      <trkpt lat="45.24703" lon="6.17577">
        <ele>1633.8</ele>
        <time>2019-05-01T12:23:19Z</time>
      </trkpt>
      <trkpt lat="45.24706" lon="6.17578">
        <ele>1634.1</ele>
        <time>2019-05-01T12:23:20Z</time>
      </trkpt>
      <trkpt lat="45.24709" lon="6.1758">
        <ele>1634.3</ele>
        <time>2019-05-01T12:23:21Z</time>
      </trkpt>
      <trkpt lat="45.24712" lon="6.17581">
        <ele>1634.6</ele>
        <time>2019-05-01T12:23:22Z</time>
      </trkpt>
      <trkpt lat="45.24714" lon="6.17583">
        <ele>1634.8</ele>
        <time>2019-05-01T12:23:23Z</time>
      </trkpt>
      <trkpt lat="45.24718" lon="6.17588">
        <ele>1635.1</ele>
        <time>2019-05-01T12:23:25Z</time>
      </trkpt>
      <trkpt lat="45.24721" lon="6.17592">
        <ele>1635.3</ele>
        <time>2019-05-01T12:23:27Z</time>
      </trkpt>
      <trkpt lat="45.24724" lon="6.17595">
        <ele>1635.5</ele>
        <time>2019-05-01T12:23:29Z</time>
      </trkpt>
      <trkpt lat="45.24729" lon="6.176">
        <ele>1635.8</ele>
        <time>2019-05-01T12:23:31Z</time>
      </trkpt>
      <trkpt lat="45.24731" lon="6.17604">
        <ele>1635.9</ele>
        <time>2019-05-01T12:23:32Z</time>
      </trkpt>
      <trkpt lat="45.24734" lon="6.17607">
        <ele>1636.1</ele>
        <time>2019-05-01T12:23:33Z</time>
      </trkpt>
      <trkpt lat="45.24736" lon="6.17611">
        <ele>1636.2</ele>
        <time>2019-05-01T12:23:34Z</time>
      </trkpt>
      <trkpt lat="45.24738" lon="6.17615">
        <ele>1636.3</ele>
        <time>2019-05-01T12:23:35Z</time>
      </trkpt>
      <trkpt lat="45.2474" lon="6.17619">
        <ele>1636.4</ele>
        <time>2019-05-01T12:23:36Z</time>
      </trkpt>
      <trkpt lat="45.24742" lon="6.17623">
        <ele>1636.4</ele>
        <time>2019-05-01T12:23:37Z</time>
      </trkpt>
      <trkpt lat="45.24745" lon="6.17627">
        <ele>1636.5</ele>
        <time>2019-05-01T12:23:38Z</time>
      </trkpt>
      <trkpt lat="45.24748" lon="6.17631">
        <ele>1636.4</ele>
        <time>2019-05-01T12:23:39Z</time>
      </trkpt>
      <trkpt lat="45.24751" lon="6.17635">
        <ele>1636.4</ele>
        <time>2019-05-01T12:23:40Z</time>
      </trkpt>
      <trkpt lat="45.24753" lon="6.17638">
        <ele>1636.3</ele>
        <time>2019-05-01T12:23:41Z</time>
      </trkpt>
      <trkpt lat="45.24755" lon="6.1764">
        <ele>1636.2</ele>
        <time>2019-05-01T12:23:42Z</time>
      </trkpt>
      <trkpt lat="45.24757" lon="6.17643">
        <ele>1636.1</ele>
        <time>2019-05-01T12:23:43Z</time>
      </trkpt>
      <trkpt lat="45.2476" lon="6.17646">
        <ele>1635.9</ele>
        <time>2019-05-01T12:23:44Z</time>
      </trkpt>
      <trkpt lat="45.24763" lon="6.17648">
        <ele>1635.8</ele>
        <time>2019-05-01T12:23:45Z</time>
      </trkpt>
      <trkpt lat="45.24765" lon="6.17651">
        <ele>1635.5</ele>
        <time>2019-05-01T12:23:46Z</time>
      </trkpt>
      <trkpt lat="45.24768" lon="6.17654">
        <ele>1635.3</ele>
        <time>2019-05-01T12:23:47Z</time>
      </trkpt>
      <trkpt lat="45.2477" lon="6.17657">
        <ele>1635.1</ele>
        <time>2019-05-01T12:23:48Z</time>
      </trkpt>
      <trkpt lat="45.24772" lon="6.1766">
        <ele>1634.9</ele>
        <time>2019-05-01T12:23:49Z</time>
      </trkpt>
      <trkpt lat="45.24775" lon="6.17663">
        <ele>1634.7</ele>
        <time>2019-05-01T12:23:50Z</time>
      </trkpt>
      <trkpt lat="45.24777" lon="6.17666">
        <ele>1634.5</ele>
        <time>2019-05-01T12:23:51Z</time>
      </trkpt>
      <trkpt lat="45.2478" lon="6.17669">
        <ele>1634.2</ele>
        <time>2019-05-01T12:23:52Z</time>
      </trkpt>
      <trkpt lat="45.24782" lon="6.17672">
        <ele>1634</ele>
        <time>2019-05-01T12:23:53Z</time>
      </trkpt>
      <trkpt lat="45.24784" lon="6.17675">
        <ele>1633.7</ele>
        <time>2019-05-01T12:23:54Z</time>
      </trkpt>
      <trkpt lat="45.24786" lon="6.17679">
        <ele>1633.5</ele>
        <time>2019-05-01T12:23:55Z</time>
      </trkpt>
      <trkpt lat="45.24789" lon="6.17682">
        <ele>1633.2</ele>
        <time>2019-05-01T12:23:56Z</time>
      </trkpt>
      <trkpt lat="45.2479" lon="6.17686">
        <ele>1633</ele>
        <time>2019-05-01T12:23:57Z</time>
      </trkpt>
      <trkpt lat="45.24793" lon="6.1769">
        <ele>1632.7</ele>
        <time>2019-05-01T12:23:58Z</time>
      </trkpt>
      <trkpt lat="45.24794" lon="6.17695">
        <ele>1632.4</ele>
        <time>2019-05-01T12:23:59Z</time>
      </trkpt>
      <trkpt lat="45.24796" lon="6.17701">
        <ele>1632</ele>
        <time>2019-05-01T12:24:00Z</time>
      </trkpt>
      <trkpt lat="45.248" lon="6.17707">
        <ele>1631.5</ele>
        <time>2019-05-01T12:24:01Z</time>
      </trkpt>
      <trkpt lat="45.24803" lon="6.17711">
        <ele>1631</ele>
        <time>2019-05-01T12:24:02Z</time>
      </trkpt>
      <trkpt lat="45.24806" lon="6.17715">
        <ele>1630.6</ele>
        <time>2019-05-01T12:24:03Z</time>
      </trkpt>
      <trkpt lat="45.24808" lon="6.1772">
        <ele>1630.1</ele>
        <time>2019-05-01T12:24:04Z</time>
      </trkpt>
      <trkpt lat="45.24809" lon="6.17724">
        <ele>1629.7</ele>
        <time>2019-05-01T12:24:05Z</time>
      </trkpt>
      <trkpt lat="45.24812" lon="6.17729">
        <ele>1629.2</ele>
        <time>2019-05-01T12:24:06Z</time>
      </trkpt>
      <trkpt lat="45.24814" lon="6.17734">
        <ele>1628.7</ele>
        <time>2019-05-01T12:24:07Z</time>
      </trkpt>
      <trkpt lat="45.24815" lon="6.17739">
        <ele>1628.2</ele>
        <time>2019-05-01T12:24:08Z</time>
      </trkpt>
      <trkpt lat="45.24817" lon="6.17743">
        <ele>1627.7</ele>
        <time>2019-05-01T12:24:09Z</time>
      </trkpt>
      <trkpt lat="45.24818" lon="6.17747">
        <ele>1627.4</ele>
        <time>2019-05-01T12:24:10Z</time>
      </trkpt>
      <trkpt lat="45.2482" lon="6.17751">
        <ele>1626.9</ele>
        <time>2019-05-01T12:24:11Z</time>
      </trkpt>
      <trkpt lat="45.24822" lon="6.17755">
        <ele>1626.4</ele>
        <time>2019-05-01T12:24:12Z</time>
      </trkpt>
      <trkpt lat="45.24825" lon="6.17759">
        <ele>1625.9</ele>
        <time>2019-05-01T12:24:13Z</time>
      </trkpt>
      <trkpt lat="45.24827" lon="6.17764">
        <ele>1625.4</ele>
        <time>2019-05-01T12:24:14Z</time>
      </trkpt>
      <trkpt lat="45.24829" lon="6.17769">
        <ele>1625</ele>
        <time>2019-05-01T12:24:15Z</time>
      </trkpt>
      <trkpt lat="45.24832" lon="6.17773">
        <ele>1624.6</ele>
        <time>2019-05-01T12:24:16Z</time>
      </trkpt>
      <trkpt lat="45.24835" lon="6.17777">
        <ele>1624.3</ele>
        <time>2019-05-01T12:24:17Z</time>
      </trkpt>
      <trkpt lat="45.24838" lon="6.17781">
        <ele>1624</ele>
        <time>2019-05-01T12:24:18Z</time>
      </trkpt>
      <trkpt lat="45.2484" lon="6.17784">
        <ele>1623.8</ele>
        <time>2019-05-01T12:24:19Z</time>
      </trkpt>
      <trkpt lat="45.24842" lon="6.17787">
        <ele>1623.6</ele>
        <time>2019-05-01T12:24:20Z</time>
      </trkpt>
      <trkpt lat="45.24845" lon="6.17792">
        <ele>1623.4</ele>
        <time>2019-05-01T12:24:22Z</time>
      </trkpt>
      <trkpt lat="45.2485" lon="6.17796">
        <ele>1623.2</ele>
        <time>2019-05-01T12:24:24Z</time>
      </trkpt>
      <trkpt lat="45.24852" lon="6.17799">
        <ele>1623.1</ele>
        <time>2019-05-01T12:24:25Z</time>
      </trkpt>
      <trkpt lat="45.24857" lon="6.17803">
        <ele>1623</ele>
        <time>2019-05-01T12:24:27Z</time>
      </trkpt>
      <trkpt lat="45.2486" lon="6.17806">
        <ele>1623</ele>
        <time>2019-05-01T12:24:28Z</time>
      </trkpt>
      <trkpt lat="45.24862" lon="6.17808">
        <ele>1622.9</ele>
        <time>2019-05-01T12:24:29Z</time>
      </trkpt>
      <trkpt lat="45.24867" lon="6.17811">
        <ele>1622.9</ele>
        <time>2019-05-01T12:24:31Z</time>
      </trkpt>
      <trkpt lat="45.24872" lon="6.17814">
        <ele>1622.9</ele>
        <time>2019-05-01T12:24:33Z</time>
      </trkpt>
      <trkpt lat="45.24876" lon="6.17818">
        <ele>1622.8</ele>
        <time>2019-05-01T12:24:35Z</time>
      </trkpt>
      <trkpt lat="45.24878" lon="6.1782">
        <ele>1622.8</ele>
        <time>2019-05-01T12:24:36Z</time>
      </trkpt>
      <trkpt lat="45.24883" lon="6.17825">
        <ele>1622.6</ele>
        <time>2019-05-01T12:24:38Z</time>
      </trkpt>
      <trkpt lat="45.24887" lon="6.17829">
        <ele>1622.5</ele>
        <time>2019-05-01T12:24:40Z</time>
      </trkpt>
      <trkpt lat="45.24889" lon="6.17831">
        <ele>1622.4</ele>
        <time>2019-05-01T12:24:41Z</time>
      </trkpt>
      <trkpt lat="45.24893" lon="6.17835">
        <ele>1622.1</ele>
        <time>2019-05-01T12:24:43Z</time>
      </trkpt>
      <trkpt lat="45.24896" lon="6.17838">
        <ele>1621.9</ele>
        <time>2019-05-01T12:24:44Z</time>
      </trkpt>
      <trkpt lat="45.24898" lon="6.1784">
        <ele>1621.7</ele>
        <time>2019-05-01T12:24:45Z</time>
      </trkpt>
      <trkpt lat="45.24901" lon="6.17843">
        <ele>1621.5</ele>
        <time>2019-05-01T12:24:46Z</time>
      </trkpt>
      <trkpt lat="45.24904" lon="6.17844">
        <ele>1621.3</ele>
        <time>2019-05-01T12:24:47Z</time>
      </trkpt>
      <trkpt lat="45.24907" lon="6.17846">
        <ele>1621</ele>
        <time>2019-05-01T12:24:48Z</time>
      </trkpt>
      <trkpt lat="45.24911" lon="6.1785">
        <ele>1620.6</ele>
        <time>2019-05-01T12:24:50Z</time>
      </trkpt>
      <trkpt lat="45.24915" lon="6.17853">
        <ele>1620.2</ele>
        <time>2019-05-01T12:24:52Z</time>
      </trkpt>
      <trkpt lat="45.24919" lon="6.17857">
        <ele>1619.8</ele>
        <time>2019-05-01T12:24:54Z</time>
      </trkpt>
      <trkpt lat="45.24923" lon="6.17861">
        <ele>1619.4</ele>
        <time>2019-05-01T12:24:56Z</time>
      </trkpt>
      <trkpt lat="45.24926" lon="6.17863">
        <ele>1619.2</ele>
        <time>2019-05-01T12:24:57Z</time>
      </trkpt>
      <trkpt lat="45.2493" lon="6.17867">
        <ele>1618.8</ele>
        <time>2019-05-01T12:24:59Z</time>
      </trkpt>
      <trkpt lat="45.24932" lon="6.1787">
        <ele>1618.6</ele>
        <time>2019-05-01T12:25:00Z</time>
      </trkpt>
      <trkpt lat="45.24934" lon="6.17872">
        <ele>1618.4</ele>
        <time>2019-05-01T12:25:01Z</time>
      </trkpt>
      <trkpt lat="45.24938" lon="6.17877">
        <ele>1618.1</ele>
        <time>2019-05-01T12:25:03Z</time>
      </trkpt>
      <trkpt lat="45.24941" lon="6.17883">
        <ele>1617.8</ele>
        <time>2019-05-01T12:25:05Z</time>
      </trkpt>
      <trkpt lat="45.24942" lon="6.17889">
        <ele>1617.5</ele>
        <time>2019-05-01T12:25:07Z</time>
      </trkpt>
      <trkpt lat="45.24945" lon="6.17894">
        <ele>1617.2</ele>
        <time>2019-05-01T12:25:09Z</time>
      </trkpt>
      <trkpt lat="45.24948" lon="6.179">
        <ele>1617.5</ele>
        <time>2019-05-01T12:25:11Z</time>
      </trkpt>
      <trkpt lat="45.2495" lon="6.17905">
        <ele>1617.7</ele>
        <time>2019-05-01T12:25:13Z</time>
      </trkpt>
      <trkpt lat="45.24951" lon="6.17909">
        <ele>1617.9</ele>
        <time>2019-05-01T12:25:14Z</time>
      </trkpt>
      <trkpt lat="45.24951" lon="6.17913">
        <ele>1618.1</ele>
        <time>2019-05-01T12:25:15Z</time>
      </trkpt>
      <trkpt lat="45.24951" lon="6.17917">
        <ele>1618.2</ele>
        <time>2019-05-01T12:25:16Z</time>
      </trkpt>
      <trkpt lat="45.24951" lon="6.17921">
        <ele>1618.4</ele>
        <time>2019-05-01T12:25:17Z</time>
      </trkpt>
      <trkpt lat="45.2495" lon="6.17926">
        <ele>1618</ele>
        <time>2019-05-01T12:25:18Z</time>
      </trkpt>
      <trkpt lat="45.2495" lon="6.1793">
        <ele>1617.9</ele>
        <time>2019-05-01T12:25:19Z</time>
      </trkpt>
      <trkpt lat="45.2495" lon="6.17934">
        <ele>1617.7</ele>
        <time>2019-05-01T12:25:20Z</time>
      </trkpt>
      <trkpt lat="45.24952" lon="6.1794">
        <ele>1617.4</ele>
        <time>2019-05-01T12:25:22Z</time>
      </trkpt>
      <trkpt lat="45.24955" lon="6.17947">
        <ele>1617.1</ele>
        <time>2019-05-01T12:25:24Z</time>
      </trkpt>
      <trkpt lat="45.24956" lon="6.1795">
        <ele>1616.9</ele>
        <time>2019-05-01T12:25:25Z</time>
      </trkpt>
      <trkpt lat="45.24958" lon="6.17954">
        <ele>1616.7</ele>
        <time>2019-05-01T12:25:26Z</time>
      </trkpt>
      <trkpt lat="45.2496" lon="6.17957">
        <ele>1616.4</ele>
        <time>2019-05-01T12:25:27Z</time>
      </trkpt>
      <trkpt lat="45.24961" lon="6.1796">
        <ele>1616.2</ele>
        <time>2019-05-01T12:25:28Z</time>
      </trkpt>
      <trkpt lat="45.24962" lon="6.17964">
        <ele>1616.1</ele>
        <time>2019-05-01T12:25:29Z</time>
      </trkpt>
      <trkpt lat="45.24965" lon="6.17969">
        <ele>1615.7</ele>
        <time>2019-05-01T12:25:31Z</time>
      </trkpt>
      <trkpt lat="45.24967" lon="6.17975">
        <ele>1615.5</ele>
        <time>2019-05-01T12:25:33Z</time>
      </trkpt>
      <trkpt lat="45.24969" lon="6.1798">
        <ele>1615.3</ele>
        <time>2019-05-01T12:25:35Z</time>
      </trkpt>
      <trkpt lat="45.24971" lon="6.17985">
        <ele>1615.1</ele>
        <time>2019-05-01T12:25:37Z</time>
      </trkpt>
      <trkpt lat="45.24973" lon="6.17991">
        <ele>1614.8</ele>
        <time>2019-05-01T12:25:39Z</time>
      </trkpt>
      <trkpt lat="45.24975" lon="6.17997">
        <ele>1614.6</ele>
        <time>2019-05-01T12:25:41Z</time>
      </trkpt>
      <trkpt lat="45.24978" lon="6.18003">
        <ele>1614.3</ele>
        <time>2019-05-01T12:25:43Z</time>
      </trkpt>
      <trkpt lat="45.24981" lon="6.18008">
        <ele>1614</ele>
        <time>2019-05-01T12:25:45Z</time>
      </trkpt>
      <trkpt lat="45.24983" lon="6.18012">
        <ele>1613.8</ele>
        <time>2019-05-01T12:25:46Z</time>
      </trkpt>
      <trkpt lat="45.24985" lon="6.18015">
        <ele>1613.5</ele>
        <time>2019-05-01T12:25:47Z</time>
      </trkpt>
      <trkpt lat="45.24987" lon="6.18019">
        <ele>1613.2</ele>
        <time>2019-05-01T12:25:48Z</time>
      </trkpt>
      <trkpt lat="45.24989" lon="6.18022">
        <ele>1613</ele>
        <time>2019-05-01T12:25:49Z</time>
      </trkpt>
      <trkpt lat="45.24992" lon="6.18025">
        <ele>1612.7</ele>
        <time>2019-05-01T12:25:50Z</time>
      </trkpt>
      <trkpt lat="45.24995" lon="6.18027">
        <ele>1612.5</ele>
        <time>2019-05-01T12:25:51Z</time>
      </trkpt>
      <trkpt lat="45.24999" lon="6.18032">
        <ele>1612.2</ele>
        <time>2019-05-01T12:25:53Z</time>
      </trkpt>
      <trkpt lat="45.25002" lon="6.18034">
        <ele>1612</ele>
        <time>2019-05-01T12:25:54Z</time>
      </trkpt>
      <trkpt lat="45.25004" lon="6.18036">
        <ele>1611.8</ele>
        <time>2019-05-01T12:25:55Z</time>
      </trkpt>
      <trkpt lat="45.25007" lon="6.18038">
        <ele>1611.6</ele>
        <time>2019-05-01T12:25:56Z</time>
      </trkpt>
      <trkpt lat="45.25011" lon="6.18041">
        <ele>1611.4</ele>
        <time>2019-05-01T12:25:58Z</time>
      </trkpt>
      <trkpt lat="45.25014" lon="6.18046">
        <ele>1611.1</ele>
        <time>2019-05-01T12:26:00Z</time>
      </trkpt>
      <trkpt lat="45.25018" lon="6.18052">
        <ele>1610.7</ele>
        <time>2019-05-01T12:26:02Z</time>
      </trkpt>
      <trkpt lat="45.2502" lon="6.18055">
        <ele>1610.4</ele>
        <time>2019-05-01T12:26:03Z</time>
      </trkpt>
      <trkpt lat="45.25023" lon="6.18059">
        <ele>1610</ele>
        <time>2019-05-01T12:26:04Z</time>
      </trkpt>
      <trkpt lat="45.25026" lon="6.18063">
        <ele>1609.7</ele>
        <time>2019-05-01T12:26:05Z</time>
      </trkpt>
      <trkpt lat="45.25029" lon="6.18068">
        <ele>1609.4</ele>
        <time>2019-05-01T12:26:06Z</time>
      </trkpt>
      <trkpt lat="45.25032" lon="6.18072">
        <ele>1609</ele>
        <time>2019-05-01T12:26:07Z</time>
      </trkpt>
      <trkpt lat="45.25035" lon="6.18076">
        <ele>1608.7</ele>
        <time>2019-05-01T12:26:08Z</time>
      </trkpt>
      <trkpt lat="45.25038" lon="6.1808">
        <ele>1608.5</ele>
        <time>2019-05-01T12:26:09Z</time>
      </trkpt>
      <trkpt lat="45.25041" lon="6.18084">
        <ele>1608.3</ele>
        <time>2019-05-01T12:26:10Z</time>
      </trkpt>
      <trkpt lat="45.25044" lon="6.18087">
        <ele>1608</ele>
        <time>2019-05-01T12:26:11Z</time>
      </trkpt>
      <trkpt lat="45.25046" lon="6.18091">
        <ele>1607.8</ele>
        <time>2019-05-01T12:26:12Z</time>
      </trkpt>
      <trkpt lat="45.25048" lon="6.18095">
        <ele>1607.7</ele>
        <time>2019-05-01T12:26:13Z</time>
      </trkpt>
      <trkpt lat="45.2505" lon="6.18098">
        <ele>1607.5</ele>
        <time>2019-05-01T12:26:14Z</time>
      </trkpt>
      <trkpt lat="45.25052" lon="6.18102">
        <ele>1607.3</ele>
        <time>2019-05-01T12:26:15Z</time>
      </trkpt>
      <trkpt lat="45.25054" lon="6.18106">
        <ele>1607</ele>
        <time>2019-05-01T12:26:16Z</time>
      </trkpt>
      <trkpt lat="45.25056" lon="6.18109">
        <ele>1606.7</ele>
        <time>2019-05-01T12:26:17Z</time>
      </trkpt>
      <trkpt lat="45.25058" lon="6.18113">
        <ele>1606.5</ele>
        <time>2019-05-01T12:26:18Z</time>
      </trkpt>
      <trkpt lat="45.2506" lon="6.18117">
        <ele>1606.2</ele>
        <time>2019-05-01T12:26:19Z</time>
      </trkpt>
      <trkpt lat="45.25062" lon="6.1812">
        <ele>1605.9</ele>
        <time>2019-05-01T12:26:20Z</time>
      </trkpt>
      <trkpt lat="45.25065" lon="6.18123">
        <ele>1605.7</ele>
        <time>2019-05-01T12:26:21Z</time>
      </trkpt>
      <trkpt lat="45.25067" lon="6.18126">
        <ele>1605.5</ele>
        <time>2019-05-01T12:26:22Z</time>
      </trkpt>
      <trkpt lat="45.25068" lon="6.18129">
        <ele>1605.3</ele>
        <time>2019-05-01T12:26:23Z</time>
      </trkpt>
      <trkpt lat="45.2507" lon="6.18136">
        <ele>1605</ele>
        <time>2019-05-01T12:26:25Z</time>
      </trkpt>
      <trkpt lat="45.25071" lon="6.1814">
        <ele>1604.8</ele>
        <time>2019-05-01T12:26:26Z</time>
      </trkpt>
      <trkpt lat="45.25073" lon="6.18147">
        <ele>1604.5</ele>
        <time>2019-05-01T12:26:28Z</time>
      </trkpt>
      <trkpt lat="45.25076" lon="6.18154">
        <ele>1604.2</ele>
        <time>2019-05-01T12:26:30Z</time>
      </trkpt>
      <trkpt lat="45.25077" lon="6.18157">
        <ele>1604</ele>
        <time>2019-05-01T12:26:31Z</time>
      </trkpt>
      <trkpt lat="45.25079" lon="6.1816">
        <ele>1603.7</ele>
        <time>2019-05-01T12:26:32Z</time>
      </trkpt>
      <trkpt lat="45.25081" lon="6.18163">
        <ele>1603.4</ele>
        <time>2019-05-01T12:26:33Z</time>
      </trkpt>
      <trkpt lat="45.25084" lon="6.18166">
        <ele>1603.1</ele>
        <time>2019-05-01T12:26:34Z</time>
      </trkpt>
      <trkpt lat="45.25087" lon="6.18168">
        <ele>1602.9</ele>
        <time>2019-05-01T12:26:35Z</time>
      </trkpt>
      <trkpt lat="45.25091" lon="6.1817">
        <ele>1602.4</ele>
        <time>2019-05-01T12:26:37Z</time>
      </trkpt>
      <trkpt lat="45.25095" lon="6.18172">
        <ele>1602.1</ele>
        <time>2019-05-01T12:26:39Z</time>
      </trkpt>
      <trkpt lat="45.251" lon="6.18174">
        <ele>1601.6</ele>
        <time>2019-05-01T12:26:41Z</time>
      </trkpt>
      <trkpt lat="45.25105" lon="6.18175">
        <ele>1601.3</ele>
        <time>2019-05-01T12:26:43Z</time>
      </trkpt>
      <trkpt lat="45.25109" lon="6.18175">
        <ele>1601</ele>
        <time>2019-05-01T12:26:45Z</time>
      </trkpt>
      <trkpt lat="45.25111" lon="6.18176">
        <ele>1600.7</ele>
        <time>2019-05-01T12:26:47Z</time>
      </trkpt>
      <trkpt lat="45.25115" lon="6.18177">
        <ele>1600.4</ele>
        <time>2019-05-01T12:26:49Z</time>
      </trkpt>
      <trkpt lat="45.25119" lon="6.1818">
        <ele>1600.1</ele>
        <time>2019-05-01T12:26:51Z</time>
      </trkpt>
      <trkpt lat="45.25122" lon="6.18182">
        <ele>1599.9</ele>
        <time>2019-05-01T12:26:53Z</time>
      </trkpt>
      <trkpt lat="45.25125" lon="6.18184">
        <ele>1599.7</ele>
        <time>2019-05-01T12:26:55Z</time>
      </trkpt>
      <trkpt lat="45.25129" lon="6.18187">
        <ele>1599.5</ele>
        <time>2019-05-01T12:26:57Z</time>
      </trkpt>
      <trkpt lat="45.25131" lon="6.1819">
        <ele>1599.3</ele>
        <time>2019-05-01T12:26:59Z</time>
      </trkpt>
      <trkpt lat="45.25134" lon="6.18194">
        <ele>1599.1</ele>
        <time>2019-05-01T12:27:01Z</time>
      </trkpt>
      <trkpt lat="45.25137" lon="6.18197">
        <ele>1598.9</ele>
        <time>2019-05-01T12:27:03Z</time>
      </trkpt>
      <trkpt lat="45.25139" lon="6.18201">
        <ele>1598.7</ele>
        <time>2019-05-01T12:27:06Z</time>
      </trkpt>
      <trkpt lat="45.25142" lon="6.18201">
        <ele>1598.3</ele>
        <time>2019-05-01T12:30:05Z</time>
      </trkpt>
      <trkpt lat="45.25145" lon="6.18203">
        <ele>1597.8</ele>
        <time>2019-05-01T12:31:05Z</time>
      </trkpt>
      <trkpt lat="45.25148" lon="6.18204">
        <ele>1597.3</ele>
        <time>2019-05-01T12:31:09Z</time>
      </trkpt>
      <trkpt lat="45.25152" lon="6.18207">
        <ele>1596.7</ele>
        <time>2019-05-01T12:31:12Z</time>
      </trkpt>
      <trkpt lat="45.25155" lon="6.18209">
        <ele>1596.3</ele>
        <time>2019-05-01T12:31:14Z</time>
      </trkpt>
      <trkpt lat="45.25158" lon="6.18213">
        <ele>1596.1</ele>
        <time>2019-05-01T12:31:17Z</time>
      </trkpt>
      <trkpt lat="45.25161" lon="6.18215">
        <ele>1596</ele>
        <time>2019-05-01T12:31:20Z</time>
      </trkpt>
      <trkpt lat="45.25164" lon="6.18216">
        <ele>1595.9</ele>
        <time>2019-05-01T12:31:24Z</time>
      </trkpt>
      <trkpt lat="45.25167" lon="6.18217">
        <ele>1595.8</ele>
        <time>2019-05-01T12:31:28Z</time>
      </trkpt>
      <trkpt lat="45.2517" lon="6.18219">
        <ele>1595.7</ele>
        <time>2019-05-01T12:31:32Z</time>
      </trkpt>
      <trkpt lat="45.25172" lon="6.18221">
        <ele>1595.6</ele>
        <time>2019-05-01T12:31:34Z</time>
      </trkpt>
      <trkpt lat="45.25175" lon="6.18224">
        <ele>1595.5</ele>
        <time>2019-05-01T12:31:38Z</time>
      </trkpt>
      <trkpt lat="45.25178" lon="6.18228">
        <ele>1595.4</ele>
        <time>2019-05-01T12:31:41Z</time>
      </trkpt>
      <trkpt lat="45.25182" lon="6.18231">
        <ele>1595.3</ele>
        <time>2019-05-01T12:31:43Z</time>
      </trkpt>
      <trkpt lat="45.25186" lon="6.18234">
        <ele>1595.2</ele>
        <time>2019-05-01T12:31:45Z</time>
      </trkpt>
      <trkpt lat="45.25187" lon="6.18237">
        <ele>1595.1</ele>
        <time>2019-05-01T12:31:49Z</time>
      </trkpt>
      <trkpt lat="45.25188" lon="6.18241">
        <ele>1595.1</ele>
        <time>2019-05-01T12:31:52Z</time>
      </trkpt>
      <trkpt lat="45.25189" lon="6.18246">
        <ele>1595</ele>
        <time>2019-05-01T12:31:55Z</time>
      </trkpt>
      <trkpt lat="45.2519" lon="6.1825">
        <ele>1594.9</ele>
        <time>2019-05-01T12:31:58Z</time>
      </trkpt>
      <trkpt lat="45.25192" lon="6.18254">
        <ele>1594.9</ele>
        <time>2019-05-01T12:32:01Z</time>
      </trkpt>
      <trkpt lat="45.25194" lon="6.18257">
        <ele>1594.8</ele>
        <time>2019-05-01T12:32:03Z</time>
      </trkpt>
      <trkpt lat="45.25194" lon="6.18264">
        <ele>1594.7</ele>
        <time>2019-05-01T12:32:05Z</time>
      </trkpt>
      <trkpt lat="45.25193" lon="6.18268">
        <ele>1594.7</ele>
        <time>2019-05-01T12:32:07Z</time>
      </trkpt>
      <trkpt lat="45.2519" lon="6.18273">
        <ele>1594.6</ele>
        <time>2019-05-01T12:32:14Z</time>
      </trkpt>
      <trkpt lat="45.25191" lon="6.18278">
        <ele>1594.5</ele>
        <time>2019-05-01T12:32:16Z</time>
      </trkpt>
      <trkpt lat="45.25194" lon="6.18283">
        <ele>1594.5</ele>
        <time>2019-05-01T12:32:19Z</time>
      </trkpt>
      <trkpt lat="45.25196" lon="6.18287">
        <ele>1594.4</ele>
        <time>2019-05-01T12:32:21Z</time>
      </trkpt>
      <trkpt lat="45.25198" lon="6.18291">
        <ele>1594.3</ele>
        <time>2019-05-01T12:32:23Z</time>
      </trkpt>
      <trkpt lat="45.25199" lon="6.18295">
        <ele>1594.3</ele>
        <time>2019-05-01T12:32:25Z</time>
      </trkpt>
      <trkpt lat="45.25202" lon="6.18297">
        <ele>1594.2</ele>
        <time>2019-05-01T12:32:30Z</time>
      </trkpt>
      <trkpt lat="45.25203" lon="6.18301">
        <ele>1594.2</ele>
        <time>2019-05-01T12:32:37Z</time>
      </trkpt>
      <trkpt lat="45.25206" lon="6.18305">
        <ele>1594.1</ele>
        <time>2019-05-01T12:32:41Z</time>
      </trkpt>
      <trkpt lat="45.25208" lon="6.18308">
        <ele>1594.1</ele>
        <time>2019-05-01T12:32:43Z</time>
      </trkpt>
      <trkpt lat="45.25209" lon="6.18311">
        <ele>1594</ele>
        <time>2019-05-01T12:32:45Z</time>
      </trkpt>
      <trkpt lat="45.25211" lon="6.18314">
        <ele>1593.9</ele>
        <time>2019-05-01T12:32:47Z</time>
      </trkpt>
      <trkpt lat="45.25215" lon="6.18318">
        <ele>1593.9</ele>
        <time>2019-05-01T12:32:50Z</time>
      </trkpt>
      <trkpt lat="45.25217" lon="6.1832">
        <ele>1593.8</ele>
        <time>2019-05-01T12:32:52Z</time>
      </trkpt>
      <trkpt lat="45.2522" lon="6.18323">
        <ele>1593.7</ele>
        <time>2019-05-01T12:32:54Z</time>
      </trkpt>
      <trkpt lat="45.25223" lon="6.18324">
        <ele>1593.6</ele>
        <time>2019-05-01T12:32:56Z</time>
      </trkpt>
      <trkpt lat="45.25225" lon="6.18329">
        <ele>1593.6</ele>
        <time>2019-05-01T12:32:59Z</time>
      </trkpt>
      <trkpt lat="45.25227" lon="6.18334">
        <ele>1593.5</ele>
        <time>2019-05-01T12:33:01Z</time>
      </trkpt>
      <trkpt lat="45.25228" lon="6.18337">
        <ele>1593.4</ele>
        <time>2019-05-01T12:33:03Z</time>
      </trkpt>
      <trkpt lat="45.25228" lon="6.18342">
        <ele>1593.3</ele>
        <time>2019-05-01T12:33:07Z</time>
      </trkpt>
      <trkpt lat="45.25225" lon="6.18346">
        <ele>1593.2</ele>
        <time>2019-05-01T12:33:09Z</time>
      </trkpt>
      <trkpt lat="45.25223" lon="6.18354">
        <ele>1593.1</ele>
        <time>2019-05-01T12:33:19Z</time>
      </trkpt>
      <trkpt lat="45.25222" lon="6.18358">
        <ele>1593</ele>
        <time>2019-05-01T12:33:21Z</time>
      </trkpt>
      <trkpt lat="45.25225" lon="6.18365">
        <ele>1592.9</ele>
        <time>2019-05-01T12:33:23Z</time>
      </trkpt>
      <trkpt lat="45.25226" lon="6.18368">
        <ele>1592.9</ele>
        <time>2019-05-01T12:33:24Z</time>
      </trkpt>
      <trkpt lat="45.25226" lon="6.18374">
        <ele>1592.8</ele>
        <time>2019-05-01T12:33:26Z</time>
      </trkpt>
      <trkpt lat="45.25228" lon="6.18379">
        <ele>1592.7</ele>
        <time>2019-05-01T12:33:29Z</time>
      </trkpt>
      <trkpt lat="45.25228" lon="6.18384">
        <ele>1592.6</ele>
        <time>2019-05-01T12:33:33Z</time>
      </trkpt>
      <trkpt lat="45.25229" lon="6.18387">
        <ele>1592.6</ele>
        <time>2019-05-01T12:33:37Z</time>
      </trkpt>
      <trkpt lat="45.2523" lon="6.18392">
        <ele>1592.5</ele>
        <time>2019-05-01T12:33:41Z</time>
      </trkpt>
      <trkpt lat="45.25231" lon="6.18398">
        <ele>1592.4</ele>
        <time>2019-05-01T12:33:44Z</time>
      </trkpt>
      <trkpt lat="45.25231" lon="6.18403">
        <ele>1592.4</ele>
        <time>2019-05-01T12:33:47Z</time>
      </trkpt>
      <trkpt lat="45.25232" lon="6.18408">
        <ele>1592.3</ele>
        <time>2019-05-01T12:33:50Z</time>
      </trkpt>
      <trkpt lat="45.25232" lon="6.18412">
        <ele>1592.2</ele>
        <time>2019-05-01T12:33:52Z</time>
      </trkpt>
      <trkpt lat="45.25232" lon="6.18417">
        <ele>1592.2</ele>
        <time>2019-05-01T12:33:54Z</time>
      </trkpt>
      <trkpt lat="45.25232" lon="6.18422">
        <ele>1592.1</ele>
        <time>2019-05-01T12:33:57Z</time>
      </trkpt>
      <trkpt lat="45.25232" lon="6.18426">
        <ele>1592</ele>
        <time>2019-05-01T12:33:59Z</time>
      </trkpt>
      <trkpt lat="45.25232" lon="6.1843">
        <ele>1592</ele>
        <time>2019-05-01T12:34:04Z</time>
      </trkpt>
      <trkpt lat="45.25234" lon="6.18434">
        <ele>1591.9</ele>
        <time>2019-05-01T12:34:06Z</time>
      </trkpt>
      <trkpt lat="45.25235" lon="6.18439">
        <ele>1591.8</ele>
        <time>2019-05-01T12:34:09Z</time>
      </trkpt>
      <trkpt lat="45.25237" lon="6.18444">
        <ele>1591.8</ele>
        <time>2019-05-01T12:34:12Z</time>
      </trkpt>
      <trkpt lat="45.25238" lon="6.18448">
        <ele>1591.7</ele>
        <time>2019-05-01T12:34:16Z</time>
      </trkpt>
      <trkpt lat="45.25238" lon="6.18453">
        <ele>1591.6</ele>
        <time>2019-05-01T12:34:19Z</time>
      </trkpt>
      <trkpt lat="45.25239" lon="6.18458">
        <ele>1591.6</ele>
        <time>2019-05-01T12:34:22Z</time>
      </trkpt>
      <trkpt lat="45.25241" lon="6.18462">
        <ele>1591.5</ele>
        <time>2019-05-01T12:34:25Z</time>
      </trkpt>
      <trkpt lat="45.25242" lon="6.18466">
        <ele>1591.4</ele>
        <time>2019-05-01T12:34:27Z</time>
      </trkpt>
      <trkpt lat="45.25243" lon="6.1847">
        <ele>1591.4</ele>
        <time>2019-05-01T12:34:29Z</time>
      </trkpt>
      <trkpt lat="45.25245" lon="6.18474">
        <ele>1591.3</ele>
        <time>2019-05-01T12:34:31Z</time>
      </trkpt>
      <trkpt lat="45.25246" lon="6.18478">
        <ele>1591.2</ele>
        <time>2019-05-01T12:34:34Z</time>
      </trkpt>
      <trkpt lat="45.25245" lon="6.18482">
        <ele>1591.2</ele>
        <time>2019-05-01T12:34:37Z</time>
      </trkpt>
      <trkpt lat="45.25244" lon="6.18486">
        <ele>1591.1</ele>
        <time>2019-05-01T12:34:41Z</time>
      </trkpt>
      <trkpt lat="45.25244" lon="6.1849">
        <ele>1591</ele>
        <time>2019-05-01T12:34:45Z</time>
      </trkpt>
      <trkpt lat="45.25246" lon="6.18495">
        <ele>1590.9</ele>
        <time>2019-05-01T12:34:49Z</time>
      </trkpt>
      <trkpt lat="45.25245" lon="6.18499">
        <ele>1590.9</ele>
        <time>2019-05-01T12:34:52Z</time>
      </trkpt>
      <trkpt lat="45.25243" lon="6.18504">
        <ele>1590.9</ele>
        <time>2019-05-01T12:34:55Z</time>
      </trkpt>
      <trkpt lat="45.25244" lon="6.18508">
        <ele>1591.2</ele>
        <time>2019-05-01T12:34:58Z</time>
      </trkpt>
      <trkpt lat="45.25241" lon="6.18512">
        <ele>1591.8</ele>
        <time>2019-05-01T12:35:01Z</time>
      </trkpt>
      <trkpt lat="45.25239" lon="6.18516">
        <ele>1592.1</ele>
        <time>2019-05-01T12:35:04Z</time>
      </trkpt>
      <trkpt lat="45.25239" lon="6.1852">
        <ele>1592.4</ele>
        <time>2019-05-01T12:35:07Z</time>
      </trkpt>
      <trkpt lat="45.2524" lon="6.18524">
        <ele>1592.8</ele>
        <time>2019-05-01T12:35:11Z</time>
      </trkpt>
      <trkpt lat="45.25241" lon="6.18528">
        <ele>1593</ele>
        <time>2019-05-01T12:35:13Z</time>
      </trkpt>
      <trkpt lat="45.25242" lon="6.18533">
        <ele>1592.2</ele>
        <time>2019-05-01T12:35:16Z</time>
      </trkpt>
      <trkpt lat="45.25242" lon="6.18537">
        <ele>1591.6</ele>
        <time>2019-05-01T12:35:19Z</time>
      </trkpt>
      <trkpt lat="45.25243" lon="6.18542">
        <ele>1590.9</ele>
        <time>2019-05-01T12:35:23Z</time>
      </trkpt>
      <trkpt lat="45.25245" lon="6.18545">
        <ele>1590.3</ele>
        <time>2019-05-01T12:35:27Z</time>
      </trkpt>
      <trkpt lat="45.25249" lon="6.18546">
        <ele>1589.6</ele>
        <time>2019-05-01T12:35:31Z</time>
      </trkpt>
      <trkpt lat="45.25251" lon="6.18549">
        <ele>1588.9</ele>
        <time>2019-05-01T12:35:35Z</time>
      </trkpt>
      <trkpt lat="45.25254" lon="6.18551">
        <ele>1588.2</ele>
        <time>2019-05-01T12:35:38Z</time>
      </trkpt>
      <trkpt lat="45.25258" lon="6.18554">
        <ele>1587.6</ele>
        <time>2019-05-01T12:35:41Z</time>
      </trkpt>
      <trkpt lat="45.25261" lon="6.18557">
        <ele>1586.9</ele>
        <time>2019-05-01T12:35:43Z</time>
      </trkpt>
      <trkpt lat="45.25264" lon="6.1856">
        <ele>1586.3</ele>
        <time>2019-05-01T12:35:45Z</time>
      </trkpt>
      <trkpt lat="45.25266" lon="6.18563">
        <ele>1585.8</ele>
        <time>2019-05-01T12:35:47Z</time>
      </trkpt>
      <trkpt lat="45.25269" lon="6.18566">
        <ele>1585.3</ele>
        <time>2019-05-01T12:35:50Z</time>
      </trkpt>
      <trkpt lat="45.25273" lon="6.18568">
        <ele>1584.7</ele>
        <time>2019-05-01T12:35:52Z</time>
      </trkpt>
      <trkpt lat="45.25275" lon="6.18571">
        <ele>1584.4</ele>
        <time>2019-05-01T12:35:54Z</time>
      </trkpt>
      <trkpt lat="45.25276" lon="6.18575">
        <ele>1584</ele>
        <time>2019-05-01T12:35:57Z</time>
      </trkpt>
      <trkpt lat="45.25279" lon="6.18576">
        <ele>1583.6</ele>
        <time>2019-05-01T12:36:01Z</time>
      </trkpt>
      <trkpt lat="45.25282" lon="6.18578">
        <ele>1583.1</ele>
        <time>2019-05-01T12:36:04Z</time>
      </trkpt>
      <trkpt lat="45.25286" lon="6.1858">
        <ele>1582.5</ele>
        <time>2019-05-01T12:36:07Z</time>
      </trkpt>
      <trkpt lat="45.25289" lon="6.18582">
        <ele>1582</ele>
        <time>2019-05-01T12:36:10Z</time>
      </trkpt>
      <trkpt lat="45.25293" lon="6.18584">
        <ele>1581.3</ele>
        <time>2019-05-01T12:36:12Z</time>
      </trkpt>
      <trkpt lat="45.25296" lon="6.18586">
        <ele>1580.8</ele>
        <time>2019-05-01T12:36:14Z</time>
      </trkpt>
      <trkpt lat="45.25299" lon="6.18587">
        <ele>1580.4</ele>
        <time>2019-05-01T12:36:16Z</time>
      </trkpt>
      <trkpt lat="45.25302" lon="6.18587">
        <ele>1579.9</ele>
        <time>2019-05-01T12:36:18Z</time>
      </trkpt>
      <trkpt lat="45.25306" lon="6.18588">
        <ele>1579.3</ele>
        <time>2019-05-01T12:36:20Z</time>
      </trkpt>
      <trkpt lat="45.2531" lon="6.1859">
        <ele>1578.5</ele>
        <time>2019-05-01T12:36:22Z</time>
      </trkpt>
      <trkpt lat="45.25314" lon="6.18592">
        <ele>1577.8</ele>
        <time>2019-05-01T12:36:28Z</time>
      </trkpt>
      <trkpt lat="45.25317" lon="6.18593">
        <ele>1577.3</ele>
        <time>2019-05-01T12:36:30Z</time>
      </trkpt>
      <trkpt lat="45.2532" lon="6.18596">
        <ele>1576.6</ele>
        <time>2019-05-01T12:36:33Z</time>
      </trkpt>
      <trkpt lat="45.25321" lon="6.18599">
        <ele>1576.2</ele>
        <time>2019-05-01T12:36:37Z</time>
      </trkpt>
      <trkpt lat="45.25325" lon="6.18601">
        <ele>1575.5</ele>
        <time>2019-05-01T12:36:40Z</time>
      </trkpt>
      <trkpt lat="45.25328" lon="6.18603">
        <ele>1574.8</ele>
        <time>2019-05-01T12:36:42Z</time>
      </trkpt>
      <trkpt lat="45.25332" lon="6.18606">
        <ele>1574.2</ele>
        <time>2019-05-01T12:36:45Z</time>
      </trkpt>
      <trkpt lat="45.25335" lon="6.18607">
        <ele>1573.7</ele>
        <time>2019-05-01T12:36:47Z</time>
      </trkpt>
      <trkpt lat="45.25337" lon="6.18611">
        <ele>1573.2</ele>
        <time>2019-05-01T12:36:54Z</time>
      </trkpt>
      <trkpt lat="45.2534" lon="6.18613">
        <ele>1572.6</ele>
        <time>2019-05-01T12:36:57Z</time>
      </trkpt>
      <trkpt lat="45.25343" lon="6.18615">
        <ele>1572.1</ele>
        <time>2019-05-01T12:37:00Z</time>
      </trkpt>
      <trkpt lat="45.25346" lon="6.18618">
        <ele>1571.6</ele>
        <time>2019-05-01T12:37:03Z</time>
      </trkpt>
      <trkpt lat="45.25348" lon="6.18626">
        <ele>1570.7</ele>
        <time>2019-05-01T12:37:08Z</time>
      </trkpt>
      <trkpt lat="45.25349" lon="6.18631">
        <ele>1570.1</ele>
        <time>2019-05-01T12:37:10Z</time>
      </trkpt>
      <trkpt lat="45.2535" lon="6.18637">
        <ele>1569.5</ele>
        <time>2019-05-01T12:37:12Z</time>
      </trkpt>
      <trkpt lat="45.25351" lon="6.18642">
        <ele>1569</ele>
        <time>2019-05-01T12:37:14Z</time>
      </trkpt>
      <trkpt lat="45.25352" lon="6.18646">
        <ele>1568.6</ele>
        <time>2019-05-01T12:37:16Z</time>
      </trkpt>
      <trkpt lat="45.25352" lon="6.18651">
        <ele>1568</ele>
        <time>2019-05-01T12:37:18Z</time>
      </trkpt>
      <trkpt lat="45.25354" lon="6.18658">
        <ele>1568.3</ele>
        <time>2019-05-01T12:37:27Z</time>
      </trkpt>
      <trkpt lat="45.25354" lon="6.18663">
        <ele>1568.6</ele>
        <time>2019-05-01T12:37:32Z</time>
      </trkpt>
      <trkpt lat="45.25354" lon="6.18667">
        <ele>1568.8</ele>
        <time>2019-05-01T12:37:35Z</time>
      </trkpt>
      <trkpt lat="45.25355" lon="6.18671">
        <ele>1569</ele>
        <time>2019-05-01T12:37:38Z</time>
      </trkpt>
      <trkpt lat="45.25357" lon="6.18675">
        <ele>1569.2</ele>
        <time>2019-05-01T12:37:42Z</time>
      </trkpt>
      <trkpt lat="45.25358" lon="6.18681">
        <ele>1569.3</ele>
        <time>2019-05-01T12:37:45Z</time>
      </trkpt>
      <trkpt lat="45.2536" lon="6.18684">
        <ele>1569.2</ele>
        <time>2019-05-01T12:37:47Z</time>
      </trkpt>
      <trkpt lat="45.25362" lon="6.18687">
        <ele>1569.1</ele>
        <time>2019-05-01T12:37:49Z</time>
      </trkpt>
      <trkpt lat="45.25364" lon="6.18689">
        <ele>1569.1</ele>
        <time>2019-05-01T12:37:51Z</time>
      </trkpt>
      <trkpt lat="45.25365" lon="6.18693">
        <ele>1569</ele>
        <time>2019-05-01T12:37:53Z</time>
      </trkpt>
      <trkpt lat="45.25369" lon="6.18695">
        <ele>1568.9</ele>
        <time>2019-05-01T12:37:55Z</time>
      </trkpt>
      <trkpt lat="45.25372" lon="6.18698">
        <ele>1568.8</ele>
        <time>2019-05-01T12:37:59Z</time>
      </trkpt>
      <trkpt lat="45.25373" lon="6.18702">
        <ele>1568.8</ele>
        <time>2019-05-01T12:38:03Z</time>
      </trkpt>
      <trkpt lat="45.25374" lon="6.18705">
        <ele>1568.7</ele>
        <time>2019-05-01T12:38:08Z</time>
      </trkpt>
      <trkpt lat="45.25377" lon="6.18705">
        <ele>1568.6</ele>
        <time>2019-05-01T12:38:12Z</time>
      </trkpt>
      <trkpt lat="45.25382" lon="6.18706">
        <ele>1568.4</ele>
        <time>2019-05-01T12:38:17Z</time>
      </trkpt>
      <trkpt lat="45.25385" lon="6.18705">
        <ele>1568.3</ele>
        <time>2019-05-01T12:38:19Z</time>
      </trkpt>
      <trkpt lat="45.2539" lon="6.18707">
        <ele>1568.2</ele>
        <time>2019-05-01T12:39:05Z</time>
      </trkpt>
      <trkpt lat="45.25386" lon="6.18709">
        <ele>1568</ele>
        <time>2019-05-01T12:39:36Z</time>
      </trkpt>
    </trkseg>
  </trk>
</gpx>